<?xml version='1.0' encoding='UTF-8'?><gpx version="1.1" creator="JPX - https://github.com/jenetics/jpx" xmlns="http://www.topografix.com/GPX/1/1"><trk><trkseg><trkpt lat="44.008430122739206" lon="8.173930129029253"><ele>12.0</ele><time>2026-03-22T09:00:03.999Z</time></trkpt><trkpt lat="44.0084951609983" lon="8.173784690271454"><ele>12.0</ele><time>2026-03-22T09:00:05.999Z</time></trkpt><trkpt lat="44.00852438720562" lon="8.173701176100993"><ele>12.0</ele><time>2026-03-22T09:00:06.999Z</time></trkpt><trkpt lat="44.008592966396485" lon="8.173585702456386"><ele>12.0</ele><time>2026-03-22T09:00:08.999Z</time></trkpt><trkpt lat="44.00862797340373" lon="8.173497220771159"><ele>12.0</ele><time>2026-03-22T09:00:10.999Z</time></trkpt><trkpt lat="44.008551555600256" lon="8.173328989918234"><ele>12.0</ele><time>2026-03-22T09:00:13.999Z</time></trkpt><trkpt lat="44.00849936895869" lon="8.173274306386844"><ele>12.0</ele><time>2026-03-22T09:00:14.999Z</time></trkpt><trkpt lat="44.00843918884112" lon="8.173215731350988"><ele>12.0</ele><time>2026-03-22T09:00:15.999Z</time></trkpt><trkpt lat="44.008372138341294" lon="8.173131084529501"><ele>12.0</ele><time>2026-03-22T09:00:16.999Z</time></trkpt><trkpt lat="44.00831082556696" lon="8.17305304452646"><ele>12.0</ele><time>2026-03-22T09:00:17.999Z</time></trkpt><trkpt lat="44.00824588992949" lon="8.172973742929383"><ele>12.0</ele><time>2026-03-22T09:00:18.999Z</time></trkpt><trkpt lat="44.00818773965373" lon="8.172905703158316"><ele>11.666666666666666</ele><time>2026-03-22T09:00:19.999Z</time></trkpt><trkpt lat="44.008124475536746" lon="8.172816525569608"><ele>11.333333333333334</ele><time>2026-03-22T09:00:20.999Z</time></trkpt><trkpt lat="44.00806439501293" lon="8.172750624278061"><ele>11.0</ele><time>2026-03-22T09:00:21.999Z</time></trkpt><trkpt lat="44.008009422951005" lon="8.172659009217075"><ele>10.666666666666668</ele><time>2026-03-22T09:00:22.999Z</time></trkpt><trkpt lat="44.007946935037076" lon="8.172583278556933"><ele>10.333333333333334</ele><time>2026-03-22T09:00:23.999Z</time></trkpt><trkpt lat="44.00787938800151" lon="8.172499430622745"><ele>10.0</ele><time>2026-03-22T09:00:24.999Z</time></trkpt><trkpt lat="44.007821270472604" lon="8.172427713379873"><ele>10.0</ele><time>2026-03-22T09:00:25.999Z</time></trkpt><trkpt lat="44.007762036229465" lon="8.172380683988722"><ele>10.0</ele><time>2026-03-22T09:00:26.999Z</time></trkpt><trkpt lat="44.00771357130471" lon="8.172309171280153"><ele>10.0</ele><time>2026-03-22T09:00:27.999Z</time></trkpt><trkpt lat="44.00762078460844" lon="8.172187876834087"><ele>10.0</ele><time>2026-03-22T09:00:29.999Z</time></trkpt><trkpt lat="44.00753790973043" lon="8.172058107816952"><ele>10.0</ele><time>2026-03-22T09:00:31.999Z</time></trkpt><trkpt lat="44.00750334151871" lon="8.171982438642587"><ele>10.166666666666668</ele><time>2026-03-22T09:00:32.999Z</time></trkpt><trkpt lat="44.00745599241096" lon="8.171913111516547"><ele>10.333333333333334</ele><time>2026-03-22T09:00:33.999Z</time></trkpt><trkpt lat="44.007403015869954" lon="8.1718453491538"><ele>10.5</ele><time>2026-03-22T09:00:34.999Z</time></trkpt><trkpt lat="44.00735302736052" lon="8.171775980869775"><ele>10.666666666666666</ele><time>2026-03-22T09:00:35.999Z</time></trkpt><trkpt lat="44.00725669406099" lon="8.171687457788193"><ele>10.833333333333332</ele><time>2026-03-22T09:00:37.999Z</time></trkpt><trkpt lat="44.007193723203144" lon="8.171648769394475"><ele>11.0</ele><time>2026-03-22T09:00:38.999Z</time></trkpt><trkpt lat="44.00712252133217" lon="8.171591001319664"><ele>11.200000000000001</ele><time>2026-03-22T09:00:39.999Z</time></trkpt><trkpt lat="44.00706202780585" lon="8.171477662336471"><ele>11.4</ele><time>2026-03-22T09:00:40.999Z</time></trkpt><trkpt lat="44.00697867585068" lon="8.171379630656167"><ele>11.6</ele><time>2026-03-22T09:00:41.999Z</time></trkpt><trkpt lat="44.006899324800095" lon="8.171286264086147"><ele>11.8</ele><time>2026-03-22T09:00:42.999Z</time></trkpt><trkpt lat="44.006817778259766" lon="8.171190314289712"><ele>12.0</ele><time>2026-03-22T09:00:43.999Z</time></trkpt><trkpt lat="44.00672864862669" lon="8.171085441967444"><ele>11.6</ele><time>2026-03-22T09:00:44.999Z</time></trkpt><trkpt lat="44.006649466444145" lon="8.170990501092255"><ele>11.2</ele><time>2026-03-22T09:00:45.999Z</time></trkpt><trkpt lat="44.00656941431132" lon="8.17089437246433"><ele>10.8</ele><time>2026-03-22T09:00:46.999Z</time></trkpt><trkpt lat="44.00649539186777" lon="8.17080205109585"><ele>10.4</ele><time>2026-03-22T09:00:47.999Z</time></trkpt><trkpt lat="44.00643636498561" lon="8.170727661539503"><ele>10.0</ele><time>2026-03-22T09:00:48.999Z</time></trkpt><trkpt lat="44.006372803233354" lon="8.170647379659338"><ele>9.666666666666668</ele><time>2026-03-22T09:00:49.999Z</time></trkpt><trkpt lat="44.006303889211374" lon="8.170578758812159"><ele>9.333333333333334</ele><time>2026-03-22T09:00:50.999Z</time></trkpt><trkpt lat="44.00623857166079" lon="8.17049981154779"><ele>9.0</ele><time>2026-03-22T09:00:51.999Z</time></trkpt><trkpt lat="44.0061778436602" lon="8.170416812012057"><ele>8.666666666666666</ele><time>2026-03-22T09:00:52.999Z</time></trkpt><trkpt lat="44.00612226013735" lon="8.170343995282598"><ele>8.333333333333332</ele><time>2026-03-22T09:00:53.999Z</time></trkpt><trkpt lat="44.006053704385245" lon="8.170265635069136"><ele>8.0</ele><time>2026-03-22T09:00:54.999Z</time></trkpt><trkpt lat="44.00597841146665" lon="8.170182727465022"><ele>8.0</ele><time>2026-03-22T09:00:55.999Z</time></trkpt><trkpt lat="44.005916705624536" lon="8.170089995906835"><ele>8.0</ele><time>2026-03-22T09:00:56.999Z</time></trkpt><trkpt lat="44.005855047176354" lon="8.170015716131207"><ele>8.0</ele><time>2026-03-22T09:00:57.999Z</time></trkpt><trkpt lat="44.00577432675882" lon="8.169946163592362"><ele>8.0</ele><time>2026-03-22T09:00:58.999Z</time></trkpt><trkpt lat="44.00570786885914" lon="8.169837174710917"><ele>8.0</ele><time>2026-03-22T09:00:59.999Z</time></trkpt><trkpt lat="44.00563940222071" lon="8.169754119560316"><ele>8.166666666666666</ele><time>2026-03-22T09:01:00.999Z</time></trkpt><trkpt lat="44.00558007641519" lon="8.169682149641089"><ele>8.333333333333332</ele><time>2026-03-22T09:01:01.999Z</time></trkpt><trkpt lat="44.005514114509616" lon="8.169601890772269"><ele>8.5</ele><time>2026-03-22T09:01:02.999Z</time></trkpt><trkpt lat="44.00544103722386" lon="8.169513104805935"><ele>8.666666666666666</ele><time>2026-03-22T09:01:03.999Z</time></trkpt><trkpt lat="44.00537071166453" lon="8.169426301381042"><ele>8.833333333333334</ele><time>2026-03-22T09:01:04.999Z</time></trkpt><trkpt lat="44.005302698879994" lon="8.16934188335365"><ele>9.0</ele><time>2026-03-22T09:01:05.999Z</time></trkpt><trkpt lat="44.00523308772074" lon="8.16925519955789"><ele>9.0</ele><time>2026-03-22T09:01:06.999Z</time></trkpt><trkpt lat="44.005158960054004" lon="8.169162430811905"><ele>9.0</ele><time>2026-03-22T09:01:07.999Z</time></trkpt><trkpt lat="44.00508353121883" lon="8.169068033532026"><ele>9.0</ele><time>2026-03-22T09:01:08.999Z</time></trkpt><trkpt lat="44.00499247763394" lon="8.169012793058773"><ele>9.0</ele><time>2026-03-22T09:01:09.999Z</time></trkpt><trkpt lat="44.004925670965946" lon="8.168930074731346"><ele>9.0</ele><time>2026-03-22T09:01:10.999Z</time></trkpt><trkpt lat="44.00485338911586" lon="8.168845719499235"><ele>9.166666666666666</ele><time>2026-03-22T09:01:11.999Z</time></trkpt><trkpt lat="44.00478451679734" lon="8.168751443209002"><ele>9.333333333333334</ele><time>2026-03-22T09:01:12.999Z</time></trkpt><trkpt lat="44.004730816426104" lon="8.168642705639783"><ele>9.5</ele><time>2026-03-22T09:01:13.999Z</time></trkpt><trkpt lat="44.00466783051164" lon="8.168562361562657"><ele>9.666666666666668</ele><time>2026-03-22T09:01:14.999Z</time></trkpt><trkpt lat="44.004609303787674" lon="8.168487934066134"><ele>9.833333333333334</ele><time>2026-03-22T09:01:15.999Z</time></trkpt><trkpt lat="44.00454316642236" lon="8.168404023712123"><ele>10.0</ele><time>2026-03-22T09:01:16.999Z</time></trkpt><trkpt lat="44.0044800103106" lon="8.168324646568447"><ele>10.0</ele><time>2026-03-22T09:01:17.999Z</time></trkpt><trkpt lat="44.00441501071078" lon="8.168242952271198"><ele>10.0</ele><time>2026-03-22T09:01:18.999Z</time></trkpt><trkpt lat="44.00435073178163" lon="8.168162162505432"><ele>10.0</ele><time>2026-03-22T09:01:19.999Z</time></trkpt><trkpt lat="44.00428743272926" lon="8.168087020669157"><ele>10.0</ele><time>2026-03-22T09:01:20.999Z</time></trkpt><trkpt lat="44.00422111917532" lon="8.168014230239423"><ele>10.0</ele><time>2026-03-22T09:01:21.999Z</time></trkpt><trkpt lat="44.00416037033937" lon="8.167947536423224"><ele>10.0</ele><time>2026-03-22T09:01:22.999Z</time></trkpt><trkpt lat="44.00407652320235" lon="8.167909585773481"><ele>10.6</ele><time>2026-03-22T09:01:23.999Z</time></trkpt><trkpt lat="44.00399495796487" lon="8.16785859044702"><ele>11.2</ele><time>2026-03-22T09:01:24.999Z</time></trkpt><trkpt lat="44.00391293607734" lon="8.167806192034703"><ele>11.8</ele><time>2026-03-22T09:01:25.999Z</time></trkpt><trkpt lat="44.00382556110454" lon="8.167750373923177"><ele>12.4</ele><time>2026-03-22T09:01:26.999Z</time></trkpt><trkpt lat="44.00374422927461" lon="8.167698416284706"><ele>13.0</ele><time>2026-03-22T09:01:27.999Z</time></trkpt><trkpt lat="44.00364860190641" lon="8.167661739804322"><ele>13.0</ele><time>2026-03-22T09:01:28.999Z</time></trkpt><trkpt lat="44.003562755168964" lon="8.167578394348054"><ele>13.0</ele><time>2026-03-22T09:01:29.999Z</time></trkpt><trkpt lat="44.003470758551444" lon="8.1675123340723"><ele>13.0</ele><time>2026-03-22T09:01:30.999Z</time></trkpt><trkpt lat="44.00339012321231" lon="8.167453924585528"><ele>13.0</ele><time>2026-03-22T09:01:31.999Z</time></trkpt><trkpt lat="44.00330396847238" lon="8.167390352798394"><ele>13.0</ele><time>2026-03-22T09:01:32.999Z</time></trkpt><trkpt lat="44.003218254395236" lon="8.167326755295871"><ele>12.833333333333332</ele><time>2026-03-22T09:01:33.999Z</time></trkpt><trkpt lat="44.00314411308325" lon="8.167271744483724"><ele>12.666666666666666</ele><time>2026-03-22T09:01:34.999Z</time></trkpt><trkpt lat="44.00307972024293" lon="8.167223967434868"><ele>12.5</ele><time>2026-03-22T09:01:35.999Z</time></trkpt><trkpt lat="44.003019961534804" lon="8.167178939326256"><ele>12.333333333333332</ele><time>2026-03-22T09:01:36.999Z</time></trkpt><trkpt lat="44.00294773475135" lon="8.16712480714611"><ele>12.166666666666666</ele><time>2026-03-22T09:01:37.999Z</time></trkpt><trkpt lat="44.00287053296896" lon="8.1670669464099"><ele>12.0</ele><time>2026-03-22T09:01:38.999Z</time></trkpt><trkpt lat="44.002809308770104" lon="8.167021060419772"><ele>12.0</ele><time>2026-03-22T09:01:39.999Z</time></trkpt><trkpt lat="44.00273988624625" lon="8.166969357686632"><ele>12.0</ele><time>2026-03-22T09:01:40.999Z</time></trkpt><trkpt lat="44.00263928045366" lon="8.166894803427581"><ele>12.0</ele><time>2026-03-22T09:01:42.999Z</time></trkpt><trkpt lat="44.00258937915755" lon="8.166827923920817"><ele>12.0</ele><time>2026-03-22T09:01:44.999Z</time></trkpt><trkpt lat="44.00268408025564" lon="8.16672816653494"><ele>12.0</ele><time>2026-03-22T09:01:46.999Z</time></trkpt><trkpt lat="44.00272512126318" lon="8.166650473589169"><ele>12.0</ele><time>2026-03-22T09:01:47.999Z</time></trkpt><trkpt lat="44.00277131473579" lon="8.16656290980417"><ele>12.0</ele><time>2026-03-22T09:01:48.999Z</time></trkpt><trkpt lat="44.00281735050668" lon="8.166474145862745"><ele>12.0</ele><time>2026-03-22T09:01:49.999Z</time></trkpt><trkpt lat="44.00286884675397" lon="8.16637485434454"><ele>12.0</ele><time>2026-03-22T09:01:50.999Z</time></trkpt><trkpt lat="44.00291209681672" lon="8.166291313315275"><ele>12.0</ele><time>2026-03-22T09:01:51.999Z</time></trkpt><trkpt lat="44.002952941204526" lon="8.166212457487022"><ele>12.0</ele><time>2026-03-22T09:01:52.999Z</time></trkpt><trkpt lat="44.003007457897716" lon="8.166106105832442"><ele>11.8</ele><time>2026-03-22T09:01:53.999Z</time></trkpt><trkpt lat="44.00306068005914" lon="8.166001911393995"><ele>11.6</ele><time>2026-03-22T09:01:54.999Z</time></trkpt><trkpt lat="44.003115346880826" lon="8.165894888766976"><ele>11.4</ele><time>2026-03-22T09:01:55.999Z</time></trkpt><trkpt lat="44.00317130368473" lon="8.16578592668145"><ele>11.200000000000001</ele><time>2026-03-22T09:01:56.999Z</time></trkpt><trkpt lat="44.003239648482506" lon="8.165658991342145"><ele>11.0</ele><time>2026-03-22T09:01:57.999Z</time></trkpt><trkpt lat="44.00330626904439" lon="8.165535258604084"><ele>11.0</ele><time>2026-03-22T09:01:58.999Z</time></trkpt><trkpt lat="44.00336496931892" lon="8.165426235873692"><ele>11.0</ele><time>2026-03-22T09:01:59.999Z</time></trkpt><trkpt lat="44.00341485270444" lon="8.165332884951622"><ele>11.0</ele><time>2026-03-22T09:02:00.999Z</time></trkpt><trkpt lat="44.0034673888149" lon="8.165188538167449"><ele>11.0</ele><time>2026-03-22T09:02:02.999Z</time></trkpt><trkpt lat="44.00347307279744" lon="8.165090269878982"><ele>11.0</ele><time>2026-03-22T09:02:05.999Z</time></trkpt><trkpt lat="44.00333559767899" lon="8.165029281183386"><ele>11.0</ele><time>2026-03-22T09:02:06.999Z</time></trkpt><trkpt lat="44.0032255674591" lon="8.16494195605557"><ele>11.0</ele><time>2026-03-22T09:02:08.999Z</time></trkpt><trkpt lat="44.00315601566234" lon="8.164902755670912"><ele>11.0</ele><time>2026-03-22T09:02:09.999Z</time></trkpt><trkpt lat="44.00305859924431" lon="8.16486311711421"><ele>11.0</ele><time>2026-03-22T09:02:10.999Z</time></trkpt><trkpt lat="44.00296976709068" lon="8.164835256372198"><ele>11.0</ele><time>2026-03-22T09:02:11.999Z</time></trkpt><trkpt lat="44.00289631031006" lon="8.164783280762435"><ele>11.600000000000001</ele><time>2026-03-22T09:02:12.999Z</time></trkpt><trkpt lat="44.00283465806977" lon="8.164713268088878"><ele>12.2</ele><time>2026-03-22T09:02:13.999Z</time></trkpt><trkpt lat="44.00273215720355" lon="8.164630344359013"><ele>12.799999999999999</ele><time>2026-03-22T09:02:15.999Z</time></trkpt><trkpt lat="44.00267789564738" lon="8.164493117401841"><ele>13.399999999999999</ele><time>2026-03-22T09:02:17.999Z</time></trkpt><trkpt lat="44.00265098207115" lon="8.164406296153043"><ele>14.0</ele><time>2026-03-22T09:02:18.999Z</time></trkpt><trkpt lat="44.00262779584446" lon="8.164309951654316"><ele>14.000000000000002</ele><time>2026-03-22T09:02:19.999Z</time></trkpt><trkpt lat="44.00261515206419" lon="8.16421426291757"><ele>14.0</ele><time>2026-03-22T09:02:20.999Z</time></trkpt><trkpt lat="44.00259592129219" lon="8.164098759589397"><ele>14.0</ele><time>2026-03-22T09:02:21.999Z</time></trkpt><trkpt lat="44.002583026007066" lon="8.163985258104285"><ele>14.0</ele><time>2026-03-22T09:02:22.999Z</time></trkpt><trkpt lat="44.002559681378294" lon="8.163863530880262"><ele>14.000000000000002</ele><time>2026-03-22T09:02:23.999Z</time></trkpt><trkpt lat="44.00253429260748" lon="8.163728716253148"><ele>14.0</ele><time>2026-03-22T09:02:24.999Z</time></trkpt><trkpt lat="44.00251199922766" lon="8.163599878108428"><ele>13.833333333333334</ele><time>2026-03-22T09:02:25.999Z</time></trkpt><trkpt lat="44.00248765831433" lon="8.163468091640075"><ele>13.666666666666668</ele><time>2026-03-22T09:02:26.999Z</time></trkpt><trkpt lat="44.00246466166139" lon="8.163357763223717"><ele>13.5</ele><time>2026-03-22T09:02:27.999Z</time></trkpt><trkpt lat="44.00243366709603" lon="8.163250439712014"><ele>13.333333333333332</ele><time>2026-03-22T09:02:28.999Z</time></trkpt><trkpt lat="44.00241748084993" lon="8.163139949014624"><ele>13.166666666666666</ele><time>2026-03-22T09:02:29.999Z</time></trkpt><trkpt lat="44.00242444679846" lon="8.163018731458578"><ele>13.0</ele><time>2026-03-22T09:02:30.999Z</time></trkpt><trkpt lat="44.002431923785934" lon="8.162891886584713"><ele>13.0</ele><time>2026-03-22T09:02:31.999Z</time></trkpt><trkpt lat="44.002443339733574" lon="8.162777757385268"><ele>13.0</ele><time>2026-03-22T09:02:32.999Z</time></trkpt><trkpt lat="44.00244970503283" lon="8.162681632069413"><ele>13.0</ele><time>2026-03-22T09:02:33.999Z</time></trkpt><trkpt lat="44.00243862832692" lon="8.162506856418082"><ele>13.0</ele><time>2026-03-22T09:02:35.999Z</time></trkpt><trkpt lat="44.00237851828104" lon="8.162376455813908"><ele>13.0</ele><time>2026-03-22T09:02:37.999Z</time></trkpt><trkpt lat="44.002276220564" lon="8.162316675937088"><ele>12.999999999999998</ele><time>2026-03-22T09:02:39.999Z</time></trkpt><trkpt lat="44.002205255651866" lon="8.162328146772012"><ele>13.0</ele><time>2026-03-22T09:02:41.999Z</time></trkpt><trkpt lat="44.00214683009856" lon="8.162403079500615"><ele>13.0</ele><time>2026-03-22T09:02:43.999Z</time></trkpt><trkpt lat="44.002096335339154" lon="8.162526848316826"><ele>13.0</ele><time>2026-03-22T09:02:45.999Z</time></trkpt><trkpt lat="44.00205644715348" lon="8.16262277614743"><ele>12.999999999999998</ele><time>2026-03-22T09:02:46.999Z</time></trkpt><trkpt lat="44.00201803165412" lon="8.162716312274894"><ele>13.0</ele><time>2026-03-22T09:02:47.999Z</time></trkpt><trkpt lat="44.00198375517487" lon="8.16281738198436"><ele>12.999999999999998</ele><time>2026-03-22T09:02:48.999Z</time></trkpt><trkpt lat="44.001942167982996" lon="8.162937546952508"><ele>13.0</ele><time>2026-03-22T09:02:49.999Z</time></trkpt><trkpt lat="44.00190390430725" lon="8.163059696403659"><ele>13.0</ele><time>2026-03-22T09:02:50.999Z</time></trkpt><trkpt lat="44.001866465184406" lon="8.163169132007594"><ele>13.0</ele><time>2026-03-22T09:02:51.999Z</time></trkpt><trkpt lat="44.00185424150708" lon="8.163271755233598"><ele>12.999999999999998</ele><time>2026-03-22T09:02:52.999Z</time></trkpt><trkpt lat="44.00182142641761" lon="8.1633963569373"><ele>13.0</ele><time>2026-03-22T09:02:53.999Z</time></trkpt><trkpt lat="44.00179358575012" lon="8.163529575344132"><ele>12.999999999999998</ele><time>2026-03-22T09:02:54.999Z</time></trkpt><trkpt lat="44.001766362431006" lon="8.163652346052668"><ele>13.0</ele><time>2026-03-22T09:02:55.999Z</time></trkpt><trkpt lat="44.00174211750534" lon="8.163765169042142"><ele>13.0</ele><time>2026-03-22T09:02:56.999Z</time></trkpt><trkpt lat="44.001716825436205" lon="8.16388507274135"><ele>13.0</ele><time>2026-03-22T09:02:57.999Z</time></trkpt><trkpt lat="44.001696195789684" lon="8.164007920592336"><ele>12.999999999999998</ele><time>2026-03-22T09:02:58.999Z</time></trkpt><trkpt lat="44.00166873644146" lon="8.164101421354047"><ele>13.0</ele><time>2026-03-22T09:02:59.999Z</time></trkpt><trkpt lat="44.00165450593872" lon="8.164251013763854"><ele>12.999999999999998</ele><time>2026-03-22T09:03:01.999Z</time></trkpt><trkpt lat="44.00166556966226" lon="8.16434404472515"><ele>13.0</ele><time>2026-03-22T09:03:03.999Z</time></trkpt><trkpt lat="44.00152964404694" lon="8.164306846612572"><ele>13.0</ele><time>2026-03-22T09:03:05.999Z</time></trkpt><trkpt lat="44.00146743755042" lon="8.164290067854429"><ele>13.0</ele><time>2026-03-22T09:03:06.999Z</time></trkpt><trkpt lat="44.00139252876033" lon="8.164270810477614"><ele>12.999999999999998</ele><time>2026-03-22T09:03:07.999Z</time></trkpt><trkpt lat="44.00132297445382" lon="8.164252920327296"><ele>13.0</ele><time>2026-03-22T09:03:08.999Z</time></trkpt><trkpt lat="44.001241911004584" lon="8.164246934152574"><ele>13.0</ele><time>2026-03-22T09:03:09.999Z</time></trkpt><trkpt lat="44.00116665566773" lon="8.164203147867566"><ele>13.0</ele><time>2026-03-22T09:03:10.999Z</time></trkpt><trkpt lat="44.00107276253838" lon="8.164171961994697"><ele>13.0</ele><time>2026-03-22T09:03:11.999Z</time></trkpt><trkpt lat="44.0009873380323" lon="8.164134224063886"><ele>13.0</ele><time>2026-03-22T09:03:12.999Z</time></trkpt><trkpt lat="44.00088328268132" lon="8.164078121378198"><ele>13.0</ele><time>2026-03-22T09:03:13.999Z</time></trkpt><trkpt lat="44.000768387808094" lon="8.164018488270173"><ele>14.0</ele><time>2026-03-22T09:03:14.999Z</time></trkpt><trkpt lat="44.00066615536149" lon="8.16394685807324"><ele>15.0</ele><time>2026-03-22T09:03:16Z</time></trkpt><trkpt lat="44.00056640827358" lon="8.163856547625223"><ele>16.0</ele><time>2026-03-22T09:03:17Z</time></trkpt><trkpt lat="44.000468658525776" lon="8.163739834412903"><ele>17.0</ele><time>2026-03-22T09:03:18Z</time></trkpt><trkpt lat="44.00039814646815" lon="8.163624277056647"><ele>17.0</ele><time>2026-03-22T09:03:19Z</time></trkpt><trkpt lat="44.000324600432215" lon="8.163499698330652"><ele>17.0</ele><time>2026-03-22T09:03:20Z</time></trkpt><trkpt lat="44.000243978613256" lon="8.163394991290259"><ele>17.0</ele><time>2026-03-22T09:03:21Z</time></trkpt><trkpt lat="44.00014862010276" lon="8.16330829009692"><ele>17.0</ele><time>2026-03-22T09:03:22Z</time></trkpt><trkpt lat="44.000058563963016" lon="8.163217925094724"><ele>18.333333333333336</ele><time>2026-03-22T09:03:23Z</time></trkpt><trkpt lat="43.99997018625627" lon="8.163141369010654"><ele>19.666666666666668</ele><time>2026-03-22T09:03:24Z</time></trkpt><trkpt lat="43.999896539806095" lon="8.163070085301566"><ele>21.0</ele><time>2026-03-22T09:03:25Z</time></trkpt><trkpt lat="43.99982111804478" lon="8.162994015981983"><ele>22.333333333333336</ele><time>2026-03-22T09:03:26Z</time></trkpt><trkpt lat="43.999755185887004" lon="8.162936311931727"><ele>23.666666666666668</ele><time>2026-03-22T09:03:27Z</time></trkpt><trkpt lat="43.99968970694218" lon="8.162866624542128"><ele>25.0</ele><time>2026-03-22T09:03:28Z</time></trkpt><trkpt lat="43.9996220075709" lon="8.162792299240685"><ele>25.0</ele><time>2026-03-22T09:03:29Z</time></trkpt><trkpt lat="43.99956722323313" lon="8.162675415059637"><ele>25.0</ele><time>2026-03-22T09:03:30Z</time></trkpt><trkpt lat="43.99952522682105" lon="8.162565760252926"><ele>25.0</ele><time>2026-03-22T09:03:31Z</time></trkpt><trkpt lat="43.99948793189313" lon="8.162427559020019"><ele>25.0</ele><time>2026-03-22T09:03:32Z</time></trkpt><trkpt lat="43.99946087232745" lon="8.162315212981145"><ele>25.0</ele><time>2026-03-22T09:03:33Z</time></trkpt><trkpt lat="43.99943336882773" lon="8.162184219207488"><ele>28.8</ele><time>2026-03-22T09:03:34Z</time></trkpt><trkpt lat="43.99940759577286" lon="8.162046709355499"><ele>32.6</ele><time>2026-03-22T09:03:35Z</time></trkpt><trkpt lat="43.99938414946251" lon="8.16189510183089"><ele>36.400000000000006</ele><time>2026-03-22T09:03:36Z</time></trkpt><trkpt lat="43.999361228945084" lon="8.161740350907202"><ele>40.2</ele><time>2026-03-22T09:03:37Z</time></trkpt><trkpt lat="43.99933708530475" lon="8.161589005031095"><ele>44.0</ele><time>2026-03-22T09:03:38Z</time></trkpt><trkpt lat="43.99929149903079" lon="8.161441352928108"><ele>47.6</ele><time>2026-03-22T09:03:39Z</time></trkpt><trkpt lat="43.99926087972462" lon="8.161292377158219"><ele>51.2</ele><time>2026-03-22T09:03:40Z</time></trkpt><trkpt lat="43.99924280102187" lon="8.161135113685686"><ele>54.800000000000004</ele><time>2026-03-22T09:03:41Z</time></trkpt><trkpt lat="43.999216407177144" lon="8.160985610628886"><ele>58.400000000000006</ele><time>2026-03-22T09:03:42Z</time></trkpt><trkpt lat="43.999202252235385" lon="8.160854457205401"><ele>62.0</ele><time>2026-03-22T09:03:43Z</time></trkpt><trkpt lat="43.999194244220746" lon="8.16075916313419"><ele>63.6</ele><time>2026-03-22T09:03:44Z</time></trkpt><trkpt lat="43.99921913707892" lon="8.160633999190507"><ele>65.2</ele><time>2026-03-22T09:03:46Z</time></trkpt><trkpt lat="43.99927352468979" lon="8.160505612271931"><ele>66.8</ele><time>2026-03-22T09:03:48Z</time></trkpt><trkpt lat="43.99931650347422" lon="8.160373344896229"><ele>68.4</ele><time>2026-03-22T09:03:50Z</time></trkpt><trkpt lat="43.99923865978999" lon="8.160234958478016"><ele>70.0</ele><time>2026-03-22T09:03:52Z</time></trkpt><trkpt lat="43.9991671400638" lon="8.160259221338764"><ele>66.83333333333333</ele><time>2026-03-22T09:03:53Z</time></trkpt><trkpt lat="43.999133018558375" lon="8.160339831304892"><ele>63.666666666666664</ele><time>2026-03-22T09:03:54Z</time></trkpt><trkpt lat="43.99906882890747" lon="8.160490857162008"><ele>60.5</ele><time>2026-03-22T09:03:56Z</time></trkpt><trkpt lat="43.99905113298628" lon="8.160583929573827"><ele>57.33333333333333</ele><time>2026-03-22T09:03:57Z</time></trkpt><trkpt lat="43.9990264007368" lon="8.1607055707526"><ele>54.166666666666664</ele><time>2026-03-22T09:03:59Z</time></trkpt><trkpt lat="43.999031257223706" lon="8.16079632986553"><ele>51.0</ele><time>2026-03-22T09:04:00Z</time></trkpt><trkpt lat="43.99903761765093" lon="8.160915196792038"><ele>49.833333333333336</ele><time>2026-03-22T09:04:03Z</time></trkpt><trkpt lat="43.99904236974448" lon="8.161004006307643"><ele>48.666666666666664</ele><time>2026-03-22T09:04:06Z</time></trkpt><trkpt lat="43.999062896771235" lon="8.161115777174189"><ele>47.5</ele><time>2026-03-22T09:04:09Z</time></trkpt><trkpt lat="43.99905101507066" lon="8.161230057555569"><ele>46.33333333333333</ele><time>2026-03-22T09:04:12Z</time></trkpt><trkpt lat="43.99905775563249" lon="8.161346950495856"><ele>45.166666666666664</ele><time>2026-03-22T09:04:15Z</time></trkpt><trkpt lat="43.99904723598902" lon="8.161478229490676"><ele>44.0</ele><time>2026-03-22T09:04:18Z</time></trkpt><trkpt lat="43.99904949481449" lon="8.16158149539236"><ele>44.0</ele><time>2026-03-22T09:04:20Z</time></trkpt><trkpt lat="43.99905460645235" lon="8.16169020720789"><ele>44.0</ele><time>2026-03-22T09:04:22Z</time></trkpt><trkpt lat="43.999017261041004" lon="8.161763471028275"><ele>44.0</ele><time>2026-03-22T09:04:25Z</time></trkpt><trkpt lat="43.99902873304868" lon="8.161655286686203"><ele>44.0</ele><time>2026-03-22T09:04:32Z</time></trkpt><trkpt lat="43.99903320406957" lon="8.161519535344546"><ele>44.0</ele><time>2026-03-22T09:04:33Z</time></trkpt><trkpt lat="43.999034098463916" lon="8.161365388628779"><ele>44.0</ele><time>2026-03-22T09:04:35Z</time></trkpt><trkpt lat="43.998934743737095" lon="8.161215026511837"><ele>44.0</ele><time>2026-03-22T09:04:36Z</time></trkpt><trkpt lat="43.99892462976729" lon="8.161106527235864"><ele>44.0</ele><time>2026-03-22T09:04:37Z</time></trkpt><trkpt lat="43.99891027469709" lon="8.160991508034478"><ele>44.0</ele><time>2026-03-22T09:04:38Z</time></trkpt><trkpt lat="43.99889582585961" lon="8.160891978279464"><ele>44.0</ele><time>2026-03-22T09:04:39Z</time></trkpt><trkpt lat="43.99887855082654" lon="8.160801847093092"><ele>44.0</ele><time>2026-03-22T09:04:40Z</time></trkpt><trkpt lat="43.99883038072413" lon="8.160704233706785"><ele>44.0</ele><time>2026-03-22T09:04:41Z</time></trkpt><trkpt lat="43.998783974357295" lon="8.160618723527495"><ele>45.166666666666664</ele><time>2026-03-22T09:04:42Z</time></trkpt><trkpt lat="43.99871481028922" lon="8.160515818522224"><ele>46.33333333333333</ele><time>2026-03-22T09:04:43Z</time></trkpt><trkpt lat="43.998658161714275" lon="8.160440264553532"><ele>47.5</ele><time>2026-03-22T09:04:44Z</time></trkpt><trkpt lat="43.998598944190455" lon="8.160367294815257"><ele>48.666666666666664</ele><time>2026-03-22T09:04:45Z</time></trkpt><trkpt lat="43.99852069502078" lon="8.160304681073583"><ele>49.833333333333336</ele><time>2026-03-22T09:04:46Z</time></trkpt><trkpt lat="43.99846269160649" lon="8.160236553317954"><ele>51.0</ele><time>2026-03-22T09:04:47Z</time></trkpt><trkpt lat="43.99841843013654" lon="8.16013282679665"><ele>51.0</ele><time>2026-03-22T09:04:48Z</time></trkpt><trkpt lat="43.99838810069335" lon="8.16004674155475"><ele>51.0</ele><time>2026-03-22T09:04:49Z</time></trkpt><trkpt lat="43.99839094968861" lon="8.159903005595917"><ele>51.0</ele><time>2026-03-22T09:04:51Z</time></trkpt><trkpt lat="43.998480232072694" lon="8.15979599280358"><ele>51.0</ele><time>2026-03-22T09:04:53Z</time></trkpt><trkpt lat="43.998550777310506" lon="8.159810344158995"><ele>51.0</ele><time>2026-03-22T09:04:54Z</time></trkpt><trkpt lat="43.99861844311527" lon="8.15983050219941"><ele>51.0</ele><time>2026-03-22T09:04:56Z</time></trkpt><trkpt lat="43.998719110046785" lon="8.15983175889551"><ele>51.0</ele><time>2026-03-22T09:04:59Z</time></trkpt><trkpt lat="43.998794836222494" lon="8.159849558570823"><ele>51.0</ele><time>2026-03-22T09:05:01Z</time></trkpt><trkpt lat="43.99887686750186" lon="8.15986869744504"><ele>51.0</ele><time>2026-03-22T09:05:03Z</time></trkpt><trkpt lat="43.99897613114221" lon="8.15983589218747"><ele>51.0</ele><time>2026-03-22T09:05:05Z</time></trkpt><trkpt lat="43.999054178399774" lon="8.159744895397225"><ele>51.0</ele><time>2026-03-22T09:05:07Z</time></trkpt><trkpt lat="43.99909639256192" lon="8.159630425717397"><ele>55.25</ele><time>2026-03-22T09:05:09Z</time></trkpt><trkpt lat="43.99913696175373" lon="8.159478165455502"><ele>59.5</ele><time>2026-03-22T09:05:11Z</time></trkpt><trkpt lat="43.99916957642229" lon="8.15932060095808"><ele>63.75</ele><time>2026-03-22T09:05:13Z</time></trkpt><trkpt lat="43.99920704972584" lon="8.1591649883916"><ele>68.0</ele><time>2026-03-22T09:05:15Z</time></trkpt><trkpt lat="43.99925086344873" lon="8.159042605995861"><ele>66.4</ele><time>2026-03-22T09:05:17Z</time></trkpt><trkpt lat="43.99929276046659" lon="8.15891812267619"><ele>64.8</ele><time>2026-03-22T09:05:19Z</time></trkpt><trkpt lat="43.99933762749768" lon="8.158781997906978"><ele>63.2</ele><time>2026-03-22T09:05:21Z</time></trkpt><trkpt lat="43.99937253543399" lon="8.158643583937856"><ele>61.6</ele><time>2026-03-22T09:05:23Z</time></trkpt><trkpt lat="43.99942325167336" lon="8.158501519382636"><ele>60.0</ele><time>2026-03-22T09:05:25Z</time></trkpt><trkpt lat="43.99947131019956" lon="8.158354837832348"><ele>60.0</ele><time>2026-03-22T09:05:27Z</time></trkpt><trkpt lat="43.99951293848895" lon="8.15821988210627"><ele>60.0</ele><time>2026-03-22T09:05:29Z</time></trkpt><trkpt lat="43.99946877309171" lon="8.158115739807098"><ele>60.0</ele><time>2026-03-22T09:05:31Z</time></trkpt><trkpt lat="43.99937377734539" lon="8.15810754917243"><ele>60.0</ele><time>2026-03-22T09:05:33Z</time></trkpt><trkpt lat="43.99933832642504" lon="8.158238958909964"><ele>60.0</ele><time>2026-03-22T09:05:36Z</time></trkpt><trkpt lat="43.999271421387405" lon="8.15836357297909"><ele>60.0</ele><time>2026-03-22T09:05:38Z</time></trkpt><trkpt lat="43.99921617157335" lon="8.158535068397114"><ele>60.0</ele><time>2026-03-22T09:05:40Z</time></trkpt><trkpt lat="43.99918809210118" lon="8.158614447037507"><ele>60.0</ele><time>2026-03-22T09:05:41Z</time></trkpt><trkpt lat="43.99914657927828" lon="8.15871308137234"><ele>60.0</ele><time>2026-03-22T09:05:42Z</time></trkpt><trkpt lat="43.99910531994133" lon="8.158820291068757"><ele>60.0</ele><time>2026-03-22T09:05:43Z</time></trkpt><trkpt lat="43.99906716916166" lon="8.15892849648666"><ele>61.333333333333336</ele><time>2026-03-22T09:05:44Z</time></trkpt><trkpt lat="43.999025839900945" lon="8.159047587255268"><ele>62.66666666666667</ele><time>2026-03-22T09:05:45Z</time></trkpt><trkpt lat="43.99897695473909" lon="8.159136282805981"><ele>64.0</ele><time>2026-03-22T09:05:46Z</time></trkpt><trkpt lat="43.99891590825283" lon="8.159221181569325"><ele>65.33333333333334</ele><time>2026-03-22T09:05:47Z</time></trkpt><trkpt lat="43.998837275355335" lon="8.159285512823415"><ele>66.66666666666667</ele><time>2026-03-22T09:05:48Z</time></trkpt><trkpt lat="43.99875687725266" lon="8.159323480830171"><ele>68.0</ele><time>2026-03-22T09:05:49Z</time></trkpt><trkpt lat="43.998666684221476" lon="8.159275874147292"><ele>68.0</ele><time>2026-03-22T09:05:50Z</time></trkpt><trkpt lat="43.9985777370377" lon="8.159256187694211"><ele>68.0</ele><time>2026-03-22T09:05:51Z</time></trkpt><trkpt lat="43.99848688318158" lon="8.159232024040504"><ele>68.0</ele><time>2026-03-22T09:05:52Z</time></trkpt><trkpt lat="43.99839829592733" lon="8.159205286924855"><ele>68.0</ele><time>2026-03-22T09:05:53Z</time></trkpt><trkpt lat="43.998312752627655" lon="8.159173462847907"><ele>68.0</ele><time>2026-03-22T09:05:54Z</time></trkpt><trkpt lat="43.99822585466659" lon="8.159133612737833"><ele>70.4</ele><time>2026-03-22T09:05:55Z</time></trkpt><trkpt lat="43.99814326846273" lon="8.159092780903174"><ele>72.8</ele><time>2026-03-22T09:05:56Z</time></trkpt><trkpt lat="43.99806136751254" lon="8.1590489849453"><ele>75.2</ele><time>2026-03-22T09:05:57Z</time></trkpt><trkpt lat="43.997969114412086" lon="8.159013071558118"><ele>77.6</ele><time>2026-03-22T09:05:58Z</time></trkpt><trkpt lat="43.99788817641359" lon="8.158961695727843"><ele>80.0</ele><time>2026-03-22T09:05:59Z</time></trkpt><trkpt lat="43.997806235294824" lon="8.158904192917836"><ele>83.33333333333334</ele><time>2026-03-22T09:06:00Z</time></trkpt><trkpt lat="43.99772711022752" lon="8.158845525228049"><ele>86.66666666666667</ele><time>2026-03-22T09:06:01Z</time></trkpt><trkpt lat="43.997646547949486" lon="8.158777786583576"><ele>90.0</ele><time>2026-03-22T09:06:02Z</time></trkpt><trkpt lat="43.997563167598074" lon="8.158714875366192"><ele>93.33333333333334</ele><time>2026-03-22T09:06:03Z</time></trkpt><trkpt lat="43.99748513544369" lon="8.158658527448546"><ele>96.66666666666667</ele><time>2026-03-22T09:06:04Z</time></trkpt><trkpt lat="43.9974239336709" lon="8.158622372401847"><ele>100.0</ele><time>2026-03-22T09:06:05Z</time></trkpt><trkpt lat="43.997346165068905" lon="8.158580099601359"><ele>101.2</ele><time>2026-03-22T09:06:06Z</time></trkpt><trkpt lat="43.99723274801883" lon="8.158556433250915"><ele>102.4</ele><time>2026-03-22T09:06:08Z</time></trkpt><trkpt lat="43.99713054609074" lon="8.158573461671399"><ele>103.6</ele><time>2026-03-22T09:06:10Z</time></trkpt><trkpt lat="43.99707167829257" lon="8.158683293376356"><ele>104.8</ele><time>2026-03-22T09:06:12Z</time></trkpt><trkpt lat="43.997113246609516" lon="8.15879856140346"><ele>106.0</ele><time>2026-03-22T09:06:14Z</time></trkpt><trkpt lat="43.9971731021239" lon="8.158873671340235"><ele>106.00000000000001</ele><time>2026-03-22T09:06:18Z</time></trkpt><trkpt lat="43.997155211722095" lon="8.1589847115735"><ele>106.0</ele><time>2026-03-22T09:06:30Z</time></trkpt><trkpt lat="43.99716040485851" lon="8.159126002077814"><ele>106.0</ele><time>2026-03-22T09:06:32Z</time></trkpt><trkpt lat="43.99714848186018" lon="8.159283593456363"><ele>106.0</ele><time>2026-03-22T09:06:34Z</time></trkpt><trkpt lat="43.99714179890175" lon="8.159370755342206"><ele>106.00000000000001</ele><time>2026-03-22T09:06:35Z</time></trkpt><trkpt lat="43.99713744767846" lon="8.15947397780901"><ele>106.0</ele><time>2026-03-22T09:06:36Z</time></trkpt><trkpt lat="43.99713420512569" lon="8.159583202881208"><ele>104.0</ele><time>2026-03-22T09:06:37Z</time></trkpt><trkpt lat="43.99712972298756" lon="8.159694552953042"><ele>102.0</ele><time>2026-03-22T09:06:38Z</time></trkpt><trkpt lat="43.99713650572556" lon="8.159802875929266"><ele>100.0</ele><time>2026-03-22T09:06:39Z</time></trkpt><trkpt lat="43.99714906217375" lon="8.159907489495229"><ele>98.0</ele><time>2026-03-22T09:06:40Z</time></trkpt><trkpt lat="43.99716034531928" lon="8.160008369695179"><ele>96.0</ele><time>2026-03-22T09:06:41Z</time></trkpt><trkpt lat="43.997175670448314" lon="8.160094937743366"><ele>94.0</ele><time>2026-03-22T09:06:42Z</time></trkpt><trkpt lat="43.997198786042915" lon="8.160194031201383"><ele>92.0</ele><time>2026-03-22T09:06:43Z</time></trkpt><trkpt lat="43.99721939045667" lon="8.160298075549422"><ele>92.0</ele><time>2026-03-22T09:06:44Z</time></trkpt><trkpt lat="43.99722722971842" lon="8.160403188144185"><ele>92.0</ele><time>2026-03-22T09:06:45Z</time></trkpt><trkpt lat="43.9971660335241" lon="8.160523930103293"><ele>92.0</ele><time>2026-03-22T09:06:47Z</time></trkpt><trkpt lat="43.99705152585537" lon="8.160495894375291"><ele>92.0</ele><time>2026-03-22T09:06:49Z</time></trkpt><trkpt lat="43.99705209248482" lon="8.160322620778519"><ele>92.0</ele><time>2026-03-22T09:06:51Z</time></trkpt><trkpt lat="43.99703888624082" lon="8.160200124507385"><ele>92.0</ele><time>2026-03-22T09:06:52Z</time></trkpt><trkpt lat="43.99705112176231" lon="8.160091322293512"><ele>92.0</ele><time>2026-03-22T09:06:53Z</time></trkpt><trkpt lat="43.99705282941468" lon="8.15997565156808"><ele>92.0</ele><time>2026-03-22T09:06:54Z</time></trkpt><trkpt lat="43.99703185575191" lon="8.159861016021587"><ele>92.0</ele><time>2026-03-22T09:06:55Z</time></trkpt><trkpt lat="43.99701353975237" lon="8.159723122860804"><ele>92.0</ele><time>2026-03-22T09:06:56Z</time></trkpt><trkpt lat="43.99698851320965" lon="8.159600698191822"><ele>92.0</ele><time>2026-03-22T09:06:57Z</time></trkpt><trkpt lat="43.99696472984369" lon="8.15948399209735"><ele>92.0</ele><time>2026-03-22T09:06:58Z</time></trkpt><trkpt lat="43.996951664509766" lon="8.15937015679465"><ele>92.0</ele><time>2026-03-22T09:06:59Z</time></trkpt><trkpt lat="43.9969246680159" lon="8.159242032336557"><ele>92.0</ele><time>2026-03-22T09:07:01Z</time></trkpt><trkpt lat="43.996902509228526" lon="8.159124004416903"><ele>92.0</ele><time>2026-03-22T09:07:03Z</time></trkpt><trkpt lat="43.99687579349685" lon="8.159016706536406"><ele>92.0</ele><time>2026-03-22T09:07:05Z</time></trkpt><trkpt lat="43.99682688894433" lon="8.158881837025797"><ele>94.0</ele><time>2026-03-22T09:07:07Z</time></trkpt><trkpt lat="43.996759179998364" lon="8.158762661108598"><ele>96.0</ele><time>2026-03-22T09:07:09Z</time></trkpt><trkpt lat="43.996723229680654" lon="8.158690113084683"><ele>98.0</ele><time>2026-03-22T09:07:10Z</time></trkpt><trkpt lat="43.99669041669139" lon="8.158612190047025"><ele>100.0</ele><time>2026-03-22T09:07:11Z</time></trkpt><trkpt lat="43.9966507987017" lon="8.15853426473456"><ele>102.0</ele><time>2026-03-22T09:07:12Z</time></trkpt><trkpt lat="43.996614091418365" lon="8.158455599011115"><ele>104.0</ele><time>2026-03-22T09:07:13Z</time></trkpt><trkpt lat="43.99657264752013" lon="8.158371360660372"><ele>106.0</ele><time>2026-03-22T09:07:14Z</time></trkpt><trkpt lat="43.9965326368273" lon="8.158278824076032"><ele>111.83333333333334</ele><time>2026-03-22T09:07:15Z</time></trkpt><trkpt lat="43.996492765383536" lon="8.158145295251135"><ele>117.66666666666667</ele><time>2026-03-22T09:07:17Z</time></trkpt><trkpt lat="43.99645931446826" lon="8.15802649131124"><ele>123.5</ele><time>2026-03-22T09:07:19Z</time></trkpt><trkpt lat="43.99642405194708" lon="8.157941359099832"><ele>129.33333333333334</ele><time>2026-03-22T09:07:20Z</time></trkpt><trkpt lat="43.996378773401986" lon="8.157827816690455"><ele>135.16666666666666</ele><time>2026-03-22T09:07:22Z</time></trkpt><trkpt lat="43.99629391006001" lon="8.157837764133031"><ele>141.0</ele><time>2026-03-22T09:07:25Z</time></trkpt><trkpt lat="43.99627329010816" lon="8.157942881924763"><ele>141.0</ele><time>2026-03-22T09:07:27Z</time></trkpt><trkpt lat="43.99626237621814" lon="8.158035649888788"><ele>141.0</ele><time>2026-03-22T09:07:28Z</time></trkpt><trkpt lat="43.99629224821208" lon="8.158114865057202"><ele>141.0</ele><time>2026-03-22T09:07:29Z</time></trkpt><trkpt lat="43.99633594598184" lon="8.158253884591721"><ele>141.0</ele><time>2026-03-22T09:07:31Z</time></trkpt><trkpt lat="43.99637844948495" lon="8.1583863903971"><ele>141.0</ele><time>2026-03-22T09:07:33Z</time></trkpt><trkpt lat="43.99642575018863" lon="8.15852762827791"><ele>138.4</ele><time>2026-03-22T09:07:35Z</time></trkpt><trkpt lat="43.99647622579335" lon="8.158680707871012"><ele>135.8</ele><time>2026-03-22T09:07:37Z</time></trkpt><trkpt lat="43.996522747767116" lon="8.158842416182312"><ele>133.20000000000002</ele><time>2026-03-22T09:07:39Z</time></trkpt><trkpt lat="43.996539015508" lon="8.15892762010448"><ele>130.6</ele><time>2026-03-22T09:07:40Z</time></trkpt><trkpt lat="43.99655002650154" lon="8.159091227571064"><ele>128.0</ele><time>2026-03-22T09:07:42Z</time></trkpt><trkpt lat="43.99650297366903" lon="8.159328637007922"><ele>127.60000000000001</ele><time>2026-03-22T09:07:45Z</time></trkpt><trkpt lat="43.99644628132" lon="8.159473659188764"><ele>127.20000000000002</ele><time>2026-03-22T09:07:47Z</time></trkpt><trkpt lat="43.99639116884164" lon="8.15952390760355"><ele>126.8</ele><time>2026-03-22T09:07:48Z</time></trkpt><trkpt lat="43.99628691962154" lon="8.159571124326781"><ele>126.4</ele><time>2026-03-22T09:07:50Z</time></trkpt><trkpt lat="43.99616410308018" lon="8.159518583494215"><ele>126.0</ele><time>2026-03-22T09:07:52Z</time></trkpt><trkpt lat="43.996085472183786" lon="8.159516096576926"><ele>126.0</ele><time>2026-03-22T09:07:53Z</time></trkpt><trkpt lat="43.99601587286937" lon="8.15950200568714"><ele>126.0</ele><time>2026-03-22T09:07:54Z</time></trkpt><trkpt lat="43.99594541066875" lon="8.159508558445273"><ele>126.0</ele><time>2026-03-22T09:07:55Z</time></trkpt><trkpt lat="43.99587634717006" lon="8.159546025906653"><ele>126.0</ele><time>2026-03-22T09:07:56Z</time></trkpt><trkpt lat="43.99581885052294" lon="8.159605722357558"><ele>126.0</ele><time>2026-03-22T09:07:57Z</time></trkpt><trkpt lat="43.995731652513015" lon="8.15973417903658"><ele>126.0</ele><time>2026-03-22T09:07:59Z</time></trkpt><trkpt lat="43.99570003549999" lon="8.159817789381488"><ele>127.66666666666667</ele><time>2026-03-22T09:08:00Z</time></trkpt><trkpt lat="43.995677369395516" lon="8.15989999879"><ele>129.33333333333334</ele><time>2026-03-22T09:08:01Z</time></trkpt><trkpt lat="43.99565473866669" lon="8.159990068645165"><ele>131.0</ele><time>2026-03-22T09:08:02Z</time></trkpt><trkpt lat="43.99562946201898" lon="8.160084801394468"><ele>132.66666666666669</ele><time>2026-03-22T09:08:03Z</time></trkpt><trkpt lat="43.99554275396334" lon="8.160187240504188"><ele>134.33333333333334</ele><time>2026-03-22T09:08:05Z</time></trkpt><trkpt lat="43.99543168892429" lon="8.160155929626539"><ele>136.0</ele><time>2026-03-22T09:08:07Z</time></trkpt><trkpt lat="43.995406736220396" lon="8.160011051357719"><ele>136.0</ele><time>2026-03-22T09:08:09Z</time></trkpt><trkpt lat="43.99542328397006" lon="8.15986921974252"><ele>136.0</ele><time>2026-03-22T09:08:11Z</time></trkpt><trkpt lat="43.99544430614591" lon="8.159785257814702"><ele>136.0</ele><time>2026-03-22T09:08:13Z</time></trkpt><trkpt lat="43.99545403697387" lon="8.159660592609754"><ele>136.0</ele><time>2026-03-22T09:08:15Z</time></trkpt><trkpt lat="43.995497260772375" lon="8.159521226397358"><ele>136.0</ele><time>2026-03-22T09:08:17Z</time></trkpt><trkpt lat="43.9955513029953" lon="8.159413305249556"><ele>134.33333333333334</ele><time>2026-03-22T09:08:19Z</time></trkpt><trkpt lat="43.9956306932363" lon="8.159405478074328"><ele>132.66666666666669</ele><time>2026-03-22T09:08:20Z</time></trkpt><trkpt lat="43.99571870798517" lon="8.159331032005776"><ele>131.0</ele><time>2026-03-22T09:08:22Z</time></trkpt><trkpt lat="43.99580687310167" lon="8.159274849194741"><ele>129.33333333333334</ele><time>2026-03-22T09:08:24Z</time></trkpt><trkpt lat="43.9958635888822" lon="8.15922463017339"><ele>127.66666666666667</ele><time>2026-03-22T09:08:26Z</time></trkpt><trkpt lat="43.995943732893664" lon="8.159164791430452"><ele>126.0</ele><time>2026-03-22T09:08:28Z</time></trkpt><trkpt lat="43.995998616900884" lon="8.1591190721978"><ele>126.33333333333333</ele><time>2026-03-22T09:08:30Z</time></trkpt><trkpt lat="43.99600761615281" lon="8.159022526666533"><ele>126.66666666666666</ele><time>2026-03-22T09:08:41Z</time></trkpt><trkpt lat="43.99599200613801" lon="8.15889006934997"><ele>127.0</ele><time>2026-03-22T09:08:44Z</time></trkpt><trkpt lat="43.99596292143994" lon="8.15873819907972"><ele>127.33333333333333</ele><time>2026-03-22T09:08:46Z</time></trkpt><trkpt lat="43.995938821116795" lon="8.158650501087216"><ele>127.66666666666666</ele><time>2026-03-22T09:08:47Z</time></trkpt><trkpt lat="43.99589706893423" lon="8.158562434070246"><ele>128.0</ele><time>2026-03-22T09:08:48Z</time></trkpt><trkpt lat="43.99585733810063" lon="8.158396161672572"><ele>132.66666666666666</ele><time>2026-03-22T09:08:50Z</time></trkpt><trkpt lat="43.99582957023937" lon="8.158302566662725"><ele>137.33333333333331</ele><time>2026-03-22T09:08:51Z</time></trkpt><trkpt lat="43.99579719447821" lon="8.158200598750165"><ele>142.0</ele><time>2026-03-22T09:08:52Z</time></trkpt><trkpt lat="43.99577174358212" lon="8.15808655956248"><ele>146.66666666666666</ele><time>2026-03-22T09:08:53Z</time></trkpt><trkpt lat="43.99573885383676" lon="8.157995865312827"><ele>151.33333333333334</ele><time>2026-03-22T09:08:54Z</time></trkpt><trkpt lat="43.995693719621286" lon="8.157924866392726"><ele>156.0</ele><time>2026-03-22T09:08:55Z</time></trkpt><trkpt lat="43.99559304615937" lon="8.157881915269114"><ele>157.2</ele><time>2026-03-22T09:08:57Z</time></trkpt><trkpt lat="43.99545442425721" lon="8.157866112379246"><ele>158.39999999999998</ele><time>2026-03-22T09:08:59Z</time></trkpt><trkpt lat="43.99536475282085" lon="8.157869435448992"><ele>159.6</ele><time>2026-03-22T09:09:00Z</time></trkpt><trkpt lat="43.995274280813824" lon="8.157881331496238"><ele>160.79999999999998</ele><time>2026-03-22T09:09:01Z</time></trkpt><trkpt lat="43.99518242566786" lon="8.157863669662024"><ele>162.0</ele><time>2026-03-22T09:09:02Z</time></trkpt><trkpt lat="43.99508737389" lon="8.15784737173094"><ele>167.5</ele><time>2026-03-22T09:09:03Z</time></trkpt><trkpt lat="43.99498927548556" lon="8.15785444354963"><ele>173.0</ele><time>2026-03-22T09:09:04Z</time></trkpt><trkpt lat="43.994897030505044" lon="8.15787902181957"><ele>178.5</ele><time>2026-03-22T09:09:05Z</time></trkpt><trkpt lat="43.99479519475054" lon="8.157919348750182"><ele>184.0</ele><time>2026-03-22T09:09:07Z</time></trkpt><trkpt lat="43.994728645233394" lon="8.157939875005875"><ele>189.5</ele><time>2026-03-22T09:09:08Z</time></trkpt><trkpt lat="43.99464739402999" lon="8.157945612283365"><ele>195.0</ele><time>2026-03-22T09:09:09Z</time></trkpt><trkpt lat="43.99455351595351" lon="8.157968966957387"><ele>195.0</ele><time>2026-03-22T09:09:10Z</time></trkpt><trkpt lat="43.99445943977283" lon="8.15798579240102"><ele>195.0</ele><time>2026-03-22T09:09:11Z</time></trkpt><trkpt lat="43.99436572559221" lon="8.15800886678357"><ele>195.0</ele><time>2026-03-22T09:09:12Z</time></trkpt><trkpt lat="43.99426838416659" lon="8.158033271826328"><ele>195.0</ele><time>2026-03-22T09:09:13Z</time></trkpt><trkpt lat="43.99416886509766" lon="8.158053616703182"><ele>195.0</ele><time>2026-03-22T09:09:14Z</time></trkpt><trkpt lat="43.99406688658825" lon="8.158072643994053"><ele>200.0</ele><time>2026-03-22T09:09:15Z</time></trkpt><trkpt lat="43.99396578062929" lon="8.158092281426873"><ele>205.0</ele><time>2026-03-22T09:09:16Z</time></trkpt><trkpt lat="43.99386126778916" lon="8.158109951179409"><ele>210.0</ele><time>2026-03-22T09:09:17Z</time></trkpt><trkpt lat="43.993771474319345" lon="8.158108336777047"><ele>215.0</ele><time>2026-03-22T09:09:18Z</time></trkpt><trkpt lat="43.99369531589318" lon="8.158116656724925"><ele>220.0</ele><time>2026-03-22T09:09:19Z</time></trkpt><trkpt lat="43.993592828332964" lon="8.158136179149526"><ele>220.0</ele><time>2026-03-22T09:09:21Z</time></trkpt><trkpt lat="43.993483974034184" lon="8.158166533489812"><ele>220.0</ele><time>2026-03-22T09:09:23Z</time></trkpt><trkpt lat="43.9934121114088" lon="8.158197151453512"><ele>220.0</ele><time>2026-03-22T09:09:24Z</time></trkpt><trkpt lat="43.993328568550666" lon="8.158222111604584"><ele>220.0</ele><time>2026-03-22T09:09:25Z</time></trkpt><trkpt lat="43.993230759325336" lon="8.158237894528078"><ele>220.0</ele><time>2026-03-22T09:09:26Z</time></trkpt><trkpt lat="43.99312609483516" lon="8.158246847368712"><ele>222.0</ele><time>2026-03-22T09:09:27Z</time></trkpt><trkpt lat="43.993018610743086" lon="8.158255673650233"><ele>224.0</ele><time>2026-03-22T09:09:28Z</time></trkpt><trkpt lat="43.99291987156085" lon="8.158260571874907"><ele>226.0</ele><time>2026-03-22T09:09:29Z</time></trkpt><trkpt lat="43.99282295945137" lon="8.158237468987778"><ele>228.0</ele><time>2026-03-22T09:09:30Z</time></trkpt><trkpt lat="43.99272255438816" lon="8.158200994318449"><ele>230.0</ele><time>2026-03-22T09:09:31Z</time></trkpt><trkpt lat="43.99261391987087" lon="8.158174025836916"><ele>230.00000000000003</ele><time>2026-03-22T09:09:32Z</time></trkpt><trkpt lat="43.99250693122628" lon="8.15819562947202"><ele>230.0</ele><time>2026-03-22T09:09:33Z</time></trkpt><trkpt lat="43.99242308680357" lon="8.158217172296155"><ele>230.0</ele><time>2026-03-22T09:09:34Z</time></trkpt><trkpt lat="43.99234493457844" lon="8.158270249242081"><ele>230.0</ele><time>2026-03-22T09:09:35Z</time></trkpt><trkpt lat="43.99228145731957" lon="8.158350571001504"><ele>230.00000000000003</ele><time>2026-03-22T09:09:36Z</time></trkpt><trkpt lat="43.99224592358848" lon="8.15844382505797"><ele>230.0</ele><time>2026-03-22T09:09:37Z</time></trkpt><trkpt lat="43.99222435029566" lon="8.158540907227074"><ele>225.33333333333334</ele><time>2026-03-22T09:09:38Z</time></trkpt><trkpt lat="43.99217218891085" lon="8.158624489787407"><ele>220.66666666666669</ele><time>2026-03-22T09:09:39Z</time></trkpt><trkpt lat="43.99212433819856" lon="8.158686413967043"><ele>216.0</ele><time>2026-03-22T09:09:40Z</time></trkpt><trkpt lat="43.99205626335601" lon="8.158756370196404"><ele>211.33333333333331</ele><time>2026-03-22T09:09:41Z</time></trkpt><trkpt lat="43.99198327251629" lon="8.158826005926826"><ele>206.66666666666666</ele><time>2026-03-22T09:09:42Z</time></trkpt><trkpt lat="43.991916733313374" lon="8.158879908515559"><ele>202.0</ele><time>2026-03-22T09:09:43Z</time></trkpt><trkpt lat="43.991850031300764" lon="8.158899997006477"><ele>202.0</ele><time>2026-03-22T09:09:44Z</time></trkpt><trkpt lat="43.99178274800264" lon="8.158861642681009"><ele>202.0</ele><time>2026-03-22T09:09:45Z</time></trkpt><trkpt lat="43.99172932451953" lon="8.158762129026538"><ele>202.0</ele><time>2026-03-22T09:09:46Z</time></trkpt><trkpt lat="43.99166494084063" lon="8.158666468239748"><ele>202.0</ele><time>2026-03-22T09:09:47Z</time></trkpt><trkpt lat="43.99158294989229" lon="8.158572658566612"><ele>202.0</ele><time>2026-03-22T09:09:48Z</time></trkpt><trkpt lat="43.991507207014855" lon="8.158456208727445"><ele>206.75</ele><time>2026-03-22T09:09:49Z</time></trkpt><trkpt lat="43.99141742019662" lon="8.15834200685815"><ele>211.5</ele><time>2026-03-22T09:09:50Z</time></trkpt><trkpt lat="43.99131771639228" lon="8.158229160991754"><ele>216.25</ele><time>2026-03-22T09:09:51Z</time></trkpt><trkpt lat="43.99121922324549" lon="8.158119754075255"><ele>221.0</ele><time>2026-03-22T09:09:52Z</time></trkpt><trkpt lat="43.991122728350675" lon="8.158016594907691"><ele>224.0</ele><time>2026-03-22T09:09:53Z</time></trkpt><trkpt lat="43.9910172599368" lon="8.157932625268751"><ele>227.0</ele><time>2026-03-22T09:09:54Z</time></trkpt><trkpt lat="43.990900809601506" lon="8.157880368692561"><ele>230.0</ele><time>2026-03-22T09:09:55Z</time></trkpt><trkpt lat="43.99078181114193" lon="8.157820061259718"><ele>233.0</ele><time>2026-03-22T09:09:56Z</time></trkpt><trkpt lat="43.990677179454785" lon="8.157763657161079"><ele>233.0</ele><time>2026-03-22T09:09:57Z</time></trkpt><trkpt lat="43.990579870489164" lon="8.157691076881678"><ele>233.0</ele><time>2026-03-22T09:09:58Z</time></trkpt><trkpt lat="43.990509437892236" lon="8.157568485993274"><ele>233.0</ele><time>2026-03-22T09:09:59Z</time></trkpt><trkpt lat="43.99042529353118" lon="8.157458837937154"><ele>233.0</ele><time>2026-03-22T09:10:00Z</time></trkpt><trkpt lat="43.990392159373755" lon="8.157327458893727"><ele>233.0</ele><time>2026-03-22T09:10:01Z</time></trkpt><trkpt lat="43.99036340779696" lon="8.157225674162513"><ele>232.50000000000003</ele><time>2026-03-22T09:10:02Z</time></trkpt><trkpt lat="43.990360348057244" lon="8.157128906044722"><ele>232.0</ele><time>2026-03-22T09:10:03Z</time></trkpt><trkpt lat="43.99036243643216" lon="8.157009825460909"><ele>231.5</ele><time>2026-03-22T09:10:04Z</time></trkpt><trkpt lat="43.990453082520276" lon="8.156970577453764"><ele>231.0</ele><time>2026-03-22T09:10:06Z</time></trkpt><trkpt lat="43.99052020015137" lon="8.157041743683935"><ele>230.50000000000003</ele><time>2026-03-22T09:10:07Z</time></trkpt><trkpt lat="43.99055816776193" lon="8.157142226525835"><ele>230.0</ele><time>2026-03-22T09:10:08Z</time></trkpt><trkpt lat="43.99056869952377" lon="8.157251813181327"><ele>230.50000000000003</ele><time>2026-03-22T09:10:09Z</time></trkpt><trkpt lat="43.99059733458468" lon="8.157372222243415"><ele>231.0</ele><time>2026-03-22T09:10:10Z</time></trkpt><trkpt lat="43.990621236805694" lon="8.157467171856204"><ele>231.5</ele><time>2026-03-22T09:10:11Z</time></trkpt><trkpt lat="43.99070694613169" lon="8.15753896812206"><ele>232.0</ele><time>2026-03-22T09:10:13Z</time></trkpt><trkpt lat="43.990790390284324" lon="8.1576000580391"><ele>232.50000000000003</ele><time>2026-03-22T09:10:15Z</time></trkpt><trkpt lat="43.99085524255156" lon="8.157631953931855"><ele>233.0</ele><time>2026-03-22T09:10:16Z</time></trkpt><trkpt lat="43.990929334497885" lon="8.157683062205122"><ele>236.16666666666669</ele><time>2026-03-22T09:10:17Z</time></trkpt><trkpt lat="43.99099986974593" lon="8.157686432871213"><ele>239.33333333333334</ele><time>2026-03-22T09:10:18Z</time></trkpt><trkpt lat="43.99106066111032" lon="8.157728413975049"><ele>242.5</ele><time>2026-03-22T09:10:19Z</time></trkpt><trkpt lat="43.99113090564559" lon="8.15775178592522"><ele>245.66666666666669</ele><time>2026-03-22T09:10:20Z</time></trkpt><trkpt lat="43.99121187659508" lon="8.157773457312576"><ele>248.83333333333334</ele><time>2026-03-22T09:10:21Z</time></trkpt><trkpt lat="43.99129672672768" lon="8.157798462794839"><ele>252.0</ele><time>2026-03-22T09:10:22Z</time></trkpt><trkpt lat="43.99137617917731" lon="8.157856658092438"><ele>252.0</ele><time>2026-03-22T09:10:23Z</time></trkpt><trkpt lat="43.99145080620334" lon="8.157929561326188"><ele>252.0</ele><time>2026-03-22T09:10:24Z</time></trkpt><trkpt lat="43.99151862861843" lon="8.15800861714695"><ele>252.0</ele><time>2026-03-22T09:10:25Z</time></trkpt><trkpt lat="43.99158493532488" lon="8.158058921082693"><ele>252.0</ele><time>2026-03-22T09:10:26Z</time></trkpt><trkpt lat="43.99164520527219" lon="8.158085449816696"><ele>252.0</ele><time>2026-03-22T09:10:27Z</time></trkpt><trkpt lat="43.99171117997377" lon="8.158087045369747"><ele>252.0</ele><time>2026-03-22T09:10:28Z</time></trkpt><trkpt lat="43.99182068648438" lon="8.158028803506008"><ele>249.83333333333334</ele><time>2026-03-22T09:10:30Z</time></trkpt><trkpt lat="43.99187145118644" lon="8.15795124102345"><ele>247.66666666666669</ele><time>2026-03-22T09:10:31Z</time></trkpt><trkpt lat="43.9919362364702" lon="8.15789072879359"><ele>245.5</ele><time>2026-03-22T09:10:32Z</time></trkpt><trkpt lat="43.99199635973076" lon="8.157820604492105"><ele>243.33333333333334</ele><time>2026-03-22T09:10:33Z</time></trkpt><trkpt lat="43.992053601632065" lon="8.157762921866917"><ele>241.16666666666669</ele><time>2026-03-22T09:10:34Z</time></trkpt><trkpt lat="43.992131936258005" lon="8.157692167636588"><ele>239.0</ele><time>2026-03-22T09:10:35Z</time></trkpt><trkpt lat="43.99221306202911" lon="8.157646740064981"><ele>239.00000000000003</ele><time>2026-03-22T09:10:36Z</time></trkpt><trkpt lat="43.99229229398865" lon="8.157585461884405"><ele>239.0</ele><time>2026-03-22T09:10:37Z</time></trkpt><trkpt lat="43.992380736983975" lon="8.157558902297568"><ele>239.0</ele><time>2026-03-22T09:10:38Z</time></trkpt><trkpt lat="43.99247449931839" lon="8.157544710007796"><ele>239.0</ele><time>2026-03-22T09:10:39Z</time></trkpt><trkpt lat="43.99255204026267" lon="8.157539506929119"><ele>239.00000000000003</ele><time>2026-03-22T09:10:40Z</time></trkpt><trkpt lat="43.992643886829995" lon="8.15754364639956"><ele>239.0</ele><time>2026-03-22T09:10:41Z</time></trkpt><trkpt lat="43.99274169768258" lon="8.157561741054877"><ele>237.2</ele><time>2026-03-22T09:10:42Z</time></trkpt><trkpt lat="43.99283928505243" lon="8.157585318537256"><ele>235.39999999999998</ele><time>2026-03-22T09:10:43Z</time></trkpt><trkpt lat="43.99293771186098" lon="8.157586233404459"><ele>233.6</ele><time>2026-03-22T09:10:44Z</time></trkpt><trkpt lat="43.99301948042998" lon="8.157571434698598"><ele>231.8</ele><time>2026-03-22T09:10:45Z</time></trkpt><trkpt lat="43.993086133344846" lon="8.157540179534273"><ele>230.0</ele><time>2026-03-22T09:10:47Z</time></trkpt><trkpt lat="43.99298650111178" lon="8.157577301426105"><ele>230.0</ele><time>2026-03-22T09:11:02Z</time></trkpt><trkpt lat="43.99288035362219" lon="8.157624045712485"><ele>230.0</ele><time>2026-03-22T09:11:03Z</time></trkpt><trkpt lat="43.99274351392714" lon="8.157523260208075"><ele>230.0</ele><time>2026-03-22T09:11:04Z</time></trkpt><trkpt lat="43.99261617278578" lon="8.15749053178905"><ele>230.0</ele><time>2026-03-22T09:11:05Z</time></trkpt><trkpt lat="43.992503354408036" lon="8.157479171175423"><ele>231.50000000000003</ele><time>2026-03-22T09:11:06Z</time></trkpt><trkpt lat="43.992428423572974" lon="8.157508436879782"><ele>233.0</ele><time>2026-03-22T09:11:07Z</time></trkpt><trkpt lat="43.99234654291197" lon="8.157555851960376"><ele>234.5</ele><time>2026-03-22T09:11:09Z</time></trkpt><trkpt lat="43.99226155321834" lon="8.15758417299871"><ele>236.0</ele><time>2026-03-22T09:11:18Z</time></trkpt><trkpt lat="43.9921773815892" lon="8.157634732618483"><ele>237.50000000000003</ele><time>2026-03-22T09:11:20Z</time></trkpt><trkpt lat="43.992127972432826" lon="8.157694157949617"><ele>239.0</ele><time>2026-03-22T09:11:21Z</time></trkpt><trkpt lat="43.992070774407026" lon="8.157736021887425"><ele>239.00000000000003</ele><time>2026-03-22T09:11:22Z</time></trkpt><trkpt lat="43.99199529186879" lon="8.157789599431291"><ele>239.0</ele><time>2026-03-22T09:11:24Z</time></trkpt><trkpt lat="43.99195306899377" lon="8.15786477568171"><ele>239.0</ele><time>2026-03-22T09:11:27Z</time></trkpt><trkpt lat="43.99188724116707" lon="8.157943865926276"><ele>239.0</ele><time>2026-03-22T09:11:31Z</time></trkpt><trkpt lat="43.99179903250573" lon="8.158032002694036"><ele>239.00000000000003</ele><time>2026-03-22T09:11:33Z</time></trkpt><trkpt lat="43.99173046595176" lon="8.15806388116727"><ele>239.0</ele><time>2026-03-22T09:11:35Z</time></trkpt><trkpt lat="43.99182674680763" lon="8.15803666191244"><ele>239.00000000000003</ele><time>2026-03-22T09:11:41Z</time></trkpt><trkpt lat="43.9918773121765" lon="8.157958455124021"><ele>239.0</ele><time>2026-03-22T09:11:42Z</time></trkpt><trkpt lat="43.99193678804924" lon="8.157862704624318"><ele>239.0</ele><time>2026-03-22T09:11:44Z</time></trkpt><trkpt lat="43.99197713954084" lon="8.157783567093455"><ele>239.0</ele><time>2026-03-22T09:11:46Z</time></trkpt><trkpt lat="43.99202965091676" lon="8.157732737264705"><ele>239.00000000000003</ele><time>2026-03-22T09:11:48Z</time></trkpt><trkpt lat="43.992087544368104" lon="8.157685710566334"><ele>239.0</ele><time>2026-03-22T09:11:49Z</time></trkpt><trkpt lat="43.992178417018266" lon="8.157639947816381"><ele>239.0</ele><time>2026-03-22T09:11:50Z</time></trkpt><trkpt lat="43.99229030906691" lon="8.157569150303434"><ele>239.0</ele><time>2026-03-22T09:11:51Z</time></trkpt><trkpt lat="43.992410781498805" lon="8.157525077800834"><ele>239.0</ele><time>2026-03-22T09:11:52Z</time></trkpt><trkpt lat="43.99253642062082" lon="8.157504916865127"><ele>239.0</ele><time>2026-03-22T09:11:53Z</time></trkpt><trkpt lat="43.99267364673345" lon="8.157518017982133"><ele>236.75</ele><time>2026-03-22T09:11:54Z</time></trkpt><trkpt lat="43.99279877219695" lon="8.157553381023373"><ele>234.5</ele><time>2026-03-22T09:11:55Z</time></trkpt><trkpt lat="43.99292452313048" lon="8.157582781008287"><ele>232.25</ele><time>2026-03-22T09:11:56Z</time></trkpt><trkpt lat="43.99304738844193" lon="8.157571871554865"><ele>230.0</ele><time>2026-03-22T09:11:57Z</time></trkpt><trkpt lat="43.99315511754004" lon="8.157528548958474"><ele>230.0</ele><time>2026-03-22T09:11:58Z</time></trkpt><trkpt lat="43.99327103748174" lon="8.157445197889498"><ele>230.0</ele><time>2026-03-22T09:11:59Z</time></trkpt><trkpt lat="43.9933894134848" lon="8.157360727635805"><ele>230.0</ele><time>2026-03-22T09:12:00Z</time></trkpt><trkpt lat="43.993520205080024" lon="8.157306841127685"><ele>230.0</ele><time>2026-03-22T09:12:01Z</time></trkpt><trkpt lat="43.99365674611776" lon="8.15727358030577"><ele>226.0</ele><time>2026-03-22T09:12:02Z</time></trkpt><trkpt lat="43.993788930810034" lon="8.157305263192036"><ele>222.0</ele><time>2026-03-22T09:12:03Z</time></trkpt><trkpt lat="43.99392877201096" lon="8.157275200346303"><ele>218.0</ele><time>2026-03-22T09:12:04Z</time></trkpt><trkpt lat="43.99406718338307" lon="8.157232680345762"><ele>214.0</ele><time>2026-03-22T09:12:05Z</time></trkpt><trkpt lat="43.99420094374495" lon="8.157178377862163"><ele>214.0</ele><time>2026-03-22T09:12:06Z</time></trkpt><trkpt lat="43.994314895920255" lon="8.157121361509068"><ele>213.99999999999997</ele><time>2026-03-22T09:12:07Z</time></trkpt><trkpt lat="43.99439572775017" lon="8.157052035372"><ele>213.99999999999997</ele><time>2026-03-22T09:12:08Z</time></trkpt><trkpt lat="43.99446095901153" lon="8.156949639572112"><ele>214.0</ele><time>2026-03-22T09:12:09Z</time></trkpt><trkpt lat="43.994510280330466" lon="8.156814710829286"><ele>214.0</ele><time>2026-03-22T09:12:10Z</time></trkpt><trkpt lat="43.994531674420195" lon="8.156660731394267"><ele>219.25</ele><time>2026-03-22T09:12:11Z</time></trkpt><trkpt lat="43.994523264390295" lon="8.156496378700249"><ele>224.5</ele><time>2026-03-22T09:12:12Z</time></trkpt><trkpt lat="43.99448407184019" lon="8.156341297149858"><ele>229.75</ele><time>2026-03-22T09:12:13Z</time></trkpt><trkpt lat="43.9944154795182" lon="8.156179136781283"><ele>235.0</ele><time>2026-03-22T09:12:14Z</time></trkpt><trkpt lat="43.99439704727643" lon="8.156028457280605"><ele>235.0</ele><time>2026-03-22T09:12:15Z</time></trkpt><trkpt lat="43.994410057066766" lon="8.155885798245754"><ele>235.0</ele><time>2026-03-22T09:12:16Z</time></trkpt><trkpt lat="43.994440946637276" lon="8.155751873014655"><ele>235.0</ele><time>2026-03-22T09:12:17Z</time></trkpt><trkpt lat="43.9944980478663" lon="8.155625580154881"><ele>235.0</ele><time>2026-03-22T09:12:18Z</time></trkpt><trkpt lat="43.99456562058261" lon="8.155518501178072"><ele>235.0</ele><time>2026-03-22T09:12:19Z</time></trkpt><trkpt lat="43.99465260382833" lon="8.155461547275277"><ele>234.2</ele><time>2026-03-22T09:12:20Z</time></trkpt><trkpt lat="43.99475420903136" lon="8.155427092154055"><ele>233.4</ele><time>2026-03-22T09:12:21Z</time></trkpt><trkpt lat="43.994869826173534" lon="8.155417842538737"><ele>232.60000000000002</ele><time>2026-03-22T09:12:22Z</time></trkpt><trkpt lat="43.994980888547076" lon="8.155412689451538"><ele>231.8</ele><time>2026-03-22T09:12:23Z</time></trkpt><trkpt lat="43.99506012223983" lon="8.155384567773702"><ele>231.0</ele><time>2026-03-22T09:12:24Z</time></trkpt><trkpt lat="43.99513690567036" lon="8.155238420080176"><ele>231.0</ele><time>2026-03-22T09:12:26Z</time></trkpt><trkpt lat="43.995192338836034" lon="8.155187705049904"><ele>231.00000000000003</ele><time>2026-03-22T09:12:27Z</time></trkpt><trkpt lat="43.995128939189065" lon="8.155000234210437"><ele>231.00000000000003</ele><time>2026-03-22T09:12:28Z</time></trkpt><trkpt lat="43.99508527596516" lon="8.154859587336158"><ele>231.0</ele><time>2026-03-22T09:12:29Z</time></trkpt><trkpt lat="43.99504518822357" lon="8.1546980436646"><ele>231.0</ele><time>2026-03-22T09:12:30Z</time></trkpt><trkpt lat="43.995031926626964" lon="8.154515470043187"><ele>236.5</ele><time>2026-03-22T09:12:31Z</time></trkpt><trkpt lat="43.9950558202575" lon="8.154328543237837"><ele>242.0</ele><time>2026-03-22T09:12:32Z</time></trkpt><trkpt lat="43.995108384300735" lon="8.154159609386523"><ele>247.5</ele><time>2026-03-22T09:12:33Z</time></trkpt><trkpt lat="43.99518033708505" lon="8.154012141603067"><ele>253.0</ele><time>2026-03-22T09:12:34Z</time></trkpt><trkpt lat="43.99525650396856" lon="8.153916443292118"><ele>255.0</ele><time>2026-03-22T09:12:35Z</time></trkpt><trkpt lat="43.99534207070166" lon="8.15387280495335"><ele>257.0</ele><time>2026-03-22T09:12:36Z</time></trkpt><trkpt lat="43.99545269838298" lon="8.153854458344934"><ele>259.0</ele><time>2026-03-22T09:12:37Z</time></trkpt><trkpt lat="43.99558226271396" lon="8.153853041164606"><ele>261.0</ele><time>2026-03-22T09:12:38Z</time></trkpt><trkpt lat="43.99571568288962" lon="8.153881663230424"><ele>261.0</ele><time>2026-03-22T09:12:39Z</time></trkpt><trkpt lat="43.995813012824826" lon="8.153896612398638"><ele>261.0</ele><time>2026-03-22T09:12:40Z</time></trkpt><trkpt lat="43.99587797630431" lon="8.153879829963396"><ele>261.0</ele><time>2026-03-22T09:12:41Z</time></trkpt><trkpt lat="43.995954499840735" lon="8.153824866214451"><ele>261.0</ele><time>2026-03-22T09:12:43Z</time></trkpt><trkpt lat="43.99591619844561" lon="8.15363455444694"><ele>261.0</ele><time>2026-03-22T09:12:44Z</time></trkpt><trkpt lat="43.99586203868439" lon="8.153529530357705"><ele>261.0</ele><time>2026-03-22T09:12:45Z</time></trkpt><trkpt lat="43.99579200311394" lon="8.153420370230881"><ele>261.0</ele><time>2026-03-22T09:12:46Z</time></trkpt><trkpt lat="43.99569824644402" lon="8.153289022694628"><ele>261.0</ele><time>2026-03-22T09:12:47Z</time></trkpt><trkpt lat="43.99560729779965" lon="8.153146091854406"><ele>261.0</ele><time>2026-03-22T09:12:48Z</time></trkpt><trkpt lat="43.99552812489969" lon="8.152981539036944"><ele>263.6</ele><time>2026-03-22T09:12:49Z</time></trkpt><trkpt lat="43.99551624111738" lon="8.152856810356845"><ele>266.20000000000005</ele><time>2026-03-22T09:12:50Z</time></trkpt><trkpt lat="43.99555093682703" lon="8.152754693894225"><ele>268.79999999999995</ele><time>2026-03-22T09:12:51Z</time></trkpt><trkpt lat="43.99559479486245" lon="8.1526523781596"><ele>271.4</ele><time>2026-03-22T09:12:52Z</time></trkpt><trkpt lat="43.99567832634837" lon="8.152567447050055"><ele>274.0</ele><time>2026-03-22T09:12:53Z</time></trkpt><trkpt lat="43.9957859731782" lon="8.152541268399167"><ele>275.2</ele><time>2026-03-22T09:12:54Z</time></trkpt><trkpt lat="43.99589160590038" lon="8.152465561651216"><ele>276.4</ele><time>2026-03-22T09:12:55Z</time></trkpt><trkpt lat="43.9959643771776" lon="8.152398326452117"><ele>277.6</ele><time>2026-03-22T09:12:56Z</time></trkpt><trkpt lat="43.99599843818554" lon="8.15228999107052"><ele>278.8</ele><time>2026-03-22T09:12:57Z</time></trkpt><trkpt lat="43.996001927693655" lon="8.152153699972123"><ele>280.0</ele><time>2026-03-22T09:12:58Z</time></trkpt><trkpt lat="43.99600979650659" lon="8.152011870845994"><ele>280.0</ele><time>2026-03-22T09:12:59Z</time></trkpt><trkpt lat="43.996036400629215" lon="8.151903381250355"><ele>280.0</ele><time>2026-03-22T09:13:00Z</time></trkpt><trkpt lat="43.996115802160034" lon="8.151860653216879"><ele>280.0</ele><time>2026-03-22T09:13:01Z</time></trkpt><trkpt lat="43.99621489643203" lon="8.151837455705719"><ele>280.0</ele><time>2026-03-22T09:13:02Z</time></trkpt><trkpt lat="43.996340739931554" lon="8.151829675584088"><ele>280.0</ele><time>2026-03-22T09:13:03Z</time></trkpt><trkpt lat="43.996469581915264" lon="8.151858411244488"><ele>280.0</ele><time>2026-03-22T09:13:04Z</time></trkpt><trkpt lat="43.99659837002221" lon="8.151900845082917"><ele>280.0</ele><time>2026-03-22T09:13:05Z</time></trkpt><trkpt lat="43.996685391736506" lon="8.151892632052508"><ele>280.0</ele><time>2026-03-22T09:13:06Z</time></trkpt><trkpt lat="43.99674112401104" lon="8.151843280414466"><ele>280.0</ele><time>2026-03-22T09:13:07Z</time></trkpt><trkpt lat="43.99679182647023" lon="8.151759434769135"><ele>280.0</ele><time>2026-03-22T09:13:08Z</time></trkpt><trkpt lat="43.996857109150056" lon="8.151652080848512"><ele>276.75</ele><time>2026-03-22T09:13:09Z</time></trkpt><trkpt lat="43.99694514338702" lon="8.151555677168714"><ele>273.5</ele><time>2026-03-22T09:13:10Z</time></trkpt><trkpt lat="43.99703665155283" lon="8.151428276613558"><ele>270.25</ele><time>2026-03-22T09:13:11Z</time></trkpt><trkpt lat="43.99711136549794" lon="8.151267514864934"><ele>267.0</ele><time>2026-03-22T09:13:12Z</time></trkpt><trkpt lat="43.997173251326274" lon="8.151087101054571"><ele>267.0</ele><time>2026-03-22T09:13:13Z</time></trkpt><trkpt lat="43.99728419844072" lon="8.150986958843538"><ele>267.0</ele><time>2026-03-22T09:13:14Z</time></trkpt><trkpt lat="43.99735089124388" lon="8.150870582100104"><ele>267.0</ele><time>2026-03-22T09:13:15Z</time></trkpt><trkpt lat="43.997401784228686" lon="8.150777483172607"><ele>267.0</ele><time>2026-03-22T09:13:16Z</time></trkpt><trkpt lat="43.997411888368" lon="8.150677963569615"><ele>267.0</ele><time>2026-03-22T09:13:17Z</time></trkpt><trkpt lat="43.99739053539539" lon="8.150564155289297"><ele>270.0</ele><time>2026-03-22T09:13:18Z</time></trkpt><trkpt lat="43.99735951548433" lon="8.15043878211576"><ele>273.0</ele><time>2026-03-22T09:13:19Z</time></trkpt><trkpt lat="43.99733300602007" lon="8.150300717536174"><ele>276.0</ele><time>2026-03-22T09:13:20Z</time></trkpt><trkpt lat="43.99734429700939" lon="8.15019506113984"><ele>279.0</ele><time>2026-03-22T09:13:20.999Z</time></trkpt><trkpt lat="43.99740432393633" lon="8.150121275863615"><ele>282.0</ele><time>2026-03-22T09:13:21.999Z</time></trkpt><trkpt lat="43.997491053425186" lon="8.150034216137973"><ele>282.6666666666667</ele><time>2026-03-22T09:13:22.999Z</time></trkpt><trkpt lat="43.99759612793662" lon="8.14988293955996"><ele>283.33333333333337</ele><time>2026-03-22T09:13:23.999Z</time></trkpt><trkpt lat="43.997685015913206" lon="8.14972978992026"><ele>284.0</ele><time>2026-03-22T09:13:24.999Z</time></trkpt><trkpt lat="43.99778246329762" lon="8.149556106413526"><ele>284.0</ele><time>2026-03-22T09:13:25.999Z</time></trkpt><trkpt lat="43.99789455052699" lon="8.149397126146525"><ele>284.0</ele><time>2026-03-22T09:13:26.999Z</time></trkpt><trkpt lat="43.998023535069194" lon="8.149314788705608"><ele>284.0</ele><time>2026-03-22T09:13:27.999Z</time></trkpt><trkpt lat="43.9981624687093" lon="8.14921785118179"><ele>284.0</ele><time>2026-03-22T09:13:28.999Z</time></trkpt><trkpt lat="43.99831370139625" lon="8.149158983626151"><ele>284.0</ele><time>2026-03-22T09:13:29.999Z</time></trkpt><trkpt lat="43.99842882100095" lon="8.149117157104868"><ele>284.0</ele><time>2026-03-22T09:13:30.999Z</time></trkpt><trkpt lat="43.9985156970471" lon="8.149094677960008"><ele>284.0</ele><time>2026-03-22T09:13:31.999Z</time></trkpt><trkpt lat="43.998576102583655" lon="8.149017508315326"><ele>284.0</ele><time>2026-03-22T09:13:32.999Z</time></trkpt><trkpt lat="43.99860843551766" lon="8.148890027499933"><ele>282.0</ele><time>2026-03-22T09:13:33.999Z</time></trkpt><trkpt lat="43.99862999059438" lon="8.148739793483438"><ele>280.0</ele><time>2026-03-22T09:13:34.999Z</time></trkpt><trkpt lat="43.998642216240306" lon="8.148567925099725"><ele>278.0</ele><time>2026-03-22T09:13:35.999Z</time></trkpt><trkpt lat="43.99864283508901" lon="8.148359769685428"><ele>276.0</ele><time>2026-03-22T09:13:36.999Z</time></trkpt><trkpt lat="43.99866318041948" lon="8.148140253985952"><ele>276.0</ele><time>2026-03-22T09:13:37.999Z</time></trkpt><trkpt lat="43.99874319306765" lon="8.147957026314543"><ele>276.0</ele><time>2026-03-22T09:13:38.999Z</time></trkpt><trkpt lat="43.99882404548303" lon="8.14779509808066"><ele>276.0</ele><time>2026-03-22T09:13:39.999Z</time></trkpt><trkpt lat="43.998910909827764" lon="8.14759423212851"><ele>276.0</ele><time>2026-03-22T09:13:40.999Z</time></trkpt><trkpt lat="43.998996828750556" lon="8.147452809229835"><ele>276.0</ele><time>2026-03-22T09:13:41.999Z</time></trkpt><trkpt lat="43.99906625310149" lon="8.147339567901065"><ele>276.0</ele><time>2026-03-22T09:13:42.999Z</time></trkpt><trkpt lat="43.99912142657428" lon="8.147228344341533"><ele>276.0</ele><time>2026-03-22T09:13:43.999Z</time></trkpt><trkpt lat="43.999169013838696" lon="8.14711137823675"><ele>276.0</ele><time>2026-03-22T09:13:44.999Z</time></trkpt><trkpt lat="43.9992109593546" lon="8.147009880814405"><ele>276.8</ele><time>2026-03-22T09:13:46Z</time></trkpt><trkpt lat="43.99924443353897" lon="8.146926235491145"><ele>277.6</ele><time>2026-03-22T09:13:47Z</time></trkpt><trkpt lat="43.99929524026273" lon="8.146808425137024"><ele>278.4</ele><time>2026-03-22T09:13:49Z</time></trkpt><trkpt lat="43.99931508765536" lon="8.14671460237299"><ele>279.2</ele><time>2026-03-22T09:13:51Z</time></trkpt><trkpt lat="43.99933964954023" lon="8.146633146757313"><ele>280.0</ele><time>2026-03-22T09:13:54Z</time></trkpt><trkpt lat="43.99914206894502" lon="8.146574183118863"><ele>280.0</ele><time>2026-03-22T09:14:03Z</time></trkpt><trkpt lat="43.999073807397004" lon="8.146600517992372"><ele>280.0</ele><time>2026-03-22T09:14:04Z</time></trkpt><trkpt lat="43.998974215871634" lon="8.146653605370144"><ele>280.0</ele><time>2026-03-22T09:14:06Z</time></trkpt><trkpt lat="43.998885376560146" lon="8.146702901148407"><ele>280.0</ele><time>2026-03-22T09:14:08Z</time></trkpt><trkpt lat="43.998750649579634" lon="8.146764281779125"><ele>280.0</ele><time>2026-03-22T09:14:10Z</time></trkpt><trkpt lat="43.99875525894254" lon="8.147147289746808"><ele>280.0</ele><time>2026-03-22T09:14:11Z</time></trkpt><trkpt lat="43.998675022928914" lon="8.147216606566575"><ele>280.0</ele><time>2026-03-22T09:14:12Z</time></trkpt><trkpt lat="43.99859407999804" lon="8.147289819908979"><ele>280.0</ele><time>2026-03-22T09:14:13Z</time></trkpt><trkpt lat="43.998508531605395" lon="8.147364291302804"><ele>280.0</ele><time>2026-03-22T09:14:14Z</time></trkpt><trkpt lat="43.99842881084739" lon="8.14740800465639"><ele>280.0</ele><time>2026-03-22T09:14:15Z</time></trkpt><trkpt lat="43.998331177315954" lon="8.14736530977787"><ele>279.4</ele><time>2026-03-22T09:14:16Z</time></trkpt><trkpt lat="43.99824585646615" lon="8.147326766493336"><ele>278.8</ele><time>2026-03-22T09:14:17Z</time></trkpt><trkpt lat="43.99817720928778" lon="8.147346639121244"><ele>278.2</ele><time>2026-03-22T09:14:18Z</time></trkpt><trkpt lat="43.99804818338336" lon="8.147378158857983"><ele>277.6</ele><time>2026-03-22T09:14:19Z</time></trkpt><trkpt lat="43.99795945126692" lon="8.147389626635345"><ele>277.0</ele><time>2026-03-22T09:14:20Z</time></trkpt><trkpt lat="43.997874409344945" lon="8.147454042229366"><ele>281.2</ele><time>2026-03-22T09:14:21Z</time></trkpt><trkpt lat="43.997830094800605" lon="8.147540471423946"><ele>285.4</ele><time>2026-03-22T09:14:23Z</time></trkpt><trkpt lat="43.99787438503429" lon="8.147622179466332"><ele>289.6</ele><time>2026-03-22T09:14:24Z</time></trkpt><trkpt lat="43.997911647227234" lon="8.14770589715133"><ele>293.8</ele><time>2026-03-22T09:14:26Z</time></trkpt><trkpt lat="43.99780112786648" lon="8.14786153901393"><ele>298.0</ele><time>2026-03-22T09:14:27Z</time></trkpt><trkpt lat="43.99773511789001" lon="8.147995315798926"><ele>298.0</ele><time>2026-03-22T09:14:28Z</time></trkpt><trkpt lat="43.99766528242614" lon="8.14807946941461"><ele>298.0</ele><time>2026-03-22T09:14:29Z</time></trkpt><trkpt lat="43.997602623168845" lon="8.148162662037146"><ele>298.0</ele><time>2026-03-22T09:14:31Z</time></trkpt><trkpt lat="43.99756432109947" lon="8.148239981673886"><ele>298.0</ele><time>2026-03-22T09:14:32Z</time></trkpt><trkpt lat="43.997469366305246" lon="8.148330578788235"><ele>298.0</ele><time>2026-03-22T09:14:34Z</time></trkpt><trkpt lat="43.997408383509786" lon="8.148404386524058"><ele>298.0</ele><time>2026-03-22T09:14:35Z</time></trkpt><trkpt lat="43.997348573650626" lon="8.14849755003219"><ele>299.0</ele><time>2026-03-22T09:14:36Z</time></trkpt><trkpt lat="43.99732425660748" lon="8.148621371450343"><ele>300.0</ele><time>2026-03-22T09:14:37Z</time></trkpt><trkpt lat="43.99728091301829" lon="8.148762537548556"><ele>301.0</ele><time>2026-03-22T09:14:38Z</time></trkpt><trkpt lat="43.99721664225201" lon="8.148854030096688"><ele>302.0</ele><time>2026-03-22T09:14:39Z</time></trkpt><trkpt lat="43.997134735027565" lon="8.148973087966594"><ele>303.0</ele><time>2026-03-22T09:14:40Z</time></trkpt><trkpt lat="43.99704097736727" lon="8.149125669128487"><ele>303.0</ele><time>2026-03-22T09:14:41Z</time></trkpt><trkpt lat="43.99694877562106" lon="8.149254522068693"><ele>303.0</ele><time>2026-03-22T09:14:42Z</time></trkpt><trkpt lat="43.996873071990706" lon="8.149300743803765"><ele>303.0</ele><time>2026-03-22T09:14:43Z</time></trkpt><trkpt lat="43.99675839333097" lon="8.149345993306472"><ele>303.0</ele><time>2026-03-22T09:14:45Z</time></trkpt><trkpt lat="43.99669408250911" lon="8.149399145380942"><ele>303.0</ele><time>2026-03-22T09:14:46Z</time></trkpt><trkpt lat="43.996597986644346" lon="8.149450901786109"><ele>303.5</ele><time>2026-03-22T09:14:48Z</time></trkpt><trkpt lat="43.996533100679905" lon="8.149457609940946"><ele>304.0</ele><time>2026-03-22T09:14:49Z</time></trkpt><trkpt lat="43.99644983530467" lon="8.14950735788845"><ele>304.5</ele><time>2026-03-22T09:14:51Z</time></trkpt><trkpt lat="43.99636655517407" lon="8.149580897039604"><ele>305.0</ele><time>2026-03-22T09:14:53Z</time></trkpt><trkpt lat="43.99631183601734" lon="8.149633117818"><ele>305.5</ele><time>2026-03-22T09:14:56Z</time></trkpt><trkpt lat="43.99624751313051" lon="8.149717686395757"><ele>306.0</ele><time>2026-03-22T09:14:58Z</time></trkpt><trkpt lat="43.996149792531924" lon="8.14978159970534"><ele>306.0</ele><time>2026-03-22T09:15:00Z</time></trkpt><trkpt lat="43.99602562955828" lon="8.149851496722434"><ele>306.0</ele><time>2026-03-22T09:15:02Z</time></trkpt><trkpt lat="43.99596131079903" lon="8.149885998012728"><ele>306.0</ele><time>2026-03-22T09:15:03Z</time></trkpt><trkpt lat="43.99589187098119" lon="8.14992763038785"><ele>306.0</ele><time>2026-03-22T09:15:04Z</time></trkpt><trkpt lat="43.99580163455755" lon="8.150051009340212"><ele>306.0</ele><time>2026-03-22T09:15:05.999Z</time></trkpt><trkpt lat="43.99573311340094" lon="8.15009962899361"><ele>309.8333333333333</ele><time>2026-03-22T09:15:06.999Z</time></trkpt><trkpt lat="43.99566890726795" lon="8.150180715401625"><ele>313.6666666666667</ele><time>2026-03-22T09:15:07.999Z</time></trkpt><trkpt lat="43.99559047367662" lon="8.15022422250973"><ele>317.5</ele><time>2026-03-22T09:15:08.999Z</time></trkpt><trkpt lat="43.99548657618316" lon="8.150238370451405"><ele>321.33333333333337</ele><time>2026-03-22T09:15:09.999Z</time></trkpt><trkpt lat="43.995394531520375" lon="8.150233061868052"><ele>325.1666666666667</ele><time>2026-03-22T09:15:10.999Z</time></trkpt><trkpt lat="43.99534040756214" lon="8.150178479774967"><ele>329.0</ele><time>2026-03-22T09:15:11.999Z</time></trkpt><trkpt lat="43.99529317242527" lon="8.150105787523735"><ele>329.0</ele><time>2026-03-22T09:15:12.999Z</time></trkpt><trkpt lat="43.99522784446289" lon="8.15005545060455"><ele>329.0</ele><time>2026-03-22T09:15:14.999Z</time></trkpt><trkpt lat="43.99514986381183" lon="8.150110646240154"><ele>329.0</ele><time>2026-03-22T09:15:16.999Z</time></trkpt><trkpt lat="43.995098326208115" lon="8.150201117316035"><ele>329.0</ele><time>2026-03-22T09:15:18.999Z</time></trkpt><trkpt lat="43.995044532036076" lon="8.150306214548118"><ele>329.0</ele><time>2026-03-22T09:15:20.999Z</time></trkpt><trkpt lat="43.99497842607936" lon="8.150325140660607"><ele>329.0</ele><time>2026-03-22T09:15:22.999Z</time></trkpt><trkpt lat="43.99490354394998" lon="8.150414883123815"><ele>328.4</ele><time>2026-03-22T09:15:24.999Z</time></trkpt><trkpt lat="43.9948465137794" lon="8.150469911869838"><ele>327.79999999999995</ele><time>2026-03-22T09:15:25.999Z</time></trkpt><trkpt lat="43.99476293385984" lon="8.15063251496567"><ele>327.20000000000005</ele><time>2026-03-22T09:15:27.999Z</time></trkpt><trkpt lat="43.99469336003892" lon="8.150687366917083"><ele>326.6</ele><time>2026-03-22T09:15:28.999Z</time></trkpt><trkpt lat="43.99460009649321" lon="8.15075299171486"><ele>326.0</ele><time>2026-03-22T09:15:29.999Z</time></trkpt><trkpt lat="43.99451108283394" lon="8.150817899202641"><ele>326.6</ele><time>2026-03-22T09:15:30.999Z</time></trkpt><trkpt lat="43.994411042893034" lon="8.150923230361494"><ele>327.20000000000005</ele><time>2026-03-22T09:15:32.999Z</time></trkpt><trkpt lat="43.99433315820927" lon="8.15103170797551"><ele>327.79999999999995</ele><time>2026-03-22T09:15:34.999Z</time></trkpt><trkpt lat="43.9942941285183" lon="8.15110187660535"><ele>328.4</ele><time>2026-03-22T09:15:36.999Z</time></trkpt><trkpt lat="43.99417736354652" lon="8.151203575767184"><ele>329.0</ele><time>2026-03-22T09:15:38.999Z</time></trkpt><trkpt lat="43.994095266775446" lon="8.151251936906935"><ele>329.0</ele><time>2026-03-22T09:15:39.999Z</time></trkpt><trkpt lat="43.994008789569584" lon="8.15124697672946"><ele>329.0</ele><time>2026-03-22T09:15:40.999Z</time></trkpt><trkpt lat="43.993902694163864" lon="8.151272713126211"><ele>329.0</ele><time>2026-03-22T09:15:42.999Z</time></trkpt><trkpt lat="43.99380082546658" lon="8.151293181490892"><ele>329.0</ele><time>2026-03-22T09:15:44.999Z</time></trkpt><trkpt lat="43.99374355346801" lon="8.151437707679328"><ele>329.0</ele><time>2026-03-22T09:15:46.999Z</time></trkpt><trkpt lat="43.99368043908811" lon="8.151545049442165"><ele>330.4</ele><time>2026-03-22T09:15:47.999Z</time></trkpt><trkpt lat="43.9936137898512" lon="8.151657509829738"><ele>331.79999999999995</ele><time>2026-03-22T09:15:48.999Z</time></trkpt><trkpt lat="43.99353620454308" lon="8.15170843918163"><ele>333.20000000000005</ele><time>2026-03-22T09:15:49.999Z</time></trkpt><trkpt lat="43.99347626805714" lon="8.151678566304295"><ele>334.6</ele><time>2026-03-22T09:15:50.999Z</time></trkpt><trkpt lat="43.99336359342732" lon="8.151638226734587"><ele>336.0</ele><time>2026-03-22T09:15:52Z</time></trkpt><trkpt lat="43.993218344463735" lon="8.151642591073307"><ele>336.0</ele><time>2026-03-22T09:15:54Z</time></trkpt><trkpt lat="43.99310230650927" lon="8.151675731003863"><ele>336.0</ele><time>2026-03-22T09:15:55Z</time></trkpt><trkpt lat="43.99299028623186" lon="8.151636834382204"><ele>336.0</ele><time>2026-03-22T09:15:56Z</time></trkpt><trkpt lat="43.992892495397044" lon="8.151618275341402"><ele>336.0</ele><time>2026-03-22T09:15:57Z</time></trkpt><trkpt lat="43.992825015594335" lon="8.15155485464678"><ele>336.0</ele><time>2026-03-22T09:15:58Z</time></trkpt><trkpt lat="43.99273818181692" lon="8.15148460658163"><ele>332.0</ele><time>2026-03-22T09:15:59Z</time></trkpt><trkpt lat="43.992666667415854" lon="8.151398724790534"><ele>328.0</ele><time>2026-03-22T09:16:00Z</time></trkpt><trkpt lat="43.99261632078189" lon="8.151315850464494"><ele>324.0</ele><time>2026-03-22T09:16:01Z</time></trkpt><trkpt lat="43.9925627284115" lon="8.151251526676155"><ele>320.0</ele><time>2026-03-22T09:16:02Z</time></trkpt><trkpt lat="43.992535721494015" lon="8.151172069486211"><ele>316.0</ele><time>2026-03-22T09:16:03Z</time></trkpt><trkpt lat="43.992468380032776" lon="8.151067730472784"><ele>312.0</ele><time>2026-03-22T09:16:05Z</time></trkpt><trkpt lat="43.99239970565324" lon="8.151081785684447"><ele>312.0</ele><time>2026-03-22T09:16:07Z</time></trkpt><trkpt lat="43.99229046762123" lon="8.151086858604009"><ele>312.0</ele><time>2026-03-22T09:16:09Z</time></trkpt><trkpt lat="43.992216855713586" lon="8.151086448399777"><ele>312.0</ele><time>2026-03-22T09:16:11Z</time></trkpt><trkpt lat="43.9921238828799" lon="8.151114820226672"><ele>312.0</ele><time>2026-03-22T09:16:13Z</time></trkpt><trkpt lat="43.99200129539508" lon="8.151181788735398"><ele>312.0</ele><time>2026-03-22T09:16:15Z</time></trkpt><trkpt lat="43.99194708200201" lon="8.151247175029301"><ele>312.0</ele><time>2026-03-22T09:16:16Z</time></trkpt><trkpt lat="43.99189790911419" lon="8.15130570859803"><ele>312.0</ele><time>2026-03-22T09:16:17Z</time></trkpt><trkpt lat="43.99181377655167" lon="8.151354210407018"><ele>312.0</ele><time>2026-03-22T09:16:19Z</time></trkpt><trkpt lat="43.99171704329124" lon="8.15130144637162"><ele>312.0</ele><time>2026-03-22T09:16:21Z</time></trkpt><trkpt lat="43.991652715714125" lon="8.151279681483214"><ele>312.0</ele><time>2026-03-22T09:16:22Z</time></trkpt><trkpt lat="43.991549739061135" lon="8.151308615526634"><ele>312.0</ele><time>2026-03-22T09:16:23Z</time></trkpt><trkpt lat="43.99147633457926" lon="8.151211907758945"><ele>311.0</ele><time>2026-03-22T09:16:24Z</time></trkpt><trkpt lat="43.991423634036984" lon="8.151134396478827"><ele>310.0</ele><time>2026-03-22T09:16:25Z</time></trkpt><trkpt lat="43.99136111416657" lon="8.15116471446807"><ele>309.0</ele><time>2026-03-22T09:16:28Z</time></trkpt><trkpt lat="43.991277152368205" lon="8.151184387233574"><ele>308.0</ele><time>2026-03-22T09:16:30Z</time></trkpt><trkpt lat="43.99120993047716" lon="8.151118573397643"><ele>307.0</ele><time>2026-03-22T09:16:31Z</time></trkpt><trkpt lat="43.99110037469264" lon="8.151089285597719"><ele>306.0</ele><time>2026-03-22T09:16:33Z</time></trkpt><trkpt lat="43.99102451759828" lon="8.151068968323958"><ele>306.0</ele><time>2026-03-22T09:16:34Z</time></trkpt><trkpt lat="43.99096095609293" lon="8.151077617959173"><ele>306.0</ele><time>2026-03-22T09:16:35Z</time></trkpt><trkpt lat="43.990826099507075" lon="8.150979209142914"><ele>306.0</ele><time>2026-03-22T09:16:37Z</time></trkpt><trkpt lat="43.9907584455873" lon="8.150950702794082"><ele>306.0</ele><time>2026-03-22T09:16:38Z</time></trkpt><trkpt lat="43.99068132725388" lon="8.150941804309108"><ele>306.0</ele><time>2026-03-22T09:16:39Z</time></trkpt><trkpt lat="43.99060913619293" lon="8.150935813736055"><ele>306.0</ele><time>2026-03-22T09:16:40Z</time></trkpt><trkpt lat="43.99053693043309" lon="8.150935360512875"><ele>305.0</ele><time>2026-03-22T09:16:41Z</time></trkpt><trkpt lat="43.990422049387625" lon="8.151001698156243"><ele>304.0</ele><time>2026-03-22T09:16:43Z</time></trkpt><trkpt lat="43.990381718608454" lon="8.15111727806132"><ele>303.0</ele><time>2026-03-22T09:16:45Z</time></trkpt><trkpt lat="43.990310189673046" lon="8.151231177716644"><ele>302.0</ele><time>2026-03-22T09:16:47Z</time></trkpt><trkpt lat="43.99020418009424" lon="8.151293989437288"><ele>301.0</ele><time>2026-03-22T09:16:49Z</time></trkpt><trkpt lat="43.990159275573525" lon="8.151361549874789"><ele>301.0</ele><time>2026-03-22T09:16:50Z</time></trkpt><trkpt lat="43.99009734644462" lon="8.151459509279261"><ele>301.0</ele><time>2026-03-22T09:16:52Z</time></trkpt><trkpt lat="43.9900386990535" lon="8.15137826121153"><ele>301.0</ele><time>2026-03-22T09:16:58Z</time></trkpt><trkpt lat="43.99001403130835" lon="8.15124629797241"><ele>301.0</ele><time>2026-03-22T09:17:01Z</time></trkpt><trkpt lat="43.9900029877374" lon="8.151105918512672"><ele>301.0</ele><time>2026-03-22T09:17:03Z</time></trkpt><trkpt lat="43.99004203767661" lon="8.15101766860458"><ele>301.0</ele><time>2026-03-22T09:17:04Z</time></trkpt><trkpt lat="43.9901282479051" lon="8.150898824785633"><ele>301.0</ele><time>2026-03-22T09:17:05Z</time></trkpt><trkpt lat="43.99023213450348" lon="8.15076721461155"><ele>301.0</ele><time>2026-03-22T09:17:06Z</time></trkpt><trkpt lat="43.99033050206984" lon="8.150606624832355"><ele>301.0</ele><time>2026-03-22T09:17:07Z</time></trkpt><trkpt lat="43.99038291631769" lon="8.150471915075947"><ele>297.66666666666663</ele><time>2026-03-22T09:17:08Z</time></trkpt><trkpt lat="43.99037163805935" lon="8.150381776270626"><ele>294.3333333333333</ele><time>2026-03-22T09:17:09Z</time></trkpt><trkpt lat="43.99035687690876" lon="8.150265389738927"><ele>291.0</ele><time>2026-03-22T09:17:10Z</time></trkpt><trkpt lat="43.99032732488945" lon="8.150183287279619"><ele>287.6666666666667</ele><time>2026-03-22T09:17:11Z</time></trkpt><trkpt lat="43.99027123393386" lon="8.150058504242995"><ele>284.33333333333337</ele><time>2026-03-22T09:17:13Z</time></trkpt><trkpt lat="43.99023292737002" lon="8.149974031285483"><ele>281.0</ele><time>2026-03-22T09:17:50.999Z</time></trkpt><trkpt lat="43.990130666565115" lon="8.149904729193729"><ele>284.0</ele><time>2026-03-22T09:17:52.999Z</time></trkpt><trkpt lat="43.99004926136961" lon="8.149792643234214"><ele>287.0</ele><time>2026-03-22T09:17:53.999Z</time></trkpt><trkpt lat="43.98994123850606" lon="8.14969240023564"><ele>290.0</ele><time>2026-03-22T09:17:54.999Z</time></trkpt><trkpt lat="43.98981628138842" lon="8.149572317299087"><ele>293.0</ele><time>2026-03-22T09:17:55.999Z</time></trkpt><trkpt lat="43.98971876921355" lon="8.149462491507311"><ele>293.0</ele><time>2026-03-22T09:17:56.999Z</time></trkpt><trkpt lat="43.989648103677865" lon="8.149371372178615"><ele>293.0</ele><time>2026-03-22T09:17:58Z</time></trkpt><trkpt lat="43.989588038587065" lon="8.14928427208599"><ele>293.0</ele><time>2026-03-22T09:17:59Z</time></trkpt><trkpt lat="43.98953911880215" lon="8.149188053838026"><ele>293.0</ele><time>2026-03-22T09:18:00Z</time></trkpt><trkpt lat="43.98950626233356" lon="8.14906917379404"><ele>293.0</ele><time>2026-03-22T09:18:02Z</time></trkpt><trkpt lat="43.98954950940635" lon="8.14896367704314"><ele>293.0</ele><time>2026-03-22T09:19:00Z</time></trkpt><trkpt lat="43.98950358398936" lon="8.14884446708248"><ele>292.33333333333337</ele><time>2026-03-22T09:19:01Z</time></trkpt><trkpt lat="43.98946921307257" lon="8.148696859665613"><ele>291.6666666666667</ele><time>2026-03-22T09:19:03Z</time></trkpt><trkpt lat="43.989438813139955" lon="8.14858913647597"><ele>291.0</ele><time>2026-03-22T09:19:04Z</time></trkpt><trkpt lat="43.9893893338969" lon="8.148516747274476"><ele>290.3333333333333</ele><time>2026-03-22T09:19:05Z</time></trkpt><trkpt lat="43.989337584066966" lon="8.148425790776294"><ele>289.66666666666663</ele><time>2026-03-22T09:19:06Z</time></trkpt><trkpt lat="43.98926770765938" lon="8.14833492247531"><ele>289.0</ele><time>2026-03-22T09:19:07Z</time></trkpt><trkpt lat="43.98916309359996" lon="8.148159401977642"><ele>287.2</ele><time>2026-03-22T09:19:08Z</time></trkpt><trkpt lat="43.989079387810236" lon="8.148046992937557"><ele>285.4</ele><time>2026-03-22T09:19:09Z</time></trkpt><trkpt lat="43.98898564859883" lon="8.147987838693108"><ele>283.6</ele><time>2026-03-22T09:19:10Z</time></trkpt><trkpt lat="43.98891018216442" lon="8.147927980449818"><ele>281.8</ele><time>2026-03-22T09:19:11Z</time></trkpt><trkpt lat="43.988808540690876" lon="8.147832144210593"><ele>280.0</ele><time>2026-03-22T09:19:12Z</time></trkpt><trkpt lat="43.98871865764876" lon="8.147752948982289"><ele>280.0</ele><time>2026-03-22T09:19:13Z</time></trkpt><trkpt lat="43.98865894627117" lon="8.147686631919084"><ele>280.0</ele><time>2026-03-22T09:19:14Z</time></trkpt><trkpt lat="43.98861227164478" lon="8.147607914576236"><ele>280.0</ele><time>2026-03-22T09:19:15Z</time></trkpt><trkpt lat="43.98855068724697" lon="8.147501058022838"><ele>280.0</ele><time>2026-03-22T09:19:16Z</time></trkpt><trkpt lat="43.988463212944104" lon="8.147367556857878"><ele>280.0</ele><time>2026-03-22T09:19:17Z</time></trkpt><trkpt lat="43.988350258050495" lon="8.147282510890022"><ele>277.5</ele><time>2026-03-22T09:19:18Z</time></trkpt><trkpt lat="43.9882558456556" lon="8.147222982797352"><ele>275.0</ele><time>2026-03-22T09:19:19Z</time></trkpt><trkpt lat="43.98814015786195" lon="8.147157898623417"><ele>272.5</ele><time>2026-03-22T09:19:20Z</time></trkpt><trkpt lat="43.98803254014622" lon="8.147060092361954"><ele>270.0</ele><time>2026-03-22T09:19:21Z</time></trkpt><trkpt lat="43.98791550226229" lon="8.146936199103667"><ele>270.0</ele><time>2026-03-22T09:19:22Z</time></trkpt><trkpt lat="43.98777741276922" lon="8.14687740676335"><ele>270.0</ele><time>2026-03-22T09:19:23Z</time></trkpt><trkpt lat="43.987693908615256" lon="8.146857911674912"><ele>270.0</ele><time>2026-03-22T09:19:24Z</time></trkpt><trkpt lat="43.987576289323414" lon="8.14682000414878"><ele>270.0</ele><time>2026-03-22T09:19:25Z</time></trkpt><trkpt lat="43.98745462487358" lon="8.146799791009832"><ele>270.8</ele><time>2026-03-22T09:19:26Z</time></trkpt><trkpt lat="43.98727210271135" lon="8.146823186073664"><ele>271.6</ele><time>2026-03-22T09:19:27Z</time></trkpt><trkpt lat="43.987176876439676" lon="8.146870494010347"><ele>272.4</ele><time>2026-03-22T09:19:28Z</time></trkpt><trkpt lat="43.98709198302678" lon="8.1468367033449"><ele>273.2</ele><time>2026-03-22T09:19:29Z</time></trkpt><trkpt lat="43.98704669600088" lon="8.146767426536174"><ele>274.0</ele><time>2026-03-22T09:19:30Z</time></trkpt><trkpt lat="43.98696578826082" lon="8.146695108825801"><ele>274.0</ele><time>2026-03-22T09:19:31Z</time></trkpt><trkpt lat="43.98686984729916" lon="8.146642826413387"><ele>274.0</ele><time>2026-03-22T09:19:32Z</time></trkpt><trkpt lat="43.986780336553416" lon="8.146568709913062"><ele>274.0</ele><time>2026-03-22T09:19:33Z</time></trkpt><trkpt lat="43.986713288132016" lon="8.14650388444036"><ele>274.0</ele><time>2026-03-22T09:19:34Z</time></trkpt><trkpt lat="43.986630171792754" lon="8.146304572616364"><ele>272.0</ele><time>2026-03-22T09:19:36Z</time></trkpt><trkpt lat="43.98648789822842" lon="8.14621131395717"><ele>270.0</ele><time>2026-03-22T09:19:38Z</time></trkpt><trkpt lat="43.986368231507" lon="8.146213932998448"><ele>268.0</ele><time>2026-03-22T09:19:39Z</time></trkpt><trkpt lat="43.98627167988156" lon="8.146171460776308"><ele>266.0</ele><time>2026-03-22T09:19:40Z</time></trkpt><trkpt lat="43.98614152240109" lon="8.146112304317246"><ele>266.0</ele><time>2026-03-22T09:19:41Z</time></trkpt><trkpt lat="43.986056928352944" lon="8.146081570185146"><ele>266.0</ele><time>2026-03-22T09:19:42Z</time></trkpt><trkpt lat="43.98594058148584" lon="8.146105249712868"><ele>266.0</ele><time>2026-03-22T09:19:44Z</time></trkpt><trkpt lat="43.98582096107916" lon="8.146077706692248"><ele>266.0</ele><time>2026-03-22T09:19:45Z</time></trkpt><trkpt lat="43.985714574580484" lon="8.146078273797519"><ele>266.0</ele><time>2026-03-22T09:19:46Z</time></trkpt><trkpt lat="43.98561940801706" lon="8.146105800299102"><ele>264.6666666666667</ele><time>2026-03-22T09:19:47Z</time></trkpt><trkpt lat="43.98552156197089" lon="8.146129281411339"><ele>263.33333333333337</ele><time>2026-03-22T09:19:48Z</time></trkpt><trkpt lat="43.98543342364367" lon="8.146120542535543"><ele>262.0</ele><time>2026-03-22T09:19:49Z</time></trkpt><trkpt lat="43.98536948185367" lon="8.146099298180504"><ele>260.6666666666667</ele><time>2026-03-22T09:19:50Z</time></trkpt><trkpt lat="43.985322317600996" lon="8.146022040881672"><ele>259.3333333333333</ele><time>2026-03-22T09:19:51Z</time></trkpt><trkpt lat="43.98523240667524" lon="8.14602547800815"><ele>258.0</ele><time>2026-03-22T09:19:52Z</time></trkpt><trkpt lat="43.98514282479229" lon="8.146049543861876"><ele>258.0</ele><time>2026-03-22T09:19:53Z</time></trkpt><trkpt lat="43.98505292202171" lon="8.146071704699866"><ele>258.0</ele><time>2026-03-22T09:19:54Z</time></trkpt><trkpt lat="43.984936357442066" lon="8.146085805843459"><ele>258.0</ele><time>2026-03-22T09:19:55Z</time></trkpt><trkpt lat="43.9848177454987" lon="8.146088144220204"><ele>258.0</ele><time>2026-03-22T09:19:57Z</time></trkpt><trkpt lat="43.984718303727284" lon="8.146072508693896"><ele>258.0</ele><time>2026-03-22T09:19:58Z</time></trkpt><trkpt lat="43.98439987533072" lon="8.146053968385386"><ele>257.0</ele><time>2026-03-22T09:19:59Z</time></trkpt><trkpt lat="43.98426651822137" lon="8.146195675235681"><ele>256.0</ele><time>2026-03-22T09:20:00Z</time></trkpt><trkpt lat="43.984152309574505" lon="8.146321383648322"><ele>255.0</ele><time>2026-03-22T09:20:01Z</time></trkpt><trkpt lat="43.98406462825681" lon="8.146406782904382"><ele>254.0</ele><time>2026-03-22T09:20:01.999Z</time></trkpt><trkpt lat="43.98395737285248" lon="8.146505856343108"><ele>254.0</ele><time>2026-03-22T09:20:03Z</time></trkpt><trkpt lat="43.98384905548634" lon="8.14661861896947"><ele>254.0</ele><time>2026-03-22T09:20:04Z</time></trkpt><trkpt lat="43.98375899767255" lon="8.146730149005995"><ele>254.0</ele><time>2026-03-22T09:20:05Z</time></trkpt><trkpt lat="43.983698510005624" lon="8.146875555692427"><ele>254.0</ele><time>2026-03-22T09:20:06Z</time></trkpt><trkpt lat="43.98359007836909" lon="8.146934890844195"><ele>254.0</ele><time>2026-03-22T09:20:07Z</time></trkpt><trkpt lat="43.98346557665355" lon="8.146972818002908"><ele>254.0</ele><time>2026-03-22T09:20:08Z</time></trkpt><trkpt lat="43.98335189419317" lon="8.14697914769447"><ele>254.0</ele><time>2026-03-22T09:20:10Z</time></trkpt><trkpt lat="43.98318153654352" lon="8.147001674478986"><ele>254.0</ele><time>2026-03-22T09:20:12Z</time></trkpt><trkpt lat="43.98306848431716" lon="8.14701576152638"><ele>252.2</ele><time>2026-03-22T09:20:13Z</time></trkpt><trkpt lat="43.982952706955174" lon="8.147004570086644"><ele>250.39999999999998</ele><time>2026-03-22T09:20:15Z</time></trkpt><trkpt lat="43.982887494121655" lon="8.147001704994693"><ele>248.6</ele><time>2026-03-22T09:20:16Z</time></trkpt><trkpt lat="43.98278037903715" lon="8.146998568899477"><ele>246.8</ele><time>2026-03-22T09:20:17Z</time></trkpt><trkpt lat="43.98269300170767" lon="8.146997532716627"><ele>245.0</ele><time>2026-03-22T09:20:18Z</time></trkpt><trkpt lat="43.982609900008335" lon="8.146999757547176"><ele>243.6</ele><time>2026-03-22T09:20:19Z</time></trkpt><trkpt lat="43.98251106601986" lon="8.147002829267294"><ele>242.2</ele><time>2026-03-22T09:20:20Z</time></trkpt><trkpt lat="43.982374713129886" lon="8.14700021426865"><ele>240.8</ele><time>2026-03-22T09:20:21Z</time></trkpt><trkpt lat="43.98224189506079" lon="8.147053203622908"><ele>239.4</ele><time>2026-03-22T09:20:22Z</time></trkpt><trkpt lat="43.982175675181736" lon="8.147078597298814"><ele>238.0</ele><time>2026-03-22T09:20:23Z</time></trkpt><trkpt lat="43.98208302989148" lon="8.147111231277826"><ele>238.0</ele><time>2026-03-22T09:20:24Z</time></trkpt><trkpt lat="43.98194257094469" lon="8.147157084465078"><ele>238.0</ele><time>2026-03-22T09:20:25Z</time></trkpt><trkpt lat="43.981762257911306" lon="8.147218431696711"><ele>238.0</ele><time>2026-03-22T09:20:27Z</time></trkpt><trkpt lat="43.981606970404385" lon="8.147288166314354"><ele>236.8</ele><time>2026-03-22T09:20:28Z</time></trkpt><trkpt lat="43.9815004458216" lon="8.147336532966191"><ele>235.60000000000002</ele><time>2026-03-22T09:20:29Z</time></trkpt><trkpt lat="43.98139677979364" lon="8.147351153659143"><ele>234.39999999999998</ele><time>2026-03-22T09:20:30Z</time></trkpt><trkpt lat="43.98133144421092" lon="8.147335449434275"><ele>233.2</ele><time>2026-03-22T09:20:31Z</time></trkpt><trkpt lat="43.98122217197836" lon="8.147319371168273"><ele>232.0</ele><time>2026-03-22T09:20:33Z</time></trkpt><trkpt lat="43.981197207587854" lon="8.147224984385689"><ele>232.0</ele><time>2026-03-22T09:20:38Z</time></trkpt><trkpt lat="43.98112914414818" lon="8.147203252820646"><ele>232.0</ele><time>2026-03-22T09:20:41Z</time></trkpt><trkpt lat="43.98090112079482" lon="8.147652881480056"><ele>233.33333333333331</ele><time>2026-03-22T09:20:42Z</time></trkpt><trkpt lat="43.98082286948113" lon="8.147663235887697"><ele>234.66666666666669</ele><time>2026-03-22T09:20:44Z</time></trkpt><trkpt lat="43.980717723047114" lon="8.147686425837263"><ele>236.0</ele><time>2026-03-22T09:20:45Z</time></trkpt><trkpt lat="43.98064116998081" lon="8.146882259249622"><ele>236.0</ele><time>2026-03-22T09:20:46Z</time></trkpt><trkpt lat="43.980396194324484" lon="8.14783428415027"><ele>236.0</ele><time>2026-03-22T09:20:51Z</time></trkpt><trkpt lat="43.98030995608065" lon="8.147851537778296"><ele>236.00000000000003</ele><time>2026-03-22T09:20:52Z</time></trkpt><trkpt lat="43.98021107898756" lon="8.147886686328667"><ele>236.00000000000003</ele><time>2026-03-22T09:20:53Z</time></trkpt><trkpt lat="43.9801113909763" lon="8.147899850226162"><ele>236.0</ele><time>2026-03-22T09:20:54Z</time></trkpt><trkpt lat="43.97999029334439" lon="8.14788559821267"><ele>236.0</ele><time>2026-03-22T09:20:55Z</time></trkpt><trkpt lat="43.979891245947144" lon="8.147864569378342"><ele>232.60000000000002</ele><time>2026-03-22T09:20:56Z</time></trkpt><trkpt lat="43.979832040426004" lon="8.147818895488303"><ele>229.20000000000002</ele><time>2026-03-22T09:20:57Z</time></trkpt><trkpt lat="43.97976305467121" lon="8.147773834952986"><ele>225.79999999999998</ele><time>2026-03-22T09:20:58Z</time></trkpt><trkpt lat="43.97967454920335" lon="8.147792614917405"><ele>222.39999999999998</ele><time>2026-03-22T09:20:59Z</time></trkpt><trkpt lat="43.97956777540579" lon="8.14776792708363"><ele>219.0</ele><time>2026-03-22T09:21:00Z</time></trkpt><trkpt lat="43.97946463201683" lon="8.147703277171672"><ele>219.0</ele><time>2026-03-22T09:21:01Z</time></trkpt><trkpt lat="43.979393566957945" lon="8.147715376328325"><ele>219.0</ele><time>2026-03-22T09:21:02Z</time></trkpt><trkpt lat="43.97931898496641" lon="8.147738486935914"><ele>219.0</ele><time>2026-03-22T09:21:03Z</time></trkpt><trkpt lat="43.979214089983174" lon="8.147804661300208"><ele>219.0</ele><time>2026-03-22T09:21:05Z</time></trkpt><trkpt lat="43.97912822093785" lon="8.147823202239858"><ele>219.0</ele><time>2026-03-22T09:21:06Z</time></trkpt><trkpt lat="43.97903587572224" lon="8.147834335560589"><ele>219.0</ele><time>2026-03-22T09:21:07Z</time></trkpt><trkpt lat="43.9789485707072" lon="8.14784390290644"><ele>218.6</ele><time>2026-03-22T09:21:08Z</time></trkpt><trkpt lat="43.97885301831126" lon="8.147935476519176"><ele>218.2</ele><time>2026-03-22T09:21:09Z</time></trkpt><trkpt lat="43.97877123671432" lon="8.147993394140155"><ele>217.79999999999998</ele><time>2026-03-22T09:21:10Z</time></trkpt><trkpt lat="43.97866704285503" lon="8.148053967238429"><ele>217.39999999999998</ele><time>2026-03-22T09:21:12Z</time></trkpt><trkpt lat="43.97856678524268" lon="8.148136411772459"><ele>217.0</ele><time>2026-03-22T09:21:14Z</time></trkpt><trkpt lat="43.97842842340601" lon="8.148252353472342"><ele>215.83333333333331</ele><time>2026-03-22T09:21:16Z</time></trkpt><trkpt lat="43.978312304761104" lon="8.14827606369614"><ele>214.66666666666666</ele><time>2026-03-22T09:21:18Z</time></trkpt><trkpt lat="43.978247623637934" lon="8.14828356916508"><ele>213.5</ele><time>2026-03-22T09:21:19Z</time></trkpt><trkpt lat="43.97817111449353" lon="8.148297590648218"><ele>212.33333333333331</ele><time>2026-03-22T09:21:20Z</time></trkpt><trkpt lat="43.9781052921284" lon="8.148350142704983"><ele>211.16666666666666</ele><time>2026-03-22T09:21:21Z</time></trkpt><trkpt lat="43.978041876339326" lon="8.148385871175376"><ele>210.0</ele><time>2026-03-22T09:21:22Z</time></trkpt><trkpt lat="43.9779141887189" lon="8.14839971416538"><ele>210.0</ele><time>2026-03-22T09:21:24Z</time></trkpt><trkpt lat="43.9778216713873" lon="8.148442452841373"><ele>210.0</ele><time>2026-03-22T09:21:25Z</time></trkpt><trkpt lat="43.97773071457102" lon="8.148494354478114"><ele>210.0</ele><time>2026-03-22T09:21:26Z</time></trkpt><trkpt lat="43.97762034495102" lon="8.148540271600863"><ele>210.0</ele><time>2026-03-22T09:21:27Z</time></trkpt><trkpt lat="43.97752432003582" lon="8.148569671220983"><ele>210.0</ele><time>2026-03-22T09:21:28Z</time></trkpt><trkpt lat="43.977455167360176" lon="8.148607778638393"><ele>208.33333333333334</ele><time>2026-03-22T09:21:29Z</time></trkpt><trkpt lat="43.97738396807417" lon="8.148669627495321"><ele>206.66666666666669</ele><time>2026-03-22T09:21:30Z</time></trkpt><trkpt lat="43.977317469688785" lon="8.148714071103429"><ele>205.0</ele><time>2026-03-22T09:21:31Z</time></trkpt><trkpt lat="43.97724810201067" lon="8.148704934013432"><ele>203.33333333333334</ele><time>2026-03-22T09:21:33Z</time></trkpt><trkpt lat="43.9772712447455" lon="8.148603964663513"><ele>201.66666666666669</ele><time>2026-03-22T09:21:36Z</time></trkpt><trkpt lat="43.97736993427796" lon="8.14856459600607"><ele>200.0</ele><time>2026-03-22T09:21:39Z</time></trkpt><trkpt lat="43.977471576667504" lon="8.148492183131275"><ele>200.2</ele><time>2026-03-22T09:21:41Z</time></trkpt><trkpt lat="43.977538833494464" lon="8.148433166870339"><ele>200.4</ele><time>2026-03-22T09:21:42Z</time></trkpt><trkpt lat="43.97758852306188" lon="8.148193422028235"><ele>200.60000000000002</ele><time>2026-03-22T09:21:44Z</time></trkpt><trkpt lat="43.97768720581161" lon="8.148157692190521"><ele>200.8</ele><time>2026-03-22T09:21:46Z</time></trkpt><trkpt lat="43.977763425619344" lon="8.148131757863686"><ele>201.0</ele><time>2026-03-22T09:21:47Z</time></trkpt><trkpt lat="43.97783968923758" lon="8.148106514359739"><ele>201.0</ele><time>2026-03-22T09:21:48Z</time></trkpt><trkpt lat="43.977921911224115" lon="8.148079298620953"><ele>201.0</ele><time>2026-03-22T09:21:49Z</time></trkpt><trkpt lat="43.977998093963116" lon="8.148052771939836"><ele>201.0</ele><time>2026-03-22T09:21:50Z</time></trkpt><trkpt lat="43.978061205378474" lon="8.148029488020997"><ele>201.0</ele><time>2026-03-22T09:21:51Z</time></trkpt><trkpt lat="43.97814419233589" lon="8.147988539255225"><ele>201.0</ele><time>2026-03-22T09:21:53Z</time></trkpt><trkpt lat="43.97827696806218" lon="8.14790481090568"><ele>204.20000000000002</ele><time>2026-03-22T09:21:55Z</time></trkpt><trkpt lat="43.97839196309706" lon="8.1478149203698"><ele>207.4</ele><time>2026-03-22T09:21:57Z</time></trkpt><trkpt lat="43.978466694211455" lon="8.14775053932113"><ele>210.6</ele><time>2026-03-22T09:21:59Z</time></trkpt><trkpt lat="43.97851434312474" lon="8.147692748581589"><ele>213.8</ele><time>2026-03-22T09:22:01Z</time></trkpt><trkpt lat="43.97858588045317" lon="8.147583399782405"><ele>217.0</ele><time>2026-03-22T09:22:04Z</time></trkpt><trkpt lat="43.97866471970439" lon="8.147412625903304"><ele>211.8</ele><time>2026-03-22T09:22:04.999Z</time></trkpt><trkpt lat="43.97874745129983" lon="8.147356124573433"><ele>206.6</ele><time>2026-03-22T09:22:05.999Z</time></trkpt><trkpt lat="43.97882622376436" lon="8.147321207192148"><ele>201.4</ele><time>2026-03-22T09:22:06.999Z</time></trkpt><trkpt lat="43.9789703982736" lon="8.147305254600413"><ele>196.20000000000002</ele><time>2026-03-22T09:22:07.999Z</time></trkpt><trkpt lat="43.97906451606212" lon="8.147316744488446"><ele>191.0</ele><time>2026-03-22T09:22:09Z</time></trkpt><trkpt lat="43.97917585001666" lon="8.147330023134502"><ele>193.4</ele><time>2026-03-22T09:22:11Z</time></trkpt><trkpt lat="43.97927340249936" lon="8.147339427953334"><ele>195.8</ele><time>2026-03-22T09:22:12Z</time></trkpt><trkpt lat="43.97937673783907" lon="8.147349390299"><ele>198.20000000000002</ele><time>2026-03-22T09:22:13Z</time></trkpt><trkpt lat="43.97944261924177" lon="8.147355741776783"><ele>200.60000000000002</ele><time>2026-03-22T09:22:14Z</time></trkpt><trkpt lat="43.979549480531404" lon="8.147366044041902"><ele>203.0</ele><time>2026-03-22T09:22:15Z</time></trkpt><trkpt lat="43.979650593479214" lon="8.147377323817231"><ele>206.2</ele><time>2026-03-22T09:22:16Z</time></trkpt><trkpt lat="43.97974693738882" lon="8.147392415255732"><ele>209.4</ele><time>2026-03-22T09:22:17Z</time></trkpt><trkpt lat="43.979845563760996" lon="8.147409735588427"><ele>212.59999999999997</ele><time>2026-03-22T09:22:18Z</time></trkpt><trkpt lat="43.97992353549203" lon="8.147416278649509"><ele>215.79999999999998</ele><time>2026-03-22T09:22:19Z</time></trkpt><trkpt lat="43.9800033560259" lon="8.147419262993353"><ele>219.0</ele><time>2026-03-22T09:22:20Z</time></trkpt><trkpt lat="43.980102300967204" lon="8.147413964627939"><ele>223.25</ele><time>2026-03-22T09:22:21Z</time></trkpt><trkpt lat="43.9801747576117" lon="8.147620289790117"><ele>227.5</ele><time>2026-03-22T09:22:22Z</time></trkpt><trkpt lat="43.98025037408748" lon="8.147675932012092"><ele>231.75</ele><time>2026-03-22T09:22:24Z</time></trkpt><trkpt lat="43.980403865690604" lon="8.147718114937945"><ele>236.0</ele><time>2026-03-22T09:22:28Z</time></trkpt><trkpt lat="43.98046369236823" lon="8.147680986836475"><ele>236.0</ele><time>2026-03-22T09:22:31Z</time></trkpt><trkpt lat="43.98056087411679" lon="8.147622848619871"><ele>236.0</ele><time>2026-03-22T09:22:44Z</time></trkpt><trkpt lat="43.98074140631786" lon="8.147430640300666"><ele>236.0</ele><time>2026-03-22T09:22:47Z</time></trkpt><trkpt lat="43.98080341893385" lon="8.147319369587484"><ele>236.0</ele><time>2026-03-22T09:22:48Z</time></trkpt><trkpt lat="43.98084608206954" lon="8.147181916692409"><ele>235.33333333333334</ele><time>2026-03-22T09:22:49Z</time></trkpt><trkpt lat="43.980872731147706" lon="8.14702572933777"><ele>234.66666666666669</ele><time>2026-03-22T09:22:50Z</time></trkpt><trkpt lat="43.98089255128458" lon="8.146933507849445"><ele>234.0</ele><time>2026-03-22T09:22:51Z</time></trkpt><trkpt lat="43.98091503727545" lon="8.146848368544559"><ele>233.33333333333331</ele><time>2026-03-22T09:22:52Z</time></trkpt><trkpt lat="43.98101115107709" lon="8.146845843331734"><ele>232.66666666666666</ele><time>2026-03-22T09:22:54Z</time></trkpt><trkpt lat="43.98111096091303" lon="8.146867532594765"><ele>232.0</ele><time>2026-03-22T09:22:55Z</time></trkpt><trkpt lat="43.98120639696924" lon="8.1468976943973"><ele>232.00000000000003</ele><time>2026-03-22T09:22:56Z</time></trkpt><trkpt lat="43.98126498965886" lon="8.146937572929048"><ele>232.0</ele><time>2026-03-22T09:22:59Z</time></trkpt><trkpt lat="43.98119512244807" lon="8.147001182743864"><ele>232.00000000000003</ele><time>2026-03-22T09:23:05Z</time></trkpt><trkpt lat="43.98125199277132" lon="8.147053847755636"><ele>232.00000000000003</ele><time>2026-03-22T09:23:07Z</time></trkpt><trkpt lat="43.98122271494983" lon="8.147163118466166"><ele>232.0</ele><time>2026-03-22T09:23:10Z</time></trkpt><trkpt lat="43.98119183872362" lon="8.147254395327513"><ele>232.00000000000003</ele><time>2026-03-22T09:23:12Z</time></trkpt><trkpt lat="43.9812249231479" lon="8.147346440026228"><ele>232.00000000000003</ele><time>2026-03-22T09:23:14Z</time></trkpt><trkpt lat="43.981348791248" lon="8.147361988996042"><ele>232.0</ele><time>2026-03-22T09:23:17Z</time></trkpt><trkpt lat="43.98142805590259" lon="8.147359888143052"><ele>232.0</ele><time>2026-03-22T09:23:18Z</time></trkpt><trkpt lat="43.981522541843574" lon="8.147337290556562"><ele>232.0</ele><time>2026-03-22T09:23:19Z</time></trkpt><trkpt lat="43.98165879121616" lon="8.147265034486413"><ele>232.0</ele><time>2026-03-22T09:23:20Z</time></trkpt><trkpt lat="43.98175936356703" lon="8.147230837595767"><ele>232.0</ele><time>2026-03-22T09:23:21Z</time></trkpt><trkpt lat="43.98186254155452" lon="8.14719591409305"><ele>233.5</ele><time>2026-03-22T09:23:22Z</time></trkpt><trkpt lat="43.98199360422677" lon="8.147142495924074"><ele>235.0</ele><time>2026-03-22T09:23:23Z</time></trkpt><trkpt lat="43.982136929291784" lon="8.147080218116042"><ele>236.5</ele><time>2026-03-22T09:23:24Z</time></trkpt><trkpt lat="43.98227070289778" lon="8.147041525418427"><ele>238.0</ele><time>2026-03-22T09:23:25Z</time></trkpt><trkpt lat="43.98238646382954" lon="8.147008460086619"><ele>238.0</ele><time>2026-03-22T09:23:26Z</time></trkpt><trkpt lat="43.98249316432845" lon="8.14701481017774"><ele>238.0</ele><time>2026-03-22T09:23:27Z</time></trkpt><trkpt lat="43.98259902946126" lon="8.147023920629993"><ele>238.0</ele><time>2026-03-22T09:23:28Z</time></trkpt><trkpt lat="43.98272076128238" lon="8.14702506819564"><ele>238.0</ele><time>2026-03-22T09:23:29Z</time></trkpt><trkpt lat="43.98284011398117" lon="8.147032427548048"><ele>239.75</ele><time>2026-03-22T09:23:30Z</time></trkpt><trkpt lat="43.982960791827814" lon="8.147034789073832"><ele>241.5</ele><time>2026-03-22T09:23:31Z</time></trkpt><trkpt lat="43.98308365864718" lon="8.147058338955674"><ele>243.25</ele><time>2026-03-22T09:23:32Z</time></trkpt><trkpt lat="43.983189500693406" lon="8.147029073175355"><ele>245.0</ele><time>2026-03-22T09:23:33Z</time></trkpt><trkpt lat="43.98329897725719" lon="8.147022320976985"><ele>246.8</ele><time>2026-03-22T09:23:34Z</time></trkpt><trkpt lat="43.98341496902622" lon="8.147021144248624"><ele>248.6</ele><time>2026-03-22T09:23:35Z</time></trkpt><trkpt lat="43.983527712546326" lon="8.14700293002647"><ele>250.39999999999998</ele><time>2026-03-22T09:23:36Z</time></trkpt><trkpt lat="43.983612625410856" lon="8.146956423724014"><ele>252.2</ele><time>2026-03-22T09:23:37Z</time></trkpt><trkpt lat="43.98368862299717" lon="8.146930258039145"><ele>254.0</ele><time>2026-03-22T09:23:38Z</time></trkpt><trkpt lat="43.98374479218666" lon="8.14685667634424"><ele>254.00000000000003</ele><time>2026-03-22T09:23:39Z</time></trkpt><trkpt lat="43.98380918425488" lon="8.146765728119583"><ele>254.0</ele><time>2026-03-22T09:23:40Z</time></trkpt><trkpt lat="43.983871750081505" lon="8.146668945684288"><ele>254.0</ele><time>2026-03-22T09:23:41Z</time></trkpt><trkpt lat="43.983950845669455" lon="8.146567518343145"><ele>254.0</ele><time>2026-03-22T09:23:43Z</time></trkpt><trkpt lat="43.984005002988404" lon="8.146514242442663"><ele>254.00000000000003</ele><time>2026-03-22T09:23:44Z</time></trkpt><trkpt lat="43.98406670007401" lon="8.146466547227721"><ele>254.0</ele><time>2026-03-22T09:23:45Z</time></trkpt><trkpt lat="43.98411857896226" lon="8.146395765507522"><ele>254.0</ele><time>2026-03-22T09:23:46Z</time></trkpt><trkpt lat="43.98417045930092" lon="8.146333611974526"><ele>253.99999999999997</ele><time>2026-03-22T09:23:47Z</time></trkpt><trkpt lat="43.98423716137395" lon="8.146230770024761"><ele>253.99999999999997</ele><time>2026-03-22T09:23:48Z</time></trkpt><trkpt lat="43.98432168768783" lon="8.146195893846807"><ele>254.0</ele><time>2026-03-22T09:23:49Z</time></trkpt><trkpt lat="43.98442066216168" lon="8.14607589170375"><ele>254.0</ele><time>2026-03-22T09:23:51Z</time></trkpt><trkpt lat="43.98448908491096" lon="8.146037725087892"><ele>253.83333333333334</ele><time>2026-03-22T09:23:52Z</time></trkpt><trkpt lat="43.98456296925821" lon="8.146023573390726"><ele>253.66666666666669</ele><time>2026-03-22T09:23:53Z</time></trkpt><trkpt lat="43.98461867401829" lon="8.146064409056255"><ele>253.5</ele><time>2026-03-22T09:23:54Z</time></trkpt><trkpt lat="43.98468538286332" lon="8.146091635419367"><ele>253.33333333333331</ele><time>2026-03-22T09:23:55Z</time></trkpt><trkpt lat="43.98478128099934" lon="8.14612442109314"><ele>253.16666666666666</ele><time>2026-03-22T09:23:56Z</time></trkpt><trkpt lat="43.984887675517236" lon="8.146123436174637"><ele>253.0</ele><time>2026-03-22T09:23:57Z</time></trkpt><trkpt lat="43.98498878996753" lon="8.146121826783267"><ele>254.25</ele><time>2026-03-22T09:23:58Z</time></trkpt><trkpt lat="43.985120114570755" lon="8.146098354708531"><ele>255.5</ele><time>2026-03-22T09:23:59Z</time></trkpt><trkpt lat="43.98527515612698" lon="8.1460647199916"><ele>256.75</ele><time>2026-03-22T09:24:00Z</time></trkpt><trkpt lat="43.98539719151891" lon="8.146158913430888"><ele>258.0</ele><time>2026-03-22T09:24:01Z</time></trkpt><trkpt lat="43.98547708424212" lon="8.146163139856906"><ele>258.0</ele><time>2026-03-22T09:24:02Z</time></trkpt><trkpt lat="43.98554345544853" lon="8.146158959960857"><ele>258.0</ele><time>2026-03-22T09:24:03Z</time></trkpt><trkpt lat="43.98563198381294" lon="8.146133374392067"><ele>258.0</ele><time>2026-03-22T09:24:05Z</time></trkpt><trkpt lat="43.98573580679825" lon="8.146123000155159"><ele>258.0</ele><time>2026-03-22T09:24:07Z</time></trkpt><trkpt lat="43.98582017381071" lon="8.146123811999429"><ele>258.0</ele><time>2026-03-22T09:24:08Z</time></trkpt><trkpt lat="43.98589226738892" lon="8.146132096456647"><ele>258.0</ele><time>2026-03-22T09:24:09Z</time></trkpt><trkpt lat="43.9859620191765" lon="8.146149959051153"><ele>260.0</ele><time>2026-03-22T09:24:10Z</time></trkpt><trkpt lat="43.98604070706844" lon="8.146148103330162"><ele>262.0</ele><time>2026-03-22T09:24:12Z</time></trkpt><trkpt lat="43.98615182673151" lon="8.14614938485971"><ele>264.0</ele><time>2026-03-22T09:24:14Z</time></trkpt><trkpt lat="43.986309914009055" lon="8.146108453139403"><ele>266.0</ele><time>2026-03-22T09:24:15Z</time></trkpt><trkpt lat="43.98644723064951" lon="8.146170880061478"><ele>266.0</ele><time>2026-03-22T09:24:21Z</time></trkpt><trkpt lat="43.986524247291406" lon="8.146271403544585"><ele>266.0</ele><time>2026-03-22T09:24:23Z</time></trkpt><trkpt lat="43.98658532114259" lon="8.146321848818744"><ele>266.0</ele><time>2026-03-22T09:24:24Z</time></trkpt><trkpt lat="43.98663677549122" lon="8.146372922156695"><ele>266.0</ele><time>2026-03-22T09:24:25Z</time></trkpt><trkpt lat="43.98670666368429" lon="8.146508847599897"><ele>266.0</ele><time>2026-03-22T09:24:28Z</time></trkpt><trkpt lat="43.986753011336056" lon="8.14659007783856"><ele>266.0</ele><time>2026-03-22T09:24:29Z</time></trkpt><trkpt lat="43.986804887504825" lon="8.146671597797857"><ele>267.6</ele><time>2026-03-22T09:24:30Z</time></trkpt><trkpt lat="43.98685517492669" lon="8.146750621158315"><ele>269.20000000000005</ele><time>2026-03-22T09:24:32Z</time></trkpt><trkpt lat="43.98701622204186" lon="8.14678938251653"><ele>270.79999999999995</ele><time>2026-03-22T09:24:33Z</time></trkpt><trkpt lat="43.98711870555625" lon="8.146873793653148"><ele>272.4</ele><time>2026-03-22T09:24:34Z</time></trkpt><trkpt lat="43.987180466202034" lon="8.14690844705056"><ele>274.0</ele><time>2026-03-22T09:24:35Z</time></trkpt><trkpt lat="43.9872911340299" lon="8.146936402072079"><ele>274.0</ele><time>2026-03-22T09:24:36Z</time></trkpt><trkpt lat="43.98735209246423" lon="8.146851523897649"><ele>274.0</ele><time>2026-03-22T09:24:37Z</time></trkpt><trkpt lat="43.98743117640024" lon="8.146850015353463"><ele>274.0</ele><time>2026-03-22T09:24:40Z</time></trkpt><trkpt lat="43.98756171733858" lon="8.146875514303494"><ele>274.0</ele><time>2026-03-22T09:24:42Z</time></trkpt><trkpt lat="43.987633154788995" lon="8.146884574066544"><ele>274.0</ele><time>2026-03-22T09:24:43Z</time></trkpt><trkpt lat="43.987744438153" lon="8.146906191005543"><ele>273.2</ele><time>2026-03-22T09:24:45Z</time></trkpt><trkpt lat="43.987831107779805" lon="8.146932507711037"><ele>272.4</ele><time>2026-03-22T09:24:47Z</time></trkpt><trkpt lat="43.98792145287409" lon="8.146974462301083"><ele>271.6</ele><time>2026-03-22T09:24:50Z</time></trkpt><trkpt lat="43.98802334601518" lon="8.147077872590962"><ele>270.8</ele><time>2026-03-22T09:24:52Z</time></trkpt><trkpt lat="43.988114619061484" lon="8.14715733170533"><ele>270.0</ele><time>2026-03-22T09:24:54Z</time></trkpt><trkpt lat="43.98821918985012" lon="8.147220805015728"><ele>270.0</ele><time>2026-03-22T09:24:56Z</time></trkpt><trkpt lat="43.98829499814041" lon="8.147260975635037"><ele>270.0</ele><time>2026-03-22T09:24:58Z</time></trkpt><trkpt lat="43.9883819157715" lon="8.147307076813226"><ele>270.0</ele><time>2026-03-22T09:25:01Z</time></trkpt><trkpt lat="43.98848574693528" lon="8.147409063905105"><ele>270.0</ele><time>2026-03-22T09:25:03Z</time></trkpt><trkpt lat="43.98852368602305" lon="8.147528327990996"><ele>270.0</ele><time>2026-03-22T09:25:05Z</time></trkpt><trkpt lat="43.988573637636705" lon="8.14761360462489"><ele>272.0</ele><time>2026-03-22T09:25:07Z</time></trkpt><trkpt lat="43.988639547796275" lon="8.147615518935233"><ele>274.0</ele><time>2026-03-22T09:26:20Z</time></trkpt><trkpt lat="43.98873738982012" lon="8.14760271006201"><ele>276.0</ele><time>2026-03-22T09:26:22Z</time></trkpt><trkpt lat="43.988802687539234" lon="8.147661116400084"><ele>278.0</ele><time>2026-03-22T09:26:23Z</time></trkpt><trkpt lat="43.988865296270866" lon="8.147693273513244"><ele>280.0</ele><time>2026-03-22T09:26:24Z</time></trkpt><trkpt lat="43.98886100466594" lon="8.147925573699736"><ele>280.0</ele><time>2026-03-22T09:26:25Z</time></trkpt><trkpt lat="43.988962543771" lon="8.148004991972787"><ele>280.0</ele><time>2026-03-22T09:26:27Z</time></trkpt><trkpt lat="43.98904970493265" lon="8.148075775423447"><ele>280.0</ele><time>2026-03-22T09:26:29Z</time></trkpt><trkpt lat="43.98910568306531" lon="8.14812773797178"><ele>280.0</ele><time>2026-03-22T09:26:30Z</time></trkpt><trkpt lat="43.98919600363301" lon="8.148253057876705"><ele>280.0</ele><time>2026-03-22T09:26:32Z</time></trkpt><trkpt lat="43.98922180434693" lon="8.148346370123802"><ele>283.0</ele><time>2026-03-22T09:26:34Z</time></trkpt><trkpt lat="43.98931475348093" lon="8.14848728200957"><ele>286.0</ele><time>2026-03-22T09:26:37Z</time></trkpt><trkpt lat="43.98942550790717" lon="8.148645780892975"><ele>289.0</ele><time>2026-03-22T09:26:38Z</time></trkpt><trkpt lat="43.9898711705372" lon="8.148216584691593"><ele>289.0</ele><time>2026-03-22T09:26:40Z</time></trkpt><trkpt lat="43.98997129831823" lon="8.148279302047055"><ele>289.0</ele><time>2026-03-22T09:26:42Z</time></trkpt><trkpt lat="43.99000802774925" lon="8.148352909493294"><ele>289.0</ele><time>2026-03-22T09:26:43Z</time></trkpt><trkpt lat="43.99001188458031" lon="8.14846560129928"><ele>289.0</ele><time>2026-03-22T09:26:44Z</time></trkpt><trkpt lat="43.99002431126836" lon="8.148615341452915"><ele>289.0</ele><time>2026-03-22T09:26:45Z</time></trkpt><trkpt lat="43.99004801393279" lon="8.148807919525847"><ele>283.59999999999997</ele><time>2026-03-22T09:26:46Z</time></trkpt><trkpt lat="43.990077629659886" lon="8.148986950997337"><ele>278.2</ele><time>2026-03-22T09:26:47Z</time></trkpt><trkpt lat="43.9900783574677" lon="8.149115861211667"><ele>272.79999999999995</ele><time>2026-03-22T09:26:48Z</time></trkpt><trkpt lat="43.99006900401637" lon="8.14923394247699"><ele>267.4</ele><time>2026-03-22T09:26:49Z</time></trkpt><trkpt lat="43.990066712004555" lon="8.14936106289724"><ele>262.0</ele><time>2026-03-22T09:26:50Z</time></trkpt><trkpt lat="43.990074161454004" lon="8.149478429017952"><ele>262.0</ele><time>2026-03-22T09:26:51Z</time></trkpt><trkpt lat="43.99008154887927" lon="8.149602074628218"><ele>262.0</ele><time>2026-03-22T09:26:52Z</time></trkpt><trkpt lat="43.99014202673842" lon="8.149729153468208"><ele>262.0</ele><time>2026-03-22T09:26:54Z</time></trkpt><trkpt lat="43.990141848068895" lon="8.149888726769785"><ele>262.0</ele><time>2026-03-22T09:26:55Z</time></trkpt><trkpt lat="43.990185421490644" lon="8.14995193290127"><ele>262.0</ele><time>2026-03-22T09:26:57Z</time></trkpt><trkpt lat="43.99031416972388" lon="8.149745166555249"><ele>262.0</ele><time>2026-03-22T09:26:59Z</time></trkpt><trkpt lat="43.99042994633612" lon="8.149700305245238"><ele>262.0</ele><time>2026-03-22T09:27:01Z</time></trkpt><trkpt lat="43.99053067416781" lon="8.149710096070146"><ele>262.0</ele><time>2026-03-22T09:27:03Z</time></trkpt><trkpt lat="43.990639019543046" lon="8.149779033370883"><ele>262.0</ele><time>2026-03-22T09:27:05Z</time></trkpt><trkpt lat="43.99072142928968" lon="8.149825150358204"><ele>262.0</ele><time>2026-03-22T09:27:06Z</time></trkpt><trkpt lat="43.99079302190779" lon="8.149904565621254"><ele>264.4</ele><time>2026-03-22T09:27:07Z</time></trkpt><trkpt lat="43.99087393963322" lon="8.149948902943768"><ele>266.79999999999995</ele><time>2026-03-22T09:27:08Z</time></trkpt><trkpt lat="43.9909405374853" lon="8.15002156635548"><ele>269.2</ele><time>2026-03-22T09:27:09Z</time></trkpt><trkpt lat="43.9910120733305" lon="8.150066747782038"><ele>271.59999999999997</ele><time>2026-03-22T09:27:10Z</time></trkpt><trkpt lat="43.991136822051395" lon="8.150010628583415"><ele>274.0</ele><time>2026-03-22T09:27:12Z</time></trkpt><trkpt lat="43.991230059311356" lon="8.149972091532366"><ele>274.0</ele><time>2026-03-22T09:27:13Z</time></trkpt><trkpt lat="43.99133465792715" lon="8.149927121561603"><ele>274.0</ele><time>2026-03-22T09:27:14Z</time></trkpt><trkpt lat="43.99143016417266" lon="8.149886013160996"><ele>274.0</ele><time>2026-03-22T09:27:15Z</time></trkpt><trkpt lat="43.991504442893316" lon="8.149868819058794"><ele>274.0</ele><time>2026-03-22T09:27:16Z</time></trkpt><trkpt lat="43.991609181935374" lon="8.149912958373339"><ele>274.0</ele><time>2026-03-22T09:27:18Z</time></trkpt><trkpt lat="43.99167965517145" lon="8.149987390247535"><ele>276.25</ele><time>2026-03-22T09:27:19Z</time></trkpt><trkpt lat="43.99182143516126" lon="8.150006141646239"><ele>278.5</ele><time>2026-03-22T09:27:20Z</time></trkpt><trkpt lat="43.9919515327035" lon="8.149953684993736"><ele>280.75</ele><time>2026-03-22T09:27:22Z</time></trkpt><trkpt lat="43.99202832210551" lon="8.149812201745679"><ele>283.0</ele><time>2026-03-22T09:27:23Z</time></trkpt><trkpt lat="43.99211586371924" lon="8.149690539499359"><ele>279.6</ele><time>2026-03-22T09:27:24Z</time></trkpt><trkpt lat="43.992178686249545" lon="8.149613285565767"><ele>276.20000000000005</ele><time>2026-03-22T09:27:25Z</time></trkpt><trkpt lat="43.99221496205964" lon="8.149533797363162"><ele>272.8</ele><time>2026-03-22T09:27:26Z</time></trkpt><trkpt lat="43.99231642064657" lon="8.149544760923485"><ele>269.40000000000003</ele><time>2026-03-22T09:27:28Z</time></trkpt><trkpt lat="43.99244298004324" lon="8.149564305042357"><ele>266.0</ele><time>2026-03-22T09:27:29Z</time></trkpt><trkpt lat="43.99256423241156" lon="8.149619536119474"><ele>266.0</ele><time>2026-03-22T09:27:30Z</time></trkpt><trkpt lat="43.992672130608675" lon="8.149654937878505"><ele>266.0</ele><time>2026-03-22T09:27:31Z</time></trkpt><trkpt lat="43.992764176440204" lon="8.14967901117581"><ele>266.0</ele><time>2026-03-22T09:27:32Z</time></trkpt><trkpt lat="43.99285415675873" lon="8.149701177001972"><ele>266.0</ele><time>2026-03-22T09:27:33Z</time></trkpt><trkpt lat="43.99294489148328" lon="8.149716449960763"><ele>266.0</ele><time>2026-03-22T09:27:34Z</time></trkpt><trkpt lat="43.99301253740105" lon="8.149703333587775"><ele>266.0</ele><time>2026-03-22T09:27:35Z</time></trkpt><trkpt lat="43.9930504430453" lon="8.149609387000442"><ele>266.0</ele><time>2026-03-22T09:27:36Z</time></trkpt><trkpt lat="43.993052799114665" lon="8.149470582078084"><ele>266.0</ele><time>2026-03-22T09:27:37Z</time></trkpt><trkpt lat="43.99309524501578" lon="8.149325578487028"><ele>266.0</ele><time>2026-03-22T09:27:38Z</time></trkpt><trkpt lat="43.99315211192028" lon="8.149168908938597"><ele>266.0</ele><time>2026-03-22T09:27:39Z</time></trkpt><trkpt lat="43.99319191652356" lon="8.14899759153552"><ele>264.0</ele><time>2026-03-22T09:27:40Z</time></trkpt><trkpt lat="43.99321096976081" lon="8.148866504940068"><ele>262.0</ele><time>2026-03-22T09:27:41Z</time></trkpt><trkpt lat="43.993249888862415" lon="8.148797070393702"><ele>260.0</ele><time>2026-03-22T09:27:43Z</time></trkpt><trkpt lat="43.99330245562494" lon="8.14885107395718"><ele>258.0</ele><time>2026-03-22T09:27:44Z</time></trkpt><trkpt lat="43.99337583774862" lon="8.148933762383045"><ele>256.0</ele><time>2026-03-22T09:27:46Z</time></trkpt><trkpt lat="43.993453406990874" lon="8.148980734851142"><ele>254.0</ele><time>2026-03-22T09:27:47Z</time></trkpt><trkpt lat="43.99355406858001" lon="8.148849614218374"><ele>257.5</ele><time>2026-03-22T09:27:49Z</time></trkpt><trkpt lat="43.99359634007662" lon="8.14870279205609"><ele>261.0</ele><time>2026-03-22T09:27:50Z</time></trkpt><trkpt lat="43.99360426339226" lon="8.148510687103268"><ele>264.5</ele><time>2026-03-22T09:27:51Z</time></trkpt><trkpt lat="43.99363501789931" lon="8.148322469814675"><ele>268.0</ele><time>2026-03-22T09:27:52Z</time></trkpt><trkpt lat="43.99368795041664" lon="8.14817898537131"><ele>268.0</ele><time>2026-03-22T09:27:53Z</time></trkpt><trkpt lat="43.99375118130056" lon="8.148102375959382"><ele>268.0</ele><time>2026-03-22T09:27:54Z</time></trkpt><trkpt lat="43.99377587839391" lon="8.14793709247185"><ele>268.0</ele><time>2026-03-22T09:27:55Z</time></trkpt><trkpt lat="43.9937715921213" lon="8.147820840954456"><ele>268.0</ele><time>2026-03-22T09:27:56Z</time></trkpt><trkpt lat="43.9938033856947" lon="8.147653281129774"><ele>268.0</ele><time>2026-03-22T09:27:57Z</time></trkpt><trkpt lat="43.99383046131414" lon="8.147472600799842"><ele>264.8</ele><time>2026-03-22T09:27:58Z</time></trkpt><trkpt lat="43.993824656567135" lon="8.147325914630079"><ele>261.6</ele><time>2026-03-22T09:27:59Z</time></trkpt><trkpt lat="43.993791466574336" lon="8.147190553891827"><ele>258.4</ele><time>2026-03-22T09:28:00Z</time></trkpt><trkpt lat="43.993773398711376" lon="8.147028292598444"><ele>255.2</ele><time>2026-03-22T09:28:01Z</time></trkpt><trkpt lat="43.99379684789252" lon="8.146924968692842"><ele>252.0</ele><time>2026-03-22T09:28:02Z</time></trkpt><trkpt lat="43.993855943087084" lon="8.146763668153639"><ele>252.0</ele><time>2026-03-22T09:28:03Z</time></trkpt><trkpt lat="43.99390193223125" lon="8.146663532617366"><ele>252.0</ele><time>2026-03-22T09:28:04Z</time></trkpt><trkpt lat="43.9939693800544" lon="8.146528658150457"><ele>252.0</ele><time>2026-03-22T09:28:05Z</time></trkpt><trkpt lat="43.9940304983173" lon="8.146378719699092"><ele>252.0</ele><time>2026-03-22T09:28:06Z</time></trkpt><trkpt lat="43.99411046940847" lon="8.146311980307239"><ele>252.0</ele><time>2026-03-22T09:28:08Z</time></trkpt><trkpt lat="43.99414491077038" lon="8.14640257587523"><ele>246.8</ele><time>2026-03-22T09:28:10Z</time></trkpt><trkpt lat="43.99424001809015" lon="8.146452334398543"><ele>241.6</ele><time>2026-03-22T09:28:12Z</time></trkpt><trkpt lat="43.99425159445403" lon="8.146571628601533"><ele>236.40000000000003</ele><time>2026-03-22T09:28:13Z</time></trkpt><trkpt lat="43.99432673927747" lon="8.14667253482572"><ele>231.20000000000002</ele><time>2026-03-22T09:28:14Z</time></trkpt><trkpt lat="43.99443463733655" lon="8.146754682955322"><ele>226.0</ele><time>2026-03-22T09:28:15Z</time></trkpt><trkpt lat="43.99454471715649" lon="8.14686771767455"><ele>226.0</ele><time>2026-03-22T09:28:16Z</time></trkpt><trkpt lat="43.994668638993836" lon="8.146982635913735"><ele>226.0</ele><time>2026-03-22T09:28:17Z</time></trkpt><trkpt lat="43.99478753460128" lon="8.147112765856178"><ele>226.0</ele><time>2026-03-22T09:28:18Z</time></trkpt><trkpt lat="43.99484720648526" lon="8.147236838260055"><ele>226.0</ele><time>2026-03-22T09:28:18.999Z</time></trkpt><trkpt lat="43.99489682696186" lon="8.14738417985808"><ele>230.75</ele><time>2026-03-22T09:28:19.999Z</time></trkpt><trkpt lat="43.99496791816395" lon="8.147511624876822"><ele>235.5</ele><time>2026-03-22T09:28:20.999Z</time></trkpt><trkpt lat="43.99505406380082" lon="8.147582994902441"><ele>240.25</ele><time>2026-03-22T09:28:21.999Z</time></trkpt><trkpt lat="43.995168837094425" lon="8.147594555147254"><ele>245.0</ele><time>2026-03-22T09:28:22.999Z</time></trkpt><trkpt lat="43.995288344929335" lon="8.14766048739731"><ele>245.0</ele><time>2026-03-22T09:28:23.999Z</time></trkpt><trkpt lat="43.99533226903298" lon="8.14779242232661"><ele>245.0</ele><time>2026-03-22T09:28:24.999Z</time></trkpt><trkpt lat="43.995370536005396" lon="8.147895798366106"><ele>245.0</ele><time>2026-03-22T09:28:25.999Z</time></trkpt><trkpt lat="43.99544615702152" lon="8.148047468810272"><ele>245.0</ele><time>2026-03-22T09:28:27Z</time></trkpt><trkpt lat="43.99550556644756" lon="8.148120056189098"><ele>245.0</ele><time>2026-03-22T09:28:28Z</time></trkpt><trkpt lat="43.99557357521212" lon="8.148130052557018"><ele>245.0</ele><time>2026-03-22T09:28:29Z</time></trkpt><trkpt lat="43.995643907306196" lon="8.148088390430784"><ele>245.0</ele><time>2026-03-22T09:28:30Z</time></trkpt><trkpt lat="43.995723280377106" lon="8.14805776174592"><ele>245.0</ele><time>2026-03-22T09:28:31Z</time></trkpt><trkpt lat="43.995803481513484" lon="8.148040123706618"><ele>245.0</ele><time>2026-03-22T09:28:32Z</time></trkpt><trkpt lat="43.99586202558868" lon="8.148129436623188"><ele>245.0</ele><time>2026-03-22T09:28:33Z</time></trkpt><trkpt lat="43.995970239314076" lon="8.148219322339235"><ele>249.75</ele><time>2026-03-22T09:28:34Z</time></trkpt><trkpt lat="43.996075416463945" lon="8.14819304265725"><ele>254.5</ele><time>2026-03-22T09:28:35Z</time></trkpt><trkpt lat="43.99618595378433" lon="8.148156989384857"><ele>259.25</ele><time>2026-03-22T09:28:36Z</time></trkpt><trkpt lat="43.9963213134855" lon="8.148097597455688"><ele>264.0</ele><time>2026-03-22T09:28:37Z</time></trkpt><trkpt lat="43.99643025377793" lon="8.148013326317637"><ele>264.0</ele><time>2026-03-22T09:28:38Z</time></trkpt><trkpt lat="43.99648997897115" lon="8.147905513498616"><ele>264.0</ele><time>2026-03-22T09:28:39Z</time></trkpt><trkpt lat="43.9965181476453" lon="8.147782884758637"><ele>264.0</ele><time>2026-03-22T09:28:40Z</time></trkpt><trkpt lat="43.99651026397272" lon="8.147646975285973"><ele>264.0</ele><time>2026-03-22T09:28:41Z</time></trkpt><trkpt lat="43.99643431151681" lon="8.147467284057731"><ele>264.0</ele><time>2026-03-22T09:28:42Z</time></trkpt><trkpt lat="43.99644172205029" lon="8.14733288219827"><ele>264.59999999999997</ele><time>2026-03-22T09:28:43Z</time></trkpt><trkpt lat="43.99647193578991" lon="8.147235652886183"><ele>265.2</ele><time>2026-03-22T09:28:44Z</time></trkpt><trkpt lat="43.996537359330674" lon="8.147179563693802"><ele>265.79999999999995</ele><time>2026-03-22T09:28:45Z</time></trkpt><trkpt lat="43.99661102610525" lon="8.147117374784264"><ele>266.4</ele><time>2026-03-22T09:28:46Z</time></trkpt><trkpt lat="43.996714370024385" lon="8.147156604409668"><ele>267.0</ele><time>2026-03-22T09:28:47Z</time></trkpt><trkpt lat="43.99684911018912" lon="8.147203104160292"><ele>267.0</ele><time>2026-03-22T09:28:48Z</time></trkpt><trkpt lat="43.99699140627122" lon="8.14722034455727"><ele>267.0</ele><time>2026-03-22T09:28:49Z</time></trkpt><trkpt lat="43.99709748723789" lon="8.147229826461134"><ele>267.0</ele><time>2026-03-22T09:28:50Z</time></trkpt><trkpt lat="43.997188634828674" lon="8.147199023546385"><ele>267.0</ele><time>2026-03-22T09:28:51Z</time></trkpt><trkpt lat="43.997259911957315" lon="8.147135948502136"><ele>267.0</ele><time>2026-03-22T09:28:52Z</time></trkpt><trkpt lat="43.9973098446503" lon="8.147028169007086"><ele>267.0</ele><time>2026-03-22T09:28:53Z</time></trkpt><trkpt lat="43.99733558297934" lon="8.146909338537265"><ele>267.0</ele><time>2026-03-22T09:28:54Z</time></trkpt><trkpt lat="43.997349381236454" lon="8.146752195518905"><ele>267.0</ele><time>2026-03-22T09:28:55Z</time></trkpt><trkpt lat="43.997367953810496" lon="8.146601029786986"><ele>267.0</ele><time>2026-03-22T09:28:56Z</time></trkpt><trkpt lat="43.99740898596983" lon="8.146519290102859"><ele>267.0</ele><time>2026-03-22T09:28:57Z</time></trkpt><trkpt lat="43.99747643406671" lon="8.146486963069243"><ele>269.0</ele><time>2026-03-22T09:28:58Z</time></trkpt><trkpt lat="43.997544183986264" lon="8.146458757168588"><ele>271.0</ele><time>2026-03-22T09:28:59Z</time></trkpt><trkpt lat="43.99762387319137" lon="8.146477017939603"><ele>273.0</ele><time>2026-03-22T09:29:00Z</time></trkpt><trkpt lat="43.99770421753862" lon="8.146517240426324"><ele>275.0</ele><time>2026-03-22T09:29:01Z</time></trkpt><trkpt lat="43.99781612748975" lon="8.146556374958351"><ele>277.0</ele><time>2026-03-22T09:29:02Z</time></trkpt><trkpt lat="43.99792320633022" lon="8.146601429809422"><ele>277.0</ele><time>2026-03-22T09:29:03Z</time></trkpt><trkpt lat="43.99802345267928" lon="8.146564370657867"><ele>277.0</ele><time>2026-03-22T09:29:04Z</time></trkpt><trkpt lat="43.99813577315583" lon="8.146535899408123"><ele>277.0</ele><time>2026-03-22T09:29:05Z</time></trkpt><trkpt lat="43.99824211610994" lon="8.146505443503427"><ele>277.0</ele><time>2026-03-22T09:29:06Z</time></trkpt><trkpt lat="43.99833739641897" lon="8.146524072004194"><ele>277.0</ele><time>2026-03-22T09:29:07Z</time></trkpt><trkpt lat="43.99839290782348" lon="8.146610198148803"><ele>277.6</ele><time>2026-03-22T09:29:08Z</time></trkpt><trkpt lat="43.99842609338889" lon="8.146697130284906"><ele>278.2</ele><time>2026-03-22T09:29:09Z</time></trkpt><trkpt lat="43.998580913010805" lon="8.146843418599826"><ele>278.8</ele><time>2026-03-22T09:29:11Z</time></trkpt><trkpt lat="43.99864488464504" lon="8.146847241052583"><ele>279.4</ele><time>2026-03-22T09:29:12Z</time></trkpt><trkpt lat="43.998719691860316" lon="8.146837165834164"><ele>280.0</ele><time>2026-03-22T09:29:13Z</time></trkpt><trkpt lat="43.99880577386856" lon="8.146815871571443"><ele>280.0</ele><time>2026-03-22T09:29:14Z</time></trkpt><trkpt lat="43.9988872961384" lon="8.146754275376535"><ele>280.0</ele><time>2026-03-22T09:29:15Z</time></trkpt><trkpt lat="43.99897647057368" lon="8.146688653247294"><ele>280.0</ele><time>2026-03-22T09:29:16Z</time></trkpt><trkpt lat="43.999045553048916" lon="8.14659405325804"><ele>280.0</ele><time>2026-03-22T09:29:17Z</time></trkpt><trkpt lat="43.99913184014401" lon="8.146527940129463"><ele>280.0</ele><time>2026-03-22T09:29:19Z</time></trkpt><trkpt lat="43.999215671446194" lon="8.1465342565142"><ele>279.66666666666663</ele><time>2026-03-22T09:29:21Z</time></trkpt><trkpt lat="43.9992968811198" lon="8.14655439282228"><ele>279.3333333333333</ele><time>2026-03-22T09:29:24Z</time></trkpt><trkpt lat="43.99937434207597" lon="8.146539513800063"><ele>279.0</ele><time>2026-03-22T09:31:26Z</time></trkpt><trkpt lat="43.9994361413618" lon="8.146413861803296"><ele>278.6666666666667</ele><time>2026-03-22T09:31:28Z</time></trkpt><trkpt lat="43.99947174031935" lon="8.146308027317456"><ele>278.33333333333337</ele><time>2026-03-22T09:31:29Z</time></trkpt><trkpt lat="43.99952971109361" lon="8.146223160131662"><ele>278.0</ele><time>2026-03-22T09:31:30Z</time></trkpt><trkpt lat="43.99952584044493" lon="8.146077826089336"><ele>278.0</ele><time>2026-03-22T09:31:31Z</time></trkpt><trkpt lat="43.99961769893895" lon="8.145954028677235"><ele>278.0</ele><time>2026-03-22T09:31:32Z</time></trkpt><trkpt lat="43.99968353889163" lon="8.145838583337326"><ele>278.0</ele><time>2026-03-22T09:31:33Z</time></trkpt><trkpt lat="43.999784202884946" lon="8.145742822357146"><ele>278.0</ele><time>2026-03-22T09:31:34Z</time></trkpt><trkpt lat="43.99984747443875" lon="8.14569035585402"><ele>278.0</ele><time>2026-03-22T09:31:35Z</time></trkpt><trkpt lat="43.999945851359676" lon="8.145637900837144"><ele>276.8</ele><time>2026-03-22T09:31:37Z</time></trkpt><trkpt lat="43.99999193775158" lon="8.145556333015433"><ele>275.6</ele><time>2026-03-22T09:31:38Z</time></trkpt><trkpt lat="44.00007337121729" lon="8.145453102465211"><ele>274.4</ele><time>2026-03-22T09:31:39Z</time></trkpt><trkpt lat="44.00015963224809" lon="8.1453327269801"><ele>273.2</ele><time>2026-03-22T09:31:40Z</time></trkpt><trkpt lat="44.00025070583709" lon="8.145224889183117"><ele>272.0</ele><time>2026-03-22T09:31:41Z</time></trkpt><trkpt lat="44.00031642968643" lon="8.145134785137882"><ele>272.0</ele><time>2026-03-22T09:31:42Z</time></trkpt><trkpt lat="44.00039744867457" lon="8.14506939715406"><ele>272.0</ele><time>2026-03-22T09:31:43Z</time></trkpt><trkpt lat="44.000457414262016" lon="8.145008720402068"><ele>272.0</ele><time>2026-03-22T09:31:44Z</time></trkpt><trkpt lat="44.00053255406669" lon="8.14490365626869"><ele>272.0</ele><time>2026-03-22T09:31:46Z</time></trkpt><trkpt lat="44.000613739191515" lon="8.14478112079151"><ele>272.0</ele><time>2026-03-22T09:31:48Z</time></trkpt><trkpt lat="44.00065367090398" lon="8.144711383801198"><ele>270.0</ele><time>2026-03-22T09:31:49Z</time></trkpt><trkpt lat="44.00068663766709" lon="8.14461801448408"><ele>268.0</ele><time>2026-03-22T09:31:50Z</time></trkpt><trkpt lat="44.00072015174604" lon="8.144488982379462"><ele>266.0</ele><time>2026-03-22T09:31:51Z</time></trkpt><trkpt lat="44.00075159267209" lon="8.144326338364886"><ele>264.0</ele><time>2026-03-22T09:31:52Z</time></trkpt><trkpt lat="44.00081156134946" lon="8.144185509672099"><ele>262.0</ele><time>2026-03-22T09:31:53Z</time></trkpt><trkpt lat="44.00088169480027" lon="8.144037415854436"><ele>262.0</ele><time>2026-03-22T09:31:53.999Z</time></trkpt><trkpt lat="44.000945498901466" lon="8.143922542832193"><ele>262.0</ele><time>2026-03-22T09:31:54.999Z</time></trkpt><trkpt lat="44.001001007430574" lon="8.143835931464906"><ele>262.0</ele><time>2026-03-22T09:31:55.999Z</time></trkpt><trkpt lat="44.001049507305005" lon="8.143765391158382"><ele>262.0</ele><time>2026-03-22T09:31:56.999Z</time></trkpt><trkpt lat="44.00110596870225" lon="8.143704619947487"><ele>262.0</ele><time>2026-03-22T09:31:57.999Z</time></trkpt><trkpt lat="44.00117997077466" lon="8.143604309869707"><ele>262.0</ele><time>2026-03-22T09:31:58.999Z</time></trkpt><trkpt lat="44.00128552563747" lon="8.143488595283365"><ele>262.0</ele><time>2026-03-22T09:31:59.999Z</time></trkpt><trkpt lat="44.00139003893285" lon="8.14336561156715"><ele>262.0</ele><time>2026-03-22T09:32:00.999Z</time></trkpt><trkpt lat="44.00149491855427" lon="8.143229049793772"><ele>262.0</ele><time>2026-03-22T09:32:01.999Z</time></trkpt><trkpt lat="44.0016095040949" lon="8.143079083286855"><ele>262.0</ele><time>2026-03-22T09:32:02.999Z</time></trkpt><trkpt lat="44.001717587985745" lon="8.142948742991056"><ele>265.5</ele><time>2026-03-22T09:32:03.999Z</time></trkpt><trkpt lat="44.001815911505204" lon="8.14284382530758"><ele>269.0</ele><time>2026-03-22T09:32:04.999Z</time></trkpt><trkpt lat="44.00189327524361" lon="8.14273121349877"><ele>272.5</ele><time>2026-03-22T09:32:05.999Z</time></trkpt><trkpt lat="44.001974258766516" lon="8.142636089164105"><ele>276.0</ele><time>2026-03-22T09:32:06.999Z</time></trkpt><trkpt lat="44.002055043780885" lon="8.142537094509516"><ele>276.0</ele><time>2026-03-22T09:32:07.999Z</time></trkpt><trkpt lat="44.002135365531394" lon="8.14243932563067"><ele>276.0</ele><time>2026-03-22T09:32:08.999Z</time></trkpt><trkpt lat="44.00222722002266" lon="8.142353055654173"><ele>276.0</ele><time>2026-03-22T09:32:09.999Z</time></trkpt><trkpt lat="44.002282778095314" lon="8.142293473969557"><ele>276.0</ele><time>2026-03-22T09:32:10.999Z</time></trkpt><trkpt lat="44.00234813932709" lon="8.142194022866427"><ele>276.0</ele><time>2026-03-22T09:32:11.999Z</time></trkpt><trkpt lat="44.002417967828066" lon="8.14208989194908"><ele>281.25</ele><time>2026-03-22T09:32:12.999Z</time></trkpt><trkpt lat="44.0025026316575" lon="8.141988639700486"><ele>286.5</ele><time>2026-03-22T09:32:13.999Z</time></trkpt><trkpt lat="44.002587035791414" lon="8.141888836606897"><ele>291.75</ele><time>2026-03-22T09:32:14.999Z</time></trkpt><trkpt lat="44.00266876273745" lon="8.141776093323422"><ele>297.0</ele><time>2026-03-22T09:32:15.999Z</time></trkpt><trkpt lat="44.002771457395404" lon="8.141656044274292"><ele>296.5</ele><time>2026-03-22T09:32:16.999Z</time></trkpt><trkpt lat="44.002859596624035" lon="8.141506945242927"><ele>296.0</ele><time>2026-03-22T09:32:17.999Z</time></trkpt><trkpt lat="44.00294812149563" lon="8.141352790853373"><ele>295.5</ele><time>2026-03-22T09:32:18.999Z</time></trkpt><trkpt lat="44.00304396684373" lon="8.141185058229098"><ele>295.0</ele><time>2026-03-22T09:32:19.999Z</time></trkpt><trkpt lat="44.00312785230858" lon="8.141019937482984"><ele>295.0</ele><time>2026-03-22T09:32:20.999Z</time></trkpt><trkpt lat="44.003186507449875" lon="8.140837552116087"><ele>295.0</ele><time>2026-03-22T09:32:21.999Z</time></trkpt><trkpt lat="44.003236870588665" lon="8.140655239519651"><ele>295.0</ele><time>2026-03-22T09:32:22.999Z</time></trkpt><trkpt lat="44.00326664445582" lon="8.14048822185542"><ele>295.0</ele><time>2026-03-22T09:32:23.999Z</time></trkpt><trkpt lat="44.00327708788406" lon="8.14036471078735"><ele>295.0</ele><time>2026-03-22T09:32:24.999Z</time></trkpt><trkpt lat="44.003301734277905" lon="8.140279773348933"><ele>295.0</ele><time>2026-03-22T09:32:25.999Z</time></trkpt><trkpt lat="44.00338825454438" lon="8.140282187666028"><ele>295.0</ele><time>2026-03-22T09:32:27.999Z</time></trkpt><trkpt lat="44.00341205866975" lon="8.14043060816824"><ele>295.0</ele><time>2026-03-22T09:32:29.999Z</time></trkpt><trkpt lat="44.003374717570566" lon="8.140504454983006"><ele>295.0</ele><time>2026-03-22T09:32:30.999Z</time></trkpt><trkpt lat="44.00335399648025" lon="8.140605715129109"><ele>295.0</ele><time>2026-03-22T09:32:31.999Z</time></trkpt><trkpt lat="44.003320901328934" lon="8.140775659456835"><ele>295.0</ele><time>2026-03-22T09:32:32.999Z</time></trkpt><trkpt lat="44.00329709227656" lon="8.14096345221437"><ele>295.0</ele><time>2026-03-22T09:32:33.999Z</time></trkpt><trkpt lat="44.003251155111585" lon="8.141136828996101"><ele>295.0</ele><time>2026-03-22T09:32:34.999Z</time></trkpt><trkpt lat="44.00321032009544" lon="8.14130209178823"><ele>295.0</ele><time>2026-03-22T09:32:35.999Z</time></trkpt><trkpt lat="44.00318581188254" lon="8.141434435079907"><ele>295.0</ele><time>2026-03-22T09:32:36.999Z</time></trkpt><trkpt lat="44.00317575875375" lon="8.1415441653548"><ele>295.0</ele><time>2026-03-22T09:32:37.999Z</time></trkpt><trkpt lat="44.00324398901289" lon="8.141672493721567"><ele>295.0</ele><time>2026-03-22T09:32:40Z</time></trkpt><trkpt lat="44.00331060939354" lon="8.141704237051721"><ele>295.0</ele><time>2026-03-22T09:32:41Z</time></trkpt><trkpt lat="44.00338835269543" lon="8.1416451763366"><ele>295.0</ele><time>2026-03-22T09:32:42Z</time></trkpt><trkpt lat="44.003457152612945" lon="8.141577151231234"><ele>295.0</ele><time>2026-03-22T09:32:43Z</time></trkpt><trkpt lat="44.00349868938649" lon="8.141461422833155"><ele>299.4</ele><time>2026-03-22T09:32:44Z</time></trkpt><trkpt lat="44.003550599568506" lon="8.141357208537096"><ele>303.8</ele><time>2026-03-22T09:32:45Z</time></trkpt><trkpt lat="44.00362999099053" lon="8.14121381131172"><ele>308.2</ele><time>2026-03-22T09:32:47Z</time></trkpt><trkpt lat="44.00370933733546" lon="8.141123816832115"><ele>312.6</ele><time>2026-03-22T09:32:48Z</time></trkpt><trkpt lat="44.00380216424818" lon="8.141015626981666"><ele>317.0</ele><time>2026-03-22T09:32:49Z</time></trkpt><trkpt lat="44.003882546813756" lon="8.140889772983487"><ele>317.0</ele><time>2026-03-22T09:32:50Z</time></trkpt><trkpt lat="44.00395285208878" lon="8.140725874920717"><ele>317.0</ele><time>2026-03-22T09:32:51Z</time></trkpt><trkpt lat="44.00401164930417" lon="8.140554333234245"><ele>317.0</ele><time>2026-03-22T09:32:52Z</time></trkpt><trkpt lat="44.00408954366728" lon="8.140389201257088"><ele>317.0</ele><time>2026-03-22T09:32:53Z</time></trkpt><trkpt lat="44.004168296929215" lon="8.140219255828589"><ele>321.0</ele><time>2026-03-22T09:32:54Z</time></trkpt><trkpt lat="44.004233998203865" lon="8.140023681830362"><ele>325.0</ele><time>2026-03-22T09:32:55Z</time></trkpt><trkpt lat="44.004275178957364" lon="8.139838549753351"><ele>329.0</ele><time>2026-03-22T09:32:56Z</time></trkpt><trkpt lat="44.004331134404296" lon="8.139692337124925"><ele>333.0</ele><time>2026-03-22T09:32:57Z</time></trkpt><trkpt lat="44.00441225852108" lon="8.139605234236098"><ele>339.0</ele><time>2026-03-22T09:32:58Z</time></trkpt><trkpt lat="44.00451684992633" lon="8.139573520559804"><ele>345.0</ele><time>2026-03-22T09:32:59Z</time></trkpt><trkpt lat="44.00464400323755" lon="8.139548864076263"><ele>351.0</ele><time>2026-03-22T09:33:00Z</time></trkpt><trkpt lat="44.00477237209644" lon="8.139478461074539"><ele>357.0</ele><time>2026-03-22T09:33:01Z</time></trkpt><trkpt lat="44.00491932798449" lon="8.139390025459164"><ele>352.0</ele><time>2026-03-22T09:33:02Z</time></trkpt><trkpt lat="44.00507447578924" lon="8.139279718691427"><ele>347.0</ele><time>2026-03-22T09:33:03Z</time></trkpt><trkpt lat="44.00522949444043" lon="8.139169342399626"><ele>342.0</ele><time>2026-03-22T09:33:04Z</time></trkpt><trkpt lat="44.0053625888038" lon="8.139076027480815"><ele>342.5</ele><time>2026-03-22T09:33:05Z</time></trkpt><trkpt lat="44.00548863685224" lon="8.138996712529298"><ele>343.0</ele><time>2026-03-22T09:33:06Z</time></trkpt><trkpt lat="44.00562793907607" lon="8.138965256176066"><ele>343.5</ele><time>2026-03-22T09:33:07Z</time></trkpt><trkpt lat="44.00577858151244" lon="8.138917506892708"><ele>344.0</ele><time>2026-03-22T09:33:08Z</time></trkpt><trkpt lat="44.0059169890644" lon="8.138939523757664"><ele>340.25</ele><time>2026-03-22T09:33:09Z</time></trkpt><trkpt lat="44.006025228457354" lon="8.138980462366321"><ele>336.5</ele><time>2026-03-22T09:33:10Z</time></trkpt><trkpt lat="44.006138385257834" lon="8.139031031695135"><ele>332.75</ele><time>2026-03-22T09:33:11Z</time></trkpt><trkpt lat="44.006275806350054" lon="8.139068458945854"><ele>329.0</ele><time>2026-03-22T09:33:12Z</time></trkpt><trkpt lat="44.00642412351359" lon="8.139146941785295"><ele>329.0</ele><time>2026-03-22T09:33:13Z</time></trkpt><trkpt lat="44.006575831972896" lon="8.139202159039987"><ele>329.0</ele><time>2026-03-22T09:33:14Z</time></trkpt><trkpt lat="44.00670962293774" lon="8.139230073357554"><ele>329.0</ele><time>2026-03-22T09:33:15Z</time></trkpt><trkpt lat="44.00682854649312" lon="8.139226915839405"><ele>329.0</ele><time>2026-03-22T09:33:16Z</time></trkpt><trkpt lat="44.006937378049784" lon="8.13923287102531"><ele>330.0</ele><time>2026-03-22T09:33:17Z</time></trkpt><trkpt lat="44.00702881240347" lon="8.139237423760813"><ele>331.0</ele><time>2026-03-22T09:33:18Z</time></trkpt><trkpt lat="44.00710837860082" lon="8.139271509601945"><ele>332.0</ele><time>2026-03-22T09:33:19Z</time></trkpt><trkpt lat="44.007182592227295" lon="8.139284048161418"><ele>333.0</ele><time>2026-03-22T09:33:20Z</time></trkpt><trkpt lat="44.00728315884652" lon="8.139274752742919"><ele>334.0</ele><time>2026-03-22T09:33:22Z</time></trkpt><trkpt lat="44.00735266969778" lon="8.139300958653807"><ele>335.0</ele><time>2026-03-22T09:33:24Z</time></trkpt><trkpt lat="44.007434357679905" lon="8.13929528639886"><ele>335.83333333333337</ele><time>2026-03-22T09:33:26Z</time></trkpt><trkpt lat="44.00751896365792" lon="8.13928576901726"><ele>336.6666666666667</ele><time>2026-03-22T09:33:28Z</time></trkpt><trkpt lat="44.00759255394592" lon="8.139296635866094"><ele>337.5</ele><time>2026-03-22T09:33:30Z</time></trkpt><trkpt lat="44.00769214901134" lon="8.139323380265896"><ele>338.3333333333333</ele><time>2026-03-22T09:33:32Z</time></trkpt><trkpt lat="44.0077809783524" lon="8.139349837436507"><ele>339.16666666666663</ele><time>2026-03-22T09:33:34Z</time></trkpt><trkpt lat="44.00786334098357" lon="8.139381681825375"><ele>340.0</ele><time>2026-03-22T09:33:36Z</time></trkpt><trkpt lat="44.00787737750209" lon="8.139467713422812"><ele>340.0</ele><time>2026-03-22T09:33:38Z</time></trkpt><trkpt lat="44.00777687444257" lon="8.13943271080434"><ele>340.0</ele><time>2026-03-22T09:33:40Z</time></trkpt><trkpt lat="44.00770793133735" lon="8.139421639124352"><ele>340.0</ele><time>2026-03-22T09:33:41Z</time></trkpt><trkpt lat="44.007633812710054" lon="8.139417377222532"><ele>340.0</ele><time>2026-03-22T09:33:42Z</time></trkpt><trkpt lat="44.007557664132705" lon="8.13939155680755"><ele>340.0</ele><time>2026-03-22T09:33:43Z</time></trkpt><trkpt lat="44.00749118605294" lon="8.139392078338364"><ele>340.0</ele><time>2026-03-22T09:33:44Z</time></trkpt><trkpt lat="44.00741651358406" lon="8.139421806872956"><ele>340.0</ele><time>2026-03-22T09:33:46Z</time></trkpt><trkpt lat="44.00737107086102" lon="8.13950432922491"><ele>340.0</ele><time>2026-03-22T09:33:48Z</time></trkpt><trkpt lat="44.007427489074985" lon="8.139683707624652"><ele>340.0</ele><time>2026-03-22T09:33:51Z</time></trkpt><trkpt lat="44.007502839127454" lon="8.139530079441451"><ele>340.0</ele><time>2026-03-22T09:33:52Z</time></trkpt><trkpt lat="44.007605705253944" lon="8.139474631160951"><ele>340.0</ele><time>2026-03-22T09:33:54Z</time></trkpt><trkpt lat="44.00769423168165" lon="8.139544882270506"><ele>340.0</ele><time>2026-03-22T09:33:56Z</time></trkpt><trkpt lat="44.007732384268174" lon="8.13966117657553"><ele>340.0</ele><time>2026-03-22T09:33:58Z</time></trkpt><trkpt lat="44.00777232940774" lon="8.139830825655203"><ele>340.0</ele><time>2026-03-22T09:33:59.999Z</time></trkpt><trkpt lat="44.00789424663476" lon="8.139980663089268"><ele>341.75</ele><time>2026-03-22T09:34:01.999Z</time></trkpt><trkpt lat="44.007956870425296" lon="8.14006346726737"><ele>343.5</ele><time>2026-03-22T09:34:02.999Z</time></trkpt><trkpt lat="44.00808603644923" lon="8.140145128509715"><ele>345.25</ele><time>2026-03-22T09:34:04.999Z</time></trkpt><trkpt lat="44.008196134015215" lon="8.140158057922887"><ele>347.0</ele><time>2026-03-22T09:34:05.999Z</time></trkpt><trkpt lat="44.008339098114945" lon="8.140192432968638"><ele>351.25</ele><time>2026-03-22T09:34:06.999Z</time></trkpt><trkpt lat="44.00844251994628" lon="8.140272365383682"><ele>355.5</ele><time>2026-03-22T09:34:07.999Z</time></trkpt><trkpt lat="44.008523900028116" lon="8.140393522361087"><ele>359.75</ele><time>2026-03-22T09:34:08.999Z</time></trkpt><trkpt lat="44.00864516297604" lon="8.140428302241121"><ele>364.0</ele><time>2026-03-22T09:34:09.999Z</time></trkpt><trkpt lat="44.00875755965664" lon="8.14045485589912"><ele>364.0</ele><time>2026-03-22T09:34:10.999Z</time></trkpt><trkpt lat="44.00887247340904" lon="8.140462971484187"><ele>364.0</ele><time>2026-03-22T09:34:11.999Z</time></trkpt><trkpt lat="44.00899500101565" lon="8.140494112145326"><ele>364.0</ele><time>2026-03-22T09:34:12.999Z</time></trkpt><trkpt lat="44.00910966045771" lon="8.140512428572126"><ele>364.0</ele><time>2026-03-22T09:34:13.999Z</time></trkpt><trkpt lat="44.009236057973816" lon="8.140562509346502"><ele>364.25</ele><time>2026-03-22T09:34:14.999Z</time></trkpt><trkpt lat="44.009350230327016" lon="8.140637347168559"><ele>364.5</ele><time>2026-03-22T09:34:15.999Z</time></trkpt><trkpt lat="44.00944179449786" lon="8.140745040424427"><ele>364.75</ele><time>2026-03-22T09:34:16.999Z</time></trkpt><trkpt lat="44.009525208928295" lon="8.140879750223444"><ele>365.0</ele><time>2026-03-22T09:34:17.999Z</time></trkpt><trkpt lat="44.009600636665986" lon="8.141024421399502"><ele>365.0</ele><time>2026-03-22T09:34:18.999Z</time></trkpt><trkpt lat="44.00966578092704" lon="8.141190861570562"><ele>365.0</ele><time>2026-03-22T09:34:19.999Z</time></trkpt><trkpt lat="44.00972896269075" lon="8.141342133682477"><ele>365.0</ele><time>2026-03-22T09:34:20.999Z</time></trkpt><trkpt lat="44.00979723723759" lon="8.141436964756416"><ele>365.0</ele><time>2026-03-22T09:34:21.999Z</time></trkpt><trkpt lat="44.00989492829367" lon="8.141522128116653"><ele>365.2</ele><time>2026-03-22T09:34:22.999Z</time></trkpt><trkpt lat="44.010004395210224" lon="8.14158625103682"><ele>365.4</ele><time>2026-03-22T09:34:23.999Z</time></trkpt><trkpt lat="44.01006861341744" lon="8.141646373066184"><ele>365.6</ele><time>2026-03-22T09:34:24.999Z</time></trkpt><trkpt lat="44.01018007990717" lon="8.141687872218098"><ele>365.8</ele><time>2026-03-22T09:34:25.999Z</time></trkpt><trkpt lat="44.01025866305985" lon="8.141710900734665"><ele>366.0</ele><time>2026-03-22T09:34:26.999Z</time></trkpt><trkpt lat="44.01033909597385" lon="8.141728069062497"><ele>366.0</ele><time>2026-03-22T09:34:27.999Z</time></trkpt><trkpt lat="44.01040657235064" lon="8.14170479846119"><ele>366.0</ele><time>2026-03-22T09:34:28.999Z</time></trkpt><trkpt lat="44.01048220549547" lon="8.141658614776627"><ele>366.0</ele><time>2026-03-22T09:34:29.999Z</time></trkpt><trkpt lat="44.01055770992147" lon="8.141596751242822"><ele>366.0</ele><time>2026-03-22T09:34:30.999Z</time></trkpt><trkpt lat="44.01061317516674" lon="8.141552463280618"><ele>366.0</ele><time>2026-03-22T09:34:31.999Z</time></trkpt><trkpt lat="44.010669021516534" lon="8.14150594830341"><ele>366.0</ele><time>2026-03-22T09:34:32.999Z</time></trkpt><trkpt lat="44.01073877556852" lon="8.141450630940067"><ele>366.0</ele><time>2026-03-22T09:34:33.999Z</time></trkpt><trkpt lat="44.0108067400578" lon="8.141396194765184"><ele>374.6</ele><time>2026-03-22T09:34:34.999Z</time></trkpt><trkpt lat="44.01089712763693" lon="8.141330499073923"><ele>383.20000000000005</ele><time>2026-03-22T09:34:35.999Z</time></trkpt><trkpt lat="44.01098620963757" lon="8.141283061868384"><ele>391.79999999999995</ele><time>2026-03-22T09:34:36.999Z</time></trkpt><trkpt lat="44.01107379248112" lon="8.141262182298863"><ele>400.4</ele><time>2026-03-22T09:34:37.999Z</time></trkpt><trkpt lat="44.011178230816164" lon="8.141266601733147"><ele>409.0</ele><time>2026-03-22T09:34:38.999Z</time></trkpt><trkpt lat="44.01128130926135" lon="8.141283390308349"><ele>409.0</ele><time>2026-03-22T09:34:39.999Z</time></trkpt><trkpt lat="44.01141746071979" lon="8.141303940038654"><ele>409.0</ele><time>2026-03-22T09:34:40.999Z</time></trkpt><trkpt lat="44.01154007589107" lon="8.141317063544324"><ele>409.0</ele><time>2026-03-22T09:34:41.999Z</time></trkpt><trkpt lat="44.01164759776675" lon="8.141309085413651"><ele>409.0</ele><time>2026-03-22T09:34:42.999Z</time></trkpt><trkpt lat="44.01175448985659" lon="8.141317478767606"><ele>409.0</ele><time>2026-03-22T09:34:43.999Z</time></trkpt><trkpt lat="44.01183492314743" lon="8.14132367197438"><ele>409.0</ele><time>2026-03-22T09:34:45Z</time></trkpt><trkpt lat="44.01193575839551" lon="8.141331207650495"><ele>409.0</ele><time>2026-03-22T09:34:46Z</time></trkpt><trkpt lat="44.012048234746295" lon="8.141333701773501"><ele>409.0</ele><time>2026-03-22T09:34:47Z</time></trkpt><trkpt lat="44.01216333471236" lon="8.141338374529441"><ele>409.0</ele><time>2026-03-22T09:34:48Z</time></trkpt><trkpt lat="44.012280545796315" lon="8.141349117625598"><ele>409.0</ele><time>2026-03-22T09:34:49Z</time></trkpt><trkpt lat="44.012399409156096" lon="8.14137036398534"><ele>409.0</ele><time>2026-03-22T09:34:50Z</time></trkpt><trkpt lat="44.01251077954743" lon="8.141403235021846"><ele>409.0</ele><time>2026-03-22T09:34:51Z</time></trkpt><trkpt lat="44.012619576284855" lon="8.141356258591465"><ele>409.0</ele><time>2026-03-22T09:34:52Z</time></trkpt><trkpt lat="44.012722216500066" lon="8.14132082179052"><ele>406.4</ele><time>2026-03-22T09:34:53Z</time></trkpt><trkpt lat="44.01281276453233" lon="8.141297022731932"><ele>403.79999999999995</ele><time>2026-03-22T09:34:54Z</time></trkpt><trkpt lat="44.01290337354721" lon="8.141269076698201"><ele>401.20000000000005</ele><time>2026-03-22T09:34:55Z</time></trkpt><trkpt lat="44.012968326048316" lon="8.141254463623365"><ele>398.6</ele><time>2026-03-22T09:34:56Z</time></trkpt><trkpt lat="44.01302522240177" lon="8.14119168268349"><ele>396.0</ele><time>2026-03-22T09:34:58Z</time></trkpt><trkpt lat="44.01309100071263" lon="8.141362963154952"><ele>396.0</ele><time>2026-03-22T09:34:59Z</time></trkpt><trkpt lat="44.013182725001656" lon="8.141472344090582"><ele>396.0</ele><time>2026-03-22T09:35:01Z</time></trkpt><trkpt lat="44.01327108023808" lon="8.141600218193975"><ele>396.0</ele><time>2026-03-22T09:35:03Z</time></trkpt><trkpt lat="44.01332382886661" lon="8.141685157272988"><ele>396.0</ele><time>2026-03-22T09:35:04Z</time></trkpt><trkpt lat="44.01337711739382" lon="8.141768467582695"><ele>396.0</ele><time>2026-03-22T09:35:05Z</time></trkpt><trkpt lat="44.013422664834" lon="8.141830504372637"><ele>394.20000000000005</ele><time>2026-03-22T09:35:06Z</time></trkpt><trkpt lat="44.01349609816938" lon="8.141917861765448"><ele>392.40000000000003</ele><time>2026-03-22T09:35:07Z</time></trkpt><trkpt lat="44.01357072780553" lon="8.14197873515994"><ele>390.6</ele><time>2026-03-22T09:35:08Z</time></trkpt><trkpt lat="44.01363387516623" lon="8.142073303434543"><ele>388.8</ele><time>2026-03-22T09:35:09Z</time></trkpt><trkpt lat="44.0137123752078" lon="8.142138354731888"><ele>387.0</ele><time>2026-03-22T09:35:10Z</time></trkpt><trkpt lat="44.01378600270293" lon="8.14220404062722"><ele>387.0</ele><time>2026-03-22T09:35:11Z</time></trkpt><trkpt lat="44.01383412378203" lon="8.14226740412602"><ele>387.0</ele><time>2026-03-22T09:35:12Z</time></trkpt><trkpt lat="44.01388453498138" lon="8.142326716876106"><ele>387.0</ele><time>2026-03-22T09:35:13Z</time></trkpt><trkpt lat="44.013931509004436" lon="8.14240979623065"><ele>387.0</ele><time>2026-03-22T09:35:14Z</time></trkpt><trkpt lat="44.013969172129364" lon="8.142491004638007"><ele>387.0</ele><time>2026-03-22T09:35:15Z</time></trkpt><trkpt lat="44.014012087873546" lon="8.14256530169617"><ele>387.0</ele><time>2026-03-22T09:35:16Z</time></trkpt><trkpt lat="44.014060481745254" lon="8.142645590702871"><ele>387.0</ele><time>2026-03-22T09:35:17Z</time></trkpt><trkpt lat="44.014112982198384" lon="8.142722615511603"><ele>389.8333333333333</ele><time>2026-03-22T09:35:18Z</time></trkpt><trkpt lat="44.01416133286341" lon="8.142780029326268"><ele>392.66666666666663</ele><time>2026-03-22T09:35:19Z</time></trkpt><trkpt lat="44.01422317575011" lon="8.142849570003802"><ele>395.5</ele><time>2026-03-22T09:35:20Z</time></trkpt><trkpt lat="44.01428401440735" lon="8.14291877208467"><ele>398.3333333333333</ele><time>2026-03-22T09:35:21Z</time></trkpt><trkpt lat="44.014344145645694" lon="8.142995161838028"><ele>401.16666666666663</ele><time>2026-03-22T09:35:22Z</time></trkpt><trkpt lat="44.01439802726807" lon="8.14306319594397"><ele>404.0</ele><time>2026-03-22T09:35:23Z</time></trkpt><trkpt lat="44.01445731555501" lon="8.143138362384645"><ele>403.99999999999994</ele><time>2026-03-22T09:35:24Z</time></trkpt><trkpt lat="44.01453107326238" lon="8.143197397399177"><ele>404.0</ele><time>2026-03-22T09:35:25Z</time></trkpt><trkpt lat="44.01458654477042" lon="8.143269700096338"><ele>404.0</ele><time>2026-03-22T09:35:26Z</time></trkpt><trkpt lat="44.01464999843478" lon="8.14334979942732"><ele>404.0</ele><time>2026-03-22T09:35:27Z</time></trkpt><trkpt lat="44.01471074871555" lon="8.143423521376546"><ele>403.99999999999994</ele><time>2026-03-22T09:35:28Z</time></trkpt><trkpt lat="44.01477838527695" lon="8.143516589738427"><ele>404.0</ele><time>2026-03-22T09:35:29Z</time></trkpt><trkpt lat="44.01483499832053" lon="8.143607149969194"><ele>401.99999999999994</ele><time>2026-03-22T09:35:30Z</time></trkpt><trkpt lat="44.01488265787577" lon="8.14369660452843"><ele>400.0</ele><time>2026-03-22T09:35:31Z</time></trkpt><trkpt lat="44.014909591104654" lon="8.1438008820977"><ele>398.0</ele><time>2026-03-22T09:35:32Z</time></trkpt><trkpt lat="44.014960810985784" lon="8.143894016068613"><ele>396.0</ele><time>2026-03-22T09:35:33Z</time></trkpt><trkpt lat="44.01498606162434" lon="8.143974272639976"><ele>393.99999999999994</ele><time>2026-03-22T09:35:34Z</time></trkpt><trkpt lat="44.01498487335126" lon="8.144076204264"><ele>392.0</ele><time>2026-03-22T09:35:36Z</time></trkpt><trkpt lat="44.01499154978964" lon="8.144220898567406"><ele>397.3333333333333</ele><time>2026-03-22T09:35:38Z</time></trkpt><trkpt lat="44.0149956185992" lon="8.144372310947519"><ele>402.66666666666663</ele><time>2026-03-22T09:35:40Z</time></trkpt><trkpt lat="44.01500068871621" lon="8.14450142714937"><ele>408.0</ele><time>2026-03-22T09:35:42Z</time></trkpt><trkpt lat="44.01500541286478" lon="8.144589314259111"><ele>413.33333333333337</ele><time>2026-03-22T09:35:44Z</time></trkpt><trkpt lat="44.01501891669241" lon="8.14470298519457"><ele>418.6666666666667</ele><time>2026-03-22T09:35:47Z</time></trkpt><trkpt lat="44.01500468209804" lon="8.144831710730253"><ele>424.0</ele><time>2026-03-22T09:35:49Z</time></trkpt><trkpt lat="44.01499705642493" lon="8.14495592772363"><ele>424.14285714285717</ele><time>2026-03-22T09:35:50Z</time></trkpt><trkpt lat="44.015014065228875" lon="8.145043246560228"><ele>424.2857142857143</ele><time>2026-03-22T09:35:51Z</time></trkpt><trkpt lat="44.01500888729108" lon="8.145131459713589"><ele>424.42857142857144</ele><time>2026-03-22T09:35:52Z</time></trkpt><trkpt lat="44.01499364345735" lon="8.145270145393667"><ele>424.57142857142856</ele><time>2026-03-22T09:35:54Z</time></trkpt><trkpt lat="44.01498244556243" lon="8.145359675614097"><ele>424.71428571428567</ele><time>2026-03-22T09:35:55Z</time></trkpt><trkpt lat="44.01495985742871" lon="8.145446080653269"><ele>424.85714285714283</ele><time>2026-03-22T09:35:56Z</time></trkpt><trkpt lat="44.01492812937631" lon="8.145522240597465"><ele>425.0</ele><time>2026-03-22T09:35:57Z</time></trkpt><trkpt lat="44.014898586568414" lon="8.145604838019889"><ele>418.42857142857144</ele><time>2026-03-22T09:35:58Z</time></trkpt><trkpt lat="44.01487293414577" lon="8.145695201764186"><ele>411.85714285714283</ele><time>2026-03-22T09:35:59Z</time></trkpt><trkpt lat="44.014851879981116" lon="8.145786641330309"><ele>405.28571428571433</ele><time>2026-03-22T09:35:59.999Z</time></trkpt><trkpt lat="44.01484088050724" lon="8.145885993446507"><ele>398.7142857142857</ele><time>2026-03-22T09:36:00.999Z</time></trkpt><trkpt lat="44.01483955012573" lon="8.145989545062495"><ele>392.14285714285717</ele><time>2026-03-22T09:36:01.999Z</time></trkpt><trkpt lat="44.014844888938114" lon="8.14609664965812"><ele>385.5714285714286</ele><time>2026-03-22T09:36:02.999Z</time></trkpt><trkpt lat="44.014862721094644" lon="8.14620253066781"><ele>379.0</ele><time>2026-03-22T09:36:03.999Z</time></trkpt><trkpt lat="44.01489895511652" lon="8.146300804613945"><ele>379.0</ele><time>2026-03-22T09:36:04.999Z</time></trkpt><trkpt lat="44.01493871660415" lon="8.146414424248382"><ele>379.0</ele><time>2026-03-22T09:36:05.999Z</time></trkpt><trkpt lat="44.01499463480731" lon="8.146525200439452"><ele>379.0</ele><time>2026-03-22T09:36:06.999Z</time></trkpt><trkpt lat="44.015048281750445" lon="8.146630001798325"><ele>379.0</ele><time>2026-03-22T09:36:07.999Z</time></trkpt><trkpt lat="44.015086290883886" lon="8.146728697901162"><ele>379.0</ele><time>2026-03-22T09:36:08.999Z</time></trkpt><trkpt lat="44.01510978524504" lon="8.146844177155739"><ele>379.0</ele><time>2026-03-22T09:36:09.999Z</time></trkpt><trkpt lat="44.015094338266124" lon="8.146954475247044"><ele>389.4</ele><time>2026-03-22T09:36:10.999Z</time></trkpt><trkpt lat="44.01509754970173" lon="8.147083138549299"><ele>399.79999999999995</ele><time>2026-03-22T09:36:11.999Z</time></trkpt><trkpt lat="44.01510660936407" lon="8.147219597339523"><ele>410.20000000000005</ele><time>2026-03-22T09:36:12.999Z</time></trkpt><trkpt lat="44.01512009744876" lon="8.147357938978757"><ele>420.6</ele><time>2026-03-22T09:36:13.999Z</time></trkpt><trkpt lat="44.01513362927168" lon="8.147507239174848"><ele>431.0</ele><time>2026-03-22T09:36:14.999Z</time></trkpt><trkpt lat="44.01512117343792" lon="8.147641083917154"><ele>431.0</ele><time>2026-03-22T09:36:15.999Z</time></trkpt><trkpt lat="44.01510609334598" lon="8.147784117226701"><ele>431.0</ele><time>2026-03-22T09:36:16.999Z</time></trkpt><trkpt lat="44.0150954044964" lon="8.147945656578015"><ele>431.0</ele><time>2026-03-22T09:36:17.999Z</time></trkpt><trkpt lat="44.01509733795288" lon="8.148086802747667"><ele>431.0</ele><time>2026-03-22T09:36:18.999Z</time></trkpt><trkpt lat="44.0151044869935" lon="8.148202281135712"><ele>431.0</ele><time>2026-03-22T09:36:19.999Z</time></trkpt><trkpt lat="44.015108494497774" lon="8.148300420408226"><ele>431.6</ele><time>2026-03-22T09:36:20.999Z</time></trkpt><trkpt lat="44.01511794269412" lon="8.148495763505435"><ele>432.20000000000005</ele><time>2026-03-22T09:36:22.999Z</time></trkpt><trkpt lat="44.015126539546095" lon="8.148631658412617"><ele>432.79999999999995</ele><time>2026-03-22T09:36:23.999Z</time></trkpt><trkpt lat="44.01513519093503" lon="8.148768283345277"><ele>433.4</ele><time>2026-03-22T09:36:24.999Z</time></trkpt><trkpt lat="44.01514448830603" lon="8.1488969587119"><ele>434.0</ele><time>2026-03-22T09:36:25.999Z</time></trkpt><trkpt lat="44.01515246792473" lon="8.149000903739243"><ele>432.6</ele><time>2026-03-22T09:36:26.999Z</time></trkpt><trkpt lat="44.01517889787686" lon="8.149158115933458"><ele>431.2</ele><time>2026-03-22T09:36:28.999Z</time></trkpt><trkpt lat="44.01521301125121" lon="8.149237632530566"><ele>429.80000000000007</ele><time>2026-03-22T09:36:29.999Z</time></trkpt><trkpt lat="44.01529315741976" lon="8.149295900308028"><ele>428.40000000000003</ele><time>2026-03-22T09:36:30.999Z</time></trkpt><trkpt lat="44.01538861999453" lon="8.149301899279457"><ele>427.0</ele><time>2026-03-22T09:36:31.999Z</time></trkpt><trkpt lat="44.01548278999351" lon="8.149304637028857"><ele>427.0</ele><time>2026-03-22T09:36:32.999Z</time></trkpt><trkpt lat="44.015578149534385" lon="8.149318593507806"><ele>427.00000000000006</ele><time>2026-03-22T09:36:33.999Z</time></trkpt><trkpt lat="44.01567957246925" lon="8.149277123759003"><ele>427.00000000000006</ele><time>2026-03-22T09:36:34.999Z</time></trkpt><trkpt lat="44.01578104735035" lon="8.149248971715112"><ele>427.0</ele><time>2026-03-22T09:36:35.999Z</time></trkpt><trkpt lat="44.01587327509975" lon="8.14921475196013"><ele>427.0</ele><time>2026-03-22T09:36:36.999Z</time></trkpt><trkpt lat="44.015972364862556" lon="8.149172234127775"><ele>432.0</ele><time>2026-03-22T09:36:37.999Z</time></trkpt><trkpt lat="44.0160692052547" lon="8.149111606721348"><ele>437.00000000000006</ele><time>2026-03-22T09:36:38.999Z</time></trkpt><trkpt lat="44.01616173462619" lon="8.149037733040176"><ele>442.00000000000006</ele><time>2026-03-22T09:36:39.999Z</time></trkpt><trkpt lat="44.016256962422034" lon="8.148964294973561"><ele>447.0</ele><time>2026-03-22T09:36:40.999Z</time></trkpt><trkpt lat="44.01635448681082" lon="8.148889321144264"><ele>452.0</ele><time>2026-03-22T09:36:41.999Z</time></trkpt><trkpt lat="44.016450365600626" lon="8.14880406395748"><ele>457.6</ele><time>2026-03-22T09:36:42.999Z</time></trkpt><trkpt lat="44.0165475378599" lon="8.148711663617966"><ele>463.20000000000005</ele><time>2026-03-22T09:36:43.999Z</time></trkpt><trkpt lat="44.01662192875645" lon="8.148660329723196"><ele>468.8</ele><time>2026-03-22T09:36:44.999Z</time></trkpt><trkpt lat="44.01668647566604" lon="8.148633501298336"><ele>474.4</ele><time>2026-03-22T09:36:45.999Z</time></trkpt><trkpt lat="44.01680999093095" lon="8.148628276326779"><ele>480.0</ele><time>2026-03-22T09:36:47.999Z</time></trkpt><trkpt lat="44.01688028924659" lon="8.148631104192303"><ele>480.3333333333333</ele><time>2026-03-22T09:36:48.999Z</time></trkpt><trkpt lat="44.01696341164136" lon="8.148638551765375"><ele>480.66666666666663</ele><time>2026-03-22T09:36:49.999Z</time></trkpt><trkpt lat="44.01705143088642" lon="8.148615746854313"><ele>481.0</ele><time>2026-03-22T09:36:51Z</time></trkpt><trkpt lat="44.01712870267159" lon="8.14859135442798"><ele>481.3333333333333</ele><time>2026-03-22T09:36:52Z</time></trkpt><trkpt lat="44.017231020550156" lon="8.148514788369617"><ele>481.66666666666663</ele><time>2026-03-22T09:36:54Z</time></trkpt><trkpt lat="44.01727866828903" lon="8.148450526093637"><ele>482.0</ele><time>2026-03-22T09:36:55Z</time></trkpt><trkpt lat="44.01727205713353" lon="8.148292340269107"><ele>482.0</ele><time>2026-03-22T09:36:57Z</time></trkpt><trkpt lat="44.01716110808858" lon="8.148207197115974"><ele>482.00000000000006</ele><time>2026-03-22T09:36:59Z</time></trkpt><trkpt lat="44.01708578125161" lon="8.14820442344302"><ele>482.00000000000006</ele><time>2026-03-22T09:37:00Z</time></trkpt><trkpt lat="44.017009813560456" lon="8.148209775689091"><ele>482.0</ele><time>2026-03-22T09:37:01Z</time></trkpt><trkpt lat="44.01689108731536" lon="8.14821979730033"><ele>482.0</ele><time>2026-03-22T09:37:03Z</time></trkpt><trkpt lat="44.016778273171994" lon="8.148244518149808"><ele>482.0</ele><time>2026-03-22T09:37:05Z</time></trkpt><trkpt lat="44.016674731404656" lon="8.148279685501544"><ele>482.00000000000006</ele><time>2026-03-22T09:37:07Z</time></trkpt><trkpt lat="44.016562027679896" lon="8.148304045396147"><ele>482.00000000000006</ele><time>2026-03-22T09:37:09Z</time></trkpt><trkpt lat="44.01646384480704" lon="8.14834389755054"><ele>482.0</ele><time>2026-03-22T09:37:11Z</time></trkpt><trkpt lat="44.016358605909815" lon="8.14840003973959"><ele>482.0</ele><time>2026-03-22T09:37:13Z</time></trkpt><trkpt lat="44.01624996891012" lon="8.148433165590903"><ele>481.66666666666663</ele><time>2026-03-22T09:37:15Z</time></trkpt><trkpt lat="44.01616425668208" lon="8.14844426290296"><ele>481.3333333333333</ele><time>2026-03-22T09:37:17Z</time></trkpt><trkpt lat="44.0160793797158" lon="8.148474459438944"><ele>481.0</ele><time>2026-03-22T09:37:40Z</time></trkpt><trkpt lat="44.01596883091193" lon="8.148536900657005"><ele>480.66666666666663</ele><time>2026-03-22T09:37:42Z</time></trkpt><trkpt lat="44.015895065223454" lon="8.14855724955992"><ele>480.3333333333333</ele><time>2026-03-22T09:37:45Z</time></trkpt><trkpt lat="44.01582260115901" lon="8.148525822054227"><ele>480.0</ele><time>2026-03-22T09:37:48Z</time></trkpt><trkpt lat="44.015916171790565" lon="8.148604540600019"><ele>480.0</ele><time>2026-03-22T09:37:55Z</time></trkpt><trkpt lat="44.01600537574797" lon="8.148594284633203"><ele>480.0</ele><time>2026-03-22T09:37:57Z</time></trkpt><trkpt lat="44.01608405626523" lon="8.14853956704683"><ele>480.0</ele><time>2026-03-22T09:37:58.999Z</time></trkpt><trkpt lat="44.01613799712406" lon="8.148493242999104"><ele>480.0</ele><time>2026-03-22T09:38:01.999Z</time></trkpt><trkpt lat="44.01608990663376" lon="8.148573998792688"><ele>480.0</ele><time>2026-03-22T09:40:34.999Z</time></trkpt><trkpt lat="44.01598849666521" lon="8.148652255718666"><ele>480.0</ele><time>2026-03-22T09:40:37.999Z</time></trkpt><trkpt lat="44.01587630429221" lon="8.148626836103977"><ele>480.0</ele><time>2026-03-22T09:40:39.999Z</time></trkpt><trkpt lat="44.01584076264013" lon="8.148525469725563"><ele>480.0</ele><time>2026-03-22T09:40:41.999Z</time></trkpt><trkpt lat="44.015866049378495" lon="8.148375892430474"><ele>480.0</ele><time>2026-03-22T09:40:43.999Z</time></trkpt><trkpt lat="44.015953533145726" lon="8.148358467176255"><ele>480.0</ele><time>2026-03-22T09:40:44.999Z</time></trkpt><trkpt lat="44.01602482439523" lon="8.148328893549525"><ele>480.0</ele><time>2026-03-22T09:40:45.999Z</time></trkpt><trkpt lat="44.0161057890192" lon="8.14828234913718"><ele>480.0</ele><time>2026-03-22T09:40:46.999Z</time></trkpt><trkpt lat="44.01618235376017" lon="8.148238140932213"><ele>480.2</ele><time>2026-03-22T09:40:47.999Z</time></trkpt><trkpt lat="44.01626547560665" lon="8.148181867041792"><ele>480.4</ele><time>2026-03-22T09:40:48.999Z</time></trkpt><trkpt lat="44.01635090709258" lon="8.148125840116203"><ele>480.6</ele><time>2026-03-22T09:40:49.999Z</time></trkpt><trkpt lat="44.01644159159309" lon="8.148061581096577"><ele>480.8</ele><time>2026-03-22T09:40:50.999Z</time></trkpt><trkpt lat="44.01652624710048" lon="8.148000710682489"><ele>481.0</ele><time>2026-03-22T09:40:51.999Z</time></trkpt><trkpt lat="44.016585519220314" lon="8.147951266282828"><ele>485.20000000000005</ele><time>2026-03-22T09:40:52.999Z</time></trkpt><trkpt lat="44.01668626395451" lon="8.147864641894826"><ele>489.40000000000003</ele><time>2026-03-22T09:40:54.999Z</time></trkpt><trkpt lat="44.01675626571943" lon="8.147806019501934"><ele>493.6</ele><time>2026-03-22T09:40:55.999Z</time></trkpt><trkpt lat="44.01682063663765" lon="8.147744600892295"><ele>497.8</ele><time>2026-03-22T09:40:56.999Z</time></trkpt><trkpt lat="44.01689332427055" lon="8.147683390053906"><ele>502.0</ele><time>2026-03-22T09:40:57.999Z</time></trkpt><trkpt lat="44.01696931746702" lon="8.147621221232157"><ele>502.0</ele><time>2026-03-22T09:40:58.999Z</time></trkpt><trkpt lat="44.017052892046735" lon="8.147566931726777"><ele>502.00000000000006</ele><time>2026-03-22T09:40:59.999Z</time></trkpt><trkpt lat="44.01713328540243" lon="8.147506664415191"><ele>502.00000000000006</ele><time>2026-03-22T09:41:00.999Z</time></trkpt><trkpt lat="44.0172225035825" lon="8.147448339618228"><ele>502.0</ele><time>2026-03-22T09:41:01.999Z</time></trkpt><trkpt lat="44.017309915545034" lon="8.1473996048927"><ele>502.0</ele><time>2026-03-22T09:41:03Z</time></trkpt><trkpt lat="44.01740144759506" lon="8.147348239802852"><ele>505.1666666666667</ele><time>2026-03-22T09:41:04Z</time></trkpt><trkpt lat="44.017483261797" lon="8.147298003275079"><ele>508.33333333333337</ele><time>2026-03-22T09:41:05Z</time></trkpt><trkpt lat="44.017565350691655" lon="8.147249026818624"><ele>511.5</ele><time>2026-03-22T09:41:06Z</time></trkpt><trkpt lat="44.01764531045355" lon="8.147206015796877"><ele>514.6666666666666</ele><time>2026-03-22T09:41:07Z</time></trkpt><trkpt lat="44.01772790014764" lon="8.14716801422387"><ele>517.8333333333333</ele><time>2026-03-22T09:41:08Z</time></trkpt><trkpt lat="44.01781276181492" lon="8.147143132837114"><ele>521.0</ele><time>2026-03-22T09:41:09Z</time></trkpt><trkpt lat="44.017894885365045" lon="8.147130986048033"><ele>521.6666666666666</ele><time>2026-03-22T09:41:10Z</time></trkpt><trkpt lat="44.01797471987675" lon="8.14711376267492"><ele>522.3333333333333</ele><time>2026-03-22T09:41:11Z</time></trkpt><trkpt lat="44.0180320601138" lon="8.147024865037984"><ele>523.0</ele><time>2026-03-22T09:41:13Z</time></trkpt><trkpt lat="44.01802051810405" lon="8.146914725834346"><ele>523.6666666666666</ele><time>2026-03-22T09:41:15Z</time></trkpt><trkpt lat="44.01795626287061" lon="8.146871286773099"><ele>524.3333333333334</ele><time>2026-03-22T09:41:16Z</time></trkpt><trkpt lat="44.01787547478177" lon="8.146857161879224"><ele>525.0</ele><time>2026-03-22T09:41:17Z</time></trkpt><trkpt lat="44.017790403676244" lon="8.146827632865948"><ele>525.0</ele><time>2026-03-22T09:41:18Z</time></trkpt><trkpt lat="44.01769739702041" lon="8.146858821068212"><ele>525.0</ele><time>2026-03-22T09:41:19Z</time></trkpt><trkpt lat="44.01760096404801" lon="8.146873855864827"><ele>525.0</ele><time>2026-03-22T09:41:20Z</time></trkpt><trkpt lat="44.017490518359516" lon="8.146888579378"><ele>525.0</ele><time>2026-03-22T09:41:21Z</time></trkpt><trkpt lat="44.01736930316819" lon="8.14690988463252"><ele>525.0</ele><time>2026-03-22T09:41:22Z</time></trkpt><trkpt lat="44.01727209110518" lon="8.146925383774633"><ele>524.3333333333334</ele><time>2026-03-22T09:41:23Z</time></trkpt><trkpt lat="44.01720386022216" lon="8.146935830098831"><ele>523.6666666666666</ele><time>2026-03-22T09:41:24Z</time></trkpt><trkpt lat="44.01713041246663" lon="8.146937498136191"><ele>523.0</ele><time>2026-03-22T09:41:25Z</time></trkpt><trkpt lat="44.017053221951834" lon="8.146943474995801"><ele>522.3333333333333</ele><time>2026-03-22T09:41:26Z</time></trkpt><trkpt lat="44.01697256770301" lon="8.146969897557526"><ele>521.6666666666666</ele><time>2026-03-22T09:41:27Z</time></trkpt><trkpt lat="44.01688498930731" lon="8.146951927425992"><ele>521.0</ele><time>2026-03-22T09:41:28Z</time></trkpt><trkpt lat="44.01666506717881" lon="8.14710801614382"><ele>513.4</ele><time>2026-03-22T09:41:29Z</time></trkpt><trkpt lat="44.01656713829519" lon="8.14716491387553"><ele>505.8</ele><time>2026-03-22T09:41:30Z</time></trkpt><trkpt lat="44.01650179876635" lon="8.147235301098567"><ele>498.19999999999993</ele><time>2026-03-22T09:41:31Z</time></trkpt><trkpt lat="44.016435293189076" lon="8.147230826998001"><ele>490.59999999999997</ele><time>2026-03-22T09:41:32Z</time></trkpt><trkpt lat="44.01638678956578" lon="8.147074982860563"><ele>483.0</ele><time>2026-03-22T09:41:34Z</time></trkpt><trkpt lat="44.016386238040454" lon="8.146950017488082"><ele>483.0</ele><time>2026-03-22T09:41:35Z</time></trkpt><trkpt lat="44.0163742995342" lon="8.146814394269956"><ele>482.99999999999994</ele><time>2026-03-22T09:41:36Z</time></trkpt><trkpt lat="44.01637121499262" lon="8.146654133390314"><ele>482.99999999999994</ele><time>2026-03-22T09:41:37Z</time></trkpt><trkpt lat="44.016395473524085" lon="8.14650200888705"><ele>483.0</ele><time>2026-03-22T09:41:38Z</time></trkpt><trkpt lat="44.016441342743825" lon="8.146352755987765"><ele>483.0</ele><time>2026-03-22T09:41:39Z</time></trkpt><trkpt lat="44.01649747902791" lon="8.146198258461775"><ele>484.5</ele><time>2026-03-22T09:41:40Z</time></trkpt><trkpt lat="44.016569251159076" lon="8.146048891317033"><ele>486.0</ele><time>2026-03-22T09:41:41Z</time></trkpt><trkpt lat="44.016636561988705" lon="8.145878353326564"><ele>487.5</ele><time>2026-03-22T09:41:42Z</time></trkpt><trkpt lat="44.01667466103321" lon="8.145702910070952"><ele>489.0</ele><time>2026-03-22T09:41:43Z</time></trkpt><trkpt lat="44.016717363652916" lon="8.145569707286363"><ele>493.0</ele><time>2026-03-22T09:41:44Z</time></trkpt><trkpt lat="44.016763619354" lon="8.145500934925364"><ele>497.0</ele><time>2026-03-22T09:41:45Z</time></trkpt><trkpt lat="44.016837104170776" lon="8.145501337183411"><ele>501.0</ele><time>2026-03-22T09:41:46Z</time></trkpt><trkpt lat="44.01691720919591" lon="8.145511522825261"><ele>505.0</ele><time>2026-03-22T09:41:47Z</time></trkpt><trkpt lat="44.0170178391609" lon="8.145495837678334"><ele>509.0</ele><time>2026-03-22T09:41:48Z</time></trkpt><trkpt lat="44.017145439248836" lon="8.145512368056655"><ele>509.0</ele><time>2026-03-22T09:41:49Z</time></trkpt><trkpt lat="44.01726565328962" lon="8.145525891802203"><ele>509.0</ele><time>2026-03-22T09:41:50Z</time></trkpt><trkpt lat="44.01740291646696" lon="8.145577615665758"><ele>509.0</ele><time>2026-03-22T09:41:51Z</time></trkpt><trkpt lat="44.01753354865714" lon="8.145623261671037"><ele>509.0</ele><time>2026-03-22T09:41:52Z</time></trkpt><trkpt lat="44.017649595936625" lon="8.14568206046906"><ele>516.0</ele><time>2026-03-22T09:41:53Z</time></trkpt><trkpt lat="44.017780976861246" lon="8.145779240291258"><ele>523.0</ele><time>2026-03-22T09:41:54Z</time></trkpt><trkpt lat="44.01792522808765" lon="8.14583586485547"><ele>530.0</ele><time>2026-03-22T09:41:55Z</time></trkpt><trkpt lat="44.0180584260445" lon="8.14580882653328"><ele>537.0</ele><time>2026-03-22T09:41:56Z</time></trkpt><trkpt lat="44.018140517462776" lon="8.145815348642293"><ele>537.0</ele><time>2026-03-22T09:41:57Z</time></trkpt><trkpt lat="44.01822218730178" lon="8.145813138200172"><ele>537.0</ele><time>2026-03-22T09:41:58Z</time></trkpt><trkpt lat="44.01832336684004" lon="8.145820057129258"><ele>537.0</ele><time>2026-03-22T09:41:59Z</time></trkpt><trkpt lat="44.01842798669191" lon="8.145880822548742"><ele>537.0</ele><time>2026-03-22T09:42:00Z</time></trkpt><trkpt lat="44.01854927403173" lon="8.145952045106352"><ele>537.0</ele><time>2026-03-22T09:42:01Z</time></trkpt><trkpt lat="44.01866697195216" lon="8.146036447426384"><ele>537.4</ele><time>2026-03-22T09:42:02Z</time></trkpt><trkpt lat="44.01876775854133" lon="8.146133070313232"><ele>537.8000000000001</ele><time>2026-03-22T09:42:03Z</time></trkpt><trkpt lat="44.018855282527284" lon="8.14620618381156"><ele>538.2</ele><time>2026-03-22T09:42:04Z</time></trkpt><trkpt lat="44.0189213051053" lon="8.146280460433367"><ele>538.6</ele><time>2026-03-22T09:42:05Z</time></trkpt><trkpt lat="44.018987096992404" lon="8.146342513300299"><ele>539.0</ele><time>2026-03-22T09:42:06Z</time></trkpt><trkpt lat="44.01903509042909" lon="8.146414568250075"><ele>539.0</ele><time>2026-03-22T09:42:07Z</time></trkpt><trkpt lat="44.01911580705438" lon="8.146499241841715"><ele>539.0</ele><time>2026-03-22T09:42:09Z</time></trkpt><trkpt lat="44.01918428885105" lon="8.14657107970897"><ele>539.0</ele><time>2026-03-22T09:42:11Z</time></trkpt><trkpt lat="44.01935801811958" lon="8.146517274031066"><ele>539.0</ele><time>2026-03-22T09:42:13Z</time></trkpt><trkpt lat="44.01945009956663" lon="8.146518680009644"><ele>539.6</ele><time>2026-03-22T09:42:14Z</time></trkpt><trkpt lat="44.0195301275522" lon="8.146500382986972"><ele>540.2</ele><time>2026-03-22T09:42:15Z</time></trkpt><trkpt lat="44.01961753588351" lon="8.14646762784443"><ele>540.8000000000001</ele><time>2026-03-22T09:42:16Z</time></trkpt><trkpt lat="44.019716576109985" lon="8.146398086386094"><ele>541.4</ele><time>2026-03-22T09:42:17Z</time></trkpt><trkpt lat="44.01984298129252" lon="8.14635988291153"><ele>542.0</ele><time>2026-03-22T09:42:18Z</time></trkpt><trkpt lat="44.01994937050353" lon="8.146292099025771"><ele>543.5</ele><time>2026-03-22T09:42:19Z</time></trkpt><trkpt lat="44.02007847452502" lon="8.14621846004066"><ele>545.0</ele><time>2026-03-22T09:42:20Z</time></trkpt><trkpt lat="44.02022779764051" lon="8.14617965465047"><ele>546.5</ele><time>2026-03-22T09:42:21Z</time></trkpt><trkpt lat="44.020371301095146" lon="8.146125483580283"><ele>548.0</ele><time>2026-03-22T09:42:22Z</time></trkpt><trkpt lat="44.02048835570596" lon="8.146082759476657"><ele>548.0</ele><time>2026-03-22T09:42:22.999Z</time></trkpt><trkpt lat="44.02058925022386" lon="8.146054051023677"><ele>548.0</ele><time>2026-03-22T09:42:23.999Z</time></trkpt><trkpt lat="44.02068174575094" lon="8.146037368267566"><ele>548.0</ele><time>2026-03-22T09:42:24.999Z</time></trkpt><trkpt lat="44.020785286827696" lon="8.146018446804579"><ele>548.0</ele><time>2026-03-22T09:42:25.999Z</time></trkpt><trkpt lat="44.02085799952486" lon="8.146044398726865"><ele>548.0</ele><time>2026-03-22T09:42:26.999Z</time></trkpt><trkpt lat="44.020913698426014" lon="8.146138364176197"><ele>548.8</ele><time>2026-03-22T09:42:28.999Z</time></trkpt><trkpt lat="44.020913497483576" lon="8.146230958444889"><ele>549.5999999999999</ele><time>2026-03-22T09:42:29.999Z</time></trkpt><trkpt lat="44.02093975089477" lon="8.146319022070246"><ele>550.4000000000001</ele><time>2026-03-22T09:42:30.999Z</time></trkpt><trkpt lat="44.02089243157687" lon="8.146456462753886"><ele>551.2</ele><time>2026-03-22T09:42:31.999Z</time></trkpt><trkpt lat="44.02101051820264" lon="8.14655637399"><ele>552.0</ele><time>2026-03-22T09:42:32.999Z</time></trkpt><trkpt lat="44.02100056441899" lon="8.146757865920646"><ele>555.0</ele><time>2026-03-22T09:42:33.999Z</time></trkpt><trkpt lat="44.02097860446623" lon="8.146995235542303"><ele>558.0</ele><time>2026-03-22T09:42:34.999Z</time></trkpt><trkpt lat="44.020975289943785" lon="8.147123438759778"><ele>561.0</ele><time>2026-03-22T09:42:35.999Z</time></trkpt><trkpt lat="44.02087120167834" lon="8.14717077669494"><ele>564.0</ele><time>2026-03-22T09:42:38.999Z</time></trkpt><trkpt lat="44.02077180413621" lon="8.147170785780654"><ele>564.3333333333334</ele><time>2026-03-22T09:42:40.999Z</time></trkpt><trkpt lat="44.020856178374004" lon="8.147223836652202"><ele>564.6666666666666</ele><time>2026-03-22T09:42:44.999Z</time></trkpt><trkpt lat="44.020920118165854" lon="8.147321933417663"><ele>565.0</ele><time>2026-03-22T09:42:46.999Z</time></trkpt><trkpt lat="44.020950297387195" lon="8.14739970651289"><ele>565.3333333333333</ele><time>2026-03-22T09:42:47.999Z</time></trkpt><trkpt lat="44.021004835676145" lon="8.14748411356728"><ele>565.6666666666666</ele><time>2026-03-22T09:42:48.999Z</time></trkpt><trkpt lat="44.021052980705015" lon="8.147625976261367"><ele>566.0</ele><time>2026-03-22T09:42:50.999Z</time></trkpt><trkpt lat="44.02106736799259" lon="8.147736567557995"><ele>563.5</ele><time>2026-03-22T09:42:52.999Z</time></trkpt><trkpt lat="44.02107252939856" lon="8.14782465016834"><ele>561.0</ele><time>2026-03-22T09:42:53.999Z</time></trkpt><trkpt lat="44.021106134148916" lon="8.147957911819836"><ele>558.5</ele><time>2026-03-22T09:42:55.999Z</time></trkpt><trkpt lat="44.02114927981631" lon="8.148028835207617"><ele>556.0</ele><time>2026-03-22T09:42:56.999Z</time></trkpt><trkpt lat="44.02120838668635" lon="8.1481157343381"><ele>553.5</ele><time>2026-03-22T09:42:57.999Z</time></trkpt><trkpt lat="44.02126036443309" lon="8.148177762940573"><ele>551.0</ele><time>2026-03-22T09:42:58.999Z</time></trkpt><trkpt lat="44.021336341279735" lon="8.148199944255825"><ele>546.8333333333333</ele><time>2026-03-22T09:43:01.999Z</time></trkpt><trkpt lat="44.021406443076955" lon="8.148301759493599"><ele>542.6666666666666</ele><time>2026-03-22T09:43:04.999Z</time></trkpt><trkpt lat="44.02144017998262" lon="8.148401643919458"><ele>538.5</ele><time>2026-03-22T09:43:05.999Z</time></trkpt><trkpt lat="44.021481646343375" lon="8.148478303459648"><ele>534.3333333333334</ele><time>2026-03-22T09:43:06.999Z</time></trkpt><trkpt lat="44.02152522764054" lon="8.148543299358527"><ele>530.1666666666667</ele><time>2026-03-22T09:43:07.999Z</time></trkpt><trkpt lat="44.021583902599424" lon="8.148674989478891"><ele>526.0</ele><time>2026-03-22T09:43:10Z</time></trkpt><trkpt lat="44.02165946156281" lon="8.148793935836377"><ele>525.6</ele><time>2026-03-22T09:43:12Z</time></trkpt><trkpt lat="44.02177026963887" lon="8.14886597963259"><ele>525.2</ele><time>2026-03-22T09:43:14Z</time></trkpt><trkpt lat="44.02184088959841" lon="8.148911078424936"><ele>524.8</ele><time>2026-03-22T09:43:15Z</time></trkpt><trkpt lat="44.021906900099786" lon="8.148939614050128"><ele>524.4</ele><time>2026-03-22T09:43:16Z</time></trkpt><trkpt lat="44.0219751416441" lon="8.149059700162738"><ele>524.0</ele><time>2026-03-22T09:43:18Z</time></trkpt><trkpt lat="44.022000685912914" lon="8.149162347160473"><ele>524.0</ele><time>2026-03-22T09:43:19Z</time></trkpt><trkpt lat="44.022039533605536" lon="8.149310562639947"><ele>524.0</ele><time>2026-03-22T09:43:21Z</time></trkpt><trkpt lat="44.022069036122254" lon="8.149417226957485"><ele>524.0</ele><time>2026-03-22T09:43:23Z</time></trkpt><trkpt lat="44.022149123523114" lon="8.149566479848295"><ele>524.0</ele><time>2026-03-22T09:43:25Z</time></trkpt><trkpt lat="44.02220402379428" lon="8.149734787478955"><ele>524.0</ele><time>2026-03-22T09:43:27Z</time></trkpt><trkpt lat="44.02221686719116" lon="8.14986156512551"><ele>524.0</ele><time>2026-03-22T09:43:28Z</time></trkpt><trkpt lat="44.0222459758623" lon="8.149969460476964"><ele>524.0</ele><time>2026-03-22T09:43:29Z</time></trkpt><trkpt lat="44.02230805106685" lon="8.150094629840627"><ele>524.0</ele><time>2026-03-22T09:43:30Z</time></trkpt><trkpt lat="44.02237265025867" lon="8.150181113848507"><ele>524.0</ele><time>2026-03-22T09:43:31Z</time></trkpt><trkpt lat="44.02241186974463" lon="8.150266617753589"><ele>524.0</ele><time>2026-03-22T09:43:32Z</time></trkpt><trkpt lat="44.02243558618541" lon="8.150405421223155"><ele>519.2</ele><time>2026-03-22T09:43:34Z</time></trkpt><trkpt lat="44.02249303973219" lon="8.150523500960976"><ele>514.4</ele><time>2026-03-22T09:43:36Z</time></trkpt><trkpt lat="44.022543589842996" lon="8.150591297116565"><ele>509.6</ele><time>2026-03-22T09:43:37Z</time></trkpt><trkpt lat="44.02259263253795" lon="8.150652098973534"><ele>504.8</ele><time>2026-03-22T09:43:38Z</time></trkpt><trkpt lat="44.02265499444837" lon="8.150729413749055"><ele>500.0</ele><time>2026-03-22T09:43:40Z</time></trkpt><trkpt lat="44.02279560112192" lon="8.150906954656692"><ele>499.5</ele><time>2026-03-22T09:43:44Z</time></trkpt><trkpt lat="44.022849308939726" lon="8.150979861625148"><ele>499.0</ele><time>2026-03-22T09:43:45Z</time></trkpt><trkpt lat="44.02291838710833" lon="8.15108585948368"><ele>498.5</ele><time>2026-03-22T09:43:47Z</time></trkpt><trkpt lat="44.02296555923863" lon="8.151225921092097"><ele>498.0</ele><time>2026-03-22T09:43:49Z</time></trkpt><trkpt lat="44.02300875638901" lon="8.151450250846317"><ele>494.0</ele><time>2026-03-22T09:43:51Z</time></trkpt><trkpt lat="44.02307045738104" lon="8.151601036782205"><ele>490.0</ele><time>2026-03-22T09:43:52Z</time></trkpt><trkpt lat="44.02313855925731" lon="8.151739087887302"><ele>486.0</ele><time>2026-03-22T09:43:53Z</time></trkpt><trkpt lat="44.023209046245874" lon="8.15188032284887"><ele>482.0</ele><time>2026-03-22T09:43:54Z</time></trkpt><trkpt lat="44.023261529002596" lon="8.151999729290951"><ele>484.75</ele><time>2026-03-22T09:43:55Z</time></trkpt><trkpt lat="44.02337178016839" lon="8.152232939588309"><ele>487.5</ele><time>2026-03-22T09:43:56Z</time></trkpt><trkpt lat="44.023471697241284" lon="8.15234829560114"><ele>490.25</ele><time>2026-03-22T09:43:57Z</time></trkpt><trkpt lat="44.02354770725538" lon="8.152443221486324"><ele>493.0</ele><time>2026-03-22T09:43:58Z</time></trkpt><trkpt lat="44.02361286577241" lon="8.152541793012759"><ele>493.0</ele><time>2026-03-22T09:43:59Z</time></trkpt><trkpt lat="44.023660565156426" lon="8.152698585829983"><ele>493.0</ele><time>2026-03-22T09:44:01Z</time></trkpt><trkpt lat="44.023685316499936" lon="8.152862792546118"><ele>493.0</ele><time>2026-03-22T09:44:03Z</time></trkpt><trkpt lat="44.023699360040986" lon="8.153241201925187"><ele>474.0</ele><time>2026-03-22T09:44:06Z</time></trkpt><trkpt lat="44.024067885531444" lon="8.153746577968416"><ele>500.0</ele><time>2026-03-22T09:44:07Z</time></trkpt><trkpt lat="44.02443443077889" lon="8.153122779737478"><ele>500.0</ele><time>2026-03-22T09:44:08Z</time></trkpt><trkpt lat="44.024468780875765" lon="8.153198780204393"><ele>500.0</ele><time>2026-03-22T09:44:09Z</time></trkpt><trkpt lat="44.02447443216926" lon="8.153351493268056"><ele>500.0</ele><time>2026-03-22T09:44:11Z</time></trkpt><trkpt lat="44.0242788447797" lon="8.153672056805155"><ele>499.2</ele><time>2026-03-22T09:44:12Z</time></trkpt><trkpt lat="44.024326558504214" lon="8.153830134547544"><ele>498.4</ele><time>2026-03-22T09:44:14Z</time></trkpt><trkpt lat="44.02440546088096" lon="8.153890299321981"><ele>497.6</ele><time>2026-03-22T09:44:18Z</time></trkpt><trkpt lat="44.02448635608953" lon="8.154000836434726"><ele>496.8</ele><time>2026-03-22T09:44:20.999Z</time></trkpt><trkpt lat="44.02453469311158" lon="8.15409155517179"><ele>496.0</ele><time>2026-03-22T09:44:21.999Z</time></trkpt><trkpt lat="44.024609855264885" lon="8.154283945644153"><ele>485.0</ele><time>2026-03-22T09:44:23.999Z</time></trkpt><trkpt lat="44.02465902816021" lon="8.154632717872873"><ele>474.0</ele><time>2026-03-22T09:44:24.999Z</time></trkpt><trkpt lat="44.0248915724866" lon="8.154825846867828"><ele>474.0</ele><time>2026-03-22T09:44:25.999Z</time></trkpt><trkpt lat="44.02494993697176" lon="8.154862271979889"><ele>474.0</ele><time>2026-03-22T09:44:26.999Z</time></trkpt><trkpt lat="44.0250303796468" lon="8.154934789548747"><ele>474.0</ele><time>2026-03-22T09:44:27.999Z</time></trkpt><trkpt lat="44.0250861126152" lon="8.154990168611516"><ele>474.0</ele><time>2026-03-22T09:44:28.999Z</time></trkpt><trkpt lat="44.02515182929352" lon="8.155066458848246"><ele>474.0</ele><time>2026-03-22T09:44:29.999Z</time></trkpt><trkpt lat="44.02520913005465" lon="8.155169027372116"><ele>474.0</ele><time>2026-03-22T09:44:31.999Z</time></trkpt><trkpt lat="44.025250163462665" lon="8.155246454393973"><ele>474.0</ele><time>2026-03-22T09:44:32.999Z</time></trkpt><trkpt lat="44.02530161570384" lon="8.155347102450547"><ele>474.0</ele><time>2026-03-22T09:44:34.999Z</time></trkpt><trkpt lat="44.025627062206766" lon="8.155131614608804"><ele>474.0</ele><time>2026-03-22T09:44:38.999Z</time></trkpt><trkpt lat="44.02572745182713" lon="8.155261646228004"><ele>474.0</ele><time>2026-03-22T09:44:40.999Z</time></trkpt><trkpt lat="44.02578836827481" lon="8.155313439146477"><ele>474.0</ele><time>2026-03-22T09:44:41.999Z</time></trkpt><trkpt lat="44.025859919034815" lon="8.155341490918946"><ele>474.0</ele><time>2026-03-22T09:44:42.999Z</time></trkpt><trkpt lat="44.02592878406191" lon="8.155359767969058"><ele>474.0</ele><time>2026-03-22T09:44:43.999Z</time></trkpt><trkpt lat="44.02598428986033" lon="8.15541221772286"><ele>474.0</ele><time>2026-03-22T09:44:45.999Z</time></trkpt><trkpt lat="44.026054239820056" lon="8.15550283154383"><ele>474.0</ele><time>2026-03-22T09:44:48.999Z</time></trkpt><trkpt lat="44.02612106821704" lon="8.15560989185048"><ele>475.3333333333333</ele><time>2026-03-22T09:44:50.999Z</time></trkpt><trkpt lat="44.026186953442604" lon="8.155716830400973"><ele>476.66666666666663</ele><time>2026-03-22T09:44:52.999Z</time></trkpt><trkpt lat="44.02622552085794" lon="8.155787327036126"><ele>478.0</ele><time>2026-03-22T09:44:53.999Z</time></trkpt><trkpt lat="44.02624424413107" lon="8.155904605084539"><ele>479.3333333333333</ele><time>2026-03-22T09:44:55.999Z</time></trkpt><trkpt lat="44.02627384477156" lon="8.155984657909059"><ele>480.66666666666663</ele><time>2026-03-22T09:44:56.999Z</time></trkpt><trkpt lat="44.0263200038229" lon="8.156125764694846"><ele>482.0</ele><time>2026-03-22T09:44:58.999Z</time></trkpt><trkpt lat="44.02632183431639" lon="8.15627880341196"><ele>481.99999999999994</ele><time>2026-03-22T09:45:00.999Z</time></trkpt><trkpt lat="44.02636602228388" lon="8.156364177265832"><ele>482.0</ele><time>2026-03-22T09:45:02.999Z</time></trkpt><trkpt lat="44.02642971985345" lon="8.156397913624582"><ele>482.0</ele><time>2026-03-22T09:45:03.999Z</time></trkpt><trkpt lat="44.0264748389239" lon="8.156471051207943"><ele>482.0</ele><time>2026-03-22T09:45:04.999Z</time></trkpt><trkpt lat="44.02653990663958" lon="8.156561217472444"><ele>481.99999999999994</ele><time>2026-03-22T09:45:05.999Z</time></trkpt><trkpt lat="44.02663063003921" lon="8.156680578592242"><ele>482.0</ele><time>2026-03-22T09:45:06.999Z</time></trkpt><trkpt lat="44.0267150871148" lon="8.15684079704561"><ele>486.0</ele><time>2026-03-22T09:45:07.999Z</time></trkpt><trkpt lat="44.026776178219144" lon="8.156933871947151"><ele>490.00000000000006</ele><time>2026-03-22T09:45:08.999Z</time></trkpt><trkpt lat="44.02679635839117" lon="8.15702515310696"><ele>494.00000000000006</ele><time>2026-03-22T09:45:09.999Z</time></trkpt><trkpt lat="44.0268058423433" lon="8.157202717695977"><ele>498.0</ele><time>2026-03-22T09:45:11.999Z</time></trkpt><trkpt lat="44.02683032045071" lon="8.157337895033699"><ele>502.0</ele><time>2026-03-22T09:45:12.999Z</time></trkpt><trkpt lat="44.026872666737255" lon="8.15747715731887"><ele>502.0</ele><time>2026-03-22T09:45:13.999Z</time></trkpt><trkpt lat="44.02692348562707" lon="8.15763143637675"><ele>502.0</ele><time>2026-03-22T09:45:15Z</time></trkpt><trkpt lat="44.02696243091456" lon="8.157804092935065"><ele>502.0</ele><time>2026-03-22T09:45:16Z</time></trkpt><trkpt lat="44.02700689596801" lon="8.157972287327267"><ele>502.0</ele><time>2026-03-22T09:45:17Z</time></trkpt><trkpt lat="44.02709539327681" lon="8.15806848769197"><ele>502.0</ele><time>2026-03-22T09:45:19Z</time></trkpt><trkpt lat="44.02716941107436" lon="8.158116327101597"><ele>502.00000000000006</ele><time>2026-03-22T09:45:20Z</time></trkpt><trkpt lat="44.02721814099574" lon="8.158319721588148"><ele>502.00000000000006</ele><time>2026-03-22T09:45:22Z</time></trkpt><trkpt lat="44.02722801191151" lon="8.15843280276557"><ele>502.0</ele><time>2026-03-22T09:45:23Z</time></trkpt><trkpt lat="44.02722494794698" lon="8.158532525554813"><ele>502.0</ele><time>2026-03-22T09:45:24Z</time></trkpt><trkpt lat="44.027126342586236" lon="8.15865138400073"><ele>501.6666666666667</ele><time>2026-03-22T09:45:26Z</time></trkpt><trkpt lat="44.0270883849003" lon="8.158746966521393"><ele>501.33333333333337</ele><time>2026-03-22T09:45:27Z</time></trkpt><trkpt lat="44.02711082978524" lon="8.158839124601796"><ele>501.0</ele><time>2026-03-22T09:45:28Z</time></trkpt><trkpt lat="44.027132491736374" lon="8.158940621735375"><ele>500.66666666666663</ele><time>2026-03-22T09:45:29Z</time></trkpt><trkpt lat="44.02707096931182" lon="8.15910388935045"><ele>500.3333333333333</ele><time>2026-03-22T09:45:31Z</time></trkpt><trkpt lat="44.02703328772915" lon="8.159201755161092"><ele>500.0</ele><time>2026-03-22T09:45:32Z</time></trkpt><trkpt lat="44.026990704894196" lon="8.159329442268096"><ele>500.3333333333333</ele><time>2026-03-22T09:45:34Z</time></trkpt><trkpt lat="44.02692893835975" lon="8.159367100222273"><ele>500.66666666666663</ele><time>2026-03-22T09:45:35Z</time></trkpt><trkpt lat="44.026827052457406" lon="8.159420927186437"><ele>501.0</ele><time>2026-03-22T09:45:37Z</time></trkpt><trkpt lat="44.026765744658" lon="8.159456879001562"><ele>501.33333333333337</ele><time>2026-03-22T09:45:38Z</time></trkpt><trkpt lat="44.02668557089369" lon="8.159541479038277"><ele>501.6666666666667</ele><time>2026-03-22T09:45:40Z</time></trkpt><trkpt lat="44.0266235235789" lon="8.159559248358958"><ele>502.0</ele><time>2026-03-22T09:45:42Z</time></trkpt><trkpt lat="44.02654657172815" lon="8.15953168802603"><ele>502.0</ele><time>2026-03-22T09:45:46Z</time></trkpt><trkpt lat="44.026458768782575" lon="8.159572332096982"><ele>502.00000000000006</ele><time>2026-03-22T09:45:49Z</time></trkpt><trkpt lat="44.02636579706928" lon="8.159537126900876"><ele>502.00000000000006</ele><time>2026-03-22T09:45:51Z</time></trkpt><trkpt lat="44.02625925916559" lon="8.159544150810701"><ele>502.0</ele><time>2026-03-22T09:45:53Z</time></trkpt><trkpt lat="44.02613961755882" lon="8.159587275084727"><ele>502.0</ele><time>2026-03-22T09:45:55Z</time></trkpt><trkpt lat="44.02603457213803" lon="8.159640565702924"><ele>502.00000000000006</ele><time>2026-03-22T09:45:57Z</time></trkpt><trkpt lat="44.025945191384835" lon="8.159676578359528"><ele>502.0</ele><time>2026-03-22T09:45:59Z</time></trkpt><trkpt lat="44.02584607440875" lon="8.159731402056442"><ele>502.0</ele><time>2026-03-22T09:46:01Z</time></trkpt><trkpt lat="44.02576158980986" lon="8.159743858586166"><ele>502.0</ele><time>2026-03-22T09:46:03Z</time></trkpt><trkpt lat="44.02568477902622" lon="8.159733354691845"><ele>502.00000000000006</ele><time>2026-03-22T09:46:05Z</time></trkpt><trkpt lat="44.02560936369717" lon="8.159731230078693"><ele>502.0</ele><time>2026-03-22T09:46:07Z</time></trkpt><trkpt lat="44.02551771263939" lon="8.159737290163566"><ele>500.6666666666667</ele><time>2026-03-22T09:46:10Z</time></trkpt><trkpt lat="44.025434537651336" lon="8.159784710030664"><ele>499.33333333333337</ele><time>2026-03-22T09:46:12Z</time></trkpt><trkpt lat="44.0253588548588" lon="8.159799692397002"><ele>498.0</ele><time>2026-03-22T09:46:14Z</time></trkpt><trkpt lat="44.025255672630315" lon="8.159839918231809"><ele>496.66666666666663</ele><time>2026-03-22T09:46:16Z</time></trkpt><trkpt lat="44.025196731607174" lon="8.159879415441596"><ele>495.3333333333333</ele><time>2026-03-22T09:46:17Z</time></trkpt><trkpt lat="44.02510549757865" lon="8.159941873457639"><ele>494.0</ele><time>2026-03-22T09:46:19Z</time></trkpt><trkpt lat="44.02504390736196" lon="8.159968181751418"><ele>491.79999999999995</ele><time>2026-03-22T09:46:20Z</time></trkpt><trkpt lat="44.02495442054982" lon="8.159989291846525"><ele>489.59999999999997</ele><time>2026-03-22T09:46:22Z</time></trkpt><trkpt lat="44.024932584932436" lon="8.160133652193158"><ele>487.4</ele><time>2026-03-22T09:46:25Z</time></trkpt><trkpt lat="44.02487626174411" lon="8.160275134157258"><ele>485.2</ele><time>2026-03-22T09:46:27Z</time></trkpt><trkpt lat="44.024830177907404" lon="8.160380634753116"><ele>483.0</ele><time>2026-03-22T09:46:28.999Z</time></trkpt><trkpt lat="44.02479600129534" lon="8.160478767942783"><ele>483.0</ele><time>2026-03-22T09:46:30.999Z</time></trkpt><trkpt lat="44.02477129404608" lon="8.160618129220342"><ele>483.0</ele><time>2026-03-22T09:46:32.999Z</time></trkpt><trkpt lat="44.0247189138036" lon="8.1607578520611"><ele>483.0</ele><time>2026-03-22T09:46:34.999Z</time></trkpt><trkpt lat="44.02468010832604" lon="8.160835096507604"><ele>483.0</ele><time>2026-03-22T09:46:35.999Z</time></trkpt><trkpt lat="44.02464070995191" lon="8.160908637177782"><ele>483.0</ele><time>2026-03-22T09:46:36.999Z</time></trkpt><trkpt lat="44.02460285917994" lon="8.160989481678635"><ele>483.0</ele><time>2026-03-22T09:46:37.999Z</time></trkpt><trkpt lat="44.024572456441184" lon="8.161086049002092"><ele>485.1666666666667</ele><time>2026-03-22T09:46:38.999Z</time></trkpt><trkpt lat="44.02453739429188" lon="8.161184240154169"><ele>487.33333333333337</ele><time>2026-03-22T09:46:39.999Z</time></trkpt><trkpt lat="44.02450577314527" lon="8.161280536992681"><ele>489.5</ele><time>2026-03-22T09:46:40.999Z</time></trkpt><trkpt lat="44.02446833209252" lon="8.161373485992366"><ele>491.6666666666667</ele><time>2026-03-22T09:46:41.999Z</time></trkpt><trkpt lat="44.02443298865533" lon="8.161463119463658"><ele>493.83333333333337</ele><time>2026-03-22T09:46:42.999Z</time></trkpt><trkpt lat="44.024375491254695" lon="8.161561848038192"><ele>496.0</ele><time>2026-03-22T09:46:44.999Z</time></trkpt><trkpt lat="44.02447389982487" lon="8.161531562050019"><ele>496.0</ele><time>2026-03-22T09:49:20.999Z</time></trkpt><trkpt lat="44.02461997978902" lon="8.161337675680512"><ele>496.0</ele><time>2026-03-22T09:49:22.999Z</time></trkpt><trkpt lat="44.02471642858052" lon="8.161219169696235"><ele>496.0</ele><time>2026-03-22T09:49:23.999Z</time></trkpt><trkpt lat="44.02483747410866" lon="8.161143084913446"><ele>496.0</ele><time>2026-03-22T09:49:24.999Z</time></trkpt><trkpt lat="44.02494704064676" lon="8.161000845733597"><ele>496.0</ele><time>2026-03-22T09:49:25.999Z</time></trkpt><trkpt lat="44.02505625943898" lon="8.16087838198737"><ele>496.0</ele><time>2026-03-22T09:49:27Z</time></trkpt><trkpt lat="44.02516454175306" lon="8.160793107879018"><ele>496.0</ele><time>2026-03-22T09:49:28Z</time></trkpt><trkpt lat="44.02529245525132" lon="8.160698238167209"><ele>500.5</ele><time>2026-03-22T09:49:29Z</time></trkpt><trkpt lat="44.02541082728807" lon="8.160612334731084"><ele>505.0</ele><time>2026-03-22T09:49:30Z</time></trkpt><trkpt lat="44.025491323700905" lon="8.160558937973564"><ele>509.5</ele><time>2026-03-22T09:49:31Z</time></trkpt><trkpt lat="44.025568218256694" lon="8.160560573115822"><ele>514.0</ele><time>2026-03-22T09:49:33Z</time></trkpt><trkpt lat="44.02540380297713" lon="8.160684896492063"><ele>518.75</ele><time>2026-03-22T09:49:38Z</time></trkpt><trkpt lat="44.02532213366588" lon="8.160810284903956"><ele>523.5</ele><time>2026-03-22T09:49:39Z</time></trkpt><trkpt lat="44.02523625645768" lon="8.160963814754558"><ele>528.25</ele><time>2026-03-22T09:49:41Z</time></trkpt><trkpt lat="44.02514646620742" lon="8.161131714212699"><ele>533.0</ele><time>2026-03-22T09:49:42Z</time></trkpt><trkpt lat="44.02505205678186" lon="8.161319617413659"><ele>533.0</ele><time>2026-03-22T09:49:43Z</time></trkpt><trkpt lat="44.02499132363053" lon="8.161513238267633"><ele>533.0</ele><time>2026-03-22T09:49:44Z</time></trkpt><trkpt lat="44.0249312350902" lon="8.161666745084952"><ele>533.0</ele><time>2026-03-22T09:49:45Z</time></trkpt><trkpt lat="44.0248638823951" lon="8.161781947711466"><ele>533.0</ele><time>2026-03-22T09:49:46Z</time></trkpt><trkpt lat="44.024817508907375" lon="8.161946169362576"><ele>537.0</ele><time>2026-03-22T09:49:47Z</time></trkpt><trkpt lat="44.02478371442832" lon="8.162066978266035"><ele>541.0</ele><time>2026-03-22T09:49:48Z</time></trkpt><trkpt lat="44.02482821871996" lon="8.16215097063564"><ele>545.0</ele><time>2026-03-22T09:49:49Z</time></trkpt><trkpt lat="44.02488887152617" lon="8.162202351036871"><ele>549.0</ele><time>2026-03-22T09:49:50Z</time></trkpt><trkpt lat="44.024976938195536" lon="8.162265241848884"><ele>553.0</ele><time>2026-03-22T09:49:51Z</time></trkpt><trkpt lat="44.02508123425714" lon="8.162330027872528"><ele>551.25</ele><time>2026-03-22T09:49:52Z</time></trkpt><trkpt lat="44.02519009558512" lon="8.162394204444546"><ele>549.5</ele><time>2026-03-22T09:49:53Z</time></trkpt><trkpt lat="44.02532443745149" lon="8.162480283470071"><ele>547.75</ele><time>2026-03-22T09:49:54Z</time></trkpt><trkpt lat="44.02546062197272" lon="8.162558880163052"><ele>546.0</ele><time>2026-03-22T09:49:55Z</time></trkpt><trkpt lat="44.025591925973124" lon="8.162614301083513"><ele>546.0</ele><time>2026-03-22T09:49:56Z</time></trkpt><trkpt lat="44.02572659261538" lon="8.162638629462561"><ele>546.0</ele><time>2026-03-22T09:49:57Z</time></trkpt><trkpt lat="44.02586630835582" lon="8.162628911449339"><ele>546.0</ele><time>2026-03-22T09:49:58Z</time></trkpt><trkpt lat="44.02597674650517" lon="8.162581869868308"><ele>546.0</ele><time>2026-03-22T09:49:59Z</time></trkpt><trkpt lat="44.02607433240958" lon="8.16252134580625"><ele>552.5</ele><time>2026-03-22T09:50:00Z</time></trkpt><trkpt lat="44.02617105403618" lon="8.162421769686466"><ele>559.0</ele><time>2026-03-22T09:50:01Z</time></trkpt><trkpt lat="44.02625622040847" lon="8.162290701198048"><ele>565.5</ele><time>2026-03-22T09:50:02Z</time></trkpt><trkpt lat="44.02638099729242" lon="8.162158793170587"><ele>572.0</ele><time>2026-03-22T09:50:03Z</time></trkpt><trkpt lat="44.026480405379324" lon="8.162104998386297"><ele>573.0</ele><time>2026-03-22T09:50:04Z</time></trkpt><trkpt lat="44.02655991868525" lon="8.162113520246846"><ele>574.0</ele><time>2026-03-22T09:50:05Z</time></trkpt><trkpt lat="44.02666080900317" lon="8.1620880278597"><ele>575.0</ele><time>2026-03-22T09:50:06Z</time></trkpt><trkpt lat="44.02676127527748" lon="8.162072358287736"><ele>576.0</ele><time>2026-03-22T09:50:07Z</time></trkpt><trkpt lat="44.02684280628841" lon="8.162188783512175"><ele>577.0</ele><time>2026-03-22T09:50:08Z</time></trkpt><trkpt lat="44.02691727870525" lon="8.162220840273454"><ele>577.0</ele><time>2026-03-22T09:50:09Z</time></trkpt><trkpt lat="44.027058507278554" lon="8.162296009290658"><ele>577.0</ele><time>2026-03-22T09:50:10Z</time></trkpt><trkpt lat="44.02716107103169" lon="8.162403920545954"><ele>577.0</ele><time>2026-03-22T09:50:11Z</time></trkpt><trkpt lat="44.02730518470549" lon="8.162578543641605"><ele>577.1666666666667</ele><time>2026-03-22T09:50:12Z</time></trkpt><trkpt lat="44.02740989981698" lon="8.162621090924667"><ele>577.3333333333334</ele><time>2026-03-22T09:50:13Z</time></trkpt><trkpt lat="44.027516062130985" lon="8.162577130267815"><ele>577.5</ele><time>2026-03-22T09:50:14Z</time></trkpt><trkpt lat="44.027592079332834" lon="8.162604002934534"><ele>577.6666666666666</ele><time>2026-03-22T09:50:15Z</time></trkpt><trkpt lat="44.02766157845368" lon="8.16262114169264"><ele>577.8333333333333</ele><time>2026-03-22T09:50:16Z</time></trkpt><trkpt lat="44.027707981818935" lon="8.162680449864395"><ele>578.0</ele><time>2026-03-22T09:50:17Z</time></trkpt><trkpt lat="44.02779909679343" lon="8.162697260795278"><ele>580.75</ele><time>2026-03-22T09:50:18Z</time></trkpt><trkpt lat="44.027931788057806" lon="8.162694236677291"><ele>583.5</ele><time>2026-03-22T09:50:19Z</time></trkpt><trkpt lat="44.02808371954649" lon="8.162787597530018"><ele>586.25</ele><time>2026-03-22T09:50:20Z</time></trkpt><trkpt lat="44.0281530426648" lon="8.162856731527729"><ele>589.0</ele><time>2026-03-22T09:50:21Z</time></trkpt><trkpt lat="44.02824383463821" lon="8.163027400224484"><ele>589.0</ele><time>2026-03-22T09:50:23Z</time></trkpt><trkpt lat="44.02832248054889" lon="8.16314494040016"><ele>589.0</ele><time>2026-03-22T09:50:24Z</time></trkpt><trkpt lat="44.02841299093223" lon="8.163200676455872"><ele>589.0</ele><time>2026-03-22T09:50:25Z</time></trkpt><trkpt lat="44.02847985215834" lon="8.1632296868749"><ele>589.0</ele><time>2026-03-22T09:50:26Z</time></trkpt><trkpt lat="44.02854282738789" lon="8.163290965229148"><ele>589.0</ele><time>2026-03-22T09:50:27Z</time></trkpt><trkpt lat="44.02861094895988" lon="8.163305895820503"><ele>589.0</ele><time>2026-03-22T09:50:28Z</time></trkpt><trkpt lat="44.028768539473255" lon="8.163178353050215"><ele>589.0</ele><time>2026-03-22T09:50:29Z</time></trkpt><trkpt lat="44.02891698776128" lon="8.163314598888427"><ele>589.0</ele><time>2026-03-22T09:50:32Z</time></trkpt><trkpt lat="44.02898522007754" lon="8.163378193275074"><ele>589.0</ele><time>2026-03-22T09:50:33Z</time></trkpt><trkpt lat="44.02899745690234" lon="8.16347213108006"><ele>589.0</ele><time>2026-03-22T09:50:34Z</time></trkpt><trkpt lat="44.02902447033932" lon="8.163380256270681"><ele>589.0</ele><time>2026-03-22T09:50:36Z</time></trkpt><trkpt lat="44.02909724980285" lon="8.163327322534325"><ele>587.4</ele><time>2026-03-22T09:50:38Z</time></trkpt><trkpt lat="44.029193546422086" lon="8.163378513163604"><ele>585.8</ele><time>2026-03-22T09:50:39.999Z</time></trkpt><trkpt lat="44.02927506121173" lon="8.163405721151861"><ele>584.2</ele><time>2026-03-22T09:50:40.999Z</time></trkpt><trkpt lat="44.02938769338724" lon="8.163331577096596"><ele>582.6</ele><time>2026-03-22T09:50:42.999Z</time></trkpt><trkpt lat="44.02948227968769" lon="8.163293940727419"><ele>581.0</ele><time>2026-03-22T09:50:43.999Z</time></trkpt><trkpt lat="44.029534758245156" lon="8.163232894427972"><ele>581.0</ele><time>2026-03-22T09:50:44.999Z</time></trkpt><trkpt lat="44.029611030551074" lon="8.163201009271635"><ele>581.0</ele><time>2026-03-22T09:50:45.999Z</time></trkpt><trkpt lat="44.029719657270476" lon="8.163172500057017"><ele>581.0</ele><time>2026-03-22T09:50:46.999Z</time></trkpt><trkpt lat="44.02985173108309" lon="8.16311991222879"><ele>581.0</ele><time>2026-03-22T09:50:47.999Z</time></trkpt><trkpt lat="44.02994964357423" lon="8.163099684710087"><ele>581.0</ele><time>2026-03-22T09:50:48.999Z</time></trkpt><trkpt lat="44.03002242168051" lon="8.163098939027613"><ele>577.3333333333333</ele><time>2026-03-22T09:50:49.999Z</time></trkpt><trkpt lat="44.03009559644322" lon="8.163058579293194"><ele>573.6666666666666</ele><time>2026-03-22T09:50:50.999Z</time></trkpt><trkpt lat="44.03017599344076" lon="8.163013419754444"><ele>570.0</ele><time>2026-03-22T09:50:51.999Z</time></trkpt><trkpt lat="44.03024293587508" lon="8.163005189931518"><ele>566.3333333333334</ele><time>2026-03-22T09:50:52.999Z</time></trkpt><trkpt lat="44.03032223465695" lon="8.16300856732092"><ele>562.6666666666667</ele><time>2026-03-22T09:50:53.999Z</time></trkpt><trkpt lat="44.03039623551684" lon="8.163026827769203"><ele>559.0</ele><time>2026-03-22T09:50:54.999Z</time></trkpt><trkpt lat="44.03046251146483" lon="8.163011063877217"><ele>559.0</ele><time>2026-03-22T09:50:55.999Z</time></trkpt><trkpt lat="44.03057460409859" lon="8.162984603767242"><ele>559.0</ele><time>2026-03-22T09:50:57.999Z</time></trkpt><trkpt lat="44.030692472087196" lon="8.162997347975361"><ele>559.0</ele><time>2026-03-22T09:50:59.999Z</time></trkpt><trkpt lat="44.030753892082615" lon="8.163020053910447"><ele>559.0</ele><time>2026-03-22T09:51:00.999Z</time></trkpt><trkpt lat="44.030860822947865" lon="8.163052577821942"><ele>559.0</ele><time>2026-03-22T09:51:02.999Z</time></trkpt><trkpt lat="44.030922873005515" lon="8.163133669634444"><ele>556.1666666666667</ele><time>2026-03-22T09:51:04.999Z</time></trkpt><trkpt lat="44.030982524326795" lon="8.163042263646917"><ele>553.3333333333334</ele><time>2026-03-22T09:51:08.999Z</time></trkpt><trkpt lat="44.03107501063695" lon="8.162956039784566"><ele>550.5</ele><time>2026-03-22T09:51:10.999Z</time></trkpt><trkpt lat="44.031142246146025" lon="8.16293828224756"><ele>547.6666666666666</ele><time>2026-03-22T09:51:11.999Z</time></trkpt><trkpt lat="44.0312085676226" lon="8.16300376658495"><ele>544.8333333333333</ele><time>2026-03-22T09:51:13.999Z</time></trkpt><trkpt lat="44.03125530493224" lon="8.162893545366817"><ele>542.0</ele><time>2026-03-22T09:51:17.999Z</time></trkpt><trkpt lat="44.031220571764564" lon="8.162782515417597"><ele>542.0</ele><time>2026-03-22T09:51:19.999Z</time></trkpt><trkpt lat="44.03118575218403" lon="8.162690522427992"><ele>542.0</ele><time>2026-03-22T09:51:20.999Z</time></trkpt><trkpt lat="44.03111233008496" lon="8.162581855598287"><ele>542.0</ele><time>2026-03-22T09:51:22.999Z</time></trkpt><trkpt lat="44.03106820243767" lon="8.16250123047287"><ele>542.0</ele><time>2026-03-22T09:51:23.999Z</time></trkpt><trkpt lat="44.03102520481854" lon="8.162410196640574"><ele>542.0</ele><time>2026-03-22T09:51:24.999Z</time></trkpt><trkpt lat="44.03096047073537" lon="8.162288518991927"><ele>542.0</ele><time>2026-03-22T09:51:25.999Z</time></trkpt><trkpt lat="44.03090997812072" lon="8.162201049493886"><ele>541.8333333333333</ele><time>2026-03-22T09:51:26.999Z</time></trkpt><trkpt lat="44.03084363098789" lon="8.16213749852246"><ele>541.6666666666666</ele><time>2026-03-22T09:51:29.999Z</time></trkpt><trkpt lat="44.030788137449065" lon="8.162073641446042"><ele>541.5</ele><time>2026-03-22T09:51:30.999Z</time></trkpt><trkpt lat="44.03073588140029" lon="8.162018329799361"><ele>541.3333333333334</ele><time>2026-03-22T09:51:31.999Z</time></trkpt><trkpt lat="44.03066276703906" lon="8.161914227275384"><ele>541.1666666666667</ele><time>2026-03-22T09:51:34Z</time></trkpt><trkpt lat="44.03059831685159" lon="8.161835452663151"><ele>541.0</ele><time>2026-03-22T09:51:35Z</time></trkpt><trkpt lat="44.03055101045774" lon="8.161742194092144"><ele>541.0</ele><time>2026-03-22T09:51:36Z</time></trkpt><trkpt lat="44.03048966132499" lon="8.161641279775242"><ele>541.0</ele><time>2026-03-22T09:51:37Z</time></trkpt><trkpt lat="44.03044313287348" lon="8.161548431157865"><ele>541.0</ele><time>2026-03-22T09:51:38Z</time></trkpt><trkpt lat="44.03041380184516" lon="8.16146911524901"><ele>541.0</ele><time>2026-03-22T09:51:39Z</time></trkpt><trkpt lat="44.03035132213876" lon="8.161407291140065"><ele>541.0</ele><time>2026-03-22T09:51:40Z</time></trkpt><trkpt lat="44.03022131699694" lon="8.161344901142426"><ele>537.6</ele><time>2026-03-22T09:51:42Z</time></trkpt><trkpt lat="44.03014817637333" lon="8.161261107613242"><ele>534.2</ele><time>2026-03-22T09:51:43Z</time></trkpt><trkpt lat="44.03007098064403" lon="8.16118148870775"><ele>530.8</ele><time>2026-03-22T09:51:44Z</time></trkpt><trkpt lat="44.029986260076235" lon="8.16113469850834"><ele>527.4</ele><time>2026-03-22T09:51:46Z</time></trkpt><trkpt lat="44.02985099664123" lon="8.16110503700509"><ele>524.0</ele><time>2026-03-22T09:51:48Z</time></trkpt><trkpt lat="44.02977749153418" lon="8.161094470345878"><ele>524.0</ele><time>2026-03-22T09:51:49Z</time></trkpt><trkpt lat="44.029715748656315" lon="8.160990622273351"><ele>524.0</ele><time>2026-03-22T09:51:51Z</time></trkpt><trkpt lat="44.02962196138096" lon="8.160938955207442"><ele>524.0</ele><time>2026-03-22T09:51:53Z</time></trkpt><trkpt lat="44.029530739582455" lon="8.160904040405415"><ele>524.0</ele><time>2026-03-22T09:51:54Z</time></trkpt><trkpt lat="44.02945390032635" lon="8.160912778135271"><ele>524.0</ele><time>2026-03-22T09:51:56Z</time></trkpt><trkpt lat="44.029372790931234" lon="8.160966148996337"><ele>524.0</ele><time>2026-03-22T09:51:57Z</time></trkpt><trkpt lat="44.029300095261235" lon="8.161002929488081"><ele>524.0</ele><time>2026-03-22T09:51:58Z</time></trkpt><trkpt lat="44.02923713097693" lon="8.160918920695895"><ele>524.0</ele><time>2026-03-22T09:52:00Z</time></trkpt><trkpt lat="44.029174470917596" lon="8.1608744951825"><ele>524.0</ele><time>2026-03-22T09:52:01Z</time></trkpt><trkpt lat="44.02906167673038" lon="8.16077130364961"><ele>524.0</ele><time>2026-03-22T09:52:03Z</time></trkpt><trkpt lat="44.029005494153374" lon="8.16072745143816"><ele>524.0</ele><time>2026-03-22T09:52:04Z</time></trkpt><trkpt lat="44.02891526529559" lon="8.16065419846232"><ele>524.6</ele><time>2026-03-22T09:52:05Z</time></trkpt><trkpt lat="44.02882354818574" lon="8.160568597079784"><ele>525.2</ele><time>2026-03-22T09:52:06Z</time></trkpt><trkpt lat="44.02876844534092" lon="8.16052283848377"><ele>525.8000000000001</ele><time>2026-03-22T09:52:07Z</time></trkpt><trkpt lat="44.02869333566842" lon="8.1604979354732"><ele>526.4</ele><time>2026-03-22T09:52:09Z</time></trkpt><trkpt lat="44.02857302443765" lon="8.160504498161114"><ele>527.0</ele><time>2026-03-22T09:52:11Z</time></trkpt><trkpt lat="44.02848990932584" lon="8.160394777904227"><ele>527.0</ele><time>2026-03-22T09:52:13Z</time></trkpt><trkpt lat="44.028427330412946" lon="8.160349552531267"><ele>527.0</ele><time>2026-03-22T09:52:14Z</time></trkpt><trkpt lat="44.028359109352024" lon="8.160248006305615"><ele>527.0</ele><time>2026-03-22T09:52:16Z</time></trkpt><trkpt lat="44.02832210699799" lon="8.160118775177118"><ele>527.0</ele><time>2026-03-22T09:52:19Z</time></trkpt><trkpt lat="44.028246692238405" lon="8.160002337219229"><ele>527.0</ele><time>2026-03-22T09:52:21Z</time></trkpt><trkpt lat="44.02820576170053" lon="8.159910146121188"><ele>526.4</ele><time>2026-03-22T09:52:22Z</time></trkpt><trkpt lat="44.0281444508461" lon="8.159769940847752"><ele>525.8000000000001</ele><time>2026-03-22T09:52:23Z</time></trkpt><trkpt lat="44.028095185259986" lon="8.159692476424556"><ele>525.2</ele><time>2026-03-22T09:52:24Z</time></trkpt><trkpt lat="44.02804867948867" lon="8.159619545635932"><ele>524.6</ele><time>2026-03-22T09:52:25Z</time></trkpt><trkpt lat="44.0280083680038" lon="8.159517095698524"><ele>524.0</ele><time>2026-03-22T09:52:26Z</time></trkpt><trkpt lat="44.027890334949625" lon="8.159434345754127"><ele>524.0</ele><time>2026-03-22T09:52:28Z</time></trkpt><trkpt lat="44.02782663287378" lon="8.159391728247556"><ele>524.0</ele><time>2026-03-22T09:52:29Z</time></trkpt><trkpt lat="44.027707313124345" lon="8.15936058204841"><ele>524.0</ele><time>2026-03-22T09:52:31Z</time></trkpt><trkpt lat="44.027623424678715" lon="8.159279205639079"><ele>524.0</ele><time>2026-03-22T09:52:32Z</time></trkpt><trkpt lat="44.02755842593898" lon="8.159190855273101"><ele>524.0</ele><time>2026-03-22T09:52:33Z</time></trkpt><trkpt lat="44.02749342878728" lon="8.15909114645278"><ele>522.0</ele><time>2026-03-22T09:52:35Z</time></trkpt><trkpt lat="44.027414384878426" lon="8.158992534248494"><ele>520.0</ele><time>2026-03-22T09:52:37Z</time></trkpt><trkpt lat="44.02736429341215" lon="8.158892095723337"><ele>518.0</ele><time>2026-03-22T09:52:38Z</time></trkpt><trkpt lat="44.027397440810596" lon="8.158810069755912"><ele>516.0</ele><time>2026-03-22T09:52:40Z</time></trkpt><trkpt lat="44.027488666701515" lon="8.158728039029272"><ele>514.0</ele><time>2026-03-22T09:52:42Z</time></trkpt><trkpt lat="44.02759357271912" lon="8.158750027946523"><ele>514.0</ele><time>2026-03-22T09:52:44Z</time></trkpt><trkpt lat="44.027661158612396" lon="8.158714525934677"><ele>514.0</ele><time>2026-03-22T09:52:45Z</time></trkpt><trkpt lat="44.02770311842416" lon="8.158587020352996"><ele>514.0</ele><time>2026-03-22T09:52:46.999Z</time></trkpt><trkpt lat="44.027795034711794" lon="8.158542451222726"><ele>514.0</ele><time>2026-03-22T09:52:48.999Z</time></trkpt><trkpt lat="44.02786195593113" lon="8.1585157786972"><ele>514.0</ele><time>2026-03-22T09:52:49.999Z</time></trkpt><trkpt lat="44.02799218960471" lon="8.158390804036223"><ele>514.0</ele><time>2026-03-22T09:52:51.999Z</time></trkpt><trkpt lat="44.02801477804148" lon="8.15829721103902"><ele>514.0</ele><time>2026-03-22T09:52:54.999Z</time></trkpt><trkpt lat="44.02794554686691" lon="8.158214353135904"><ele>514.0</ele><time>2026-03-22T09:52:56.999Z</time></trkpt><trkpt lat="44.02796487893203" lon="8.158097286232637"><ele>514.0</ele><time>2026-03-22T09:52:59.999Z</time></trkpt><trkpt lat="44.02794798189022" lon="8.15799457205761"><ele>514.0</ele><time>2026-03-22T09:53:02.999Z</time></trkpt><trkpt lat="44.02797358459515" lon="8.157906258278974"><ele>514.0</ele><time>2026-03-22T09:53:06.999Z</time></trkpt><trkpt lat="44.02791798768845" lon="8.157809861640965"><ele>513.5</ele><time>2026-03-22T09:53:08.999Z</time></trkpt><trkpt lat="44.02792507063834" lon="8.15767352677773"><ele>513.0</ele><time>2026-03-22T09:53:10.999Z</time></trkpt><trkpt lat="44.02797651368152" lon="8.157597067097718"><ele>512.5</ele><time>2026-03-22T09:53:12.999Z</time></trkpt><trkpt lat="44.027939122682874" lon="8.15750298768993"><ele>512.0</ele><time>2026-03-22T09:53:17.999Z</time></trkpt><trkpt lat="44.02790317220632" lon="8.15740360551892"><ele>511.50000000000006</ele><time>2026-03-22T09:53:18.999Z</time></trkpt><trkpt lat="44.0279380728418" lon="8.157255302338134"><ele>511.0</ele><time>2026-03-22T09:53:20.999Z</time></trkpt><trkpt lat="44.027932941538346" lon="8.15710642039816"><ele>510.1666666666667</ele><time>2026-03-22T09:53:22.999Z</time></trkpt><trkpt lat="44.02786429212449" lon="8.157001139118512"><ele>509.33333333333337</ele><time>2026-03-22T09:53:26.999Z</time></trkpt><trkpt lat="44.027795998311156" lon="8.156972377367719"><ele>508.5</ele><time>2026-03-22T09:53:28.999Z</time></trkpt><trkpt lat="44.027837833599456" lon="8.156893344411152"><ele>507.66666666666663</ele><time>2026-03-22T09:53:37.999Z</time></trkpt><trkpt lat="44.02791980946141" lon="8.15687041675116"><ele>506.8333333333333</ele><time>2026-03-22T09:53:40Z</time></trkpt><trkpt lat="44.02790396137546" lon="8.156740061827442"><ele>506.0</ele><time>2026-03-22T09:53:44Z</time></trkpt><trkpt lat="44.02789475763783" lon="8.156650074068045"><ele>505.99999999999994</ele><time>2026-03-22T09:53:46Z</time></trkpt><trkpt lat="44.02796548304936" lon="8.156558198275821"><ele>506.0</ele><time>2026-03-22T09:53:49Z</time></trkpt><trkpt lat="44.028026294935984" lon="8.156457826570046"><ele>506.0</ele><time>2026-03-22T09:53:51Z</time></trkpt><trkpt lat="44.02811127011245" lon="8.15642599447194"><ele>506.0</ele><time>2026-03-22T09:53:55Z</time></trkpt><trkpt lat="44.02817090430328" lon="8.156540146846174"><ele>505.99999999999994</ele><time>2026-03-22T09:54:00Z</time></trkpt><trkpt lat="44.028200851956036" lon="8.156619254576883"><ele>506.0</ele><time>2026-03-22T09:54:02Z</time></trkpt><trkpt lat="44.02825618719153" lon="8.156708206417399"><ele>498.8333333333333</ele><time>2026-03-22T09:54:04Z</time></trkpt><trkpt lat="44.0283119293402" lon="8.156659571276013"><ele>491.66666666666663</ele><time>2026-03-22T09:54:06Z</time></trkpt><trkpt lat="44.02840935213837" lon="8.15660676119029"><ele>484.5</ele><time>2026-03-22T09:54:08Z</time></trkpt><trkpt lat="44.028427780274875" lon="8.156506301272104"><ele>477.33333333333337</ele><time>2026-03-22T09:54:11Z</time></trkpt><trkpt lat="44.028427770163965" lon="8.156391434913639"><ele>470.1666666666667</ele><time>2026-03-22T09:54:13Z</time></trkpt><trkpt lat="44.028381832358676" lon="8.156266930921914"><ele>463.0</ele><time>2026-03-22T09:54:15Z</time></trkpt><trkpt lat="44.02839791600111" lon="8.15616855599589"><ele>463.79999999999995</ele><time>2026-03-22T09:54:17Z</time></trkpt><trkpt lat="44.02841515784955" lon="8.156053731300602"><ele>464.59999999999997</ele><time>2026-03-22T09:55:58Z</time></trkpt><trkpt lat="44.028412955380766" lon="8.15594729106403"><ele>465.40000000000003</ele><time>2026-03-22T09:55:59Z</time></trkpt><trkpt lat="44.02838081366996" lon="8.155814063199879"><ele>466.20000000000005</ele><time>2026-03-22T09:56:00Z</time></trkpt><trkpt lat="44.028310103724436" lon="8.155678693469467"><ele>467.0</ele><time>2026-03-22T09:56:01Z</time></trkpt><trkpt lat="44.02823063051457" lon="8.15555099448218"><ele>466.99999999999994</ele><time>2026-03-22T09:56:02Z</time></trkpt><trkpt lat="44.02816331295328" lon="8.155462314451025"><ele>467.0</ele><time>2026-03-22T09:56:03Z</time></trkpt><trkpt lat="44.02817095288817" lon="8.155327457325866"><ele>467.0</ele><time>2026-03-22T09:56:05Z</time></trkpt><trkpt lat="44.02818216577589" lon="8.155217289097203"><ele>467.0</ele><time>2026-03-22T09:56:06Z</time></trkpt><trkpt lat="44.0281517645965" lon="8.155109249847802"><ele>466.99999999999994</ele><time>2026-03-22T09:56:07Z</time></trkpt><trkpt lat="44.02812334801024" lon="8.155010419617131"><ele>467.0</ele><time>2026-03-22T09:56:08Z</time></trkpt><trkpt lat="44.02806679416988" lon="8.154935247799658"><ele>461.0</ele><time>2026-03-22T09:56:09Z</time></trkpt><trkpt lat="44.02798453683018" lon="8.154838615797026"><ele>455.00000000000006</ele><time>2026-03-22T09:56:10Z</time></trkpt><trkpt lat="44.02789962314758" lon="8.154782598227742"><ele>449.00000000000006</ele><time>2026-03-22T09:56:10.999Z</time></trkpt><trkpt lat="44.027806104830795" lon="8.15475973416632"><ele>443.0</ele><time>2026-03-22T09:56:11.999Z</time></trkpt><trkpt lat="44.027694213186265" lon="8.1547465521603"><ele>437.0</ele><time>2026-03-22T09:56:12.999Z</time></trkpt><trkpt lat="44.02761730474327" lon="8.154741240933733"><ele>444.5</ele><time>2026-03-22T09:56:13.999Z</time></trkpt><trkpt lat="44.02748683771958" lon="8.15488482242203"><ele>452.0</ele><time>2026-03-22T09:56:15.999Z</time></trkpt><trkpt lat="44.02739559201398" lon="8.154981532454887"><ele>459.5</ele><time>2026-03-22T09:56:16.999Z</time></trkpt><trkpt lat="44.027309550951635" lon="8.155012457887183"><ele>467.0</ele><time>2026-03-22T09:56:17.999Z</time></trkpt><trkpt lat="44.02720374459428" lon="8.155002578581945"><ele>468.0</ele><time>2026-03-22T09:56:18.999Z</time></trkpt><trkpt lat="44.02712322066026" lon="8.155003725230886"><ele>469.00000000000006</ele><time>2026-03-22T09:56:19.999Z</time></trkpt><trkpt lat="44.0270607406395" lon="8.155062046311219"><ele>470.00000000000006</ele><time>2026-03-22T09:56:20.999Z</time></trkpt><trkpt lat="44.02695416886378" lon="8.15516043086483"><ele>471.0</ele><time>2026-03-22T09:56:21.999Z</time></trkpt><trkpt lat="44.02683854438538" lon="8.15521039795796"><ele>472.0</ele><time>2026-03-22T09:56:22.999Z</time></trkpt><trkpt lat="44.02672729432355" lon="8.155219248062012"><ele>472.0</ele><time>2026-03-22T09:56:23.999Z</time></trkpt><trkpt lat="44.0266573026103" lon="8.155191865966417"><ele>472.00000000000006</ele><time>2026-03-22T09:56:24.999Z</time></trkpt><trkpt lat="44.02657860538692" lon="8.15512947744356"><ele>472.00000000000006</ele><time>2026-03-22T09:56:25.999Z</time></trkpt><trkpt lat="44.026466084717825" lon="8.155037375343692"><ele>472.0</ele><time>2026-03-22T09:56:26.999Z</time></trkpt><trkpt lat="44.02636920193317" lon="8.154952481020198"><ele>472.0</ele><time>2026-03-22T09:56:27.999Z</time></trkpt><trkpt lat="44.02625163879356" lon="8.154864478053298"><ele>471.40000000000003</ele><time>2026-03-22T09:56:28.999Z</time></trkpt><trkpt lat="44.026169859348286" lon="8.15480516960408"><ele>470.80000000000007</ele><time>2026-03-22T09:56:29.999Z</time></trkpt><trkpt lat="44.026109748560856" lon="8.15477063381132"><ele>470.2</ele><time>2026-03-22T09:56:30.999Z</time></trkpt><trkpt lat="44.02597249353042" lon="8.154767206081388"><ele>469.6</ele><time>2026-03-22T09:56:32.999Z</time></trkpt><trkpt lat="44.025889322781325" lon="8.154761640273856"><ele>469.0</ele><time>2026-03-22T09:56:33.999Z</time></trkpt><trkpt lat="44.025797873906285" lon="8.154718699362176"><ele>471.83333333333337</ele><time>2026-03-22T09:56:34.999Z</time></trkpt><trkpt lat="44.02571716124013" lon="8.154674231474706"><ele>474.6666666666667</ele><time>2026-03-22T09:56:35.999Z</time></trkpt><trkpt lat="44.02563847797251" lon="8.154647381934632"><ele>477.5</ele><time>2026-03-22T09:56:36.999Z</time></trkpt><trkpt lat="44.02556584607717" lon="8.154632742696581"><ele>480.33333333333337</ele><time>2026-03-22T09:56:37.999Z</time></trkpt><trkpt lat="44.02550710751755" lon="8.154593252992079"><ele>483.1666666666667</ele><time>2026-03-22T09:56:39.999Z</time></trkpt><trkpt lat="44.0254921392665" lon="8.154503874251736"><ele>486.0</ele><time>2026-03-22T09:56:42.999Z</time></trkpt><trkpt lat="44.025447339248366" lon="8.154409153035148"><ele>486.0</ele><time>2026-03-22T09:56:43.999Z</time></trkpt><trkpt lat="44.025399058521174" lon="8.154311275501813"><ele>486.0</ele><time>2026-03-22T09:56:45.999Z</time></trkpt><trkpt lat="44.025311990143614" lon="8.154386215492885"><ele>486.0</ele><time>2026-03-22T09:56:48.999Z</time></trkpt><trkpt lat="44.025229062691636" lon="8.15431984236718"><ele>486.0</ele><time>2026-03-22T09:56:50.999Z</time></trkpt><trkpt lat="44.025173452356825" lon="8.154252837792816"><ele>486.0</ele><time>2026-03-22T09:56:51.999Z</time></trkpt><trkpt lat="44.025083034615335" lon="8.154212824539867"><ele>486.0</ele><time>2026-03-22T09:56:52.999Z</time></trkpt><trkpt lat="44.02501577760905" lon="8.154171885882223"><ele>486.0</ele><time>2026-03-22T09:56:53.999Z</time></trkpt><trkpt lat="44.02496077870153" lon="8.15404421829842"><ele>486.0</ele><time>2026-03-22T09:56:55.999Z</time></trkpt><trkpt lat="44.02491516217743" lon="8.153975914435854"><ele>486.0</ele><time>2026-03-22T09:56:56.999Z</time></trkpt><trkpt lat="44.02486090740449" lon="8.153912296452292"><ele>486.0</ele><time>2026-03-22T09:56:57.999Z</time></trkpt><trkpt lat="44.02479428288138" lon="8.153838770730422"><ele>486.0</ele><time>2026-03-22T09:56:59.999Z</time></trkpt><trkpt lat="44.0248363368766" lon="8.15371419152701"><ele>488.0</ele><time>2026-03-22T09:57:01.999Z</time></trkpt><trkpt lat="44.024841160242545" lon="8.153567165439798"><ele>490.0</ele><time>2026-03-22T09:57:03.999Z</time></trkpt><trkpt lat="44.02486801885936" lon="8.15342307060766"><ele>492.0</ele><time>2026-03-22T09:57:04.999Z</time></trkpt><trkpt lat="44.024918315996864" lon="8.153258294910582"><ele>494.0</ele><time>2026-03-22T09:57:05.999Z</time></trkpt><trkpt lat="44.02493486955821" lon="8.153143360216308"><ele>496.0</ele><time>2026-03-22T09:57:06.999Z</time></trkpt><trkpt lat="44.02493696231445" lon="8.153004409214807"><ele>496.8</ele><time>2026-03-22T09:57:07.999Z</time></trkpt><trkpt lat="44.024874760838216" lon="8.152876597051014"><ele>497.6</ele><time>2026-03-22T09:57:09.999Z</time></trkpt><trkpt lat="44.02480593070602" lon="8.152803242787224"><ele>498.4</ele><time>2026-03-22T09:57:11.999Z</time></trkpt><trkpt lat="44.024742173356174" lon="8.152792819313394"><ele>499.2</ele><time>2026-03-22T09:57:12.999Z</time></trkpt><trkpt lat="44.024645078179404" lon="8.15270169419441"><ele>500.0</ele><time>2026-03-22T09:57:14.999Z</time></trkpt><trkpt lat="44.0246112962687" lon="8.152553112949123"><ele>499.99999999999994</ele><time>2026-03-22T09:57:16.999Z</time></trkpt><trkpt lat="44.02451291220107" lon="8.152444654198527"><ele>500.0</ele><time>2026-03-22T09:57:18.999Z</time></trkpt><trkpt lat="44.02444566926113" lon="8.15239217295715"><ele>500.0</ele><time>2026-03-22T09:57:19.999Z</time></trkpt><trkpt lat="44.02443239035836" lon="8.152295768595526"><ele>500.0</ele><time>2026-03-22T09:57:21.999Z</time></trkpt><trkpt lat="44.024408279076674" lon="8.152187669928383"><ele>499.99999999999994</ele><time>2026-03-22T09:57:23.999Z</time></trkpt><trkpt lat="44.02436451827053" lon="8.152093403771035"><ele>500.0</ele><time>2026-03-22T09:57:24.999Z</time></trkpt><trkpt lat="44.02431378872043" lon="8.152036301990526"><ele>500.16666666666663</ele><time>2026-03-22T09:57:25.999Z</time></trkpt><trkpt lat="44.02427677920025" lon="8.151944060635739"><ele>500.3333333333333</ele><time>2026-03-22T09:57:26.999Z</time></trkpt><trkpt lat="44.02422593492657" lon="8.151840279370637"><ele>500.5</ele><time>2026-03-22T09:57:27.999Z</time></trkpt><trkpt lat="44.02415556740506" lon="8.151775816487211"><ele>500.66666666666663</ele><time>2026-03-22T09:57:30.999Z</time></trkpt><trkpt lat="44.02410644860524" lon="8.151703311249564"><ele>500.8333333333333</ele><time>2026-03-22T09:57:31.999Z</time></trkpt><trkpt lat="44.02410195262653" lon="8.15156063360531"><ele>501.0</ele><time>2026-03-22T09:57:33.999Z</time></trkpt><trkpt lat="44.02407168048732" lon="8.151461868583345"><ele>499.8333333333333</ele><time>2026-03-22T09:57:34.999Z</time></trkpt><trkpt lat="44.02403537167343" lon="8.151382025995195"><ele>498.66666666666663</ele><time>2026-03-22T09:57:35.999Z</time></trkpt><trkpt lat="44.023930916827716" lon="8.151394661881572"><ele>497.5</ele><time>2026-03-22T09:57:38.999Z</time></trkpt><trkpt lat="44.02385463134346" lon="8.151409602071851"><ele>496.3333333333333</ele><time>2026-03-22T09:57:40.999Z</time></trkpt><trkpt lat="44.02376733704229" lon="8.151423773003959"><ele>495.16666666666663</ele><time>2026-03-22T09:57:42.999Z</time></trkpt><trkpt lat="44.02368648791557" lon="8.151339216312989"><ele>494.0</ele><time>2026-03-22T09:57:44.999Z</time></trkpt><trkpt lat="44.02360685432557" lon="8.151279596803601"><ele>494.0</ele><time>2026-03-22T09:57:46.999Z</time></trkpt><trkpt lat="44.023543388413984" lon="8.151224379214248"><ele>494.0</ele><time>2026-03-22T09:57:47.999Z</time></trkpt><trkpt lat="44.023461451130146" lon="8.15117960909745"><ele>494.0</ele><time>2026-03-22T09:57:48.999Z</time></trkpt><trkpt lat="44.02331827589592" lon="8.151185621868317"><ele>494.0</ele><time>2026-03-22T09:57:50.999Z</time></trkpt><trkpt lat="44.02323799238104" lon="8.151182781562031"><ele>494.0</ele><time>2026-03-22T09:57:51.999Z</time></trkpt><trkpt lat="44.0231744612967" lon="8.151161723794491"><ele>495.0</ele><time>2026-03-22T09:57:52.999Z</time></trkpt><trkpt lat="44.02307954960318" lon="8.151100075244134"><ele>496.0</ele><time>2026-03-22T09:57:53.999Z</time></trkpt><trkpt lat="44.02300224436997" lon="8.151033661522279"><ele>497.0</ele><time>2026-03-22T09:57:55Z</time></trkpt><trkpt lat="44.02294708176553" lon="8.150814404226693"><ele>498.0</ele><time>2026-03-22T09:57:57Z</time></trkpt><trkpt lat="44.02291843309133" lon="8.150684235402883"><ele>498.4</ele><time>2026-03-22T09:57:58Z</time></trkpt><trkpt lat="44.022910220498886" lon="8.150553455545465"><ele>498.79999999999995</ele><time>2026-03-22T09:57:59Z</time></trkpt><trkpt lat="44.0229035933656" lon="8.150387761068549"><ele>499.2</ele><time>2026-03-22T09:58:00Z</time></trkpt><trkpt lat="44.02290162985642" lon="8.150297579627473"><ele>499.6</ele><time>2026-03-22T09:58:01Z</time></trkpt><trkpt lat="44.02284698683104" lon="8.150237418305325"><ele>500.0</ele><time>2026-03-22T09:58:03Z</time></trkpt><trkpt lat="44.022726155649906" lon="8.1501500544217"><ele>499.99999999999994</ele><time>2026-03-22T09:58:05Z</time></trkpt><trkpt lat="44.02265749954492" lon="8.150020422529332"><ele>500.0</ele><time>2026-03-22T09:58:07Z</time></trkpt><trkpt lat="44.02258924196531" lon="8.149996987148421"><ele>500.0</ele><time>2026-03-22T09:58:08Z</time></trkpt><trkpt lat="44.02249183045819" lon="8.149948970126166"><ele>500.0</ele><time>2026-03-22T09:58:09Z</time></trkpt><trkpt lat="44.02244227708479" lon="8.149878616329437"><ele>499.99999999999994</ele><time>2026-03-22T09:58:10Z</time></trkpt><trkpt lat="44.02242296651055" lon="8.149795238722376"><ele>500.0</ele><time>2026-03-22T09:58:11Z</time></trkpt><trkpt lat="44.022398580842804" lon="8.149692153650738"><ele>504.8</ele><time>2026-03-22T09:58:13Z</time></trkpt><trkpt lat="44.0223630963611" lon="8.149603333166205"><ele>509.6</ele><time>2026-03-22T09:58:14Z</time></trkpt><trkpt lat="44.02232507031904" lon="8.149477372717541"><ele>514.4</ele><time>2026-03-22T09:58:15Z</time></trkpt><trkpt lat="44.02233211969954" lon="8.149353595199656"><ele>519.2</ele><time>2026-03-22T09:58:17Z</time></trkpt><trkpt lat="44.02229293987511" lon="8.149181545517571"><ele>524.0</ele><time>2026-03-22T09:58:19Z</time></trkpt><trkpt lat="44.02226833776249" lon="8.149055114752947"><ele>522.5714285714286</ele><time>2026-03-22T09:58:21Z</time></trkpt><trkpt lat="44.022239819410004" lon="8.148966221488653"><ele>521.1428571428572</ele><time>2026-03-22T09:58:22Z</time></trkpt><trkpt lat="44.02222720669088" lon="8.148868560093067"><ele>519.7142857142858</ele><time>2026-03-22T09:58:23Z</time></trkpt><trkpt lat="44.02221355730964" lon="8.148775175883014"><ele>518.2857142857143</ele><time>2026-03-22T09:58:24Z</time></trkpt><trkpt lat="44.02222142150353" lon="8.148675393297806"><ele>516.8571428571429</ele><time>2026-03-22T09:58:25Z</time></trkpt><trkpt lat="44.022221198124704" lon="8.148558330465205"><ele>515.4285714285714</ele><time>2026-03-22T09:58:27Z</time></trkpt><trkpt lat="44.022198418791156" lon="8.148451013076023"><ele>514.0</ele><time>2026-03-22T09:58:29Z</time></trkpt><trkpt lat="44.02215659177653" lon="8.148338408946692"><ele>514.0</ele><time>2026-03-22T09:58:31Z</time></trkpt><trkpt lat="44.02211156428741" lon="8.148258216212296"><ele>514.0</ele><time>2026-03-22T09:58:32Z</time></trkpt><trkpt lat="44.0220949574489" lon="8.148054201356153"><ele>514.0</ele><time>2026-03-22T09:58:34Z</time></trkpt><trkpt lat="44.022055447091404" lon="8.147965338616066"><ele>514.0</ele><time>2026-03-22T09:58:35Z</time></trkpt><trkpt lat="44.02202776328906" lon="8.147811472735754"><ele>514.0</ele><time>2026-03-22T09:58:37Z</time></trkpt><trkpt lat="44.022013887911775" lon="8.1477022803078"><ele>514.0</ele><time>2026-03-22T09:58:38Z</time></trkpt><trkpt lat="44.022059346019276" lon="8.147543064862925"><ele>514.0</ele><time>2026-03-22T09:58:40Z</time></trkpt><trkpt lat="44.02208594748681" lon="8.147444178704793"><ele>514.0</ele><time>2026-03-22T09:58:41Z</time></trkpt><trkpt lat="44.02206076477732" lon="8.147274334444717"><ele>514.0</ele><time>2026-03-22T09:58:43Z</time></trkpt><trkpt lat="44.02207418458585" lon="8.147170807737572"><ele>514.0</ele><time>2026-03-22T09:58:44Z</time></trkpt><trkpt lat="44.02207138663322" lon="8.147060737693144"><ele>514.0</ele><time>2026-03-22T09:58:45Z</time></trkpt><trkpt lat="44.022072416100244" lon="8.146966700749434"><ele>514.0</ele><time>2026-03-22T09:58:46Z</time></trkpt><trkpt lat="44.02207866197034" lon="8.146798105877346"><ele>514.0</ele><time>2026-03-22T09:58:48Z</time></trkpt><trkpt lat="44.02208595016376" lon="8.146658206201817"><ele>514.0</ele><time>2026-03-22T09:58:49Z</time></trkpt><trkpt lat="44.022086469608624" lon="8.146512817593058"><ele>514.0</ele><time>2026-03-22T09:58:50Z</time></trkpt><trkpt lat="44.02209160150271" lon="8.146420017374332"><ele>514.3333333333334</ele><time>2026-03-22T09:58:51Z</time></trkpt><trkpt lat="44.02210614365434" lon="8.146327325219168"><ele>514.6666666666667</ele><time>2026-03-22T09:58:52Z</time></trkpt><trkpt lat="44.022135503700355" lon="8.146243362668963"><ele>515.0</ele><time>2026-03-22T09:58:53Z</time></trkpt><trkpt lat="44.02219153700241" lon="8.146101475239288"><ele>515.3333333333334</ele><time>2026-03-22T09:58:54Z</time></trkpt><trkpt lat="44.022260875500486" lon="8.146055220401474"><ele>515.6666666666666</ele><time>2026-03-22T09:58:55Z</time></trkpt><trkpt lat="44.02236941595877" lon="8.146073271820146"><ele>516.0</ele><time>2026-03-22T09:58:57Z</time></trkpt><trkpt lat="44.022482960764265" lon="8.145999431093475"><ele>509.8</ele><time>2026-03-22T09:58:59Z</time></trkpt><trkpt lat="44.02252655471485" lon="8.145931082613059"><ele>503.6</ele><time>2026-03-22T09:59:01Z</time></trkpt><trkpt lat="44.02258411971046" lon="8.145792272164293"><ele>497.4</ele><time>2026-03-22T09:59:03Z</time></trkpt><trkpt lat="44.02262866641174" lon="8.145709693210197"><ele>491.2</ele><time>2026-03-22T09:59:04Z</time></trkpt><trkpt lat="44.02270781735653" lon="8.145590863257523"><ele>485.0</ele><time>2026-03-22T09:59:06Z</time></trkpt><trkpt lat="44.02278171713286" lon="8.145628784345245"><ele>485.0</ele><time>2026-03-22T09:59:08.999Z</time></trkpt><trkpt lat="44.02288173958526" lon="8.145617519589445"><ele>485.0</ele><time>2026-03-22T09:59:10.999Z</time></trkpt><trkpt lat="44.02299950396073" lon="8.145642121327194"><ele>485.0</ele><time>2026-03-22T09:59:12.999Z</time></trkpt><trkpt lat="44.023062678244635" lon="8.14564364292364"><ele>485.0</ele><time>2026-03-22T09:59:13.999Z</time></trkpt><trkpt lat="44.02316332911927" lon="8.145624515436355"><ele>485.0</ele><time>2026-03-22T09:59:15.999Z</time></trkpt><trkpt lat="44.023187404166435" lon="8.145533225514379"><ele>485.0</ele><time>2026-03-22T09:59:18.999Z</time></trkpt><trkpt lat="44.02327147453957" lon="8.145452840856883"><ele>485.0</ele><time>2026-03-22T09:59:21.999Z</time></trkpt><trkpt lat="44.02335041699691" lon="8.145351722772036"><ele>485.0</ele><time>2026-03-22T09:59:23.999Z</time></trkpt><trkpt lat="44.023311650199155" lon="8.145208977509764"><ele>485.0</ele><time>2026-03-22T09:59:25.999Z</time></trkpt><trkpt lat="44.023281317446305" lon="8.145115661315527"><ele>485.0</ele><time>2026-03-22T09:59:26.999Z</time></trkpt><trkpt lat="44.02323628243871" lon="8.144981090925537"><ele>485.0</ele><time>2026-03-22T09:59:28.999Z</time></trkpt><trkpt lat="44.0231898959229" lon="8.144880128762066"><ele>485.0</ele><time>2026-03-22T09:59:31.999Z</time></trkpt><trkpt lat="44.02313790956881" lon="8.144739771960792"><ele>485.0</ele><time>2026-03-22T09:59:33.999Z</time></trkpt><trkpt lat="44.023093066568165" lon="8.144669408827847"><ele>485.0</ele><time>2026-03-22T09:59:34.999Z</time></trkpt><trkpt lat="44.0230222304831" lon="8.144522206028252"><ele>485.0</ele><time>2026-03-22T09:59:36.999Z</time></trkpt><trkpt lat="44.02297605700194" lon="8.14442306163996"><ele>482.3333333333333</ele><time>2026-03-22T09:59:38.999Z</time></trkpt><trkpt lat="44.02291560178806" lon="8.144299688592524"><ele>479.66666666666663</ele><time>2026-03-22T09:59:40.999Z</time></trkpt><trkpt lat="44.02286492430179" lon="8.144207568729632"><ele>477.0</ele><time>2026-03-22T09:59:41.999Z</time></trkpt><trkpt lat="44.022808396408024" lon="8.144166239261189"><ele>474.33333333333337</ele><time>2026-03-22T09:59:42.999Z</time></trkpt><trkpt lat="44.02273877639449" lon="8.1441237109537"><ele>471.6666666666667</ele><time>2026-03-22T09:59:43.999Z</time></trkpt><trkpt lat="44.022648823008495" lon="8.14405061839918"><ele>469.0</ele><time>2026-03-22T09:59:45.999Z</time></trkpt><trkpt lat="44.022640165370355" lon="8.143945711497791"><ele>469.2</ele><time>2026-03-22T09:59:47.999Z</time></trkpt><trkpt lat="44.02257063294197" lon="8.143982370704927"><ele>469.4</ele><time>2026-03-22T09:59:50.999Z</time></trkpt><trkpt lat="44.022481283903076" lon="8.143979124789665"><ele>469.6</ele><time>2026-03-22T09:59:52.999Z</time></trkpt><trkpt lat="44.02238539023389" lon="8.143998714272488"><ele>469.8</ele><time>2026-03-22T09:59:54.999Z</time></trkpt><trkpt lat="44.022275334713434" lon="8.144054327941834"><ele>470.0</ele><time>2026-03-22T09:59:55.999Z</time></trkpt><trkpt lat="44.0221769741634" lon="8.144057496904352"><ele>465.16666666666663</ele><time>2026-03-22T09:59:57Z</time></trkpt><trkpt lat="44.0220844503177" lon="8.144044597817963"><ele>460.3333333333333</ele><time>2026-03-22T09:59:58Z</time></trkpt><trkpt lat="44.022017914594855" lon="8.144018140366828"><ele>455.5</ele><time>2026-03-22T09:59:59Z</time></trkpt><trkpt lat="44.02191636799684" lon="8.143920554439672"><ele>450.66666666666663</ele><time>2026-03-22T10:00:01Z</time></trkpt><trkpt lat="44.021846131065736" lon="8.143880239535854"><ele>445.8333333333333</ele><time>2026-03-22T10:00:02Z</time></trkpt><trkpt lat="44.021774251242505" lon="8.143813711924507"><ele>441.0</ele><time>2026-03-22T10:00:04Z</time></trkpt><trkpt lat="44.021694909064635" lon="8.143788184791568"><ele>441.5</ele><time>2026-03-22T10:00:05Z</time></trkpt><trkpt lat="44.02162362962768" lon="8.143671493104101"><ele>442.0</ele><time>2026-03-22T10:00:07Z</time></trkpt><trkpt lat="44.021549978383256" lon="8.143629426423026"><ele>442.5</ele><time>2026-03-22T10:00:08Z</time></trkpt><trkpt lat="44.02147475115121" lon="8.143609850988716"><ele>443.0</ele><time>2026-03-22T10:00:10Z</time></trkpt><trkpt lat="44.02137991931273" lon="8.143522697999432"><ele>443.5</ele><time>2026-03-22T10:00:12Z</time></trkpt><trkpt lat="44.0213229567906" lon="8.143483550419253"><ele>444.0</ele><time>2026-03-22T10:00:13Z</time></trkpt><trkpt lat="44.02125435740044" lon="8.143461749422901"><ele>444.0</ele><time>2026-03-22T10:00:14Z</time></trkpt><trkpt lat="44.02119021192463" lon="8.143416300449264"><ele>444.0</ele><time>2026-03-22T10:00:15Z</time></trkpt><trkpt lat="44.02106865878364" lon="8.143431693567852"><ele>444.0</ele><time>2026-03-22T10:00:17Z</time></trkpt><trkpt lat="44.02098614168051" lon="8.14341210263642"><ele>444.0</ele><time>2026-03-22T10:00:18Z</time></trkpt><trkpt lat="44.020936008460254" lon="8.143357503985444"><ele>444.0</ele><time>2026-03-22T10:00:19Z</time></trkpt><trkpt lat="44.0208990740669" lon="8.143281119842946"><ele>444.0</ele><time>2026-03-22T10:00:20Z</time></trkpt><trkpt lat="44.020841614288514" lon="8.143232702545614"><ele>440.75</ele><time>2026-03-22T10:00:21Z</time></trkpt><trkpt lat="44.020773723632786" lon="8.14319960514897"><ele>437.5</ele><time>2026-03-22T10:00:22Z</time></trkpt><trkpt lat="44.020673116156125" lon="8.143176026965458"><ele>434.25</ele><time>2026-03-22T10:00:23Z</time></trkpt><trkpt lat="44.020518135978215" lon="8.143129566819555"><ele>431.0</ele><time>2026-03-22T10:00:24Z</time></trkpt><trkpt lat="44.0203721622337" lon="8.14306771687295"><ele>431.0</ele><time>2026-03-22T10:00:25Z</time></trkpt><trkpt lat="44.02024194470365" lon="8.14300745518275"><ele>431.0</ele><time>2026-03-22T10:00:26Z</time></trkpt><trkpt lat="44.020136979995165" lon="8.142942517829328"><ele>431.0</ele><time>2026-03-22T10:00:27Z</time></trkpt><trkpt lat="44.020016488030834" lon="8.142844999424145"><ele>431.0</ele><time>2026-03-22T10:00:28Z</time></trkpt><trkpt lat="44.019920067744174" lon="8.142772535336812"><ele>430.5714285714286</ele><time>2026-03-22T10:00:29Z</time></trkpt><trkpt lat="44.019839978697995" lon="8.142784429721308"><ele>430.1428571428571</ele><time>2026-03-22T10:00:30Z</time></trkpt><trkpt lat="44.01977702241246" lon="8.142770571243293"><ele>429.7142857142857</ele><time>2026-03-22T10:00:31Z</time></trkpt><trkpt lat="44.01971493904657" lon="8.142752970071237"><ele>429.28571428571433</ele><time>2026-03-22T10:00:32Z</time></trkpt><trkpt lat="44.019651484755954" lon="8.142726586948122"><ele>428.8571428571429</ele><time>2026-03-22T10:00:33Z</time></trkpt><trkpt lat="44.01957833455309" lon="8.142731985928174"><ele>428.42857142857144</ele><time>2026-03-22T10:00:34Z</time></trkpt><trkpt lat="44.01949202719667" lon="8.142762824592673"><ele>428.0</ele><time>2026-03-22T10:00:35Z</time></trkpt><trkpt lat="44.01938885957467" lon="8.142792736284347"><ele>428.0</ele><time>2026-03-22T10:00:36Z</time></trkpt><trkpt lat="44.019278561443286" lon="8.142827106058338"><ele>427.99999999999994</ele><time>2026-03-22T10:00:37Z</time></trkpt><trkpt lat="44.01916534738499" lon="8.14285803521276"><ele>427.99999999999994</ele><time>2026-03-22T10:00:38Z</time></trkpt><trkpt lat="44.019095934480106" lon="8.142896291399566"><ele>428.0</ele><time>2026-03-22T10:00:39Z</time></trkpt><trkpt lat="44.01900492439064" lon="8.142968240292884"><ele>428.0</ele><time>2026-03-22T10:00:40Z</time></trkpt><trkpt lat="44.01895896113625" lon="8.143039419932398"><ele>429.75</ele><time>2026-03-22T10:00:41Z</time></trkpt><trkpt lat="44.0188840453359" lon="8.143160833435962"><ele>431.5</ele><time>2026-03-22T10:00:42Z</time></trkpt><trkpt lat="44.01879197838813" lon="8.143256290652198"><ele>433.25</ele><time>2026-03-22T10:00:43Z</time></trkpt><trkpt lat="44.018697829294524" lon="8.143360158188663"><ele>435.0</ele><time>2026-03-22T10:00:44Z</time></trkpt><trkpt lat="44.0185709572287" lon="8.143496300881033"><ele>435.0</ele><time>2026-03-22T10:00:45Z</time></trkpt><trkpt lat="44.018471727697566" lon="8.143582325871412"><ele>435.0</ele><time>2026-03-22T10:00:46Z</time></trkpt><trkpt lat="44.0183429706342" lon="8.143637666855838"><ele>435.0</ele><time>2026-03-22T10:00:47Z</time></trkpt><trkpt lat="44.018250774179606" lon="8.143669223913902"><ele>435.0</ele><time>2026-03-22T10:00:48Z</time></trkpt><trkpt lat="44.01819133127657" lon="8.143717573920396"><ele>435.0</ele><time>2026-03-22T10:00:49Z</time></trkpt><trkpt lat="44.01811714216588" lon="8.143764234143926"><ele>435.1666666666667</ele><time>2026-03-22T10:00:50Z</time></trkpt><trkpt lat="44.01796412001305" lon="8.143796231983243"><ele>435.33333333333337</ele><time>2026-03-22T10:00:52Z</time></trkpt><trkpt lat="44.01789933756938" lon="8.14382562389393"><ele>435.5</ele><time>2026-03-22T10:00:53Z</time></trkpt><trkpt lat="44.01782000577079" lon="8.143838840902815"><ele>435.6666666666667</ele><time>2026-03-22T10:00:57Z</time></trkpt><trkpt lat="44.01777913418164" lon="8.143765976590249"><ele>435.83333333333337</ele><time>2026-03-22T10:01:00Z</time></trkpt><trkpt lat="44.01774725681285" lon="8.143670683145967"><ele>436.0</ele><time>2026-03-22T10:01:03Z</time></trkpt><trkpt lat="44.017682163173724" lon="8.143611246947682"><ele>436.0</ele><time>2026-03-22T10:01:06Z</time></trkpt><trkpt lat="44.017622774608114" lon="8.14355729579561"><ele>436.0</ele><time>2026-03-22T10:01:07Z</time></trkpt><trkpt lat="44.01755400655419" lon="8.143474376656666"><ele>436.0</ele><time>2026-03-22T10:01:09Z</time></trkpt><trkpt lat="44.017410578853216" lon="8.143400970127706"><ele>436.0</ele><time>2026-03-22T10:01:11Z</time></trkpt><trkpt lat="44.01731877447379" lon="8.14342858148263"><ele>436.0</ele><time>2026-03-22T10:01:12.999Z</time></trkpt><trkpt lat="44.01725851051607" lon="8.143489806112722"><ele>437.00000000000006</ele><time>2026-03-22T10:01:14.999Z</time></trkpt><trkpt lat="44.01720082288316" lon="8.143527911899467"><ele>438.0</ele><time>2026-03-22T10:01:15.999Z</time></trkpt><trkpt lat="44.01710122453155" lon="8.143512760024512"><ele>439.0</ele><time>2026-03-22T10:01:18.999Z</time></trkpt><trkpt lat="44.017055901052906" lon="8.143434494699711"><ele>440.0</ele><time>2026-03-22T10:01:19.999Z</time></trkpt><trkpt lat="44.01702921033157" lon="8.143353796575006"><ele>441.00000000000006</ele><time>2026-03-22T10:01:20.999Z</time></trkpt><trkpt lat="44.01694608511089" lon="8.14324566719294"><ele>442.0</ele><time>2026-03-22T10:01:22.999Z</time></trkpt><trkpt lat="44.016836763265594" lon="8.143173665807174"><ele>442.00000000000006</ele><time>2026-03-22T10:01:24.999Z</time></trkpt><trkpt lat="44.016765994801986" lon="8.14316580422747"><ele>442.0</ele><time>2026-03-22T10:01:26.999Z</time></trkpt><trkpt lat="44.01670064405423" lon="8.143225390815596"><ele>442.0</ele><time>2026-03-22T10:01:28.999Z</time></trkpt><trkpt lat="44.01662838063453" lon="8.143250850570912"><ele>442.0</ele><time>2026-03-22T10:01:31.999Z</time></trkpt><trkpt lat="44.01650897158746" lon="8.143285503870155"><ele>442.00000000000006</ele><time>2026-03-22T10:01:33.999Z</time></trkpt><trkpt lat="44.01645445285429" lon="8.143234988608691"><ele>442.0</ele><time>2026-03-22T10:01:35.999Z</time></trkpt><trkpt lat="44.01643309149118" lon="8.143148029560006"><ele>435.6</ele><time>2026-03-22T10:01:37.999Z</time></trkpt><trkpt lat="44.016377541370176" lon="8.143070531917775"><ele>429.20000000000005</ele><time>2026-03-22T10:01:40.999Z</time></trkpt><trkpt lat="44.01627291673772" lon="8.143030183229532"><ele>422.8</ele><time>2026-03-22T10:01:42.999Z</time></trkpt><trkpt lat="44.01617977803445" lon="8.143003174228324"><ele>416.4</ele><time>2026-03-22T10:01:44.999Z</time></trkpt><trkpt lat="44.016098181491145" lon="8.14299355262453"><ele>410.0</ele><time>2026-03-22T10:01:47.999Z</time></trkpt><trkpt lat="44.01601992054977" lon="8.14294181057991"><ele>410.0</ele><time>2026-03-22T10:01:50.999Z</time></trkpt><trkpt lat="44.01595676739454" lon="8.142912108389964"><ele>410.0</ele><time>2026-03-22T10:01:54.999Z</time></trkpt><trkpt lat="44.01583540800294" lon="8.142896461453692"><ele>410.0</ele><time>2026-03-22T10:01:56.999Z</time></trkpt><trkpt lat="44.01572212039114" lon="8.142912572536439"><ele>410.0</ele><time>2026-03-22T10:01:57.999Z</time></trkpt><trkpt lat="44.01565411657767" lon="8.142915481052722"><ele>410.0</ele><time>2026-03-22T10:01:58.999Z</time></trkpt><trkpt lat="44.015521913861505" lon="8.142882725235705"><ele>410.0</ele><time>2026-03-22T10:02:00.999Z</time></trkpt><trkpt lat="44.01544973198774" lon="8.14282474420632"><ele>410.0</ele><time>2026-03-22T10:02:01.999Z</time></trkpt><trkpt lat="44.01534103031376" lon="8.142761106576486"><ele>410.0</ele><time>2026-03-22T10:02:04Z</time></trkpt><trkpt lat="44.0152185034359" lon="8.142702455323041"><ele>410.0</ele><time>2026-03-22T10:02:06Z</time></trkpt><trkpt lat="44.01515378517006" lon="8.142659961834733"><ele>410.0</ele><time>2026-03-22T10:02:07Z</time></trkpt><trkpt lat="44.015093480438836" lon="8.142628764386508"><ele>410.0</ele><time>2026-03-22T10:02:09Z</time></trkpt><trkpt lat="44.01499200714511" lon="8.142591547034828"><ele>410.0</ele><time>2026-03-22T10:02:11Z</time></trkpt><trkpt lat="44.014911895424675" lon="8.142613131755034"><ele>410.0</ele><time>2026-03-22T10:02:12Z</time></trkpt><trkpt lat="44.01481999102194" lon="8.142613962473655"><ele>410.0</ele><time>2026-03-22T10:02:13Z</time></trkpt><trkpt lat="44.01471311946219" lon="8.14260279860296"><ele>410.0</ele><time>2026-03-22T10:02:14Z</time></trkpt><trkpt lat="44.01457819105278" lon="8.14256356287708"><ele>408.99999999999994</ele><time>2026-03-22T10:02:15Z</time></trkpt><trkpt lat="44.01449167813052" lon="8.142518600311327"><ele>408.0</ele><time>2026-03-22T10:02:16Z</time></trkpt><trkpt lat="44.014426438949506" lon="8.142473811179851"><ele>407.0</ele><time>2026-03-22T10:02:17Z</time></trkpt><trkpt lat="44.01435565873331" lon="8.142384251099553"><ele>406.0</ele><time>2026-03-22T10:02:18Z</time></trkpt><trkpt lat="44.01430999674006" lon="8.142282605491081"><ele>404.99999999999994</ele><time>2026-03-22T10:02:19Z</time></trkpt><trkpt lat="44.01424477577078" lon="8.142195201183737"><ele>404.0</ele><time>2026-03-22T10:02:20Z</time></trkpt><trkpt lat="44.01419220587871" lon="8.142074035603056"><ele>403.3333333333333</ele><time>2026-03-22T10:02:22Z</time></trkpt><trkpt lat="44.01419948057141" lon="8.141976853062188"><ele>402.66666666666663</ele><time>2026-03-22T10:02:25Z</time></trkpt><trkpt lat="44.0141534586621" lon="8.141875943644521"><ele>402.0</ele><time>2026-03-22T10:02:28Z</time></trkpt><trkpt lat="44.01412103325479" lon="8.14178961486295"><ele>401.33333333333337</ele><time>2026-03-22T10:02:31Z</time></trkpt><trkpt lat="44.01404975038848" lon="8.141700062395431"><ele>400.6666666666667</ele><time>2026-03-22T10:02:34Z</time></trkpt><trkpt lat="44.0139969842364" lon="8.141631569553885"><ele>400.0</ele><time>2026-03-22T10:02:35Z</time></trkpt><trkpt lat="44.013902016441065" lon="8.141611296111146"><ele>397.33333333333337</ele><time>2026-03-22T10:02:37Z</time></trkpt><trkpt lat="44.01382253245891" lon="8.141538942974472"><ele>394.6666666666667</ele><time>2026-03-22T10:02:39Z</time></trkpt><trkpt lat="44.01376115057631" lon="8.141493653073713"><ele>392.0</ele><time>2026-03-22T10:02:40Z</time></trkpt><trkpt lat="44.01369254700593" lon="8.141438994802389"><ele>389.33333333333337</ele><time>2026-03-22T10:02:41Z</time></trkpt><trkpt lat="44.01361304502037" lon="8.141385577874608"><ele>386.6666666666667</ele><time>2026-03-22T10:02:42Z</time></trkpt><trkpt lat="44.01351892544049" lon="8.141355103538011"><ele>384.0</ele><time>2026-03-22T10:02:44Z</time></trkpt><trkpt lat="44.01346482692252" lon="8.141308128293062"><ele>384.0</ele><time>2026-03-22T10:02:45Z</time></trkpt><trkpt lat="44.013378866430244" lon="8.141189015902423"><ele>384.0</ele><time>2026-03-22T10:02:47Z</time></trkpt><trkpt lat="44.01328659246651" lon="8.141098623241536"><ele>384.0</ele><time>2026-03-22T10:02:49Z</time></trkpt><trkpt lat="44.01321529583844" lon="8.141069728843167"><ele>384.0</ele><time>2026-03-22T10:02:51Z</time></trkpt><trkpt lat="44.01313965086967" lon="8.141050148883338"><ele>384.0</ele><time>2026-03-22T10:02:53Z</time></trkpt><trkpt lat="44.013095985356685" lon="8.141118614583041"><ele>384.5</ele><time>2026-03-22T10:02:55Z</time></trkpt><trkpt lat="44.01311529195294" lon="8.14126805608299"><ele>385.0</ele><time>2026-03-22T10:02:57Z</time></trkpt><trkpt lat="44.01315810530703" lon="8.141374980584294"><ele>385.5</ele><time>2026-03-22T10:02:59Z</time></trkpt><trkpt lat="44.01324142105932" lon="8.141398996805867"><ele>386.0</ele><time>2026-03-22T10:03:02Z</time></trkpt><trkpt lat="44.013236680969115" lon="8.141486463048127"><ele>386.5</ele><time>2026-03-22T10:03:06Z</time></trkpt><trkpt lat="44.01329923701538" lon="8.141517522975628"><ele>387.0</ele><time>2026-03-22T10:03:43.999Z</time></trkpt><trkpt lat="44.01334558079335" lon="8.141607026657933"><ele>387.0</ele><time>2026-03-22T10:03:45.999Z</time></trkpt><trkpt lat="44.01339726236349" lon="8.141700696892626"><ele>387.0</ele><time>2026-03-22T10:03:47.999Z</time></trkpt><trkpt lat="44.01344214203945" lon="8.141780137502826"><ele>387.0</ele><time>2026-03-22T10:03:49.999Z</time></trkpt><trkpt lat="44.01349605198044" lon="8.141848237324975"><ele>387.0</ele><time>2026-03-22T10:03:51.999Z</time></trkpt><trkpt lat="44.01355827194619" lon="8.141912639564364"><ele>387.0</ele><time>2026-03-22T10:03:53.999Z</time></trkpt><trkpt lat="44.013609682067234" lon="8.141979257551766"><ele>387.0</ele><time>2026-03-22T10:03:55.999Z</time></trkpt><trkpt lat="44.01371921255154" lon="8.142041991609176"><ele>387.0</ele><time>2026-03-22T10:04:35Z</time></trkpt><trkpt lat="44.01380288212126" lon="8.142116569948938"><ele>387.0</ele><time>2026-03-22T10:04:36Z</time></trkpt><trkpt lat="44.01387858131547" lon="8.142202065307295"><ele>387.0</ele><time>2026-03-22T10:04:37Z</time></trkpt><trkpt lat="44.01391085445115" lon="8.142375611644125"><ele>387.0</ele><time>2026-03-22T10:04:38Z</time></trkpt><trkpt lat="44.013988566882915" lon="8.142524582643603"><ele>392.66666666666663</ele><time>2026-03-22T10:04:39Z</time></trkpt><trkpt lat="44.01409300404093" lon="8.142694040057458"><ele>398.3333333333333</ele><time>2026-03-22T10:04:40Z</time></trkpt><trkpt lat="44.01422925980723" lon="8.142856491952067"><ele>404.0</ele><time>2026-03-22T10:04:41Z</time></trkpt><trkpt lat="44.01436612900319" lon="8.143022920793067"><ele>404.0</ele><time>2026-03-22T10:04:42Z</time></trkpt><trkpt lat="44.014500704980414" lon="8.14319341013322"><ele>404.0</ele><time>2026-03-22T10:04:43Z</time></trkpt><trkpt lat="44.014635076760754" lon="8.143368761918008"><ele>404.0</ele><time>2026-03-22T10:04:44Z</time></trkpt><trkpt lat="44.01479332476047" lon="8.143512584559614"><ele>401.0</ele><time>2026-03-22T10:04:45Z</time></trkpt><trkpt lat="44.014885396466966" lon="8.143650701262798"><ele>398.0</ele><time>2026-03-22T10:04:46Z</time></trkpt><trkpt lat="44.01494933152302" lon="8.143775363694486"><ele>395.0</ele><time>2026-03-22T10:04:47Z</time></trkpt><trkpt lat="44.014988803550885" lon="8.14391275785644"><ele>392.0</ele><time>2026-03-22T10:04:48Z</time></trkpt><trkpt lat="44.014986204858964" lon="8.144094040691803"><ele>402.66666666666663</ele><time>2026-03-22T10:04:49Z</time></trkpt><trkpt lat="44.014993891087826" lon="8.144301056960158"><ele>413.33333333333337</ele><time>2026-03-22T10:04:50Z</time></trkpt><trkpt lat="44.0150027422007" lon="8.144539629653387"><ele>424.0</ele><time>2026-03-22T10:04:51Z</time></trkpt><trkpt lat="44.01500648285974" lon="8.14476932153737"><ele>424.25</ele><time>2026-03-22T10:04:52Z</time></trkpt><trkpt lat="44.015004282995704" lon="8.144986589911273"><ele>424.5</ele><time>2026-03-22T10:04:53Z</time></trkpt><trkpt lat="44.01500062828073" lon="8.145159441088898"><ele>424.75</ele><time>2026-03-22T10:04:54Z</time></trkpt><trkpt lat="44.0149727990077" lon="8.145326343406058"><ele>425.0</ele><time>2026-03-22T10:04:55Z</time></trkpt><trkpt lat="44.014940153162364" lon="8.145533166669582"><ele>413.5</ele><time>2026-03-22T10:04:56Z</time></trkpt><trkpt lat="44.01487537464674" lon="8.145727877127783"><ele>402.0</ele><time>2026-03-22T10:04:57Z</time></trkpt><trkpt lat="44.014843353317985" lon="8.1458985257034"><ele>390.5</ele><time>2026-03-22T10:04:58Z</time></trkpt><trkpt lat="44.014851821995215" lon="8.146048163353608"><ele>379.0</ele><time>2026-03-22T10:04:59Z</time></trkpt><trkpt lat="44.014881363853824" lon="8.146203699098793"><ele>379.0</ele><time>2026-03-22T10:05:00Z</time></trkpt><trkpt lat="44.014920323503915" lon="8.146359749550047"><ele>379.0</ele><time>2026-03-22T10:05:01Z</time></trkpt><trkpt lat="44.01498839925915" lon="8.146481406113232"><ele>379.0</ele><time>2026-03-22T10:05:02Z</time></trkpt><trkpt lat="44.01504129251481" lon="8.146634271416065"><ele>379.0</ele><time>2026-03-22T10:05:03Z</time></trkpt><trkpt lat="44.01508473506601" lon="8.146756820747775"><ele>392.0</ele><time>2026-03-22T10:05:04Z</time></trkpt><trkpt lat="44.015095479049016" lon="8.146889823096062"><ele>405.0</ele><time>2026-03-22T10:05:05Z</time></trkpt><trkpt lat="44.01509718404114" lon="8.147075581203529"><ele>418.0</ele><time>2026-03-22T10:05:06Z</time></trkpt><trkpt lat="44.01511364184905" lon="8.147308230781197"><ele>431.0</ele><time>2026-03-22T10:05:07Z</time></trkpt><trkpt lat="44.01513115137183" lon="8.14752662055305"><ele>431.0</ele><time>2026-03-22T10:05:08Z</time></trkpt><trkpt lat="44.01511169494374" lon="8.147729336801264"><ele>431.0</ele><time>2026-03-22T10:05:09Z</time></trkpt><trkpt lat="44.01509600927559" lon="8.147934328049388"><ele>431.0</ele><time>2026-03-22T10:05:10Z</time></trkpt><trkpt lat="44.01512285648738" lon="8.148134424581741"><ele>431.0</ele><time>2026-03-22T10:05:11Z</time></trkpt><trkpt lat="44.01513622099078" lon="8.148344344849136"><ele>431.75</ele><time>2026-03-22T10:05:12Z</time></trkpt><trkpt lat="44.01515101055697" lon="8.148546524131623"><ele>432.5</ele><time>2026-03-22T10:05:13Z</time></trkpt><trkpt lat="44.015152951176624" lon="8.148720243368189"><ele>433.25</ele><time>2026-03-22T10:05:14Z</time></trkpt><trkpt lat="44.0151599873296" lon="8.148873486430423"><ele>434.0</ele><time>2026-03-22T10:05:15Z</time></trkpt><trkpt lat="44.01516516738337" lon="8.149000090201364"><ele>432.6</ele><time>2026-03-22T10:05:16Z</time></trkpt><trkpt lat="44.01520206665852" lon="8.149162567400081"><ele>431.2</ele><time>2026-03-22T10:05:18Z</time></trkpt><trkpt lat="44.01531485315567" lon="8.149260572543326"><ele>429.80000000000007</ele><time>2026-03-22T10:05:20Z</time></trkpt><trkpt lat="44.015395755694115" lon="8.14928244358385"><ele>428.40000000000003</ele><time>2026-03-22T10:05:21Z</time></trkpt><trkpt lat="44.015486322921696" lon="8.149286851795967"><ele>427.0</ele><time>2026-03-22T10:05:22Z</time></trkpt><trkpt lat="44.015575088573485" lon="8.149285658591312"><ele>427.0</ele><time>2026-03-22T10:05:23Z</time></trkpt><trkpt lat="44.015668703729645" lon="8.149268824294468"><ele>427.00000000000006</ele><time>2026-03-22T10:05:24Z</time></trkpt><trkpt lat="44.01576268713708" lon="8.149233369919093"><ele>427.00000000000006</ele><time>2026-03-22T10:05:25Z</time></trkpt><trkpt lat="44.015861756100676" lon="8.149194716751998"><ele>427.0</ele><time>2026-03-22T10:05:26Z</time></trkpt><trkpt lat="44.015958313104456" lon="8.149154378672707"><ele>427.0</ele><time>2026-03-22T10:05:27Z</time></trkpt><trkpt lat="44.01606183782758" lon="8.149094779502308"><ele>440.25</ele><time>2026-03-22T10:05:28Z</time></trkpt><trkpt lat="44.01617360226393" lon="8.149015605015203"><ele>453.5</ele><time>2026-03-22T10:05:29Z</time></trkpt><trkpt lat="44.016296334126714" lon="8.148912478042373"><ele>466.75</ele><time>2026-03-22T10:05:30Z</time></trkpt><trkpt lat="44.01641170001585" lon="8.148806252978314"><ele>480.0</ele><time>2026-03-22T10:05:31Z</time></trkpt><trkpt lat="44.01653377450995" lon="8.14872206944612"><ele>480.0</ele><time>2026-03-22T10:05:32Z</time></trkpt><trkpt lat="44.01660995923606" lon="8.148659219681873"><ele>480.0</ele><time>2026-03-22T10:05:33Z</time></trkpt><trkpt lat="44.016691896242854" lon="8.148631082148759"><ele>480.0</ele><time>2026-03-22T10:05:34Z</time></trkpt><trkpt lat="44.01675714371298" lon="8.14863936974857"><ele>480.0</ele><time>2026-03-22T10:05:35Z</time></trkpt><trkpt lat="44.01685061200927" lon="8.148645444116694"><ele>480.0</ele><time>2026-03-22T10:05:36Z</time></trkpt><trkpt lat="44.016960085090616" lon="8.148648558757118"><ele>480.0</ele><time>2026-03-22T10:05:36.999Z</time></trkpt><trkpt lat="44.01706656396716" lon="8.148610726581039"><ele>480.4</ele><time>2026-03-22T10:05:37.999Z</time></trkpt><trkpt lat="44.017165400698715" lon="8.148594860093295"><ele>480.8</ele><time>2026-03-22T10:05:38.999Z</time></trkpt><trkpt lat="44.017227135376146" lon="8.14854328153879"><ele>481.20000000000005</ele><time>2026-03-22T10:05:39.999Z</time></trkpt><trkpt lat="44.017291987646736" lon="8.148503713228152"><ele>481.6</ele><time>2026-03-22T10:05:40.999Z</time></trkpt><trkpt lat="44.017365704909174" lon="8.148336770136597"><ele>482.0</ele><time>2026-03-22T10:05:42.999Z</time></trkpt><trkpt lat="44.01738439044767" lon="8.148201876891196"><ele>475.66666666666663</ele><time>2026-03-22T10:05:43.999Z</time></trkpt><trkpt lat="44.0173577816187" lon="8.148122329109961"><ele>469.33333333333337</ele><time>2026-03-22T10:05:44.999Z</time></trkpt><trkpt lat="44.01745559656642" lon="8.148046216154205"><ele>463.0</ele><time>2026-03-22T10:05:45.999Z</time></trkpt><trkpt lat="44.01780223600612" lon="8.148248816953465"><ele>463.00000000000006</ele><time>2026-03-22T10:05:48.999Z</time></trkpt><trkpt lat="44.01788401226213" lon="8.148261974847248"><ele>463.0</ele><time>2026-03-22T10:05:49.999Z</time></trkpt><trkpt lat="44.017982207664545" lon="8.148271668967089"><ele>463.0</ele><time>2026-03-22T10:05:50.999Z</time></trkpt><trkpt lat="44.01806174196502" lon="8.148290573905221"><ele>463.0</ele><time>2026-03-22T10:05:51.999Z</time></trkpt><trkpt lat="44.01814476910086" lon="8.148334968439137"><ele>463.00000000000006</ele><time>2026-03-22T10:05:52.999Z</time></trkpt><trkpt lat="44.018237348400014" lon="8.148354756771184"><ele>463.0</ele><time>2026-03-22T10:05:53.999Z</time></trkpt><trkpt lat="44.01832910631901" lon="8.148410780861747"><ele>462.0</ele><time>2026-03-22T10:05:54.999Z</time></trkpt><trkpt lat="44.01840702949582" lon="8.14847169416629"><ele>460.99999999999994</ele><time>2026-03-22T10:05:55.999Z</time></trkpt><trkpt lat="44.01850049566708" lon="8.148564864833086"><ele>459.99999999999994</ele><time>2026-03-22T10:05:56.999Z</time></trkpt><trkpt lat="44.018587750798474" lon="8.148674197240469"><ele>459.0</ele><time>2026-03-22T10:05:57.999Z</time></trkpt><trkpt lat="44.018640351116765" lon="8.14875287098618"><ele>458.0</ele><time>2026-03-22T10:05:58.999Z</time></trkpt><trkpt lat="44.01870203034075" lon="8.148795789343927"><ele>458.0</ele><time>2026-03-22T10:05:59.999Z</time></trkpt><trkpt lat="44.01877457539748" lon="8.148826408753036"><ele>457.99999999999994</ele><time>2026-03-22T10:06:00.999Z</time></trkpt><trkpt lat="44.01885913389518" lon="8.148849227354964"><ele>457.99999999999994</ele><time>2026-03-22T10:06:01.999Z</time></trkpt><trkpt lat="44.01894708881319" lon="8.148879864504156"><ele>458.0</ele><time>2026-03-22T10:06:02.999Z</time></trkpt><trkpt lat="44.01905092949392" lon="8.148950968782263"><ele>458.0</ele><time>2026-03-22T10:06:03.999Z</time></trkpt><trkpt lat="44.019148670779536" lon="8.149038248799299"><ele>455.79999999999995</ele><time>2026-03-22T10:06:04.999Z</time></trkpt><trkpt lat="44.019213457551" lon="8.149132602649388"><ele>453.59999999999997</ele><time>2026-03-22T10:06:05.999Z</time></trkpt><trkpt lat="44.01927591890577" lon="8.149273393128617"><ele>451.40000000000003</ele><time>2026-03-22T10:06:06.999Z</time></trkpt><trkpt lat="44.01933559949408" lon="8.149412069932614"><ele>449.20000000000005</ele><time>2026-03-22T10:06:07.999Z</time></trkpt><trkpt lat="44.01940794427604" lon="8.149458470692363"><ele>447.0</ele><time>2026-03-22T10:06:09.999Z</time></trkpt><trkpt lat="44.019487475004546" lon="8.149473053505215"><ele>447.0</ele><time>2026-03-22T10:06:12.999Z</time></trkpt><trkpt lat="44.019551307017885" lon="8.149412115295647"><ele>447.00000000000006</ele><time>2026-03-22T10:06:17Z</time></trkpt><trkpt lat="44.01965249184446" lon="8.149344780666022"><ele>447.00000000000006</ele><time>2026-03-22T10:06:20Z</time></trkpt><trkpt lat="44.0197820612147" lon="8.14934128705139"><ele>447.0</ele><time>2026-03-22T10:06:22Z</time></trkpt><trkpt lat="44.01980998780936" lon="8.149436896536228"><ele>447.0</ele><time>2026-03-22T10:06:24Z</time></trkpt><trkpt lat="44.019846884743544" lon="8.149513483500117"><ele>447.0</ele><time>2026-03-22T10:06:25Z</time></trkpt><trkpt lat="44.01992201130719" lon="8.14959833273392"><ele>447.00000000000006</ele><time>2026-03-22T10:06:26Z</time></trkpt><trkpt lat="44.01997830657218" lon="8.149677151018826"><ele>447.00000000000006</ele><time>2026-03-22T10:06:28Z</time></trkpt><trkpt lat="44.02009722779284" lon="8.149729505259621"><ele>447.0</ele><time>2026-03-22T10:06:30Z</time></trkpt><trkpt lat="44.02007851474541" lon="8.149854941315185"><ele>447.0</ele><time>2026-03-22T10:06:32Z</time></trkpt><trkpt lat="44.020094690031776" lon="8.149977741504374"><ele>446.1666666666667</ele><time>2026-03-22T10:06:34Z</time></trkpt><trkpt lat="44.02015326767" lon="8.150070806786822"><ele>445.33333333333337</ele><time>2026-03-22T10:06:36Z</time></trkpt><trkpt lat="44.02016665846848" lon="8.150160494970958"><ele>444.5</ele><time>2026-03-22T10:06:37Z</time></trkpt><trkpt lat="44.02016945472683" lon="8.150293252555246"><ele>443.6666666666667</ele><time>2026-03-22T10:06:39Z</time></trkpt><trkpt lat="44.02023078440678" lon="8.150384296366555"><ele>442.83333333333337</ele><time>2026-03-22T10:06:42Z</time></trkpt><trkpt lat="44.020287190015964" lon="8.150453948564897"><ele>442.0</ele><time>2026-03-22T10:06:44Z</time></trkpt><trkpt lat="44.02034577074627" lon="8.15050356816594"><ele>442.0</ele><time>2026-03-22T10:06:45Z</time></trkpt><trkpt lat="44.020405921586324" lon="8.150552806578808"><ele>442.00000000000006</ele><time>2026-03-22T10:06:47Z</time></trkpt><trkpt lat="44.020458128951745" lon="8.150667510509926"><ele>442.00000000000006</ele><time>2026-03-22T10:06:49Z</time></trkpt><trkpt lat="44.020515425465284" lon="8.15075877538295"><ele>442.0</ele><time>2026-03-22T10:06:51Z</time></trkpt><trkpt lat="44.020586918204" lon="8.1508241053399"><ele>442.0</ele><time>2026-03-22T10:06:53Z</time></trkpt><trkpt lat="44.02063820157964" lon="8.15098238063496"><ele>438.83333333333337</ele><time>2026-03-22T10:06:55Z</time></trkpt><trkpt lat="44.0206833259415" lon="8.151101556643653"><ele>435.6666666666667</ele><time>2026-03-22T10:06:56Z</time></trkpt><trkpt lat="44.02070670840382" lon="8.151214031630596"><ele>432.5</ele><time>2026-03-22T10:06:57Z</time></trkpt><trkpt lat="44.02068720490992" lon="8.151309671231864"><ele>429.33333333333337</ele><time>2026-03-22T10:06:58Z</time></trkpt><trkpt lat="44.02068438029899" lon="8.151407861828442"><ele>426.1666666666667</ele><time>2026-03-22T10:06:59Z</time></trkpt><trkpt lat="44.020748755408" lon="8.151512809878568"><ele>423.0</ele><time>2026-03-22T10:07:01Z</time></trkpt><trkpt lat="44.020772382963145" lon="8.151615839458476"><ele>428.5</ele><time>2026-03-22T10:07:02Z</time></trkpt><trkpt lat="44.0208191074909" lon="8.151702848186032"><ele>434.0</ele><time>2026-03-22T10:07:03Z</time></trkpt><trkpt lat="44.02093084751471" lon="8.15179687581991"><ele>439.5</ele><time>2026-03-22T10:07:05Z</time></trkpt><trkpt lat="44.02106250348438" lon="8.151942286180741"><ele>445.0</ele><time>2026-03-22T10:07:07Z</time></trkpt><trkpt lat="44.021126318243375" lon="8.15203255943184"><ele>445.0</ele><time>2026-03-22T10:07:09Z</time></trkpt><trkpt lat="44.02120638917243" lon="8.152133955725054"><ele>445.0</ele><time>2026-03-22T10:07:11Z</time></trkpt><trkpt lat="44.021297118229995" lon="8.152146919532386"><ele>445.0</ele><time>2026-03-22T10:07:13Z</time></trkpt><trkpt lat="44.02141873242669" lon="8.15216623332362"><ele>445.0</ele><time>2026-03-22T10:07:16Z</time></trkpt><trkpt lat="44.021482788526676" lon="8.152166271846397"><ele>445.0</ele><time>2026-03-22T10:07:17Z</time></trkpt><trkpt lat="44.021545575774475" lon="8.152195880966236"><ele>445.0</ele><time>2026-03-22T10:07:18Z</time></trkpt><trkpt lat="44.021610103364424" lon="8.152255715928836"><ele>445.0</ele><time>2026-03-22T10:07:20Z</time></trkpt><trkpt lat="44.02171561231793" lon="8.152432375711003"><ele>445.0</ele><time>2026-03-22T10:07:22Z</time></trkpt><trkpt lat="44.021751339546846" lon="8.15252116893289"><ele>445.0</ele><time>2026-03-22T10:07:23Z</time></trkpt><trkpt lat="44.0217692242076" lon="8.152637166068853"><ele>445.0</ele><time>2026-03-22T10:07:25Z</time></trkpt><trkpt lat="44.02178076206132" lon="8.152755296037734"><ele>444.50000000000006</ele><time>2026-03-22T10:07:27.999Z</time></trkpt><trkpt lat="44.02181738736145" lon="8.152841430734536"><ele>444.0</ele><time>2026-03-22T10:07:28.999Z</time></trkpt><trkpt lat="44.021896833634635" lon="8.152899642723998"><ele>443.5</ele><time>2026-03-22T10:07:30.999Z</time></trkpt><trkpt lat="44.0219394169798" lon="8.152984231615603"><ele>443.0</ele><time>2026-03-22T10:07:32.999Z</time></trkpt><trkpt lat="44.02202334206823" lon="8.15309399236754"><ele>442.50000000000006</ele><time>2026-03-22T10:07:34.999Z</time></trkpt><trkpt lat="44.02204125823679" lon="8.15318331088279"><ele>442.0</ele><time>2026-03-22T10:07:35.999Z</time></trkpt><trkpt lat="44.02207244528251" lon="8.15329407165084"><ele>442.33333333333337</ele><time>2026-03-22T10:07:36.999Z</time></trkpt><trkpt lat="44.02212624037028" lon="8.153404627494558"><ele>442.6666666666667</ele><time>2026-03-22T10:07:38.999Z</time></trkpt><trkpt lat="44.02222793486239" lon="8.153465870068143"><ele>443.0</ele><time>2026-03-22T10:07:40.999Z</time></trkpt><trkpt lat="44.02230687687141" lon="8.153489664790706"><ele>443.33333333333337</ele><time>2026-03-22T10:07:41.999Z</time></trkpt><trkpt lat="44.02237976338571" lon="8.15350746434805"><ele>443.6666666666667</ele><time>2026-03-22T10:07:42.999Z</time></trkpt><trkpt lat="44.02245765694108" lon="8.153538002683428"><ele>444.0</ele><time>2026-03-22T10:07:44.999Z</time></trkpt><trkpt lat="44.02256473600604" lon="8.153592826687579"><ele>444.0</ele><time>2026-03-22T10:07:46.999Z</time></trkpt><trkpt lat="44.02267093314653" lon="8.15358790827819"><ele>444.0</ele><time>2026-03-22T10:07:49.999Z</time></trkpt><trkpt lat="44.022713034898096" lon="8.153662633019177"><ele>444.0</ele><time>2026-03-22T10:07:51.999Z</time></trkpt><trkpt lat="44.022744740442164" lon="8.153850579639741"><ele>444.0</ele><time>2026-03-22T10:07:53.999Z</time></trkpt><trkpt lat="44.022750603431845" lon="8.15398022957126"><ele>444.0</ele><time>2026-03-22T10:07:54.999Z</time></trkpt><trkpt lat="44.0227232641247" lon="8.154137043589854"><ele>439.79999999999995</ele><time>2026-03-22T10:07:55.999Z</time></trkpt><trkpt lat="44.022710662744586" lon="8.154227867318596"><ele>435.59999999999997</ele><time>2026-03-22T10:07:56.999Z</time></trkpt><trkpt lat="44.02269807553035" lon="8.154397754100229"><ele>431.4</ele><time>2026-03-22T10:07:58.999Z</time></trkpt><trkpt lat="44.02273332035221" lon="8.154493051239138"><ele>427.2</ele><time>2026-03-22T10:08:00.999Z</time></trkpt><trkpt lat="44.02285287021173" lon="8.154538249908857"><ele>423.0</ele><time>2026-03-22T10:08:02.999Z</time></trkpt><trkpt lat="44.02290581932761" lon="8.154454301976022"><ele>423.0</ele><time>2026-03-22T10:08:04.999Z</time></trkpt><trkpt lat="44.023007843162475" lon="8.154543119439268"><ele>423.0</ele><time>2026-03-22T10:08:07.999Z</time></trkpt><trkpt lat="44.02307651926135" lon="8.154601799231909"><ele>423.0</ele><time>2026-03-22T10:08:08.999Z</time></trkpt><trkpt lat="44.02314497428083" lon="8.154667645664345"><ele>423.0</ele><time>2026-03-22T10:08:09.999Z</time></trkpt><trkpt lat="44.02322254578766" lon="8.154696944485446"><ele>423.0</ele><time>2026-03-22T10:08:11.999Z</time></trkpt><trkpt lat="44.02328447514646" lon="8.154839203624158"><ele>424.5</ele><time>2026-03-22T10:08:13.999Z</time></trkpt><trkpt lat="44.023378123973174" lon="8.154858130701346"><ele>426.0</ele><time>2026-03-22T10:08:16.999Z</time></trkpt><trkpt lat="44.023460400124165" lon="8.154871052020049"><ele>427.5</ele><time>2026-03-22T10:08:19.999Z</time></trkpt><trkpt lat="44.023575788399064" lon="8.154877474161376"><ele>429.0</ele><time>2026-03-22T10:08:22Z</time></trkpt><trkpt lat="44.02365293486045" lon="8.154877387732348"><ele>430.5</ele><time>2026-03-22T10:08:24Z</time></trkpt><trkpt lat="44.02373169049774" lon="8.154866868037631"><ele>432.0</ele><time>2026-03-22T10:08:26Z</time></trkpt><trkpt lat="44.02380737836884" lon="8.154946305594441"><ele>432.0</ele><time>2026-03-22T10:08:28Z</time></trkpt><trkpt lat="44.02387645341415" lon="8.154996412854041"><ele>432.0</ele><time>2026-03-22T10:08:29Z</time></trkpt><trkpt lat="44.02394248238862" lon="8.155106976732222"><ele>432.0</ele><time>2026-03-22T10:08:30Z</time></trkpt><trkpt lat="44.02397555490478" lon="8.155206886886296"><ele>432.0</ele><time>2026-03-22T10:08:31Z</time></trkpt><trkpt lat="44.024018089159924" lon="8.155280822024727"><ele>432.0</ele><time>2026-03-22T10:08:33Z</time></trkpt><trkpt lat="44.02409640139503" lon="8.155308627841675"><ele>432.0</ele><time>2026-03-22T10:08:35Z</time></trkpt><trkpt lat="44.02420289704267" lon="8.155384179479714"><ele>432.0</ele><time>2026-03-22T10:08:37Z</time></trkpt><trkpt lat="44.024263665714834" lon="8.155517836717653"><ele>432.0</ele><time>2026-03-22T10:08:39Z</time></trkpt><trkpt lat="44.0243745402534" lon="8.155581725293919"><ele>432.0</ele><time>2026-03-22T10:08:41Z</time></trkpt><trkpt lat="44.02450812508015" lon="8.155673430261503"><ele>432.0</ele><time>2026-03-22T10:08:43Z</time></trkpt><trkpt lat="44.02460349428847" lon="8.155735815370761"><ele>432.0</ele><time>2026-03-22T10:08:44Z</time></trkpt><trkpt lat="44.02465788131985" lon="8.15587865371404"><ele>432.0</ele><time>2026-03-22T10:08:46Z</time></trkpt><trkpt lat="44.02466352443265" lon="8.155974762284718"><ele>432.0</ele><time>2026-03-22T10:08:47Z</time></trkpt><trkpt lat="44.02467309400301" lon="8.156073574735569"><ele>432.0</ele><time>2026-03-22T10:08:48Z</time></trkpt><trkpt lat="44.02469514337049" lon="8.156169168508196"><ele>432.0</ele><time>2026-03-22T10:08:49Z</time></trkpt><trkpt lat="44.024765682644066" lon="8.15627810382918"><ele>432.0</ele><time>2026-03-22T10:08:51Z</time></trkpt><trkpt lat="44.024830434364624" lon="8.156375488243384"><ele>432.0</ele><time>2026-03-22T10:08:53Z</time></trkpt><trkpt lat="44.0248931129489" lon="8.15648085768401"><ele>432.00000000000006</ele><time>2026-03-22T10:08:54Z</time></trkpt><trkpt lat="44.02493534634927" lon="8.156594670289783"><ele>432.00000000000006</ele><time>2026-03-22T10:08:55Z</time></trkpt><trkpt lat="44.024969205354424" lon="8.156743042918885"><ele>432.0</ele><time>2026-03-22T10:08:56Z</time></trkpt><trkpt lat="44.02500002465708" lon="8.156837568478451"><ele>432.0</ele><time>2026-03-22T10:08:57Z</time></trkpt><trkpt lat="44.025119424060684" lon="8.156902711225456"><ele>430.6666666666667</ele><time>2026-03-22T10:09:00Z</time></trkpt><trkpt lat="44.02513380876591" lon="8.15701804255109"><ele>429.33333333333337</ele><time>2026-03-22T10:09:03Z</time></trkpt><trkpt lat="44.02505017425185" lon="8.1570277365123"><ele>428.0</ele><time>2026-03-22T10:09:06Z</time></trkpt><trkpt lat="44.02496476300598" lon="8.15697531402297"><ele>426.6666666666667</ele><time>2026-03-22T10:09:09Z</time></trkpt><trkpt lat="44.02489738408985" lon="8.156897291950406"><ele>425.33333333333337</ele><time>2026-03-22T10:09:11Z</time></trkpt><trkpt lat="44.02481730246699" lon="8.156926088766326"><ele>424.0</ele><time>2026-03-22T10:09:13Z</time></trkpt><trkpt lat="44.024724865303355" lon="8.156976093674691"><ele>424.00000000000006</ele><time>2026-03-22T10:09:15Z</time></trkpt><trkpt lat="44.024678553439315" lon="8.157062824731007"><ele>424.0</ele><time>2026-03-22T10:09:17Z</time></trkpt><trkpt lat="44.02460367753994" lon="8.157152154001576"><ele>424.0</ele><time>2026-03-22T10:09:19Z</time></trkpt><trkpt lat="44.02453757327179" lon="8.157139383558553"><ele>424.0</ele><time>2026-03-22T10:09:21Z</time></trkpt><trkpt lat="44.02444437930738" lon="8.157134990178635"><ele>424.00000000000006</ele><time>2026-03-22T10:09:23Z</time></trkpt><trkpt lat="44.02437446377239" lon="8.15716894750923"><ele>424.0</ele><time>2026-03-22T10:09:24Z</time></trkpt><trkpt lat="44.02427765848502" lon="8.157208710182102"><ele>424.0</ele><time>2026-03-22T10:09:25Z</time></trkpt><trkpt lat="44.02419775563672" lon="8.157235258656016"><ele>424.0</ele><time>2026-03-22T10:09:26Z</time></trkpt><trkpt lat="44.02408558120088" lon="8.157260281138706"><ele>424.0</ele><time>2026-03-22T10:09:27Z</time></trkpt><trkpt lat="44.024006770229036" lon="8.157283651115966"><ele>424.0</ele><time>2026-03-22T10:09:28Z</time></trkpt><trkpt lat="44.023907998658814" lon="8.157305906959671"><ele>424.0</ele><time>2026-03-22T10:09:30Z</time></trkpt><trkpt lat="44.02380932470426" lon="8.157376397778643"><ele>423.4</ele><time>2026-03-22T10:09:32Z</time></trkpt><trkpt lat="44.023743045003364" lon="8.157424645167948"><ele>422.79999999999995</ele><time>2026-03-22T10:09:33Z</time></trkpt><trkpt lat="44.02362597593962" lon="8.15745407824107"><ele>422.20000000000005</ele><time>2026-03-22T10:09:35Z</time></trkpt><trkpt lat="44.023532065383066" lon="8.15750118656757"><ele>421.6</ele><time>2026-03-22T10:09:36Z</time></trkpt><trkpt lat="44.023421350288665" lon="8.157554615107992"><ele>421.0</ele><time>2026-03-22T10:09:37Z</time></trkpt><trkpt lat="44.02334277082837" lon="8.157617979999817"><ele>417.00000000000006</ele><time>2026-03-22T10:09:38Z</time></trkpt><trkpt lat="44.02327370744092" lon="8.157694678897426"><ele>413.0</ele><time>2026-03-22T10:09:39Z</time></trkpt><trkpt lat="44.02320961339826" lon="8.157746353824244"><ele>409.0</ele><time>2026-03-22T10:09:40Z</time></trkpt><trkpt lat="44.02314546320056" lon="8.157794614919853"><ele>405.0</ele><time>2026-03-22T10:09:41Z</time></trkpt><trkpt lat="44.02310019492773" lon="8.157919912197203"><ele>401.00000000000006</ele><time>2026-03-22T10:09:43Z</time></trkpt><trkpt lat="44.02306072864913" lon="8.1580309808447"><ele>397.0</ele><time>2026-03-22T10:09:44Z</time></trkpt><trkpt lat="44.02302252879398" lon="8.158123065933975"><ele>400.6</ele><time>2026-03-22T10:09:45Z</time></trkpt><trkpt lat="44.02296134692523" lon="8.158226733673573"><ele>404.20000000000005</ele><time>2026-03-22T10:09:47Z</time></trkpt><trkpt lat="44.02287982508242" lon="8.158290268116458"><ele>407.8</ele><time>2026-03-22T10:09:48Z</time></trkpt><trkpt lat="44.02283049374438" lon="8.158355731773266"><ele>411.4</ele><time>2026-03-22T10:09:49Z</time></trkpt><trkpt lat="44.02276092518155" lon="8.158459706982901"><ele>415.0</ele><time>2026-03-22T10:09:50Z</time></trkpt><trkpt lat="44.02270070313167" lon="8.158556517930691"><ele>415.00000000000006</ele><time>2026-03-22T10:09:50.999Z</time></trkpt><trkpt lat="44.0226487982766" lon="8.158651436525362"><ele>415.0</ele><time>2026-03-22T10:09:51.999Z</time></trkpt><trkpt lat="44.022606312888726" lon="8.15874584265131"><ele>415.0</ele><time>2026-03-22T10:09:52.999Z</time></trkpt><trkpt lat="44.02257242538691" lon="8.15883752567917"><ele>415.0</ele><time>2026-03-22T10:09:53.999Z</time></trkpt><trkpt lat="44.02249080002007" lon="8.158960719079577"><ele>415.00000000000006</ele><time>2026-03-22T10:09:55.999Z</time></trkpt><trkpt lat="44.02244183903286" lon="8.159031626579084"><ele>415.0</ele><time>2026-03-22T10:09:56.999Z</time></trkpt><trkpt lat="44.0223853904344" lon="8.159118869926779"><ele>412.83333333333337</ele><time>2026-03-22T10:09:57.999Z</time></trkpt><trkpt lat="44.02231005100165" lon="8.159193788449866"><ele>410.6666666666667</ele><time>2026-03-22T10:09:58.999Z</time></trkpt><trkpt lat="44.02222988757372" lon="8.159269092482834"><ele>408.5</ele><time>2026-03-22T10:10:00.999Z</time></trkpt><trkpt lat="44.022197857622324" lon="8.15936087753216"><ele>406.33333333333337</ele><time>2026-03-22T10:10:02.999Z</time></trkpt><trkpt lat="44.02212316677943" lon="8.159407378295937"><ele>404.1666666666667</ele><time>2026-03-22T10:10:04.999Z</time></trkpt><trkpt lat="44.02205261890656" lon="8.159424988276935"><ele>402.0</ele><time>2026-03-22T10:10:05.999Z</time></trkpt><trkpt lat="44.021926444318076" lon="8.159409926681937"><ele>402.0</ele><time>2026-03-22T10:10:07.999Z</time></trkpt><trkpt lat="44.02182733102619" lon="8.159410829010067"><ele>402.0</ele><time>2026-03-22T10:10:09.999Z</time></trkpt><trkpt lat="44.02175817000518" lon="8.159488162305161"><ele>402.0</ele><time>2026-03-22T10:10:11.999Z</time></trkpt><trkpt lat="44.02165834458757" lon="8.159554836476373"><ele>402.0</ele><time>2026-03-22T10:10:13.999Z</time></trkpt><trkpt lat="44.02155044743852" lon="8.159536055024748"><ele>402.0</ele><time>2026-03-22T10:10:15.999Z</time></trkpt><trkpt lat="44.021472369444986" lon="8.15951612774612"><ele>398.0</ele><time>2026-03-22T10:10:16.999Z</time></trkpt><trkpt lat="44.021405831840205" lon="8.159492000002807"><ele>394.0</ele><time>2026-03-22T10:10:17.999Z</time></trkpt><trkpt lat="44.021307717789156" lon="8.15941220846982"><ele>390.0</ele><time>2026-03-22T10:10:19.999Z</time></trkpt><trkpt lat="44.02124701623677" lon="8.159303188953286"><ele>386.0</ele><time>2026-03-22T10:10:21.999Z</time></trkpt><trkpt lat="44.02117840738758" lon="8.159297165226418"><ele>382.0</ele><time>2026-03-22T10:10:23.999Z</time></trkpt><trkpt lat="44.02114994151349" lon="8.15915885838681"><ele>382.0</ele><time>2026-03-22T10:10:27Z</time></trkpt><trkpt lat="44.0210919744847" lon="8.159119710166204"><ele>382.0</ele><time>2026-03-22T10:10:39Z</time></trkpt><trkpt lat="44.02100899086804" lon="8.159081185772074"><ele>382.0</ele><time>2026-03-22T10:10:42Z</time></trkpt><trkpt lat="44.020932284157624" lon="8.159049414812321"><ele>382.0</ele><time>2026-03-22T10:10:44Z</time></trkpt><trkpt lat="44.020848838909544" lon="8.159058547146305"><ele>382.0</ele><time>2026-03-22T10:10:53Z</time></trkpt><trkpt lat="44.02078294595755" lon="8.159020350047662"><ele>382.0</ele><time>2026-03-22T10:10:56Z</time></trkpt><trkpt lat="44.02067735262965" lon="8.159030512445309"><ele>380.16666666666663</ele><time>2026-03-22T10:10:58Z</time></trkpt><trkpt lat="44.02057271192888" lon="8.158970981956733"><ele>378.3333333333333</ele><time>2026-03-22T10:11:00Z</time></trkpt><trkpt lat="44.02051940443025" lon="8.158917820940102"><ele>376.5</ele><time>2026-03-22T10:11:02Z</time></trkpt><trkpt lat="44.02044821372791" lon="8.158968445385302"><ele>374.6666666666667</ele><time>2026-03-22T10:11:04Z</time></trkpt><trkpt lat="44.0203978296348" lon="8.159025154525951"><ele>372.83333333333337</ele><time>2026-03-22T10:11:06Z</time></trkpt><trkpt lat="44.02030782932162" lon="8.159093040122954"><ele>371.0</ele><time>2026-03-22T10:11:25Z</time></trkpt><trkpt lat="44.02022533637755" lon="8.159115278974191"><ele>371.0</ele><time>2026-03-22T10:11:26Z</time></trkpt><trkpt lat="44.02010785593074" lon="8.1591784115507"><ele>371.0</ele><time>2026-03-22T10:11:28Z</time></trkpt><trkpt lat="44.01996324735606" lon="8.159021908325018"><ele>371.0</ele><time>2026-03-22T10:11:29Z</time></trkpt><trkpt lat="44.019876227039305" lon="8.159093996296173"><ele>371.0</ele><time>2026-03-22T10:11:31Z</time></trkpt><trkpt lat="44.01977914126719" lon="8.159146490901126"><ele>365.8</ele><time>2026-03-22T10:11:33Z</time></trkpt><trkpt lat="44.01969945344965" lon="8.159189578792095"><ele>360.6</ele><time>2026-03-22T10:11:35Z</time></trkpt><trkpt lat="44.01964006191732" lon="8.159245281221738"><ele>355.4</ele><time>2026-03-22T10:11:37Z</time></trkpt><trkpt lat="44.01963430328918" lon="8.159378007170172"><ele>350.2</ele><time>2026-03-22T10:11:38Z</time></trkpt><trkpt lat="44.01974013941899" lon="8.159441471981362"><ele>345.0</ele><time>2026-03-22T10:11:40Z</time></trkpt><trkpt lat="44.01985791349498" lon="8.159508905146597"><ele>345.0</ele><time>2026-03-22T10:11:42Z</time></trkpt><trkpt lat="44.019932722876085" lon="8.159529298269387"><ele>345.0</ele><time>2026-03-22T10:11:43Z</time></trkpt><trkpt lat="44.020003641941955" lon="8.15954667042904"><ele>345.0</ele><time>2026-03-22T10:11:44Z</time></trkpt><trkpt lat="44.02013929396562" lon="8.159580124300408"><ele>345.0</ele><time>2026-03-22T10:11:46Z</time></trkpt><trkpt lat="44.020226395458366" lon="8.159656273529654"><ele>345.0</ele><time>2026-03-22T10:11:47Z</time></trkpt><trkpt lat="44.02030115893521" lon="8.159684451852288"><ele>347.3333333333333</ele><time>2026-03-22T10:11:48Z</time></trkpt><trkpt lat="44.02036314904747" lon="8.159744253725972"><ele>349.6666666666667</ele><time>2026-03-22T10:11:49Z</time></trkpt><trkpt lat="44.02041247585998" lon="8.159848779453437"><ele>352.0</ele><time>2026-03-22T10:11:49.999Z</time></trkpt><trkpt lat="44.02038558607286" lon="8.159993932037661"><ele>354.33333333333337</ele><time>2026-03-22T10:11:50.999Z</time></trkpt><trkpt lat="44.02039878569623" lon="8.160102269591253"><ele>356.6666666666667</ele><time>2026-03-22T10:11:51.999Z</time></trkpt><trkpt lat="44.020412530559675" lon="8.160236217201728"><ele>359.0</ele><time>2026-03-22T10:11:52.999Z</time></trkpt><trkpt lat="44.02041928746573" lon="8.160362940737189"><ele>359.0</ele><time>2026-03-22T10:11:53.999Z</time></trkpt><trkpt lat="44.02040487199475" lon="8.160475463944772"><ele>359.0</ele><time>2026-03-22T10:11:54.999Z</time></trkpt><trkpt lat="44.020419317918616" lon="8.160597945150156"><ele>359.0</ele><time>2026-03-22T10:11:55.999Z</time></trkpt><trkpt lat="44.020374512856776" lon="8.160716793186749"><ele>359.0</ele><time>2026-03-22T10:11:56.999Z</time></trkpt><trkpt lat="44.020288973083304" lon="8.160823764274529"><ele>359.0</ele><time>2026-03-22T10:11:57.999Z</time></trkpt><trkpt lat="44.02023544236571" lon="8.160907207877063"><ele>358.4</ele><time>2026-03-22T10:11:58.999Z</time></trkpt><trkpt lat="44.02018294927594" lon="8.16098210235933"><ele>357.79999999999995</ele><time>2026-03-22T10:11:59.999Z</time></trkpt><trkpt lat="44.02009642883667" lon="8.161075719236601"><ele>357.20000000000005</ele><time>2026-03-22T10:12:01.999Z</time></trkpt><trkpt lat="44.02002436295922" lon="8.16107965957567"><ele>356.6</ele><time>2026-03-22T10:12:04.999Z</time></trkpt><trkpt lat="44.01994260686524" lon="8.161204270882887"><ele>356.0</ele><time>2026-03-22T10:12:07.999Z</time></trkpt><trkpt lat="44.01989134169546" lon="8.161320757597165"><ele>356.20000000000005</ele><time>2026-03-22T10:12:08.999Z</time></trkpt><trkpt lat="44.01983526922031" lon="8.161447310383446"><ele>356.40000000000003</ele><time>2026-03-22T10:12:09.999Z</time></trkpt><trkpt lat="44.019789037957615" lon="8.161588040308652"><ele>356.6</ele><time>2026-03-22T10:12:10.999Z</time></trkpt><trkpt lat="44.019725880798354" lon="8.161703201225677"><ele>356.8</ele><time>2026-03-22T10:12:11.999Z</time></trkpt><trkpt lat="44.0196642498616" lon="8.16177881180143"><ele>357.0</ele><time>2026-03-22T10:12:12.999Z</time></trkpt><trkpt lat="44.019594995164226" lon="8.161824531465042"><ele>357.0</ele><time>2026-03-22T10:12:13.999Z</time></trkpt><trkpt lat="44.01951727803551" lon="8.161848591423889"><ele>357.0</ele><time>2026-03-22T10:12:14.999Z</time></trkpt><trkpt lat="44.01943485580723" lon="8.161852310480317"><ele>357.0</ele><time>2026-03-22T10:12:15.999Z</time></trkpt><trkpt lat="44.019346255581446" lon="8.16185735199308"><ele>357.0</ele><time>2026-03-22T10:12:16.999Z</time></trkpt><trkpt lat="44.01926459031546" lon="8.161868781952583"><ele>357.0</ele><time>2026-03-22T10:12:17.999Z</time></trkpt><trkpt lat="44.01918092856918" lon="8.161864822663134"><ele>357.0</ele><time>2026-03-22T10:12:18.999Z</time></trkpt><trkpt lat="44.01908707411175" lon="8.161868269741325"><ele>354.6666666666667</ele><time>2026-03-22T10:12:19.999Z</time></trkpt><trkpt lat="44.019004857952396" lon="8.161898125628735"><ele>352.3333333333333</ele><time>2026-03-22T10:12:20.999Z</time></trkpt><trkpt lat="44.018926743079156" lon="8.161945986940998"><ele>350.0</ele><time>2026-03-22T10:12:21.999Z</time></trkpt><trkpt lat="44.01883212855409" lon="8.161964168967913"><ele>347.66666666666663</ele><time>2026-03-22T10:12:22.999Z</time></trkpt><trkpt lat="44.018760512867885" lon="8.162026696071667"><ele>345.3333333333333</ele><time>2026-03-22T10:12:23.999Z</time></trkpt><trkpt lat="44.018805233261304" lon="8.16211700128668"><ele>343.0</ele><time>2026-03-22T10:12:58Z</time></trkpt><trkpt lat="44.018912240578764" lon="8.162098368760557"><ele>343.0</ele><time>2026-03-22T10:13:01Z</time></trkpt><trkpt lat="44.019042977663716" lon="8.16206157775348"><ele>343.0</ele><time>2026-03-22T10:13:03Z</time></trkpt><trkpt lat="44.01911308043465" lon="8.16205337657093"><ele>343.0</ele><time>2026-03-22T10:13:04Z</time></trkpt><trkpt lat="44.0192009236028" lon="8.162063141899482"><ele>343.0</ele><time>2026-03-22T10:13:05Z</time></trkpt><trkpt lat="44.0192844315064" lon="8.16208482750717"><ele>343.0</ele><time>2026-03-22T10:13:06Z</time></trkpt><trkpt lat="44.019380053623486" lon="8.162103787156779"><ele>345.79999999999995</ele><time>2026-03-22T10:13:07Z</time></trkpt><trkpt lat="44.019481964855125" lon="8.162125810660356"><ele>348.6</ele><time>2026-03-22T10:13:08Z</time></trkpt><trkpt lat="44.01959225376624" lon="8.162171758914251"><ele>351.4</ele><time>2026-03-22T10:13:09Z</time></trkpt><trkpt lat="44.019687339212076" lon="8.162271071150405"><ele>354.20000000000005</ele><time>2026-03-22T10:13:10Z</time></trkpt><trkpt lat="44.01979176109214" lon="8.162327662729178"><ele>357.0</ele><time>2026-03-22T10:13:11Z</time></trkpt><trkpt lat="44.01989040434922" lon="8.16232369544162"><ele>357.0</ele><time>2026-03-22T10:13:12Z</time></trkpt><trkpt lat="44.01997841392297" lon="8.162306528529122"><ele>357.0</ele><time>2026-03-22T10:13:13Z</time></trkpt><trkpt lat="44.020054263723424" lon="8.162307683189434"><ele>357.0</ele><time>2026-03-22T10:13:15Z</time></trkpt><trkpt lat="44.02000859284037" lon="8.162381498203198"><ele>357.0</ele><time>2026-03-22T10:13:17Z</time></trkpt><trkpt lat="44.01994749788186" lon="8.162402901922134"><ele>357.0</ele><time>2026-03-22T10:13:18Z</time></trkpt><trkpt lat="44.019864646236925" lon="8.162429613156085"><ele>357.0</ele><time>2026-03-22T10:13:19Z</time></trkpt><trkpt lat="44.01977285183298" lon="8.162460283526888"><ele>361.0</ele><time>2026-03-22T10:13:20Z</time></trkpt><trkpt lat="44.01967243469974" lon="8.162480178802406"><ele>365.0</ele><time>2026-03-22T10:13:21Z</time></trkpt><trkpt lat="44.0195651439281" lon="8.162466349819306"><ele>369.0</ele><time>2026-03-22T10:13:22Z</time></trkpt><trkpt lat="44.019497944396385" lon="8.162472835870993"><ele>373.0</ele><time>2026-03-22T10:13:23Z</time></trkpt><trkpt lat="44.01948582154295" lon="8.16257452662572"><ele>377.0</ele><time>2026-03-22T10:13:25Z</time></trkpt><trkpt lat="44.01960174452372" lon="8.162639441295218"><ele>377.0</ele><time>2026-03-22T10:13:27Z</time></trkpt><trkpt lat="44.01970279598154" lon="8.162639981352351"><ele>377.0</ele><time>2026-03-22T10:13:28Z</time></trkpt><trkpt lat="44.01981631942143" lon="8.162643736869592"><ele>377.0</ele><time>2026-03-22T10:13:29Z</time></trkpt><trkpt lat="44.01995182551788" lon="8.162674174064213"><ele>377.0</ele><time>2026-03-22T10:13:30Z</time></trkpt><trkpt lat="44.0200898082237" lon="8.16269607424343"><ele>380.20000000000005</ele><time>2026-03-22T10:13:31Z</time></trkpt><trkpt lat="44.020211163309284" lon="8.162700110381387"><ele>383.4</ele><time>2026-03-22T10:13:32Z</time></trkpt><trkpt lat="44.020288173574556" lon="8.162678100997269"><ele>386.6</ele><time>2026-03-22T10:13:33Z</time></trkpt><trkpt lat="44.02034435451338" lon="8.162740209364236"><ele>389.79999999999995</ele><time>2026-03-22T10:13:35Z</time></trkpt><trkpt lat="44.020278090427965" lon="8.162842308612246"><ele>393.0</ele><time>2026-03-22T10:13:36.999Z</time></trkpt><trkpt lat="44.0201914684746" lon="8.16287019542201"><ele>393.0</ele><time>2026-03-22T10:13:37.999Z</time></trkpt><trkpt lat="44.020093967907805" lon="8.16290759777928"><ele>393.0</ele><time>2026-03-22T10:13:38.999Z</time></trkpt><trkpt lat="44.01998700968004" lon="8.162961102316926"><ele>393.0</ele><time>2026-03-22T10:13:39.999Z</time></trkpt><trkpt lat="44.0199096638148" lon="8.163027247519299"><ele>393.0</ele><time>2026-03-22T10:13:40.999Z</time></trkpt><trkpt lat="44.01989031388562" lon="8.163173630468442"><ele>393.0</ele><time>2026-03-22T10:13:42.999Z</time></trkpt><trkpt lat="44.020002749278696" lon="8.163281091368836"><ele>393.0</ele><time>2026-03-22T10:13:44.999Z</time></trkpt><trkpt lat="44.02009165473456" lon="8.163275052368242"><ele>393.0</ele><time>2026-03-22T10:13:45.999Z</time></trkpt><trkpt lat="44.02018929095909" lon="8.163223247624499"><ele>393.0</ele><time>2026-03-22T10:13:46.999Z</time></trkpt><trkpt lat="44.02031285052536" lon="8.163135132551636"><ele>393.0</ele><time>2026-03-22T10:13:47.999Z</time></trkpt><trkpt lat="44.02044679666393" lon="8.16305322409974"><ele>393.0</ele><time>2026-03-22T10:13:48.999Z</time></trkpt><trkpt lat="44.02059355838132" lon="8.163008003848777"><ele>393.0</ele><time>2026-03-22T10:13:49.999Z</time></trkpt><trkpt lat="44.02075341649181" lon="8.163079460992764"><ele>393.0</ele><time>2026-03-22T10:13:50.999Z</time></trkpt><trkpt lat="44.02090173613048" lon="8.163074926181258"><ele>395.75</ele><time>2026-03-22T10:13:51.999Z</time></trkpt><trkpt lat="44.02101439750867" lon="8.162976951478438"><ele>398.5</ele><time>2026-03-22T10:13:52.999Z</time></trkpt><trkpt lat="44.02111635963675" lon="8.162897764943917"><ele>401.25</ele><time>2026-03-22T10:13:53.999Z</time></trkpt><trkpt lat="44.021244465846884" lon="8.162806882124013"><ele>404.0</ele><time>2026-03-22T10:13:54.999Z</time></trkpt><trkpt lat="44.02139492690442" lon="8.162700801475832"><ele>404.0</ele><time>2026-03-22T10:13:55.999Z</time></trkpt><trkpt lat="44.02153868039423" lon="8.162611351526738"><ele>404.0</ele><time>2026-03-22T10:13:56.999Z</time></trkpt><trkpt lat="44.021665463371086" lon="8.162526554875567"><ele>404.0</ele><time>2026-03-22T10:13:57.999Z</time></trkpt><trkpt lat="44.02176128024808" lon="8.162453559162255"><ele>404.0</ele><time>2026-03-22T10:13:58.999Z</time></trkpt><trkpt lat="44.02183606283824" lon="8.162425277284125"><ele>406.4</ele><time>2026-03-22T10:13:59.999Z</time></trkpt><trkpt lat="44.02194345834" lon="8.16255442841312"><ele>408.79999999999995</ele><time>2026-03-22T10:14:00.999Z</time></trkpt><trkpt lat="44.0220245900957" lon="8.162603329782334"><ele>411.20000000000005</ele><time>2026-03-22T10:14:01.999Z</time></trkpt><trkpt lat="44.02210792406103" lon="8.162630970720663"><ele>413.6</ele><time>2026-03-22T10:14:02.999Z</time></trkpt><trkpt lat="44.022213978641275" lon="8.162594324691284"><ele>416.0</ele><time>2026-03-22T10:14:03.999Z</time></trkpt><trkpt lat="44.0223289674777" lon="8.162567213609758"><ele>416.0</ele><time>2026-03-22T10:14:04.999Z</time></trkpt><trkpt lat="44.022428015557814" lon="8.162570854323075"><ele>416.0</ele><time>2026-03-22T10:14:05.999Z</time></trkpt><trkpt lat="44.022501124633166" lon="8.162606756495455"><ele>416.0</ele><time>2026-03-22T10:14:06.999Z</time></trkpt><trkpt lat="44.022555908352444" lon="8.162722944940189"><ele>416.0</ele><time>2026-03-22T10:14:07.999Z</time></trkpt><trkpt lat="44.022659980308546" lon="8.162822203067002"><ele>416.0</ele><time>2026-03-22T10:14:08.999Z</time></trkpt><trkpt lat="44.02280880228528" lon="8.162873778111777"><ele>414.75</ele><time>2026-03-22T10:14:09.999Z</time></trkpt><trkpt lat="44.02294192235248" lon="8.162978387279885"><ele>413.5</ele><time>2026-03-22T10:14:10.999Z</time></trkpt><trkpt lat="44.02302432919968" lon="8.163093940238046"><ele>412.25</ele><time>2026-03-22T10:14:11.999Z</time></trkpt><trkpt lat="44.02309288766881" lon="8.1632901680239"><ele>411.0</ele><time>2026-03-22T10:14:12.999Z</time></trkpt><trkpt lat="44.02322791804483" lon="8.163419757968796"><ele>422.33333333333337</ele><time>2026-03-22T10:14:13.999Z</time></trkpt><trkpt lat="44.02336333299319" lon="8.163544490326997"><ele>433.6666666666667</ele><time>2026-03-22T10:14:14.999Z</time></trkpt><trkpt lat="44.02350601524211" lon="8.16369539978886"><ele>445.0</ele><time>2026-03-22T10:14:15.999Z</time></trkpt><trkpt lat="44.023654727393875" lon="8.163858902230345"><ele>439.0</ele><time>2026-03-22T10:14:16.999Z</time></trkpt><trkpt lat="44.023775026329595" lon="8.16404580034717"><ele>433.0</ele><time>2026-03-22T10:14:17.999Z</time></trkpt><trkpt lat="44.02391264390426" lon="8.16422880105186"><ele>427.0</ele><time>2026-03-22T10:14:18.999Z</time></trkpt><trkpt lat="44.02404350110497" lon="8.16438800467702"><ele>436.0</ele><time>2026-03-22T10:14:19.999Z</time></trkpt><trkpt lat="44.024161971431184" lon="8.16454519579841"><ele>445.0</ele><time>2026-03-22T10:14:20.999Z</time></trkpt><trkpt lat="44.02427713082964" lon="8.164646863352669"><ele>454.0</ele><time>2026-03-22T10:14:21.999Z</time></trkpt><trkpt lat="44.02433915064753" lon="8.164704067299045"><ele>463.0</ele><time>2026-03-22T10:14:22.999Z</time></trkpt><trkpt lat="44.024453592777306" lon="8.164685777493084"><ele>463.0</ele><time>2026-03-22T10:14:23.999Z</time></trkpt><trkpt lat="44.02452936214602" lon="8.164723662722523"><ele>462.99999999999994</ele><time>2026-03-22T10:14:26.999Z</time></trkpt><trkpt lat="44.0245463460776" lon="8.164853615641126"><ele>462.99999999999994</ele><time>2026-03-22T10:14:27.999Z</time></trkpt><trkpt lat="44.024588613454874" lon="8.164948944442976"><ele>463.0</ele><time>2026-03-22T10:14:28.999Z</time></trkpt><trkpt lat="44.02463574934617" lon="8.16508599028628"><ele>463.0</ele><time>2026-03-22T10:14:29.999Z</time></trkpt><trkpt lat="44.024687130929756" lon="8.165201673208783"><ele>461.00000000000006</ele><time>2026-03-22T10:14:30.999Z</time></trkpt><trkpt lat="44.02473131472698" lon="8.165271243149899"><ele>459.0</ele><time>2026-03-22T10:14:31.999Z</time></trkpt><trkpt lat="44.02480123226764" lon="8.165331159872453"><ele>457.0</ele><time>2026-03-22T10:14:32.999Z</time></trkpt><trkpt lat="44.02486486735998" lon="8.165386179069497"><ele>455.0</ele><time>2026-03-22T10:14:33.999Z</time></trkpt><trkpt lat="44.024858914051485" lon="8.165518598267903"><ele>453.00000000000006</ele><time>2026-03-22T10:14:35.999Z</time></trkpt><trkpt lat="44.02478673587539" lon="8.165594388496135"><ele>451.0</ele><time>2026-03-22T10:14:36.999Z</time></trkpt><trkpt lat="44.02467837288814" lon="8.165675322140938"><ele>451.0</ele><time>2026-03-22T10:14:37.999Z</time></trkpt><trkpt lat="44.024604639167805" lon="8.165763741015999"><ele>451.0</ele><time>2026-03-22T10:14:39Z</time></trkpt><trkpt lat="44.02456512055497" lon="8.16586315408194"><ele>451.0</ele><time>2026-03-22T10:14:40Z</time></trkpt><trkpt lat="44.024524751180515" lon="8.16603773481901"><ele>451.0</ele><time>2026-03-22T10:14:42Z</time></trkpt><trkpt lat="44.02450977255749" lon="8.166174407098646"><ele>451.0</ele><time>2026-03-22T10:14:43Z</time></trkpt><trkpt lat="44.02446049041408" lon="8.166283624631424"><ele>451.00000000000006</ele><time>2026-03-22T10:14:44Z</time></trkpt><trkpt lat="44.024404372728945" lon="8.166368103484555"><ele>451.0</ele><time>2026-03-22T10:14:45Z</time></trkpt><trkpt lat="44.024490481089465" lon="8.166424265051386"><ele>451.0</ele><time>2026-03-22T10:14:47Z</time></trkpt><trkpt lat="44.024598214132865" lon="8.166413497936269"><ele>451.0</ele><time>2026-03-22T10:14:49Z</time></trkpt><trkpt lat="44.02465881243761" lon="8.166384092360747"><ele>451.00000000000006</ele><time>2026-03-22T10:14:50Z</time></trkpt><trkpt lat="44.02473471588512" lon="8.166339725330387"><ele>451.0</ele><time>2026-03-22T10:14:51Z</time></trkpt><trkpt lat="44.02482400256551" lon="8.166268810002196"><ele>451.00000000000006</ele><time>2026-03-22T10:14:52Z</time></trkpt><trkpt lat="44.02490547074648" lon="8.166225202526306"><ele>451.0</ele><time>2026-03-22T10:14:53Z</time></trkpt><trkpt lat="44.02499307170757" lon="8.166310314502041"><ele>451.0</ele><time>2026-03-22T10:14:56Z</time></trkpt><trkpt lat="44.0250683251127" lon="8.166338628735772"><ele>451.0</ele><time>2026-03-22T10:14:57Z</time></trkpt><trkpt lat="44.025144999487466" lon="8.166377254382525"><ele>451.00000000000006</ele><time>2026-03-22T10:14:58Z</time></trkpt><trkpt lat="44.025222116205434" lon="8.166400270845816"><ele>451.0</ele><time>2026-03-22T10:14:59Z</time></trkpt><trkpt lat="44.02526282796583" lon="8.16647320257915"><ele>454.00000000000006</ele><time>2026-03-22T10:15:00Z</time></trkpt><trkpt lat="44.025326161001104" lon="8.166552175469226"><ele>457.0</ele><time>2026-03-22T10:15:01Z</time></trkpt><trkpt lat="44.02540981405449" lon="8.166604397134321"><ele>460.0</ele><time>2026-03-22T10:15:02Z</time></trkpt><trkpt lat="44.025470899379705" lon="8.166629656582263"><ele>463.0</ele><time>2026-03-22T10:15:03Z</time></trkpt><trkpt lat="44.02555583977529" lon="8.166652838100836"><ele>466.00000000000006</ele><time>2026-03-22T10:15:04Z</time></trkpt><trkpt lat="44.02561119751835" lon="8.16672259988159"><ele>469.0</ele><time>2026-03-22T10:15:05Z</time></trkpt><trkpt lat="44.0256928798811" lon="8.166843228084385"><ele>469.00000000000006</ele><time>2026-03-22T10:15:07Z</time></trkpt><trkpt lat="44.02575911761043" lon="8.166913470844305"><ele>469.0</ele><time>2026-03-22T10:15:08Z</time></trkpt><trkpt lat="44.02582017284064" lon="8.166977284721357"><ele>469.0</ele><time>2026-03-22T10:15:09Z</time></trkpt><trkpt lat="44.02588815583028" lon="8.167037806295202"><ele>469.0</ele><time>2026-03-22T10:15:10Z</time></trkpt><trkpt lat="44.02596295707301" lon="8.16705124399141"><ele>469.00000000000006</ele><time>2026-03-22T10:15:12Z</time></trkpt><trkpt lat="44.02606833250357" lon="8.167041139545411"><ele>469.0</ele><time>2026-03-22T10:15:14Z</time></trkpt><trkpt lat="44.026146656845334" lon="8.167052356516212"><ele>471.4</ele><time>2026-03-22T10:15:15Z</time></trkpt><trkpt lat="44.026201442894234" lon="8.167096660427667"><ele>473.79999999999995</ele><time>2026-03-22T10:15:16Z</time></trkpt><trkpt lat="44.02629898045151" lon="8.167117454274146"><ele>476.20000000000005</ele><time>2026-03-22T10:15:18Z</time></trkpt><trkpt lat="44.0263955894137" lon="8.16719330663437"><ele>478.6</ele><time>2026-03-22T10:15:20Z</time></trkpt><trkpt lat="44.02653219265741" lon="8.167153684649383"><ele>481.0</ele><time>2026-03-22T10:15:22Z</time></trkpt><trkpt lat="44.026606126558875" lon="8.167114822379284"><ele>483.50000000000006</ele><time>2026-03-22T10:15:24Z</time></trkpt><trkpt lat="44.02666702371524" lon="8.167189773205763"><ele>486.0</ele><time>2026-03-22T10:15:25Z</time></trkpt><trkpt lat="44.0267497607377" lon="8.167223379984387"><ele>488.5</ele><time>2026-03-22T10:15:27Z</time></trkpt><trkpt lat="44.02682804121017" lon="8.167235029007744"><ele>491.0</ele><time>2026-03-22T10:15:29Z</time></trkpt><trkpt lat="44.026890677422536" lon="8.167205439254236"><ele>493.50000000000006</ele><time>2026-03-22T10:15:30Z</time></trkpt><trkpt lat="44.02694721154345" lon="8.167152303829592"><ele>496.0</ele><time>2026-03-22T10:15:31Z</time></trkpt><trkpt lat="44.02703735667165" lon="8.167152163907415"><ele>496.00000000000006</ele><time>2026-03-22T10:15:33Z</time></trkpt><trkpt lat="44.02712227414863" lon="8.167123408958886"><ele>496.0</ele><time>2026-03-22T10:15:35Z</time></trkpt><trkpt lat="44.02718763424308" lon="8.167139996239777"><ele>496.0</ele><time>2026-03-22T10:15:36Z</time></trkpt><trkpt lat="44.02726838271522" lon="8.167121172723839"><ele>496.0</ele><time>2026-03-22T10:15:38Z</time></trkpt><trkpt lat="44.02730287138212" lon="8.167249229892787"><ele>496.00000000000006</ele><time>2026-03-22T10:15:40Z</time></trkpt><trkpt lat="44.02736599432124" lon="8.167328680096235"><ele>496.0</ele><time>2026-03-22T10:15:42Z</time></trkpt><trkpt lat="44.02748367770385" lon="8.16733171477255"><ele>492.6666666666667</ele><time>2026-03-22T10:15:44Z</time></trkpt><trkpt lat="44.02757478445605" lon="8.167375482723637"><ele>489.33333333333337</ele><time>2026-03-22T10:15:45Z</time></trkpt><trkpt lat="44.02765615720047" lon="8.16738872581343"><ele>486.0</ele><time>2026-03-22T10:15:46Z</time></trkpt><trkpt lat="44.02773768315552" lon="8.167371822084528"><ele>482.66666666666663</ele><time>2026-03-22T10:15:48Z</time></trkpt><trkpt lat="44.02778881547046" lon="8.167434119955429"><ele>479.3333333333333</ele><time>2026-03-22T10:15:49Z</time></trkpt><trkpt lat="44.02785623836422" lon="8.167454187953354"><ele>476.0</ele><time>2026-03-22T10:15:50Z</time></trkpt><trkpt lat="44.02795173724342" lon="8.167495586680687"><ele>475.99999999999994</ele><time>2026-03-22T10:15:52Z</time></trkpt><trkpt lat="44.02807281114991" lon="8.167583031808032"><ele>476.0</ele><time>2026-03-22T10:15:54Z</time></trkpt><trkpt lat="44.02813942133352" lon="8.167585788495376"><ele>476.0</ele><time>2026-03-22T10:15:55Z</time></trkpt><trkpt lat="44.02822844920025" lon="8.1675960575509"><ele>476.0</ele><time>2026-03-22T10:15:56Z</time></trkpt><trkpt lat="44.02827894168805" lon="8.167648354518988"><ele>475.99999999999994</ele><time>2026-03-22T10:15:57Z</time></trkpt><trkpt lat="44.02834822445038" lon="8.167720360718688"><ele>476.0</ele><time>2026-03-22T10:15:59Z</time></trkpt><trkpt lat="44.02850403278473" lon="8.16773100700207"><ele>479.4</ele><time>2026-03-22T10:16:01Z</time></trkpt><trkpt lat="44.028568102641465" lon="8.167757391663939"><ele>482.8</ele><time>2026-03-22T10:16:01.999Z</time></trkpt><trkpt lat="44.02866451003223" lon="8.167870539700857"><ele>486.19999999999993</ele><time>2026-03-22T10:16:03.999Z</time></trkpt><trkpt lat="44.02873029222971" lon="8.167908483235681"><ele>489.59999999999997</ele><time>2026-03-22T10:16:04.999Z</time></trkpt><trkpt lat="44.02879736835224" lon="8.167943808934101"><ele>493.0</ele><time>2026-03-22T10:16:05.999Z</time></trkpt><trkpt lat="44.02891318834255" lon="8.167913465386496"><ele>493.00000000000006</ele><time>2026-03-22T10:16:07.999Z</time></trkpt><trkpt lat="44.028987877589195" lon="8.167914441438583"><ele>493.0</ele><time>2026-03-22T10:16:08.999Z</time></trkpt><trkpt lat="44.029053367191395" lon="8.167893420796295"><ele>493.0</ele><time>2026-03-22T10:16:10.999Z</time></trkpt><trkpt lat="44.029139968548954" lon="8.167913962669699"><ele>493.0</ele><time>2026-03-22T10:16:12.999Z</time></trkpt><trkpt lat="44.029204158731886" lon="8.16791453017386"><ele>493.00000000000006</ele><time>2026-03-22T10:16:13.999Z</time></trkpt><trkpt lat="44.02930532761789" lon="8.167899275930989"><ele>493.0</ele><time>2026-03-22T10:16:15.999Z</time></trkpt><trkpt lat="44.02938468346403" lon="8.167912572882038"><ele>494.1666666666667</ele><time>2026-03-22T10:16:17.999Z</time></trkpt><trkpt lat="44.02943501079744" lon="8.167979678442808"><ele>495.33333333333337</ele><time>2026-03-22T10:16:19.999Z</time></trkpt><trkpt lat="44.02951510029463" lon="8.168068559581368"><ele>496.5</ele><time>2026-03-22T10:16:21.999Z</time></trkpt><trkpt lat="44.02958048995215" lon="8.168070494751314"><ele>497.66666666666663</ele><time>2026-03-22T10:16:23.999Z</time></trkpt><trkpt lat="44.0296817462884" lon="8.168116215155944"><ele>498.8333333333333</ele><time>2026-03-22T10:16:25.999Z</time></trkpt><trkpt lat="44.02973334942213" lon="8.168176924705596"><ele>500.0</ele><time>2026-03-22T10:16:26.999Z</time></trkpt><trkpt lat="44.02980361591827" lon="8.168243126962413"><ele>496.66666666666663</ele><time>2026-03-22T10:16:27.999Z</time></trkpt><trkpt lat="44.029849543293274" lon="8.16835971248187"><ele>493.3333333333333</ele><time>2026-03-22T10:16:28.999Z</time></trkpt><trkpt lat="44.029861783712576" lon="8.16847581959833"><ele>490.0</ele><time>2026-03-22T10:16:29.999Z</time></trkpt><trkpt lat="44.02992823378959" lon="8.168576810779426"><ele>486.66666666666663</ele><time>2026-03-22T10:16:31.999Z</time></trkpt><trkpt lat="44.0299834556038" lon="8.16863115870406"><ele>483.3333333333333</ele><time>2026-03-22T10:16:32.999Z</time></trkpt><trkpt lat="44.0300554389358" lon="8.168658463567523"><ele>480.0</ele><time>2026-03-22T10:16:33.999Z</time></trkpt><trkpt lat="44.030141862048694" lon="8.168676436828337"><ele>480.0</ele><time>2026-03-22T10:16:34.999Z</time></trkpt><trkpt lat="44.0302418110546" lon="8.168615395905514"><ele>480.0</ele><time>2026-03-22T10:16:36.999Z</time></trkpt><trkpt lat="44.03037037762438" lon="8.168654514214394"><ele>480.0</ele><time>2026-03-22T10:16:42.999Z</time></trkpt><trkpt lat="44.03044353659581" lon="8.168742728649754"><ele>480.0</ele><time>2026-03-22T10:16:43.999Z</time></trkpt><trkpt lat="44.03052259071459" lon="8.168853937938955"><ele>480.0</ele><time>2026-03-22T10:16:45Z</time></trkpt><trkpt lat="44.03059156932348" lon="8.168925481266143"><ele>480.0</ele><time>2026-03-22T10:16:46Z</time></trkpt><trkpt lat="44.03061575237597" lon="8.169042633683066"><ele>480.0</ele><time>2026-03-22T10:16:48Z</time></trkpt><trkpt lat="44.03065905200565" lon="8.169141447075425"><ele>480.0</ele><time>2026-03-22T10:16:50Z</time></trkpt><trkpt lat="44.03070460238393" lon="8.169224841385892"><ele>480.0</ele><time>2026-03-22T10:16:51Z</time></trkpt><trkpt lat="44.03075196267553" lon="8.169324544078414"><ele>480.0</ele><time>2026-03-22T10:16:53Z</time></trkpt><trkpt lat="44.0307774456848" lon="8.169458893519804"><ele>477.6</ele><time>2026-03-22T10:16:55Z</time></trkpt><trkpt lat="44.03079454865347" lon="8.169589711975721"><ele>475.2</ele><time>2026-03-22T10:16:56Z</time></trkpt><trkpt lat="44.030804634459834" lon="8.169704232401639"><ele>472.79999999999995</ele><time>2026-03-22T10:16:57Z</time></trkpt><trkpt lat="44.03078195495497" lon="8.169812055754338"><ele>470.4</ele><time>2026-03-22T10:16:59Z</time></trkpt><trkpt lat="44.03072487328037" lon="8.16995535984854"><ele>468.0</ele><time>2026-03-22T10:17:02Z</time></trkpt><trkpt lat="44.03069451053364" lon="8.170086197710152"><ele>464.59999999999997</ele><time>2026-03-22T10:17:04Z</time></trkpt><trkpt lat="44.03065920212272" lon="8.170201401626336"><ele>461.19999999999993</ele><time>2026-03-22T10:17:06Z</time></trkpt><trkpt lat="44.0306857373759" lon="8.170336956384629"><ele>457.8</ele><time>2026-03-22T10:17:08Z</time></trkpt><trkpt lat="44.03069254471791" lon="8.170450967787247"><ele>454.4</ele><time>2026-03-22T10:17:10Z</time></trkpt><trkpt lat="44.03068312980457" lon="8.170592705353307"><ele>451.0</ele><time>2026-03-22T10:17:12Z</time></trkpt><trkpt lat="44.03065725838307" lon="8.170711191992833"><ele>450.8</ele><time>2026-03-22T10:17:14Z</time></trkpt><trkpt lat="44.0306275632252" lon="8.170808546416799"><ele>450.6</ele><time>2026-03-22T10:17:17Z</time></trkpt><trkpt lat="44.03059326404752" lon="8.170930297600952"><ele>450.4</ele><time>2026-03-22T10:17:19Z</time></trkpt><trkpt lat="44.030593358522445" lon="8.171062449624216"><ele>450.2</ele><time>2026-03-22T10:17:21Z</time></trkpt><trkpt lat="44.030535834244574" lon="8.171202309970674"><ele>450.0</ele><time>2026-03-22T10:17:23Z</time></trkpt><trkpt lat="44.03053461161128" lon="8.171346603403535"><ele>450.0</ele><time>2026-03-22T10:17:25Z</time></trkpt><trkpt lat="44.030551509070676" lon="8.17150268622279"><ele>450.0</ele><time>2026-03-22T10:17:27Z</time></trkpt><trkpt lat="44.03057076725386" lon="8.17169654943141"><ele>450.0</ele><time>2026-03-22T10:17:29Z</time></trkpt><trkpt lat="44.03057250359526" lon="8.171862312716035"><ele>450.0</ele><time>2026-03-22T10:17:31Z</time></trkpt><trkpt lat="44.03059438970236" lon="8.171978672253715"><ele>449.8</ele><time>2026-03-22T10:17:33Z</time></trkpt><trkpt lat="44.03060101834458" lon="8.17208044043544"><ele>449.6</ele><time>2026-03-22T10:17:34Z</time></trkpt><trkpt lat="44.030563007541616" lon="8.172246937908605"><ele>449.4</ele><time>2026-03-22T10:17:35Z</time></trkpt><trkpt lat="44.03050784637512" lon="8.172349688058965"><ele>449.2</ele><time>2026-03-22T10:17:37Z</time></trkpt><trkpt lat="44.030503968070555" lon="8.172498103348444"><ele>449.0</ele><time>2026-03-22T10:17:39Z</time></trkpt><trkpt lat="44.03049130934028" lon="8.17266358181335"><ele>448.3333333333333</ele><time>2026-03-22T10:17:41Z</time></trkpt><trkpt lat="44.0305311030184" lon="8.172735607946212"><ele>447.66666666666663</ele><time>2026-03-22T10:17:45Z</time></trkpt><trkpt lat="44.03058910272287" lon="8.172839997523402"><ele>447.0</ele><time>2026-03-22T10:18:49.999Z</time></trkpt><trkpt lat="44.030644542398434" lon="8.17293556566568"><ele>446.33333333333337</ele><time>2026-03-22T10:19:40Z</time></trkpt><trkpt lat="44.03068716721611" lon="8.173065887941993"><ele>445.6666666666667</ele><time>2026-03-22T10:19:42Z</time></trkpt><trkpt lat="44.030688246414535" lon="8.173156870312583"><ele>445.0</ele><time>2026-03-22T10:19:50Z</time></trkpt><trkpt lat="44.0307224441253" lon="8.173277269666652"><ele>443.8</ele><time>2026-03-22T10:19:52Z</time></trkpt><trkpt lat="44.03074008483066" lon="8.173394397538171"><ele>442.6</ele><time>2026-03-22T10:19:54Z</time></trkpt><trkpt lat="44.030776260265036" lon="8.173515704703004"><ele>441.4</ele><time>2026-03-22T10:19:56Z</time></trkpt><trkpt lat="44.03075558865011" lon="8.17367600035284"><ele>440.2</ele><time>2026-03-22T10:19:58Z</time></trkpt><trkpt lat="44.03073921269169" lon="8.173813752449142"><ele>439.0</ele><time>2026-03-22T10:20:00Z</time></trkpt><trkpt lat="44.03080896299092" lon="8.173955427726384"><ele>438.33333333333337</ele><time>2026-03-22T10:20:02Z</time></trkpt><trkpt lat="44.030801867377974" lon="8.174069974961052"><ele>437.6666666666667</ele><time>2026-03-22T10:20:04Z</time></trkpt><trkpt lat="44.03077428507076" lon="8.174155136859838"><ele>437.0</ele><time>2026-03-22T10:20:06Z</time></trkpt><trkpt lat="44.030740226931094" lon="8.174263172644626"><ele>436.33333333333337</ele><time>2026-03-22T10:20:08Z</time></trkpt><trkpt lat="44.03069438236235" lon="8.174323379533284"><ele>435.6666666666667</ele><time>2026-03-22T10:20:10Z</time></trkpt><trkpt lat="44.030661772370905" lon="8.17445411277999"><ele>435.0</ele><time>2026-03-22T10:20:11.999Z</time></trkpt><trkpt lat="44.03067943336269" lon="8.174646555576444"><ele>435.0</ele><time>2026-03-22T10:20:13.999Z</time></trkpt><trkpt lat="44.03067223251684" lon="8.174758871865322"><ele>435.0</ele><time>2026-03-22T10:20:14.999Z</time></trkpt><trkpt lat="44.03066285743911" lon="8.174870145058899"><ele>435.0</ele><time>2026-03-22T10:20:15.999Z</time></trkpt><trkpt lat="44.03067892263658" lon="8.175026103427566"><ele>435.0</ele><time>2026-03-22T10:20:17.999Z</time></trkpt><trkpt lat="44.03062591569742" lon="8.175157532394728"><ele>435.0</ele><time>2026-03-22T10:20:19.999Z</time></trkpt><trkpt lat="44.0305816925143" lon="8.175255717354597"><ele>435.3333333333333</ele><time>2026-03-22T10:20:20.999Z</time></trkpt><trkpt lat="44.03053539460347" lon="8.175401024335113"><ele>435.66666666666663</ele><time>2026-03-22T10:20:22.999Z</time></trkpt><trkpt lat="44.030517152078794" lon="8.175497047293254"><ele>436.0</ele><time>2026-03-22T10:20:23.999Z</time></trkpt><trkpt lat="44.03049393029172" lon="8.175584720606066"><ele>436.3333333333333</ele><time>2026-03-22T10:20:24.999Z</time></trkpt><trkpt lat="44.03046861951478" lon="8.175673067848688"><ele>436.66666666666663</ele><time>2026-03-22T10:20:25.999Z</time></trkpt><trkpt lat="44.030430002026826" lon="8.175812313423524"><ele>437.0</ele><time>2026-03-22T10:20:27.999Z</time></trkpt><trkpt lat="44.030361591787695" lon="8.175913447635438"><ele>438.3333333333333</ele><time>2026-03-22T10:20:29.999Z</time></trkpt><trkpt lat="44.030318326202334" lon="8.176000611995327"><ele>439.66666666666663</ele><time>2026-03-22T10:20:30.999Z</time></trkpt><trkpt lat="44.030259044195084" lon="8.176095444382057"><ele>441.0</ele><time>2026-03-22T10:20:32.999Z</time></trkpt><trkpt lat="44.03021414985575" lon="8.176175611334212"><ele>442.33333333333337</ele><time>2026-03-22T10:21:33Z</time></trkpt><trkpt lat="44.030150797492155" lon="8.176290171751496"><ele>443.6666666666667</ele><time>2026-03-22T10:21:35Z</time></trkpt><trkpt lat="44.030113639896484" lon="8.17642487193891"><ele>445.0</ele><time>2026-03-22T10:21:37Z</time></trkpt><trkpt lat="44.03009266259196" lon="8.176544765716457"><ele>446.50000000000006</ele><time>2026-03-22T10:21:39Z</time></trkpt><trkpt lat="44.0300725416261" lon="8.176665481121137"><ele>448.0</ele><time>2026-03-22T10:21:41Z</time></trkpt><trkpt lat="44.030070242956015" lon="8.176754333836646"><ele>449.5</ele><time>2026-03-22T10:21:42Z</time></trkpt><trkpt lat="44.03005933916669" lon="8.1768502048308"><ele>451.0</ele><time>2026-03-22T10:21:43Z</time></trkpt><trkpt lat="44.03002885225706" lon="8.176976186157138"><ele>452.50000000000006</ele><time>2026-03-22T10:21:45Z</time></trkpt><trkpt lat="44.03002915848201" lon="8.177072617829179"><ele>454.0</ele><time>2026-03-22T10:21:46Z</time></trkpt><trkpt lat="44.029993091891654" lon="8.177186809043167"><ele>450.83333333333337</ele><time>2026-03-22T10:21:48Z</time></trkpt><trkpt lat="44.02997292049424" lon="8.177334663365757"><ele>447.6666666666667</ele><time>2026-03-22T10:21:50Z</time></trkpt><trkpt lat="44.02991008628444" lon="8.177469519241162"><ele>444.5</ele><time>2026-03-22T10:21:52Z</time></trkpt><trkpt lat="44.02990646584552" lon="8.177558364627643"><ele>441.33333333333337</ele><time>2026-03-22T10:21:54Z</time></trkpt><trkpt lat="44.02992329172971" lon="8.177653869318734"><ele>438.1666666666667</ele><time>2026-03-22T10:21:55Z</time></trkpt><trkpt lat="44.02991810426541" lon="8.17774973481238"><ele>435.0</ele><time>2026-03-22T10:21:56Z</time></trkpt><trkpt lat="44.02989624958285" lon="8.177864801565738"><ele>435.0</ele><time>2026-03-22T10:21:57Z</time></trkpt><trkpt lat="44.02986176160467" lon="8.177983272281681"><ele>435.0</ele><time>2026-03-22T10:21:58Z</time></trkpt><trkpt lat="44.02982402115933" lon="8.1780889688893"><ele>435.0</ele><time>2026-03-22T10:21:59Z</time></trkpt><trkpt lat="44.02976250366405" lon="8.178145310970715"><ele>435.0</ele><time>2026-03-22T10:22:01Z</time></trkpt><trkpt lat="44.029687629738596" lon="8.178106348006386"><ele>435.0</ele><time>2026-03-22T10:22:03Z</time></trkpt><trkpt lat="44.029603660247304" lon="8.177993943157569"><ele>435.0</ele><time>2026-03-22T10:22:05Z</time></trkpt><trkpt lat="44.029546107698955" lon="8.177954482281805"><ele>435.0</ele><time>2026-03-22T10:22:06Z</time></trkpt><trkpt lat="44.02946227389295" lon="8.177939773720004"><ele>435.0</ele><time>2026-03-22T10:22:08Z</time></trkpt><trkpt lat="44.02939443010158" lon="8.177928534030757"><ele>435.0</ele><time>2026-03-22T10:22:09Z</time></trkpt><trkpt lat="44.0293223936339" lon="8.177933783966656"><ele>435.0</ele><time>2026-03-22T10:22:10Z</time></trkpt><trkpt lat="44.02923029034201" lon="8.178039085726033"><ele>435.0</ele><time>2026-03-22T10:22:12Z</time></trkpt><trkpt lat="44.029213901418494" lon="8.177943209237714"><ele>435.0</ele><time>2026-03-22T10:22:59.999Z</time></trkpt><trkpt lat="44.02925537406015" lon="8.177860917107404"><ele>435.0</ele><time>2026-03-22T10:23:06Z</time></trkpt><trkpt lat="44.02921553068464" lon="8.17773574111533"><ele>435.0</ele><time>2026-03-22T10:23:08Z</time></trkpt><trkpt lat="44.02917770726433" lon="8.177653253675574"><ele>435.0</ele><time>2026-03-22T10:23:10Z</time></trkpt><trkpt lat="44.029110080591764" lon="8.177720628206904"><ele>435.0</ele><time>2026-03-22T10:23:12Z</time></trkpt><trkpt lat="44.02901740027723" lon="8.177762053533492"><ele>435.0</ele><time>2026-03-22T10:23:14Z</time></trkpt><trkpt lat="44.028940430594105" lon="8.177746083527323"><ele>435.0</ele><time>2026-03-22T10:23:16Z</time></trkpt><trkpt lat="44.02891866163832" lon="8.177659355521953"><ele>431.0</ele><time>2026-03-22T10:23:20Z</time></trkpt><trkpt lat="44.02896565443375" lon="8.177568702719416"><ele>427.0</ele><time>2026-03-22T10:23:22Z</time></trkpt><trkpt lat="44.02888505125571" lon="8.177527213210071"><ele>423.0</ele><time>2026-03-22T10:23:25Z</time></trkpt><trkpt lat="44.02881567173224" lon="8.177502093184001"><ele>419.0</ele><time>2026-03-22T10:23:27Z</time></trkpt><trkpt lat="44.02873388590156" lon="8.177429528299163"><ele>415.0</ele><time>2026-03-22T10:23:29Z</time></trkpt><trkpt lat="44.02864874684408" lon="8.17747260238136"><ele>411.0</ele><time>2026-03-22T10:23:31Z</time></trkpt><trkpt lat="44.028575911351325" lon="8.177642910843579"><ele>411.0</ele><time>2026-03-22T10:23:33Z</time></trkpt><trkpt lat="44.028508077415076" lon="8.177705835436914"><ele>411.0</ele><time>2026-03-22T10:23:35Z</time></trkpt><trkpt lat="44.02847617943223" lon="8.17778541154127"><ele>411.0</ele><time>2026-03-22T10:23:36Z</time></trkpt><trkpt lat="44.02843295948124" lon="8.17787245494579"><ele>411.0</ele><time>2026-03-22T10:23:37Z</time></trkpt><trkpt lat="44.02832884970658" lon="8.177959050313657"><ele>411.0</ele><time>2026-03-22T10:23:39Z</time></trkpt><trkpt lat="44.02825205430995" lon="8.17803964913745"><ele>411.0</ele><time>2026-03-22T10:23:41Z</time></trkpt><trkpt lat="44.02817010376196" lon="8.17817135799569"><ele>408.1666666666667</ele><time>2026-03-22T10:23:43Z</time></trkpt><trkpt lat="44.028129678305056" lon="8.178262312450267"><ele>405.33333333333337</ele><time>2026-03-22T10:23:44Z</time></trkpt><trkpt lat="44.02809759800178" lon="8.178339271640159"><ele>402.5</ele><time>2026-03-22T10:23:45Z</time></trkpt><trkpt lat="44.028062375836925" lon="8.178483234951807"><ele>399.6666666666667</ele><time>2026-03-22T10:23:47Z</time></trkpt><trkpt lat="44.02800145027874" lon="8.178587875509923"><ele>396.83333333333337</ele><time>2026-03-22T10:23:50Z</time></trkpt><trkpt lat="44.02794054505092" lon="8.17864969461416"><ele>394.0</ele><time>2026-03-22T10:23:52Z</time></trkpt><trkpt lat="44.02788971742329" lon="8.178741808526485"><ele>394.00000000000006</ele><time>2026-03-22T10:23:53Z</time></trkpt><trkpt lat="44.02782131726914" lon="8.178846038780621"><ele>394.0</ele><time>2026-03-22T10:23:54Z</time></trkpt><trkpt lat="44.02778117188941" lon="8.178918430096655"><ele>394.0</ele><time>2026-03-22T10:23:55Z</time></trkpt><trkpt lat="44.02772983081703" lon="8.178978241676427"><ele>394.0</ele><time>2026-03-22T10:23:56Z</time></trkpt><trkpt lat="44.02765127124937" lon="8.179025266107917"><ele>394.00000000000006</ele><time>2026-03-22T10:23:58Z</time></trkpt><trkpt lat="44.027594902343026" lon="8.179157857177808"><ele>394.0</ele><time>2026-03-22T10:24:00Z</time></trkpt><trkpt lat="44.02754018752817" lon="8.179207052477619"><ele>392.33333333333337</ele><time>2026-03-22T10:24:01Z</time></trkpt><trkpt lat="44.02747359518175" lon="8.17922708028106"><ele>390.6666666666667</ele><time>2026-03-22T10:24:02Z</time></trkpt><trkpt lat="44.027409217292" lon="8.179303671324105"><ele>389.0</ele><time>2026-03-22T10:24:04Z</time></trkpt><trkpt lat="44.0273776269402" lon="8.179380481550291"><ele>387.33333333333337</ele><time>2026-03-22T10:24:05Z</time></trkpt><trkpt lat="44.0273344280961" lon="8.17945779271425"><ele>385.6666666666667</ele><time>2026-03-22T10:24:06Z</time></trkpt><trkpt lat="44.02731797196523" lon="8.179586197838669"><ele>384.0</ele><time>2026-03-22T10:24:08Z</time></trkpt><trkpt lat="44.02728015945795" lon="8.179691686356355"><ele>384.0</ele><time>2026-03-22T10:24:10Z</time></trkpt><trkpt lat="44.027168065209764" lon="8.179716215947158"><ele>384.0</ele><time>2026-03-22T10:24:13Z</time></trkpt><trkpt lat="44.02710274911027" lon="8.179865563089487"><ele>384.0</ele><time>2026-03-22T10:24:15Z</time></trkpt><trkpt lat="44.027002070653324" lon="8.179941547573273"><ele>384.0</ele><time>2026-03-22T10:24:17Z</time></trkpt><trkpt lat="44.02697004950205" lon="8.180059763235532"><ele>384.0</ele><time>2026-03-22T10:24:18Z</time></trkpt><trkpt lat="44.02689994667673" lon="8.180159267281754"><ele>385.6666666666667</ele><time>2026-03-22T10:24:19Z</time></trkpt><trkpt lat="44.026838580313864" lon="8.180212281310771"><ele>387.33333333333337</ele><time>2026-03-22T10:24:20Z</time></trkpt><trkpt lat="44.02677500593171" lon="8.18023070099084"><ele>389.0</ele><time>2026-03-22T10:24:21Z</time></trkpt><trkpt lat="44.02670719948422" lon="8.180211664486004"><ele>390.6666666666667</ele><time>2026-03-22T10:24:21.999Z</time></trkpt><trkpt lat="44.026627808816556" lon="8.180317657776065"><ele>392.33333333333337</ele><time>2026-03-22T10:24:23.999Z</time></trkpt><trkpt lat="44.026563363704604" lon="8.18034661665231"><ele>394.0</ele><time>2026-03-22T10:24:24.999Z</time></trkpt><trkpt lat="44.02651028240979" lon="8.18040549442502"><ele>391.33333333333337</ele><time>2026-03-22T10:24:25.999Z</time></trkpt><trkpt lat="44.02642401228332" lon="8.180457778566389"><ele>388.6666666666667</ele><time>2026-03-22T10:24:27.999Z</time></trkpt><trkpt lat="44.026357675945654" lon="8.180504386015148"><ele>386.0</ele><time>2026-03-22T10:24:28.999Z</time></trkpt><trkpt lat="44.026284169747676" lon="8.180575399920071"><ele>383.33333333333337</ele><time>2026-03-22T10:24:29.999Z</time></trkpt><trkpt lat="44.02621653780381" lon="8.180600723666084"><ele>380.6666666666667</ele><time>2026-03-22T10:24:30.999Z</time></trkpt><trkpt lat="44.02610424047674" lon="8.180657576889887"><ele>378.0</ele><time>2026-03-22T10:24:32.999Z</time></trkpt><trkpt lat="44.02601450617571" lon="8.180715303628896"><ele>378.0</ele><time>2026-03-22T10:24:33.999Z</time></trkpt><trkpt lat="44.02597131605596" lon="8.180798449389986"><ele>378.0</ele><time>2026-03-22T10:24:34.999Z</time></trkpt><trkpt lat="44.02593834904427" lon="8.18088241227635"><ele>378.0</ele><time>2026-03-22T10:24:35.999Z</time></trkpt><trkpt lat="44.02585778754265" lon="8.180900838746867"><ele>378.0</ele><time>2026-03-22T10:24:36.999Z</time></trkpt><trkpt lat="44.02578346046315" lon="8.180953079662494"><ele>378.0</ele><time>2026-03-22T10:24:37.999Z</time></trkpt><trkpt lat="44.02570514768927" lon="8.181018364898879"><ele>378.0</ele><time>2026-03-22T10:24:38.999Z</time></trkpt><trkpt lat="44.025624764446235" lon="8.181084541053341"><ele>373.6666666666667</ele><time>2026-03-22T10:24:39.999Z</time></trkpt><trkpt lat="44.025552619717004" lon="8.181135759091221"><ele>369.3333333333333</ele><time>2026-03-22T10:24:40.999Z</time></trkpt><trkpt lat="44.02548972046533" lon="8.181154530831877"><ele>365.0</ele><time>2026-03-22T10:24:41.999Z</time></trkpt><trkpt lat="44.025428504439475" lon="8.181130304507336"><ele>360.66666666666663</ele><time>2026-03-22T10:24:42.999Z</time></trkpt><trkpt lat="44.02540647211079" lon="8.181045429217829"><ele>356.3333333333333</ele><time>2026-03-22T10:24:43.999Z</time></trkpt><trkpt lat="44.025362777575936" lon="8.180959984553239"><ele>352.0</ele><time>2026-03-22T10:24:45.999Z</time></trkpt><trkpt lat="44.025250375591185" lon="8.181079089921715"><ele>352.0</ele><time>2026-03-22T10:24:47.999Z</time></trkpt><trkpt lat="44.02519785619198" lon="8.181143173006035"><ele>352.0</ele><time>2026-03-22T10:24:48.999Z</time></trkpt><trkpt lat="44.025103821266185" lon="8.181267179295014"><ele>352.0</ele><time>2026-03-22T10:24:50.999Z</time></trkpt><trkpt lat="44.02498285337605" lon="8.181298440915347"><ele>352.0</ele><time>2026-03-22T10:24:52.999Z</time></trkpt><trkpt lat="44.02487680673124" lon="8.181393616576491"><ele>352.0</ele><time>2026-03-22T10:24:54.999Z</time></trkpt><trkpt lat="44.02480433167687" lon="8.181479673329303"><ele>347.8</ele><time>2026-03-22T10:24:56.999Z</time></trkpt><trkpt lat="44.024730189087045" lon="8.181483383810928"><ele>343.6</ele><time>2026-03-22T10:24:58.999Z</time></trkpt><trkpt lat="44.024640112751754" lon="8.181600319436521"><ele>339.40000000000003</ele><time>2026-03-22T10:25:00.999Z</time></trkpt><trkpt lat="44.024605654255616" lon="8.181684736401639"><ele>335.20000000000005</ele><time>2026-03-22T10:25:01.999Z</time></trkpt><trkpt lat="44.024560431600364" lon="8.181819204844636"><ele>331.0</ele><time>2026-03-22T10:25:02.999Z</time></trkpt><trkpt lat="44.02452957053744" lon="8.181944215388251"><ele>331.0</ele><time>2026-03-22T10:25:03.999Z</time></trkpt><trkpt lat="44.024513798383836" lon="8.182049777543938"><ele>331.0</ele><time>2026-03-22T10:25:04.999Z</time></trkpt><trkpt lat="44.02445773760713" lon="8.182196052217021"><ele>331.0</ele><time>2026-03-22T10:25:06.999Z</time></trkpt><trkpt lat="44.02438653201116" lon="8.182332016593882"><ele>331.0</ele><time>2026-03-22T10:25:09Z</time></trkpt><trkpt lat="44.024386863200895" lon="8.182459596220253"><ele>331.0</ele><time>2026-03-22T10:25:10Z</time></trkpt><trkpt lat="44.024377467829154" lon="8.182584116972148"><ele>331.5</ele><time>2026-03-22T10:25:11Z</time></trkpt><trkpt lat="44.02435285218216" lon="8.18268630194845"><ele>332.0</ele><time>2026-03-22T10:25:12Z</time></trkpt><trkpt lat="44.024363485001395" lon="8.182777123206433"><ele>332.5</ele><time>2026-03-22T10:25:13Z</time></trkpt><trkpt lat="44.02437473727668" lon="8.182878796555215"><ele>333.0</ele><time>2026-03-22T10:25:14Z</time></trkpt><trkpt lat="44.024415092717035" lon="8.182986912160487"><ele>333.5</ele><time>2026-03-22T10:25:15Z</time></trkpt><trkpt lat="44.02445858885625" lon="8.1831025788485"><ele>334.0</ele><time>2026-03-22T10:25:16Z</time></trkpt><trkpt lat="44.02450339711057" lon="8.18319761251214"><ele>332.6</ele><time>2026-03-22T10:25:17Z</time></trkpt><trkpt lat="44.02454252826835" lon="8.183288657972533"><ele>331.2</ele><time>2026-03-22T10:25:18Z</time></trkpt><trkpt lat="44.024582026676775" lon="8.183373617131"><ele>329.8</ele><time>2026-03-22T10:25:19Z</time></trkpt><trkpt lat="44.024614286372206" lon="8.183531307343248"><ele>328.40000000000003</ele><time>2026-03-22T10:25:20Z</time></trkpt><trkpt lat="44.02458998542854" lon="8.183667809750274"><ele>327.0</ele><time>2026-03-22T10:25:21Z</time></trkpt><trkpt lat="44.02456251210772" lon="8.183778296000426"><ele>327.0</ele><time>2026-03-22T10:25:22Z</time></trkpt><trkpt lat="44.02449137248962" lon="8.18379923410549"><ele>327.0</ele><time>2026-03-22T10:25:23Z</time></trkpt><trkpt lat="44.02442523138261" lon="8.183902083755275"><ele>327.0</ele><time>2026-03-22T10:25:24Z</time></trkpt><trkpt lat="44.02435633891471" lon="8.184025370445088"><ele>327.0</ele><time>2026-03-22T10:25:25Z</time></trkpt><trkpt lat="44.024282504409" lon="8.184107217879724"><ele>327.0</ele><time>2026-03-22T10:25:26Z</time></trkpt><trkpt lat="44.02422808302996" lon="8.184196319497534"><ele>328.0</ele><time>2026-03-22T10:25:27Z</time></trkpt><trkpt lat="44.02419842912799" lon="8.184299235523614"><ele>329.0</ele><time>2026-03-22T10:25:28Z</time></trkpt><trkpt lat="44.02415245139606" lon="8.184413892072438"><ele>330.0</ele><time>2026-03-22T10:25:29Z</time></trkpt><trkpt lat="44.02411939232453" lon="8.184532364719418"><ele>331.0</ele><time>2026-03-22T10:25:30Z</time></trkpt><trkpt lat="44.0240484721585" lon="8.184648390672717"><ele>332.0</ele><time>2026-03-22T10:25:32Z</time></trkpt><trkpt lat="44.02399828291956" lon="8.184729942438421"><ele>329.33333333333337</ele><time>2026-03-22T10:25:33Z</time></trkpt><trkpt lat="44.023924397122954" lon="8.184800094186237"><ele>326.6666666666667</ele><time>2026-03-22T10:25:35Z</time></trkpt><trkpt lat="44.023867381564344" lon="8.184858783012329"><ele>324.0</ele><time>2026-03-22T10:25:36Z</time></trkpt><trkpt lat="44.02381272232962" lon="8.184906010352194"><ele>321.3333333333333</ele><time>2026-03-22T10:25:37Z</time></trkpt><trkpt lat="44.02374271864749" lon="8.184943864137477"><ele>318.66666666666663</ele><time>2026-03-22T10:25:38Z</time></trkpt><trkpt lat="44.02367235422389" lon="8.184980250878011"><ele>316.0</ele><time>2026-03-22T10:25:39Z</time></trkpt><trkpt lat="44.023542879657704" lon="8.18503469447914"><ele>316.0</ele><time>2026-03-22T10:25:41Z</time></trkpt><trkpt lat="44.02349130706209" lon="8.1851809527145"><ele>316.0</ele><time>2026-03-22T10:25:43Z</time></trkpt><trkpt lat="44.02341487947236" lon="8.185228800809982"><ele>316.0</ele><time>2026-03-22T10:25:45Z</time></trkpt><trkpt lat="44.02335918279428" lon="8.185291110290523"><ele>316.0</ele><time>2026-03-22T10:25:47Z</time></trkpt><trkpt lat="44.02328789551058" lon="8.185340738921237"><ele>316.0</ele><time>2026-03-22T10:25:49Z</time></trkpt><trkpt lat="44.023223640143975" lon="8.185357033455617"><ele>316.0</ele><time>2026-03-22T10:25:51Z</time></trkpt><trkpt lat="44.02316008066806" lon="8.18541403326264"><ele>313.0</ele><time>2026-03-22T10:25:53Z</time></trkpt><trkpt lat="44.02309679699373" lon="8.185462313321398"><ele>310.0</ele><time>2026-03-22T10:25:55Z</time></trkpt><trkpt lat="44.02307924183842" lon="8.185575240137366"><ele>307.0</ele><time>2026-03-22T10:25:57Z</time></trkpt><trkpt lat="44.023010330835945" lon="8.185669668087003"><ele>304.0</ele><time>2026-03-22T10:25:59Z</time></trkpt><trkpt lat="44.02290957803667" lon="8.185683936771998"><ele>301.0</ele><time>2026-03-22T10:26:01Z</time></trkpt><trkpt lat="44.02283238417118" lon="8.1857018203916"><ele>298.0</ele><time>2026-03-22T10:26:03Z</time></trkpt><trkpt lat="44.02275300175357" lon="8.185813106604442"><ele>298.0</ele><time>2026-03-22T10:26:05Z</time></trkpt><trkpt lat="44.02275793484986" lon="8.18590500406883"><ele>298.0</ele><time>2026-03-22T10:26:07Z</time></trkpt><trkpt lat="44.02272676581408" lon="8.186032631426595"><ele>298.0</ele><time>2026-03-22T10:26:09Z</time></trkpt><trkpt lat="44.0226845082269" lon="8.186149050956134"><ele>298.0</ele><time>2026-03-22T10:26:10Z</time></trkpt><trkpt lat="44.022627006696766" lon="8.186220763552166"><ele>298.0</ele><time>2026-03-22T10:26:11Z</time></trkpt><trkpt lat="44.02255801538898" lon="8.186204476534048"><ele>298.0</ele><time>2026-03-22T10:26:13Z</time></trkpt><trkpt lat="44.02247911034276" lon="8.186261482254086"><ele>294.16666666666663</ele><time>2026-03-22T10:26:15Z</time></trkpt><trkpt lat="44.02239525316451" lon="8.18630232146582"><ele>290.3333333333333</ele><time>2026-03-22T10:26:17Z</time></trkpt><trkpt lat="44.02232927881122" lon="8.186309756407393"><ele>286.5</ele><time>2026-03-22T10:26:20Z</time></trkpt><trkpt lat="44.022251543459404" lon="8.18617332570835"><ele>282.6666666666667</ele><time>2026-03-22T10:26:22Z</time></trkpt><trkpt lat="44.022189245881535" lon="8.186145761069156"><ele>278.83333333333337</ele><time>2026-03-22T10:26:24Z</time></trkpt><trkpt lat="44.02215109029419" lon="8.186236109765257"><ele>275.0</ele><time>2026-03-22T10:26:25Z</time></trkpt><trkpt lat="44.02214063380636" lon="8.186392409170088"><ele>275.0</ele><time>2026-03-22T10:26:26.999Z</time></trkpt><trkpt lat="44.022038305459446" lon="8.186390996701395"><ele>275.0</ele><time>2026-03-22T10:26:28.999Z</time></trkpt><trkpt lat="44.0219517955371" lon="8.18647187170563"><ele>275.0</ele><time>2026-03-22T10:26:30.999Z</time></trkpt><trkpt lat="44.0219141527302" lon="8.186591750923437"><ele>275.0</ele><time>2026-03-22T10:26:32.999Z</time></trkpt><trkpt lat="44.021842630855204" lon="8.186574122243194"><ele>275.0</ele><time>2026-03-22T10:26:34.999Z</time></trkpt><trkpt lat="44.02179284231446" lon="8.186507672580843"><ele>275.0</ele><time>2026-03-22T10:26:35.999Z</time></trkpt><trkpt lat="44.021756466608274" lon="8.186400771838242"><ele>275.0</ele><time>2026-03-22T10:26:36.999Z</time></trkpt><trkpt lat="44.021725389722356" lon="8.186279339725553"><ele>275.0</ele><time>2026-03-22T10:26:37.999Z</time></trkpt><trkpt lat="44.021708495077824" lon="8.18616133556952"><ele>275.0</ele><time>2026-03-22T10:26:38.999Z</time></trkpt><trkpt lat="44.021727974837574" lon="8.186063757568217"><ele>275.0</ele><time>2026-03-22T10:26:39.999Z</time></trkpt><trkpt lat="44.021689923124704" lon="8.185946182742422"><ele>275.0</ele><time>2026-03-22T10:26:41.999Z</time></trkpt><trkpt lat="44.0215726103101" lon="8.18597813725921"><ele>270.6666666666667</ele><time>2026-03-22T10:26:43.999Z</time></trkpt><trkpt lat="44.021533516953056" lon="8.186087803262913"><ele>266.33333333333337</ele><time>2026-03-22T10:26:44.999Z</time></trkpt><trkpt lat="44.02143778460687" lon="8.186079696000364"><ele>262.0</ele><time>2026-03-22T10:26:46.999Z</time></trkpt><trkpt lat="44.021388973012655" lon="8.186023507764078"><ele>257.6666666666667</ele><time>2026-03-22T10:26:47.999Z</time></trkpt><trkpt lat="44.02130072882449" lon="8.186043708341835"><ele>253.33333333333334</ele><time>2026-03-22T10:26:49.999Z</time></trkpt><trkpt lat="44.021213635529406" lon="8.186003743610097"><ele>249.0</ele><time>2026-03-22T10:26:51.999Z</time></trkpt><trkpt lat="44.021220773351395" lon="8.185853416723184"><ele>249.0</ele><time>2026-03-22T10:26:53.999Z</time></trkpt><trkpt lat="44.021222987390196" lon="8.185745518578038"><ele>249.0</ele><time>2026-03-22T10:26:54.999Z</time></trkpt><trkpt lat="44.021211427036036" lon="8.185639171665136"><ele>249.0</ele><time>2026-03-22T10:26:55.999Z</time></trkpt><trkpt lat="44.021219928359166" lon="8.185535984038145"><ele>249.0</ele><time>2026-03-22T10:26:56.999Z</time></trkpt><trkpt lat="44.02126940577453" lon="8.185460167736894"><ele>249.0</ele><time>2026-03-22T10:26:57.999Z</time></trkpt><trkpt lat="44.021208735616526" lon="8.185436386166302"><ele>249.0</ele><time>2026-03-22T10:27:00.999Z</time></trkpt><trkpt lat="44.021148307697125" lon="8.185518511712147"><ele>249.0</ele><time>2026-03-22T10:27:01.999Z</time></trkpt><trkpt lat="44.021098785271256" lon="8.185610824618207"><ele>249.0</ele><time>2026-03-22T10:27:02.999Z</time></trkpt><trkpt lat="44.0210432809403" lon="8.185688800447059"><ele>249.0</ele><time>2026-03-22T10:27:03.999Z</time></trkpt><trkpt lat="44.02096004377706" lon="8.185702298728888"><ele>249.0</ele><time>2026-03-22T10:27:05.999Z</time></trkpt><trkpt lat="44.02090231106446" lon="8.185800165644812"><ele>249.0</ele><time>2026-03-22T10:27:06.999Z</time></trkpt><trkpt lat="44.02087549652637" lon="8.185894195252583"><ele>249.0</ele><time>2026-03-22T10:27:07.999Z</time></trkpt><trkpt lat="44.02083993324669" lon="8.186040812538245"><ele>249.0</ele><time>2026-03-22T10:27:09.999Z</time></trkpt><trkpt lat="44.020787995878045" lon="8.186105079779164"><ele>249.0</ele><time>2026-03-22T10:27:11.999Z</time></trkpt><trkpt lat="44.02082102691721" lon="8.186202307153811"><ele>249.0</ele><time>2026-03-22T10:27:14Z</time></trkpt><trkpt lat="44.02088081205758" lon="8.186320348985811"><ele>249.0</ele><time>2026-03-22T10:27:15Z</time></trkpt><trkpt lat="44.02092395435319" lon="8.186444034372988"><ele>249.0</ele><time>2026-03-22T10:27:16Z</time></trkpt><trkpt lat="44.02096403049482" lon="8.18655029774764"><ele>249.0</ele><time>2026-03-22T10:27:19Z</time></trkpt><trkpt lat="44.020894852763654" lon="8.186697126419194"><ele>248.79999999999998</ele><time>2026-03-22T10:27:21Z</time></trkpt><trkpt lat="44.02082665749406" lon="8.186760004710187"><ele>248.59999999999997</ele><time>2026-03-22T10:27:23Z</time></trkpt><trkpt lat="44.02080917735349" lon="8.186917288932746"><ele>248.4</ele><time>2026-03-22T10:27:25Z</time></trkpt><trkpt lat="44.020766224617205" lon="8.18701358527382"><ele>248.2</ele><time>2026-03-22T10:27:26Z</time></trkpt><trkpt lat="44.02070632266768" lon="8.187127671559495"><ele>248.0</ele><time>2026-03-22T10:27:27Z</time></trkpt><trkpt lat="44.02061206888072" lon="8.187200558493055"><ele>242.50000000000003</ele><time>2026-03-22T10:27:29Z</time></trkpt><trkpt lat="44.02055401989348" lon="8.187237355640494"><ele>237.0</ele><time>2026-03-22T10:27:30Z</time></trkpt><trkpt lat="44.02053194951298" lon="8.187392938909644"><ele>231.5</ele><time>2026-03-22T10:27:32Z</time></trkpt><trkpt lat="44.02049477117145" lon="8.187467171755499"><ele>226.0</ele><time>2026-03-22T10:27:33Z</time></trkpt><trkpt lat="44.02047756971847" lon="8.187594501786558"><ele>220.50000000000003</ele><time>2026-03-22T10:27:35Z</time></trkpt><trkpt lat="44.02048232089917" lon="8.187703065159642"><ele>215.0</ele><time>2026-03-22T10:27:37Z</time></trkpt><trkpt lat="44.02043798524605" lon="8.18763613926695"><ele>215.0</ele><time>2026-03-22T10:27:40Z</time></trkpt><trkpt lat="44.0204598240886" lon="8.187431494678528"><ele>215.0</ele><time>2026-03-22T10:27:42Z</time></trkpt><trkpt lat="44.02048541007909" lon="8.187334339131453"><ele>215.0</ele><time>2026-03-22T10:27:43Z</time></trkpt><trkpt lat="44.020445082837554" lon="8.187231785487947"><ele>215.0</ele><time>2026-03-22T10:27:45Z</time></trkpt><trkpt lat="44.020426971061624" lon="8.187087127963366"><ele>215.0</ele><time>2026-03-22T10:27:47Z</time></trkpt><trkpt lat="44.02044334070122" lon="8.18695124549553"><ele>215.2</ele><time>2026-03-22T10:27:49Z</time></trkpt><trkpt lat="44.02041682688682" lon="8.186799308553747"><ele>215.4</ele><time>2026-03-22T10:27:51Z</time></trkpt><trkpt lat="44.02037107208314" lon="8.186693341021389"><ele>215.60000000000002</ele><time>2026-03-22T10:27:53Z</time></trkpt><trkpt lat="44.02037414649454" lon="8.186531962629001"><ele>215.8</ele><time>2026-03-22T10:27:55Z</time></trkpt><trkpt lat="44.02031522488611" lon="8.186412437684009"><ele>216.0</ele><time>2026-03-22T10:27:57Z</time></trkpt><trkpt lat="44.020258619052605" lon="8.186271417784038"><ele>216.0</ele><time>2026-03-22T10:28:00Z</time></trkpt><trkpt lat="44.02019907556368" lon="8.186185088603251"><ele>216.0</ele><time>2026-03-22T10:28:02Z</time></trkpt><trkpt lat="44.02011905954066" lon="8.186147968584516"><ele>216.0</ele><time>2026-03-22T10:28:03Z</time></trkpt><trkpt lat="44.02005760838199" lon="8.186126693022628"><ele>216.0</ele><time>2026-03-22T10:28:05Z</time></trkpt><trkpt lat="44.02001539175682" lon="8.186052606263386"><ele>216.0</ele><time>2026-03-22T10:28:06Z</time></trkpt><trkpt lat="44.0199816346388" lon="8.185966970320013"><ele>216.0</ele><time>2026-03-22T10:28:07Z</time></trkpt><trkpt lat="44.01990417662109" lon="8.185896204679418"><ele>210.4</ele><time>2026-03-22T10:28:09Z</time></trkpt><trkpt lat="44.019880332729024" lon="8.185770329572803"><ele>204.8</ele><time>2026-03-22T10:28:11Z</time></trkpt><trkpt lat="44.01979687977975" lon="8.185705171774835"><ele>199.20000000000002</ele><time>2026-03-22T10:28:15Z</time></trkpt><trkpt lat="44.019722107450775" lon="8.185689738332202"><ele>193.60000000000002</ele><time>2026-03-22T10:28:17Z</time></trkpt><trkpt lat="44.01970720700084" lon="8.185535509139434"><ele>188.0</ele><time>2026-03-22T10:28:21Z</time></trkpt><trkpt lat="44.01971315732855" lon="8.185416189553347"><ele>186.5</ele><time>2026-03-22T10:28:23Z</time></trkpt><trkpt lat="44.01974305780487" lon="8.185288884875296"><ele>185.0</ele><time>2026-03-22T10:28:25Z</time></trkpt><trkpt lat="44.01978923096408" lon="8.185173738640259"><ele>183.5</ele><time>2026-03-22T10:28:27Z</time></trkpt><trkpt lat="44.019846221531516" lon="8.185104174164413"><ele>182.0</ele><time>2026-03-22T10:28:29Z</time></trkpt><trkpt lat="44.0198839948682" lon="8.18501943255978"><ele>180.5</ele><time>2026-03-22T10:28:30Z</time></trkpt><trkpt lat="44.019943314035025" lon="8.184909592174582"><ele>179.0</ele><time>2026-03-22T10:28:31Z</time></trkpt><trkpt lat="44.020026673082086" lon="8.184807826887477"><ele>178.66666666666666</ele><time>2026-03-22T10:28:32Z</time></trkpt><trkpt lat="44.02007679999808" lon="8.184740296868588"><ele>178.33333333333331</ele><time>2026-03-22T10:28:33Z</time></trkpt><trkpt lat="44.02013064890551" lon="8.184675434080196"><ele>178.0</ele><time>2026-03-22T10:28:34Z</time></trkpt><trkpt lat="44.020204385897955" lon="8.184543302559295"><ele>177.66666666666666</ele><time>2026-03-22T10:28:36Z</time></trkpt><trkpt lat="44.02027376396541" lon="8.184409322990698"><ele>177.33333333333334</ele><time>2026-03-22T10:28:38Z</time></trkpt><trkpt lat="44.0203173419468" lon="8.18433427738898"><ele>177.0</ele><time>2026-03-22T10:28:39Z</time></trkpt><trkpt lat="44.020369208733456" lon="8.18420553431595"><ele>177.0</ele><time>2026-03-22T10:28:41Z</time></trkpt><trkpt lat="44.020412828885846" lon="8.184101323623878"><ele>177.0</ele><time>2026-03-22T10:28:43Z</time></trkpt><trkpt lat="44.02048170146525" lon="8.184004285688749"><ele>177.0</ele><time>2026-03-22T10:28:45Z</time></trkpt><trkpt lat="44.02053613741288" lon="8.183936151697644"><ele>177.0</ele><time>2026-03-22T10:28:46Z</time></trkpt><trkpt lat="44.02058445537354" lon="8.183861683989623"><ele>177.0</ele><time>2026-03-22T10:28:47Z</time></trkpt><trkpt lat="44.020655162941004" lon="8.183750838920218"><ele>177.0</ele><time>2026-03-22T10:28:49Z</time></trkpt><trkpt lat="44.02072905971061" lon="8.183635946871968"><ele>179.8</ele><time>2026-03-22T10:28:50.999Z</time></trkpt><trkpt lat="44.02085436778377" lon="8.183584619961822"><ele>182.6</ele><time>2026-03-22T10:28:52.999Z</time></trkpt><trkpt lat="44.0209033042455" lon="8.183513531002342"><ele>185.4</ele><time>2026-03-22T10:28:54.999Z</time></trkpt><trkpt lat="44.02083049996994" lon="8.183479148132335"><ele>188.20000000000002</ele><time>2026-03-22T10:28:56.999Z</time></trkpt><trkpt lat="44.020762196662396" lon="8.183431541572666"><ele>191.0</ele><time>2026-03-22T10:28:57.999Z</time></trkpt><trkpt lat="44.02065894154795" lon="8.183385317067604"><ele>189.60000000000002</ele><time>2026-03-22T10:28:59.999Z</time></trkpt><trkpt lat="44.020607578819565" lon="8.18331446805702"><ele>188.2</ele><time>2026-03-22T10:29:00.999Z</time></trkpt><trkpt lat="44.020441545413284" lon="8.183396151388637"><ele>186.8</ele><time>2026-03-22T10:29:01.999Z</time></trkpt><trkpt lat="44.0203789551139" lon="8.183332876662456"><ele>185.39999999999998</ele><time>2026-03-22T10:29:02.999Z</time></trkpt><trkpt lat="44.02028892787666" lon="8.183227566870901"><ele>184.0</ele><time>2026-03-22T10:29:03.999Z</time></trkpt><trkpt lat="44.020232404516726" lon="8.18310134139004"><ele>184.0</ele><time>2026-03-22T10:29:04.999Z</time></trkpt><trkpt lat="44.02018914221799" lon="8.183004368636622"><ele>184.0</ele><time>2026-03-22T10:29:05.999Z</time></trkpt><trkpt lat="44.020137465752214" lon="8.18290498668485"><ele>184.0</ele><time>2026-03-22T10:29:07.999Z</time></trkpt><trkpt lat="44.02007759658463" lon="8.182825088853395"><ele>184.0</ele><time>2026-03-22T10:29:08.999Z</time></trkpt><trkpt lat="44.02001009788272" lon="8.182741023423572"><ele>184.0</ele><time>2026-03-22T10:29:09.999Z</time></trkpt><trkpt lat="44.0199481944018" lon="8.182663928296845"><ele>184.0</ele><time>2026-03-22T10:29:11.999Z</time></trkpt><trkpt lat="44.01987753988095" lon="8.182543907322756"><ele>181.0</ele><time>2026-03-22T10:29:13.999Z</time></trkpt><trkpt lat="44.019825800048245" lon="8.182430834140918"><ele>178.0</ele><time>2026-03-22T10:29:14.999Z</time></trkpt><trkpt lat="44.01978606831577" lon="8.18232174932021"><ele>175.0</ele><time>2026-03-22T10:29:15.999Z</time></trkpt><trkpt lat="44.01971319453579" lon="8.182248144978718"><ele>172.0</ele><time>2026-03-22T10:29:16.999Z</time></trkpt><trkpt lat="44.01963007253036" lon="8.182185372508673"><ele>169.0</ele><time>2026-03-22T10:29:17.999Z</time></trkpt><trkpt lat="44.01952971724108" lon="8.182141117910563"><ele>169.0</ele><time>2026-03-22T10:29:18.999Z</time></trkpt><trkpt lat="44.019471751932265" lon="8.182051211756182"><ele>169.0</ele><time>2026-03-22T10:29:20Z</time></trkpt><trkpt lat="44.01946953173909" lon="8.181916397269925"><ele>169.0</ele><time>2026-03-22T10:29:21Z</time></trkpt><trkpt lat="44.01945688435951" lon="8.181757744542073"><ele>169.0</ele><time>2026-03-22T10:29:22Z</time></trkpt><trkpt lat="44.01945013854963" lon="8.181555923714818"><ele>169.0</ele><time>2026-03-22T10:29:23Z</time></trkpt><trkpt lat="44.01944118855102" lon="8.181336356348233"><ele>172.25</ele><time>2026-03-22T10:29:24Z</time></trkpt><trkpt lat="44.01942033046685" lon="8.18112844244188"><ele>175.5</ele><time>2026-03-22T10:29:25Z</time></trkpt><trkpt lat="44.01937969728728" lon="8.180965224717356"><ele>178.75</ele><time>2026-03-22T10:29:26Z</time></trkpt><trkpt lat="44.019329355433584" lon="8.180831675531458"><ele>182.0</ele><time>2026-03-22T10:29:27Z</time></trkpt><trkpt lat="44.01925790342082" lon="8.180725153622033"><ele>181.0</ele><time>2026-03-22T10:29:28Z</time></trkpt><trkpt lat="44.01921498092773" lon="8.180559117588801"><ele>180.0</ele><time>2026-03-22T10:29:29Z</time></trkpt><trkpt lat="44.01918492348067" lon="8.18042107132796"><ele>179.0</ele><time>2026-03-22T10:29:30Z</time></trkpt><trkpt lat="44.019188165111075" lon="8.18030306729325"><ele>178.0</ele><time>2026-03-22T10:29:31Z</time></trkpt><trkpt lat="44.01927493843497" lon="8.180231159134863"><ele>177.0</ele><time>2026-03-22T10:29:33Z</time></trkpt><trkpt lat="44.01936022270112" lon="8.180371601285668"><ele>177.0</ele><time>2026-03-22T10:29:36Z</time></trkpt><trkpt lat="44.0194345492669" lon="8.180560588196238"><ele>177.0</ele><time>2026-03-22T10:29:38Z</time></trkpt><trkpt lat="44.01947580837332" lon="8.180673934543874"><ele>177.0</ele><time>2026-03-22T10:29:39Z</time></trkpt><trkpt lat="44.01951938153494" lon="8.18074164654232"><ele>177.0</ele><time>2026-03-22T10:29:40Z</time></trkpt><trkpt lat="44.019585787811785" lon="8.180751175334366"><ele>177.0</ele><time>2026-03-22T10:29:41Z</time></trkpt><trkpt lat="44.01965058044687" lon="8.180639441383322"><ele>177.0</ele><time>2026-03-22T10:29:42Z</time></trkpt><trkpt lat="44.01967240394415" lon="8.180532776310255"><ele>177.0</ele><time>2026-03-22T10:29:43Z</time></trkpt><trkpt lat="44.01971010537465" lon="8.180430690736785"><ele>177.0</ele><time>2026-03-22T10:29:44Z</time></trkpt><trkpt lat="44.019768694438355" lon="8.180335123416478"><ele>177.0</ele><time>2026-03-22T10:29:45Z</time></trkpt><trkpt lat="44.01987068667264" lon="8.180304993177048"><ele>177.0</ele><time>2026-03-22T10:29:46Z</time></trkpt><trkpt lat="44.019977788553156" lon="8.180234939049594"><ele>180.5</ele><time>2026-03-22T10:29:47Z</time></trkpt><trkpt lat="44.02007770964224" lon="8.180203198008625"><ele>184.0</ele><time>2026-03-22T10:29:48Z</time></trkpt><trkpt lat="44.02017633942272" lon="8.180201503848407"><ele>187.5</ele><time>2026-03-22T10:29:49Z</time></trkpt><trkpt lat="44.020297968155866" lon="8.180182816073284"><ele>191.0</ele><time>2026-03-22T10:29:50Z</time></trkpt><trkpt lat="44.020433552144816" lon="8.180181093091125"><ele>191.0</ele><time>2026-03-22T10:29:51Z</time></trkpt><trkpt lat="44.02058410049842" lon="8.18018869953553"><ele>191.0</ele><time>2026-03-22T10:29:52Z</time></trkpt><trkpt lat="44.02070781096754" lon="8.180178058906467"><ele>191.0</ele><time>2026-03-22T10:29:53Z</time></trkpt><trkpt lat="44.02081429176188" lon="8.180163172378323"><ele>191.0</ele><time>2026-03-22T10:29:54Z</time></trkpt><trkpt lat="44.02092728152141" lon="8.180168811027436"><ele>192.60000000000002</ele><time>2026-03-22T10:29:55Z</time></trkpt><trkpt lat="44.021049040661886" lon="8.18015898680463"><ele>194.2</ele><time>2026-03-22T10:29:56Z</time></trkpt><trkpt lat="44.02116707917177" lon="8.180115674277278"><ele>195.8</ele><time>2026-03-22T10:29:57Z</time></trkpt><trkpt lat="44.021259878040745" lon="8.180046762252253"><ele>197.39999999999998</ele><time>2026-03-22T10:29:58Z</time></trkpt><trkpt lat="44.02132702795784" lon="8.179988316533652"><ele>199.0</ele><time>2026-03-22T10:29:59Z</time></trkpt><trkpt lat="44.02133940550941" lon="8.179843254283133"><ele>199.0</ele><time>2026-03-22T10:30:01Z</time></trkpt><trkpt lat="44.02131040454187" lon="8.179749026546427"><ele>199.0</ele><time>2026-03-22T10:30:02Z</time></trkpt><trkpt lat="44.021293843261006" lon="8.179611750803863"><ele>199.0</ele><time>2026-03-22T10:30:03Z</time></trkpt><trkpt lat="44.02123951167049" lon="8.179460763699952"><ele>199.0</ele><time>2026-03-22T10:30:04Z</time></trkpt><trkpt lat="44.02120203488529" lon="8.179338224804736"><ele>199.0</ele><time>2026-03-22T10:30:05Z</time></trkpt><trkpt lat="44.021200065391646" lon="8.17924873959861"><ele>199.0</ele><time>2026-03-22T10:30:06Z</time></trkpt><trkpt lat="44.0212704719456" lon="8.179132286264453"><ele>199.0</ele><time>2026-03-22T10:30:08Z</time></trkpt><trkpt lat="44.02134214899238" lon="8.179091568934272"><ele>199.0</ele><time>2026-03-22T10:30:09Z</time></trkpt><trkpt lat="44.02143264036266" lon="8.179064012513686"><ele>199.0</ele><time>2026-03-22T10:30:10Z</time></trkpt><trkpt lat="44.02152509226797" lon="8.179065282250862"><ele>199.0</ele><time>2026-03-22T10:30:11Z</time></trkpt><trkpt lat="44.021624157501044" lon="8.179096847851433"><ele>201.39999999999998</ele><time>2026-03-22T10:30:12Z</time></trkpt><trkpt lat="44.021723067833534" lon="8.179131398486392"><ele>203.8</ele><time>2026-03-22T10:30:13Z</time></trkpt><trkpt lat="44.0217948823675" lon="8.179131587788529"><ele>206.2</ele><time>2026-03-22T10:30:14Z</time></trkpt><trkpt lat="44.021879775858054" lon="8.179018626998074"><ele>208.60000000000002</ele><time>2026-03-22T10:30:16Z</time></trkpt><trkpt lat="44.021912692188955" lon="8.178932174244176"><ele>211.0</ele><time>2026-03-22T10:30:17Z</time></trkpt><trkpt lat="44.02197015710206" lon="8.1788270201442"><ele>211.0</ele><time>2026-03-22T10:30:18Z</time></trkpt><trkpt lat="44.02204991892853" lon="8.178707478565794"><ele>211.0</ele><time>2026-03-22T10:30:19Z</time></trkpt><trkpt lat="44.022110428501975" lon="8.178584964794412"><ele>211.0</ele><time>2026-03-22T10:30:20Z</time></trkpt><trkpt lat="44.02215311668364" lon="8.178422879213565"><ele>211.0</ele><time>2026-03-22T10:30:21Z</time></trkpt><trkpt lat="44.02219793385763" lon="8.178240915773891"><ele>210.4</ele><time>2026-03-22T10:30:22Z</time></trkpt><trkpt lat="44.0222316651462" lon="8.178079574047581"><ele>209.8</ele><time>2026-03-22T10:30:23Z</time></trkpt><trkpt lat="44.022239661415156" lon="8.177924102360116"><ele>209.20000000000002</ele><time>2026-03-22T10:30:24Z</time></trkpt><trkpt lat="44.02225034865786" lon="8.177794628970942"><ele>208.60000000000002</ele><time>2026-03-22T10:30:25Z</time></trkpt><trkpt lat="44.022274894868225" lon="8.177710223942482"><ele>208.0</ele><time>2026-03-22T10:30:26Z</time></trkpt><trkpt lat="44.0222039287239" lon="8.177792354721694"><ele>208.0</ele><time>2026-03-22T10:30:40Z</time></trkpt><trkpt lat="44.022131490046505" lon="8.17788831204478"><ele>208.0</ele><time>2026-03-22T10:30:42Z</time></trkpt><trkpt lat="44.02210193947728" lon="8.177988785042144"><ele>208.0</ele><time>2026-03-22T10:30:44Z</time></trkpt><trkpt lat="44.02212416261437" lon="8.17808945153208"><ele>208.0</ele><time>2026-03-22T10:30:46Z</time></trkpt><trkpt lat="44.02201437512724" lon="8.1781809041855"><ele>208.0</ele><time>2026-03-22T10:30:48.999Z</time></trkpt><trkpt lat="44.02192342983555" lon="8.178225076516625"><ele>208.49999999999997</ele><time>2026-03-22T10:30:50.999Z</time></trkpt><trkpt lat="44.02184123948654" lon="8.178254346273215"><ele>209.0</ele><time>2026-03-22T10:30:51.999Z</time></trkpt><trkpt lat="44.02174907646802" lon="8.17827238472305"><ele>209.5</ele><time>2026-03-22T10:30:53.999Z</time></trkpt><trkpt lat="44.021675780013666" lon="8.178274309297624"><ele>210.0</ele><time>2026-03-22T10:30:54.999Z</time></trkpt><trkpt lat="44.02159479281498" lon="8.178278826335514"><ele>210.49999999999997</ele><time>2026-03-22T10:30:55.999Z</time></trkpt><trkpt lat="44.02150022454684" lon="8.1783230650819"><ele>211.0</ele><time>2026-03-22T10:30:57.999Z</time></trkpt><trkpt lat="44.021448179188035" lon="8.178392857306461"><ele>207.16666666666666</ele><time>2026-03-22T10:30:58.999Z</time></trkpt><trkpt lat="44.02139502961924" lon="8.178443934046173"><ele>203.33333333333331</ele><time>2026-03-22T10:30:59.999Z</time></trkpt><trkpt lat="44.021330587091775" lon="8.17847830977827"><ele>199.5</ele><time>2026-03-22T10:31:00.999Z</time></trkpt><trkpt lat="44.02125654891294" lon="8.178428641578627"><ele>195.66666666666666</ele><time>2026-03-22T10:31:02.999Z</time></trkpt><trkpt lat="44.02117882627958" lon="8.178414224678507"><ele>191.83333333333331</ele><time>2026-03-22T10:31:04.999Z</time></trkpt><trkpt lat="44.02110763209735" lon="8.178430009534749"><ele>188.0</ele><time>2026-03-22T10:31:05.999Z</time></trkpt><trkpt lat="44.0210193529969" lon="8.178423241168137"><ele>188.0</ele><time>2026-03-22T10:31:06.999Z</time></trkpt><trkpt lat="44.02096172754992" lon="8.178329044803663"><ele>188.0</ele><time>2026-03-22T10:31:16.999Z</time></trkpt><trkpt lat="44.02089735611925" lon="8.17828899158813"><ele>188.0</ele><time>2026-03-22T10:31:17.999Z</time></trkpt><trkpt lat="44.02076254354268" lon="8.178253167729974"><ele>188.0</ele><time>2026-03-22T10:31:19.999Z</time></trkpt><trkpt lat="44.02066990928316" lon="8.17822675725488"><ele>188.0</ele><time>2026-03-22T10:31:20.999Z</time></trkpt><trkpt lat="44.02057773787762" lon="8.178201428640087"><ele>183.0</ele><time>2026-03-22T10:31:21.999Z</time></trkpt><trkpt lat="44.02047956186076" lon="8.178204583283167"><ele>178.0</ele><time>2026-03-22T10:31:23.999Z</time></trkpt><trkpt lat="44.020374412585284" lon="8.178189247654771"><ele>173.0</ele><time>2026-03-22T10:31:26Z</time></trkpt><trkpt lat="44.02029595229172" lon="8.17818732096809"><ele>168.0</ele><time>2026-03-22T10:31:28Z</time></trkpt><trkpt lat="44.0202189238979" lon="8.178172500128621"><ele>163.0</ele><time>2026-03-22T10:31:31Z</time></trkpt><trkpt lat="44.02015084628361" lon="8.178275480161895"><ele>161.0</ele><time>2026-03-22T10:31:36Z</time></trkpt><trkpt lat="44.02006992773516" lon="8.178161509014034"><ele>159.0</ele><time>2026-03-22T10:31:42Z</time></trkpt><trkpt lat="44.02009276449577" lon="8.17804508011471"><ele>157.0</ele><time>2026-03-22T10:31:45Z</time></trkpt><trkpt lat="44.01998203388523" lon="8.177981499426368"><ele>155.0</ele><time>2026-03-22T10:31:48Z</time></trkpt><trkpt lat="44.019944611135834" lon="8.177910301847241"><ele>153.0</ele><time>2026-03-22T10:31:49Z</time></trkpt><trkpt lat="44.01990807859238" lon="8.177834279143362"><ele>150.16666666666666</ele><time>2026-03-22T10:31:50Z</time></trkpt><trkpt lat="44.0198460815111" lon="8.177762222347718"><ele>147.33333333333334</ele><time>2026-03-22T10:31:52Z</time></trkpt><trkpt lat="44.01978378042085" lon="8.177701359582423"><ele>144.5</ele><time>2026-03-22T10:31:54Z</time></trkpt><trkpt lat="44.0197087351477" lon="8.177624997789628"><ele>141.66666666666669</ele><time>2026-03-22T10:31:56Z</time></trkpt><trkpt lat="44.019650712557294" lon="8.177554106128516"><ele>138.83333333333334</ele><time>2026-03-22T10:32:00Z</time></trkpt><trkpt lat="44.019565654329064" lon="8.177583096940037"><ele>136.0</ele><time>2026-03-22T10:32:02Z</time></trkpt><trkpt lat="44.01950173730313" lon="8.177571797350971"><ele>136.0</ele><time>2026-03-22T10:32:04Z</time></trkpt><trkpt lat="44.019434102339474" lon="8.177520082741355"><ele>136.0</ele><time>2026-03-22T10:32:06Z</time></trkpt><trkpt lat="44.01935242496772" lon="8.177434415803884"><ele>136.0</ele><time>2026-03-22T10:32:09Z</time></trkpt><trkpt lat="44.01927311835246" lon="8.177524708457339"><ele>136.0</ele><time>2026-03-22T10:32:15Z</time></trkpt><trkpt lat="44.01921983353605" lon="8.177589494410379"><ele>136.0</ele><time>2026-03-22T10:32:17Z</time></trkpt><trkpt lat="44.0191111683057" lon="8.177666489348233"><ele>130.83333333333334</ele><time>2026-03-22T10:32:19Z</time></trkpt><trkpt lat="44.019045459469446" lon="8.177687261026337"><ele>125.66666666666667</ele><time>2026-03-22T10:32:22Z</time></trkpt><trkpt lat="44.01898282449384" lon="8.17759704203935"><ele>120.5</ele><time>2026-03-22T10:32:24Z</time></trkpt><trkpt lat="44.01890313641002" lon="8.177532716694907"><ele>115.33333333333334</ele><time>2026-03-22T10:32:26Z</time></trkpt><trkpt lat="44.018802217763884" lon="8.177490803304474"><ele>110.16666666666667</ele><time>2026-03-22T10:32:30Z</time></trkpt><trkpt lat="44.01871338059575" lon="8.177457505560904"><ele>105.0</ele><time>2026-03-22T10:32:32Z</time></trkpt><trkpt lat="44.01866697837588" lon="8.177560323284467"><ele>105.0</ele><time>2026-03-22T10:32:34Z</time></trkpt><trkpt lat="44.01866101586678" lon="8.177667690720792"><ele>105.0</ele><time>2026-03-22T10:32:35Z</time></trkpt><trkpt lat="44.01869275938891" lon="8.177768540753329"><ele>105.0</ele><time>2026-03-22T10:32:36Z</time></trkpt><trkpt lat="44.01872537327593" lon="8.177909220514415"><ele>105.0</ele><time>2026-03-22T10:32:37Z</time></trkpt><trkpt lat="44.01875536458268" lon="8.178004007962505"><ele>105.0</ele><time>2026-03-22T10:32:38Z</time></trkpt><trkpt lat="44.01870348773141" lon="8.178171158944037"><ele>107.4</ele><time>2026-03-22T10:32:40Z</time></trkpt><trkpt lat="44.01864405725867" lon="8.178210181117532"><ele>109.8</ele><time>2026-03-22T10:32:41Z</time></trkpt><trkpt lat="44.018589112547204" lon="8.178267928695593"><ele>112.19999999999999</ele><time>2026-03-22T10:32:42Z</time></trkpt><trkpt lat="44.01845915136278" lon="8.178261721691436"><ele>114.6</ele><time>2026-03-22T10:32:44Z</time></trkpt><trkpt lat="44.01839793276758" lon="8.178299091931235"><ele>117.0</ele><time>2026-03-22T10:32:45Z</time></trkpt><trkpt lat="44.01826567162888" lon="8.178335887267863"><ele>117.0</ele><time>2026-03-22T10:32:47Z</time></trkpt><trkpt lat="44.01815488572924" lon="8.178359508627237"><ele>116.99999999999999</ele><time>2026-03-22T10:32:48Z</time></trkpt><trkpt lat="44.01806915204023" lon="8.178412315517173"><ele>116.99999999999999</ele><time>2026-03-22T10:32:50Z</time></trkpt><trkpt lat="44.01801065924152" lon="8.178446833225989"><ele>117.0</ele><time>2026-03-22T10:32:51Z</time></trkpt><trkpt lat="44.01789646046762" lon="8.178461313939158"><ele>117.0</ele><time>2026-03-22T10:32:53Z</time></trkpt><trkpt lat="44.017779899482235" lon="8.178505458026766"><ele>117.0</ele><time>2026-03-22T10:32:55Z</time></trkpt><trkpt lat="44.01770080078572" lon="8.178551043854041"><ele>117.0</ele><time>2026-03-22T10:32:57Z</time></trkpt><trkpt lat="44.01762934060246" lon="8.17858540698577"><ele>117.0</ele><time>2026-03-22T10:32:59Z</time></trkpt><trkpt lat="44.01756818179176" lon="8.178658652664764"><ele>117.0</ele><time>2026-03-22T10:33:01Z</time></trkpt><trkpt lat="44.01745758988144" lon="8.17876334641795"><ele>117.0</ele><time>2026-03-22T10:33:03Z</time></trkpt><trkpt lat="44.01740696948645" lon="8.178834090347436"><ele>117.0</ele><time>2026-03-22T10:33:04.999Z</time></trkpt><trkpt lat="44.01745010350745" lon="8.178941333999393"><ele>117.19999999999999</ele><time>2026-03-22T10:33:06.999Z</time></trkpt><trkpt lat="44.017462735161885" lon="8.179032913590735"><ele>117.39999999999999</ele><time>2026-03-22T10:33:07.999Z</time></trkpt><trkpt lat="44.01746907854725" lon="8.179122308104482"><ele>117.60000000000001</ele><time>2026-03-22T10:33:15.999Z</time></trkpt><trkpt lat="44.01738398713313" lon="8.179135569884751"><ele>117.80000000000001</ele><time>2026-03-22T10:33:17.999Z</time></trkpt><trkpt lat="44.01725446162026" lon="8.179062546813835"><ele>118.0</ele><time>2026-03-22T10:33:19.999Z</time></trkpt><trkpt lat="44.017149392531444" lon="8.17897270545349"><ele>117.60000000000001</ele><time>2026-03-22T10:33:20.999Z</time></trkpt><trkpt lat="44.017076618304536" lon="8.178888758487345"><ele>117.20000000000002</ele><time>2026-03-22T10:33:21.999Z</time></trkpt><trkpt lat="44.01700956313642" lon="8.178824049576829"><ele>116.8</ele><time>2026-03-22T10:33:22.999Z</time></trkpt><trkpt lat="44.016906295704985" lon="8.178765303077032"><ele>116.4</ele><time>2026-03-22T10:33:23.999Z</time></trkpt><trkpt lat="44.01679437808083" lon="8.178713671924283"><ele>116.0</ele><time>2026-03-22T10:33:24.999Z</time></trkpt><trkpt lat="44.01669609420193" lon="8.178642502551163"><ele>112.8</ele><time>2026-03-22T10:33:25.999Z</time></trkpt><trkpt lat="44.01662947004092" lon="8.178585760558105"><ele>109.6</ele><time>2026-03-22T10:33:26.999Z</time></trkpt><trkpt lat="44.01655540227965" lon="8.178496473666382"><ele>106.4</ele><time>2026-03-22T10:33:28.999Z</time></trkpt><trkpt lat="44.01650883451204" lon="8.178364914135612"><ele>103.2</ele><time>2026-03-22T10:33:30.999Z</time></trkpt><trkpt lat="44.01644116458832" lon="8.17826187766212"><ele>100.0</ele><time>2026-03-22T10:33:33Z</time></trkpt><trkpt lat="44.01635253637637" lon="8.178300891959513"><ele>100.00000000000001</ele><time>2026-03-22T10:33:35Z</time></trkpt><trkpt lat="44.016303477677354" lon="8.17835941511077"><ele>100.0</ele><time>2026-03-22T10:33:37Z</time></trkpt><trkpt lat="44.01630086493646" lon="8.178256619325778"><ele>100.0</ele><time>2026-03-22T10:33:40Z</time></trkpt><trkpt lat="44.01619775318177" lon="8.178227902948635"><ele>100.0</ele><time>2026-03-22T10:33:46Z</time></trkpt><trkpt lat="44.016132280902085" lon="8.17824478946824"><ele>100.00000000000001</ele><time>2026-03-22T10:33:47Z</time></trkpt><trkpt lat="44.016113562776326" lon="8.17812706863029"><ele>100.0</ele><time>2026-03-22T10:33:48Z</time></trkpt><trkpt lat="44.016017452382876" lon="8.178022490081327"><ele>97.8</ele><time>2026-03-22T10:33:50Z</time></trkpt><trkpt lat="44.01591164378422" lon="8.177935434803105"><ele>95.6</ele><time>2026-03-22T10:33:52Z</time></trkpt><trkpt lat="44.0158281203407" lon="8.17791711617706"><ele>93.4</ele><time>2026-03-22T10:33:53Z</time></trkpt><trkpt lat="44.01572330599332" lon="8.177877953068046"><ele>91.2</ele><time>2026-03-22T10:33:54Z</time></trkpt><trkpt lat="44.015629516548564" lon="8.177840777765192"><ele>89.0</ele><time>2026-03-22T10:33:55Z</time></trkpt><trkpt lat="44.01554295915152" lon="8.17779489563951"><ele>87.16666666666667</ele><time>2026-03-22T10:33:56Z</time></trkpt><trkpt lat="44.01546440870869" lon="8.177758760023682"><ele>85.33333333333334</ele><time>2026-03-22T10:33:57Z</time></trkpt><trkpt lat="44.01539014107775" lon="8.177749984004237"><ele>83.5</ele><time>2026-03-22T10:33:58Z</time></trkpt><trkpt lat="44.01527053286693" lon="8.177762385628895"><ele>81.66666666666667</ele><time>2026-03-22T10:34:00Z</time></trkpt><trkpt lat="44.01517884132166" lon="8.177777466698778"><ele>79.83333333333333</ele><time>2026-03-22T10:34:02Z</time></trkpt><trkpt lat="44.01510097586333" lon="8.17776185803723"><ele>78.0</ele><time>2026-03-22T10:34:04Z</time></trkpt><trkpt lat="44.01500146287338" lon="8.177735251610988"><ele>76.66666666666667</ele><time>2026-03-22T10:34:06Z</time></trkpt><trkpt lat="44.014921726076786" lon="8.177695985359135"><ele>75.33333333333333</ele><time>2026-03-22T10:34:07Z</time></trkpt><trkpt lat="44.014843446187115" lon="8.17763964526728"><ele>74.0</ele><time>2026-03-22T10:34:08Z</time></trkpt><trkpt lat="44.014766608294" lon="8.177568071367892"><ele>72.66666666666666</ele><time>2026-03-22T10:34:09Z</time></trkpt><trkpt lat="44.01468880321649" lon="8.17750068633107"><ele>71.33333333333333</ele><time>2026-03-22T10:34:10Z</time></trkpt><trkpt lat="44.014625293211125" lon="8.177467679306375"><ele>70.0</ele><time>2026-03-22T10:34:11Z</time></trkpt><trkpt lat="44.014561038042395" lon="8.17746572936785"><ele>70.0</ele><time>2026-03-22T10:34:12Z</time></trkpt><trkpt lat="44.01448979729867" lon="8.177483406366788"><ele>70.0</ele><time>2026-03-22T10:34:13Z</time></trkpt><trkpt lat="44.01438864291218" lon="8.177480982075684"><ele>70.0</ele><time>2026-03-22T10:34:14Z</time></trkpt><trkpt lat="44.01426158922394" lon="8.177447506602874"><ele>70.0</ele><time>2026-03-22T10:34:15Z</time></trkpt><trkpt lat="44.014148747005855" lon="8.177407036208994"><ele>70.0</ele><time>2026-03-22T10:34:16Z</time></trkpt><trkpt lat="44.01404895768746" lon="8.177353994771401"><ele>66.4</ele><time>2026-03-22T10:34:17Z</time></trkpt><trkpt lat="44.01393800480889" lon="8.177282718414817"><ele>62.8</ele><time>2026-03-22T10:34:18Z</time></trkpt><trkpt lat="44.01385787788691" lon="8.17721937909757"><ele>59.2</ele><time>2026-03-22T10:34:19Z</time></trkpt><trkpt lat="44.01377710447178" lon="8.17717805967696"><ele>55.6</ele><time>2026-03-22T10:34:20Z</time></trkpt><trkpt lat="44.01367581552487" lon="8.177142589153489"><ele>52.0</ele><time>2026-03-22T10:34:21Z</time></trkpt><trkpt lat="44.01354875322392" lon="8.17709573009152"><ele>52.0</ele><time>2026-03-22T10:34:22Z</time></trkpt><trkpt lat="44.013436973493654" lon="8.177027969908556"><ele>52.0</ele><time>2026-03-22T10:34:23Z</time></trkpt><trkpt lat="44.0133463977692" lon="8.17700121120921"><ele>52.0</ele><time>2026-03-22T10:34:24Z</time></trkpt><trkpt lat="44.01326602488021" lon="8.17696599396018"><ele>52.0</ele><time>2026-03-22T10:34:25Z</time></trkpt><trkpt lat="44.013135667533945" lon="8.176877940823363"><ele>52.0</ele><time>2026-03-22T10:34:27Z</time></trkpt><trkpt lat="44.01306830144404" lon="8.176836061790288"><ele>49.4</ele><time>2026-03-22T10:34:28Z</time></trkpt><trkpt lat="44.01300345971579" lon="8.176783055440108"><ele>46.800000000000004</ele><time>2026-03-22T10:34:29Z</time></trkpt><trkpt lat="44.01291786988398" lon="8.17675095768294"><ele>44.2</ele><time>2026-03-22T10:34:30Z</time></trkpt><trkpt lat="44.01278919660123" lon="8.176687883591754"><ele>41.6</ele><time>2026-03-22T10:34:32Z</time></trkpt><trkpt lat="44.0127151542228" lon="8.176649196669489"><ele>39.0</ele><time>2026-03-22T10:34:33Z</time></trkpt><trkpt lat="44.01263190778544" lon="8.176598017255127"><ele>39.0</ele><time>2026-03-22T10:34:35Z</time></trkpt><trkpt lat="44.012551858582526" lon="8.176618038316711"><ele>39.0</ele><time>2026-03-22T10:34:37Z</time></trkpt><trkpt lat="44.012499434311344" lon="8.176528085008295"><ele>39.0</ele><time>2026-03-22T10:34:40Z</time></trkpt><trkpt lat="44.01244309627274" lon="8.176475449152386"><ele>39.0</ele><time>2026-03-22T10:34:49Z</time></trkpt><trkpt lat="44.01234271098285" lon="8.176589449674811"><ele>39.0</ele><time>2026-03-22T10:34:51Z</time></trkpt><trkpt lat="44.01225802737397" lon="8.17661829335786"><ele>39.0</ele><time>2026-03-22T10:35:04.999Z</time></trkpt><trkpt lat="44.01218282690589" lon="8.17644518082348"><ele>36.0</ele><time>2026-03-22T10:35:06.999Z</time></trkpt><trkpt lat="44.012123730107774" lon="8.176333452008663"><ele>33.0</ele><time>2026-03-22T10:35:08.999Z</time></trkpt><trkpt lat="44.01212514503927" lon="8.176462082555396"><ele>30.0</ele><time>2026-03-22T10:35:12.999Z</time></trkpt><trkpt lat="44.012052459375454" lon="8.176389677023392"><ele>27.0</ele><time>2026-03-22T10:35:16.999Z</time></trkpt><trkpt lat="44.01198606170018" lon="8.17634054740182"><ele>24.0</ele><time>2026-03-22T10:35:18.999Z</time></trkpt><trkpt lat="44.01192024451677" lon="8.17635948300458"><ele>21.0</ele><time>2026-03-22T10:35:23.999Z</time></trkpt><trkpt lat="44.01185306406048" lon="8.176302601885906"><ele>21.0</ele><time>2026-03-22T10:35:29.999Z</time></trkpt><trkpt lat="44.0117976565293" lon="8.176415939981862"><ele>21.0</ele><time>2026-03-22T10:35:35.999Z</time></trkpt><trkpt lat="44.01171496257741" lon="8.176389789141068"><ele>21.0</ele><time>2026-03-22T10:35:39Z</time></trkpt><trkpt lat="44.011661083656776" lon="8.176332120403124"><ele>21.0</ele><time>2026-03-22T10:35:41Z</time></trkpt><trkpt lat="44.01157713604374" lon="8.176359297529741"><ele>21.0</ele><time>2026-03-22T10:35:43Z</time></trkpt><trkpt lat="44.01163184627071" lon="8.176508274535433"><ele>20.400000000000002</ele><time>2026-03-22T10:35:49Z</time></trkpt><trkpt lat="44.01167131141732" lon="8.176580952211932"><ele>19.8</ele><time>2026-03-22T10:35:50Z</time></trkpt><trkpt lat="44.01172248019521" lon="8.176684356347215"><ele>19.200000000000003</ele><time>2026-03-22T10:35:51Z</time></trkpt><trkpt lat="44.011785593837935" lon="8.17678868174218"><ele>18.6</ele><time>2026-03-22T10:35:52Z</time></trkpt><trkpt lat="44.011863031676924" lon="8.176897651413011"><ele>18.0</ele><time>2026-03-22T10:35:53Z</time></trkpt><trkpt lat="44.01194241318058" lon="8.177020757041051"><ele>18.0</ele><time>2026-03-22T10:35:54Z</time></trkpt><trkpt lat="44.0120235176134" lon="8.177146356165748"><ele>18.0</ele><time>2026-03-22T10:35:55Z</time></trkpt><trkpt lat="44.012091147044835" lon="8.17724697626572"><ele>18.0</ele><time>2026-03-22T10:35:56Z</time></trkpt><trkpt lat="44.012167147798664" lon="8.177343185824618"><ele>18.0</ele><time>2026-03-22T10:35:57Z</time></trkpt><trkpt lat="44.012186031645484" lon="8.177533793862851"><ele>17.4</ele><time>2026-03-22T10:35:58Z</time></trkpt><trkpt lat="44.012319459304564" lon="8.177532781643203"><ele>16.8</ele><time>2026-03-22T10:35:59Z</time></trkpt><trkpt lat="44.012375365447504" lon="8.17760397895594"><ele>16.2</ele><time>2026-03-22T10:36:00Z</time></trkpt><trkpt lat="44.01237229923719" lon="8.177770567640614"><ele>15.6</ele><time>2026-03-22T10:36:01Z</time></trkpt><trkpt lat="44.01242659610946" lon="8.177840254263764"><ele>15.0</ele><time>2026-03-22T10:36:02Z</time></trkpt><trkpt lat="44.01247856581616" lon="8.177906953961106"><ele>15.333333333333334</ele><time>2026-03-22T10:36:03Z</time></trkpt><trkpt lat="44.0125472812993" lon="8.177995146259581"><ele>15.666666666666668</ele><time>2026-03-22T10:36:04Z</time></trkpt><trkpt lat="44.012612977311" lon="8.178072226040285"><ele>16.0</ele><time>2026-03-22T10:36:05Z</time></trkpt><trkpt lat="44.0126719327947" lon="8.17814192716013"><ele>16.333333333333336</ele><time>2026-03-22T10:36:06Z</time></trkpt><trkpt lat="44.01274566118271" lon="8.178228666509632"><ele>16.666666666666668</ele><time>2026-03-22T10:36:08Z</time></trkpt><trkpt lat="44.012806511639226" lon="8.178295036017047"><ele>17.0</ele><time>2026-03-22T10:36:09Z</time></trkpt><trkpt lat="44.012883230960036" lon="8.178374401883483"><ele>17.0</ele><time>2026-03-22T10:36:10Z</time></trkpt><trkpt lat="44.0129667419084" lon="8.17846379618665"><ele>17.0</ele><time>2026-03-22T10:36:11Z</time></trkpt><trkpt lat="44.01303279992784" lon="8.178537957585554"><ele>17.0</ele><time>2026-03-22T10:36:12Z</time></trkpt><trkpt lat="44.013105683892185" lon="8.178627195818947"><ele>17.0</ele><time>2026-03-22T10:36:14Z</time></trkpt><trkpt lat="44.01316373069653" lon="8.178702364038223"><ele>17.0</ele><time>2026-03-22T10:36:15Z</time></trkpt><trkpt lat="44.01324192553566" lon="8.178806217508734"><ele>17.4</ele><time>2026-03-22T10:36:16Z</time></trkpt><trkpt lat="44.013324468257856" lon="8.178910933930819"><ele>17.799999999999997</ele><time>2026-03-22T10:36:17Z</time></trkpt><trkpt lat="44.01340016407134" lon="8.179005586380255"><ele>18.2</ele><time>2026-03-22T10:36:18Z</time></trkpt><trkpt lat="44.013450837457874" lon="8.179071283722939"><ele>18.599999999999998</ele><time>2026-03-22T10:36:19Z</time></trkpt><trkpt lat="44.01350772830199" lon="8.17916131961502"><ele>19.0</ele><time>2026-03-22T10:36:21Z</time></trkpt><trkpt lat="44.01359849670826" lon="8.179264399847707"><ele>19.0</ele><time>2026-03-22T10:36:23Z</time></trkpt><trkpt lat="44.01365660684497" lon="8.179365937119345"><ele>19.0</ele><time>2026-03-22T10:36:24Z</time></trkpt><trkpt lat="44.01371616022689" lon="8.179493192638974"><ele>19.0</ele><time>2026-03-22T10:36:25Z</time></trkpt><trkpt lat="44.01377233868533" lon="8.17962722139728"><ele>19.0</ele><time>2026-03-22T10:36:26Z</time></trkpt><trkpt lat="44.013815214259736" lon="8.179743833809054"><ele>19.0</ele><time>2026-03-22T10:36:27Z</time></trkpt><trkpt lat="44.01386219936088" lon="8.179870539156692"><ele>17.666666666666664</ele><time>2026-03-22T10:36:28Z</time></trkpt><trkpt lat="44.01391558546292" lon="8.179983917891649"><ele>16.333333333333332</ele><time>2026-03-22T10:36:29Z</time></trkpt><trkpt lat="44.013953925902534" lon="8.18006060892908"><ele>15.0</ele><time>2026-03-22T10:36:30Z</time></trkpt><trkpt lat="44.01400792732353" lon="8.180176427041873"><ele>13.666666666666666</ele><time>2026-03-22T10:36:32Z</time></trkpt><trkpt lat="44.01405350725128" lon="8.180283750007638"><ele>12.333333333333332</ele><time>2026-03-22T10:36:34Z</time></trkpt><trkpt lat="44.014091146895574" lon="8.180381083165267"><ele>11.0</ele><time>2026-03-22T10:36:35Z</time></trkpt><trkpt lat="44.01413566616623" lon="8.180498124371235"><ele>12.8</ele><time>2026-03-22T10:36:36Z</time></trkpt><trkpt lat="44.01417234182847" lon="8.180589689480556"><ele>14.600000000000001</ele><time>2026-03-22T10:36:38Z</time></trkpt><trkpt lat="44.01433271100235" lon="8.18047314003948"><ele>16.4</ele><time>2026-03-22T10:36:43Z</time></trkpt><trkpt lat="44.01440764698594" lon="8.180406996052767"><ele>18.2</ele><time>2026-03-22T10:36:44Z</time></trkpt><trkpt lat="44.01448099321073" lon="8.180348963953058"><ele>20.0</ele><time>2026-03-22T10:36:45Z</time></trkpt><trkpt lat="44.01453765320526" lon="8.180301960604938"><ele>20.0</ele><time>2026-03-22T10:36:46Z</time></trkpt><trkpt lat="44.014603893283976" lon="8.18026772984118"><ele>20.0</ele><time>2026-03-22T10:36:48Z</time></trkpt><trkpt lat="44.01461216885383" lon="8.180457026791933"><ele>20.0</ele><time>2026-03-22T10:36:55Z</time></trkpt><trkpt lat="44.01467036635827" lon="8.180552322447834"><ele>20.0</ele><time>2026-03-22T10:36:56Z</time></trkpt><trkpt lat="44.01474536337222" lon="8.180675125983996"><ele>20.0</ele><time>2026-03-22T10:36:57Z</time></trkpt><trkpt lat="44.01483202350532" lon="8.180817762383793"><ele>18.0</ele><time>2026-03-22T10:36:58Z</time></trkpt><trkpt lat="44.014923424724046" lon="8.1809693399732"><ele>16.0</ele><time>2026-03-22T10:36:59Z</time></trkpt><trkpt lat="44.015023602198184" lon="8.181134449108496"><ele>14.0</ele><time>2026-03-22T10:37:00Z</time></trkpt><trkpt lat="44.01512345748058" lon="8.181297037564029"><ele>16.25</ele><time>2026-03-22T10:37:01Z</time></trkpt><trkpt lat="44.015207457417056" lon="8.181426010751215"><ele>18.5</ele><time>2026-03-22T10:37:02Z</time></trkpt><trkpt lat="44.01532117597317" lon="8.18146133069355"><ele>20.75</ele><time>2026-03-22T10:37:03Z</time></trkpt><trkpt lat="44.015378134083356" lon="8.181547053129712"><ele>23.0</ele><time>2026-03-22T10:37:04Z</time></trkpt><trkpt lat="44.01548342228923" lon="8.181655706767797"><ele>23.0</ele><time>2026-03-22T10:37:06Z</time></trkpt><trkpt lat="44.01553079900291" lon="8.1817805829162"><ele>23.0</ele><time>2026-03-22T10:37:08Z</time></trkpt><trkpt lat="44.01547540517505" lon="8.181879722357836"><ele>23.0</ele><time>2026-03-22T10:37:10Z</time></trkpt><trkpt lat="44.01541195824391" lon="8.18191219426723"><ele>23.0</ele><time>2026-03-22T10:37:11Z</time></trkpt><trkpt lat="44.015342741471834" lon="8.18191833922055"><ele>23.0</ele><time>2026-03-22T10:37:11.999Z</time></trkpt><trkpt lat="44.01526298961447" lon="8.18190002508445"><ele>23.0</ele><time>2026-03-22T10:37:12.999Z</time></trkpt><trkpt lat="44.01519380288734" lon="8.181891380269763"><ele>23.0</ele><time>2026-03-22T10:37:13.999Z</time></trkpt><trkpt lat="44.01510079985994" lon="8.18204905286381"><ele>23.0</ele><time>2026-03-22T10:37:15.999Z</time></trkpt><trkpt lat="44.01505505051742" lon="8.182179603111953"><ele>23.0</ele><time>2026-03-22T10:37:16.999Z</time></trkpt><trkpt lat="44.01501455420815" lon="8.18233611360237"><ele>23.0</ele><time>2026-03-22T10:37:17.999Z</time></trkpt><trkpt lat="44.01499150369187" lon="8.182453349062703"><ele>23.333333333333336</ele><time>2026-03-22T10:37:18.999Z</time></trkpt><trkpt lat="44.014932965185494" lon="8.182497206094045"><ele>23.666666666666668</ele><time>2026-03-22T10:37:19.999Z</time></trkpt><trkpt lat="44.01498988264147" lon="8.1825419259025"><ele>24.0</ele><time>2026-03-22T10:37:38.999Z</time></trkpt><trkpt lat="44.01499897276686" lon="8.18263301109711"><ele>24.333333333333336</ele><time>2026-03-22T10:37:39.999Z</time></trkpt><trkpt lat="44.01502762525074" lon="8.182768107354644"><ele>24.666666666666668</ele><time>2026-03-22T10:37:40.999Z</time></trkpt><trkpt lat="44.01507642749402" lon="8.182921225974946"><ele>25.0</ele><time>2026-03-22T10:37:41.999Z</time></trkpt><trkpt lat="44.01511218546418" lon="8.183061962981041"><ele>23.8</ele><time>2026-03-22T10:37:43Z</time></trkpt><trkpt lat="44.015145652349574" lon="8.183194957763524"><ele>22.6</ele><time>2026-03-22T10:37:45Z</time></trkpt><trkpt lat="44.01520350603177" lon="8.18330788771448"><ele>21.4</ele><time>2026-03-22T10:37:47Z</time></trkpt><trkpt lat="44.015254674941616" lon="8.183433799549992"><ele>20.2</ele><time>2026-03-22T10:37:48Z</time></trkpt><trkpt lat="44.01531508586862" lon="8.183578680173598"><ele>19.0</ele><time>2026-03-22T10:37:49Z</time></trkpt><trkpt lat="44.01540229618851" lon="8.183732046588586"><ele>19.0</ele><time>2026-03-22T10:37:50Z</time></trkpt><trkpt lat="44.0154511561449" lon="8.183952436440528"><ele>19.0</ele><time>2026-03-22T10:37:51Z</time></trkpt><trkpt lat="44.0155356149474" lon="8.184112619314902"><ele>19.0</ele><time>2026-03-22T10:37:52Z</time></trkpt><trkpt lat="44.01557859113472" lon="8.184247888559133"><ele>19.0</ele><time>2026-03-22T10:37:53Z</time></trkpt><trkpt lat="44.015589983593784" lon="8.184380860495859"><ele>16.0</ele><time>2026-03-22T10:37:54Z</time></trkpt><trkpt lat="44.015620941721295" lon="8.184559454321294"><ele>13.0</ele><time>2026-03-22T10:37:55Z</time></trkpt><trkpt lat="44.01566067295583" lon="8.184779759800508"><ele>10.0</ele><time>2026-03-22T10:37:56Z</time></trkpt><trkpt lat="44.01570234925465" lon="8.184991663037607"><ele>8.333333333333334</ele><time>2026-03-22T10:37:57Z</time></trkpt><trkpt lat="44.01574730443001" lon="8.185209591848391"><ele>6.666666666666667</ele><time>2026-03-22T10:37:58Z</time></trkpt><trkpt lat="44.01579299839207" lon="8.185412459037638"><ele>5.0</ele><time>2026-03-22T10:37:59Z</time></trkpt><trkpt lat="44.015851245715396" lon="8.185629087696801"><ele>10.25</ele><time>2026-03-22T10:38:00Z</time></trkpt><trkpt lat="44.01591232227027" lon="8.185841014708213"><ele>15.5</ele><time>2026-03-22T10:38:01Z</time></trkpt><trkpt lat="44.01596427913641" lon="8.18601782848815"><ele>20.75</ele><time>2026-03-22T10:38:02Z</time></trkpt><trkpt lat="44.0160008446824" lon="8.186165487763006"><ele>26.0</ele><time>2026-03-22T10:38:03Z</time></trkpt><trkpt lat="44.016022455703485" lon="8.186294756463564"><ele>25.999999999999996</ele><time>2026-03-22T10:38:04Z</time></trkpt><trkpt lat="44.01602005087986" lon="8.186405465492848"><ele>26.0</ele><time>2026-03-22T10:38:05Z</time></trkpt><trkpt lat="44.01600231862671" lon="8.186505983790175"><ele>26.0</ele><time>2026-03-22T10:38:07Z</time></trkpt><trkpt lat="44.01597778616689" lon="8.186613676427884"><ele>26.0</ele><time>2026-03-22T10:38:12Z</time></trkpt><trkpt lat="44.01591220847561" lon="8.186457280795624"><ele>25.999999999999996</ele><time>2026-03-22T10:38:22Z</time></trkpt><trkpt lat="44.015892044765465" lon="8.186347290245747"><ele>26.0</ele><time>2026-03-22T10:38:24Z</time></trkpt><trkpt lat="44.01587581297487" lon="8.186254946482878"><ele>26.0</ele><time>2026-03-22T10:38:26Z</time></trkpt><trkpt lat="44.015844232059976" lon="8.186131961624692"><ele>26.0</ele><time>2026-03-22T10:38:29Z</time></trkpt><trkpt lat="44.01584417161232" lon="8.186316687008405"><ele>26.0</ele><time>2026-03-22T10:38:34Z</time></trkpt><trkpt lat="44.01588523178419" lon="8.186458807532325"><ele>26.0</ele><time>2026-03-22T10:38:35Z</time></trkpt><trkpt lat="44.01591996067007" lon="8.186602140881684"><ele>26.0</ele><time>2026-03-22T10:38:36Z</time></trkpt><trkpt lat="44.015944263895356" lon="8.186701919897123"><ele>24.833333333333332</ele><time>2026-03-22T10:38:37Z</time></trkpt><trkpt lat="44.01600864360582" lon="8.186760591858597"><ele>23.666666666666664</ele><time>2026-03-22T10:38:39Z</time></trkpt><trkpt lat="44.01605212517694" lon="8.186665831168176"><ele>22.5</ele><time>2026-03-22T10:38:41Z</time></trkpt><trkpt lat="44.01605804962742" lon="8.186541705510638"><ele>21.333333333333332</ele><time>2026-03-22T10:38:43Z</time></trkpt><trkpt lat="44.01596654772006" lon="8.186579498671225"><ele>20.166666666666664</ele><time>2026-03-22T10:38:55Z</time></trkpt><trkpt lat="44.01593486533665" lon="8.186674297204831"><ele>19.0</ele><time>2026-03-22T10:39:01Z</time></trkpt><trkpt lat="44.01583958276428" lon="8.186634784652183"><ele>15.6</ele><time>2026-03-22T10:39:51.999Z</time></trkpt><trkpt lat="44.015668652216085" lon="8.186559234712991"><ele>12.2</ele><time>2026-03-22T10:39:53.999Z</time></trkpt><trkpt lat="44.01561041008072" lon="8.18641591276401"><ele>8.8</ele><time>2026-03-22T10:39:56Z</time></trkpt><trkpt lat="44.015622035755534" lon="8.186324384482136"><ele>5.4</ele><time>2026-03-22T10:39:57Z</time></trkpt><trkpt lat="44.01562454425069" lon="8.186224145737055"><ele>2.0</ele><time>2026-03-22T10:39:58Z</time></trkpt><trkpt lat="44.015624729345305" lon="8.18612864917928"><ele>1.9999999999999998</ele><time>2026-03-22T10:39:59Z</time></trkpt><trkpt lat="44.01562992125095" lon="8.186036328619213"><ele>2.0</ele><time>2026-03-22T10:40:00Z</time></trkpt><trkpt lat="44.01560131810153" lon="8.185935418999762"><ele>2.0</ele><time>2026-03-22T10:40:02Z</time></trkpt><trkpt lat="44.01552962427019" lon="8.185888474764669"><ele>2.0</ele><time>2026-03-22T10:40:08Z</time></trkpt><trkpt lat="44.01540354442541" lon="8.18589048608212"><ele>1.9999999999999998</ele><time>2026-03-22T10:40:12Z</time></trkpt><trkpt lat="44.015321401681476" lon="8.185888259867445"><ele>2.0</ele><time>2026-03-22T10:40:13Z</time></trkpt><trkpt lat="44.01520695901105" lon="8.185746231846526"><ele>1.3333333333333333</ele><time>2026-03-22T10:40:14.999Z</time></trkpt><trkpt lat="44.015125382257125" lon="8.18555606914857"><ele>0.6666666666666666</ele><time>2026-03-22T10:40:15.999Z</time></trkpt><trkpt lat="44.015048179001944" lon="8.18530768009046"><ele>0.0</ele><time>2026-03-22T10:40:16.999Z</time></trkpt><trkpt lat="44.0149760758522" lon="8.185019719498317"><ele>0.5</ele><time>2026-03-22T10:40:17.999Z</time></trkpt><trkpt lat="44.01488292807927" lon="8.18470487211743"><ele>1.0</ele><time>2026-03-22T10:40:18.999Z</time></trkpt><trkpt lat="44.014766904158414" lon="8.184395560737533"><ele>1.0</ele><time>2026-03-22T10:40:19.999Z</time></trkpt><trkpt lat="44.01464547730371" lon="8.184105436429626"><ele>1.0</ele><time>2026-03-22T10:40:20.999Z</time></trkpt><trkpt lat="44.01456034045787" lon="8.183883016034857"><ele>1.0</ele><time>2026-03-22T10:40:21.999Z</time></trkpt><trkpt lat="44.01449986618649" lon="8.183697594079206"><ele>2.0</ele><time>2026-03-22T10:40:22.999Z</time></trkpt><trkpt lat="44.01443785530068" lon="8.183511383283927"><ele>3.0</ele><time>2026-03-22T10:40:23.999Z</time></trkpt><trkpt lat="44.014380067545616" lon="8.183348095905911"><ele>4.0</ele><time>2026-03-22T10:40:24.999Z</time></trkpt><trkpt lat="44.014330262417815" lon="8.18322028571689"><ele>5.0</ele><time>2026-03-22T10:40:25.999Z</time></trkpt><trkpt lat="44.014290256214714" lon="8.183126279423329"><ele>11.0</ele><time>2026-03-22T10:40:26.999Z</time></trkpt><trkpt lat="44.01424469082148" lon="8.183033023834001"><ele>11.0</ele><time>2026-03-22T10:40:28.999Z</time></trkpt></trkseg></trk></gpx>